<?xml version="1.0" encoding="UTF-8" standalone="no" ?>
<gpx xmlns="http://www.topografix.com/GPX/1/1" xmlns:xsi="http://www.w3.org/2001/XMLSchema-instance" xsi:schemaLocation="http://www.topografix.com/GPX/1/1 http://www.topografix.com/GPX/1/1/gpx.xsd" version="1.1" creator="VisuGPX - https://www.visugpx.com">
  <metadata>
    <name>Laroque les Albert</name>
  </metadata>
  <trk>
    <name><![CDATA[Trace 1778750369000]]></name>
    <trkseg>
      <trkpt lat="42.49932" lon="2.93444">
        <ele>534</ele>
        <time>2026-05-14T09:19:29.000Z</time>
      </trkpt>
      <trkpt lat="42.49936" lon="2.93445">
        <ele>519</ele>
        <time>2026-05-14T09:19:30.000Z</time>
      </trkpt>
      <trkpt lat="42.49937" lon="2.93445">
        <ele>519</ele>
        <time>2026-05-14T09:19:31.000Z</time>
      </trkpt>
      <trkpt lat="42.49938" lon="2.93446">
        <ele>519</ele>
        <time>2026-05-14T09:19:32.000Z</time>
      </trkpt>
      <trkpt lat="42.49938" lon="2.93445">
        <ele>519</ele>
        <time>2026-05-14T09:19:33.000Z</time>
      </trkpt>
      <trkpt lat="42.49938" lon="2.93446">
        <ele>521</ele>
        <time>2026-05-14T09:19:34.000Z</time>
      </trkpt>
      <trkpt lat="42.49937" lon="2.93446">
        <ele>519</ele>
        <time>2026-05-14T09:19:35.000Z</time>
      </trkpt>
      <trkpt lat="42.49937" lon="2.93444">
        <ele>518</ele>
        <time>2026-05-14T09:19:36.000Z</time>
      </trkpt>
      <trkpt lat="42.49936" lon="2.93443">
        <ele>518</ele>
        <time>2026-05-14T09:19:37.000Z</time>
      </trkpt>
      <trkpt lat="42.49934" lon="2.93443">
        <ele>517</ele>
        <time>2026-05-14T09:19:38.000Z</time>
      </trkpt>
      <trkpt lat="42.49932" lon="2.93442">
        <ele>516</ele>
        <time>2026-05-14T09:19:39.000Z</time>
      </trkpt>
      <trkpt lat="42.4993" lon="2.9344">
        <ele>515</ele>
        <time>2026-05-14T09:19:40.000Z</time>
      </trkpt>
      <trkpt lat="42.49929" lon="2.93439">
        <ele>514</ele>
        <time>2026-05-14T09:19:41.000Z</time>
      </trkpt>
      <trkpt lat="42.49927" lon="2.93437">
        <ele>515</ele>
        <time>2026-05-14T09:19:42.000Z</time>
      </trkpt>
      <trkpt lat="42.49925" lon="2.93437">
        <ele>515</ele>
        <time>2026-05-14T09:19:43.000Z</time>
      </trkpt>
      <trkpt lat="42.49923" lon="2.93436">
        <ele>514</ele>
        <time>2026-05-14T09:19:44.000Z</time>
      </trkpt>
      <trkpt lat="42.49922" lon="2.93434">
        <ele>514</ele>
        <time>2026-05-14T09:19:45.000Z</time>
      </trkpt>
      <trkpt lat="42.49921" lon="2.93431">
        <ele>514</ele>
        <time>2026-05-14T09:19:46.000Z</time>
      </trkpt>
      <trkpt lat="42.49921" lon="2.93429">
        <ele>515</ele>
        <time>2026-05-14T09:19:47.000Z</time>
      </trkpt>
      <trkpt lat="42.49921" lon="2.93426">
        <ele>516</ele>
        <time>2026-05-14T09:19:48.000Z</time>
      </trkpt>
      <trkpt lat="42.49921" lon="2.93425">
        <ele>516</ele>
        <time>2026-05-14T09:19:49.000Z</time>
      </trkpt>
      <trkpt lat="42.49921" lon="2.93425">
        <ele>515</ele>
        <time>2026-05-14T09:19:50.000Z</time>
      </trkpt>
      <trkpt lat="42.49923" lon="2.93425">
        <ele>516</ele>
        <time>2026-05-14T09:19:51.000Z</time>
      </trkpt>
      <trkpt lat="42.49925" lon="2.93425">
        <ele>517</ele>
        <time>2026-05-14T09:19:52.000Z</time>
      </trkpt>
      <trkpt lat="42.49927" lon="2.93426">
        <ele>517</ele>
        <time>2026-05-14T09:19:53.000Z</time>
      </trkpt>
      <trkpt lat="42.49929" lon="2.93426">
        <ele>518</ele>
        <time>2026-05-14T09:19:54.000Z</time>
      </trkpt>
      <trkpt lat="42.4993" lon="2.93427">
        <ele>520</ele>
        <time>2026-05-14T09:19:55.000Z</time>
      </trkpt>
      <trkpt lat="42.49932" lon="2.93428">
        <ele>519</ele>
        <time>2026-05-14T09:19:56.000Z</time>
      </trkpt>
      <trkpt lat="42.49934" lon="2.93428">
        <ele>520</ele>
        <time>2026-05-14T09:19:57.000Z</time>
      </trkpt>
      <trkpt lat="42.49935" lon="2.93428">
        <ele>521</ele>
        <time>2026-05-14T09:19:58.000Z</time>
      </trkpt>
      <trkpt lat="42.49937" lon="2.93429">
        <ele>520</ele>
        <time>2026-05-14T09:19:59.000Z</time>
      </trkpt>
      <trkpt lat="42.49938" lon="2.93429">
        <ele>520</ele>
        <time>2026-05-14T09:20:00.000Z</time>
      </trkpt>
      <trkpt lat="42.4994" lon="2.93428">
        <ele>519</ele>
        <time>2026-05-14T09:20:01.000Z</time>
      </trkpt>
      <trkpt lat="42.49942" lon="2.93427">
        <ele>519</ele>
        <time>2026-05-14T09:20:02.000Z</time>
      </trkpt>
      <trkpt lat="42.49944" lon="2.93426">
        <ele>519</ele>
        <time>2026-05-14T09:20:03.000Z</time>
      </trkpt>
      <trkpt lat="42.49946" lon="2.93424">
        <ele>519</ele>
        <time>2026-05-14T09:20:04.000Z</time>
      </trkpt>
      <trkpt lat="42.49948" lon="2.93422">
        <ele>519</ele>
        <time>2026-05-14T09:20:05.000Z</time>
      </trkpt>
      <trkpt lat="42.4995" lon="2.9342">
        <ele>519</ele>
        <time>2026-05-14T09:20:06.000Z</time>
      </trkpt>
      <trkpt lat="42.49951" lon="2.93417">
        <ele>520</ele>
        <time>2026-05-14T09:20:07.000Z</time>
      </trkpt>
      <trkpt lat="42.49953" lon="2.93416">
        <ele>520</ele>
        <time>2026-05-14T09:20:08.000Z</time>
      </trkpt>
      <trkpt lat="42.49954" lon="2.93414">
        <ele>520</ele>
        <time>2026-05-14T09:20:09.000Z</time>
      </trkpt>
      <trkpt lat="42.49956" lon="2.93412">
        <ele>520</ele>
        <time>2026-05-14T09:20:10.000Z</time>
      </trkpt>
      <trkpt lat="42.49958" lon="2.93409">
        <ele>520</ele>
        <time>2026-05-14T09:20:11.000Z</time>
      </trkpt>
      <trkpt lat="42.49959" lon="2.93406">
        <ele>519</ele>
        <time>2026-05-14T09:20:12.000Z</time>
      </trkpt>
      <trkpt lat="42.49961" lon="2.93404">
        <ele>519</ele>
        <time>2026-05-14T09:20:13.000Z</time>
      </trkpt>
      <trkpt lat="42.49961" lon="2.93401">
        <ele>519</ele>
        <time>2026-05-14T09:20:14.000Z</time>
      </trkpt>
      <trkpt lat="42.49962" lon="2.93399">
        <ele>519</ele>
        <time>2026-05-14T09:20:15.000Z</time>
      </trkpt>
      <trkpt lat="42.49962" lon="2.93396">
        <ele>518</ele>
        <time>2026-05-14T09:20:16.000Z</time>
      </trkpt>
      <trkpt lat="42.49963" lon="2.93394">
        <ele>518</ele>
        <time>2026-05-14T09:20:17.000Z</time>
      </trkpt>
      <trkpt lat="42.49964" lon="2.93391">
        <ele>518</ele>
        <time>2026-05-14T09:20:18.000Z</time>
      </trkpt>
      <trkpt lat="42.49964" lon="2.93388">
        <ele>518</ele>
        <time>2026-05-14T09:20:19.000Z</time>
      </trkpt>
      <trkpt lat="42.49965" lon="2.93384">
        <ele>518</ele>
        <time>2026-05-14T09:20:20.000Z</time>
      </trkpt>
      <trkpt lat="42.49966" lon="2.93382">
        <ele>517</ele>
        <time>2026-05-14T09:20:21.000Z</time>
      </trkpt>
      <trkpt lat="42.49966" lon="2.93379">
        <ele>517</ele>
        <time>2026-05-14T09:20:22.000Z</time>
      </trkpt>
      <trkpt lat="42.49966" lon="2.93376">
        <ele>516</ele>
        <time>2026-05-14T09:20:23.000Z</time>
      </trkpt>
      <trkpt lat="42.49966" lon="2.93373">
        <ele>516</ele>
        <time>2026-05-14T09:20:24.000Z</time>
      </trkpt>
      <trkpt lat="42.49967" lon="2.9337">
        <ele>516</ele>
        <time>2026-05-14T09:20:25.000Z</time>
      </trkpt>
      <trkpt lat="42.49967" lon="2.93366">
        <ele>517</ele>
        <time>2026-05-14T09:20:26.000Z</time>
      </trkpt>
      <trkpt lat="42.49967" lon="2.93364">
        <ele>518</ele>
        <time>2026-05-14T09:20:27.000Z</time>
      </trkpt>
      <trkpt lat="42.49968" lon="2.93362">
        <ele>518</ele>
        <time>2026-05-14T09:20:28.000Z</time>
      </trkpt>
      <trkpt lat="42.49968" lon="2.93359">
        <ele>518</ele>
        <time>2026-05-14T09:20:29.000Z</time>
      </trkpt>
      <trkpt lat="42.49968" lon="2.93357">
        <ele>518</ele>
        <time>2026-05-14T09:20:30.000Z</time>
      </trkpt>
      <trkpt lat="42.49968" lon="2.93354">
        <ele>518</ele>
        <time>2026-05-14T09:20:31.000Z</time>
      </trkpt>
      <trkpt lat="42.49968" lon="2.93351">
        <ele>518</ele>
        <time>2026-05-14T09:20:32.000Z</time>
      </trkpt>
      <trkpt lat="42.49968" lon="2.93349">
        <ele>517</ele>
        <time>2026-05-14T09:20:33.000Z</time>
      </trkpt>
      <trkpt lat="42.49967" lon="2.93346">
        <ele>518</ele>
        <time>2026-05-14T09:20:34.000Z</time>
      </trkpt>
      <trkpt lat="42.49967" lon="2.93343">
        <ele>518</ele>
        <time>2026-05-14T09:20:35.000Z</time>
      </trkpt>
      <trkpt lat="42.49967" lon="2.9334">
        <ele>518</ele>
        <time>2026-05-14T09:20:36.000Z</time>
      </trkpt>
      <trkpt lat="42.49967" lon="2.93337">
        <ele>519</ele>
        <time>2026-05-14T09:20:37.000Z</time>
      </trkpt>
      <trkpt lat="42.49967" lon="2.93334">
        <ele>519</ele>
        <time>2026-05-14T09:20:38.000Z</time>
      </trkpt>
      <trkpt lat="42.49967" lon="2.93332">
        <ele>519</ele>
        <time>2026-05-14T09:20:39.000Z</time>
      </trkpt>
      <trkpt lat="42.49966" lon="2.93329">
        <ele>520</ele>
        <time>2026-05-14T09:20:40.000Z</time>
      </trkpt>
      <trkpt lat="42.49966" lon="2.93326">
        <ele>520</ele>
        <time>2026-05-14T09:20:41.000Z</time>
      </trkpt>
      <trkpt lat="42.49965" lon="2.93323">
        <ele>520</ele>
        <time>2026-05-14T09:20:42.000Z</time>
      </trkpt>
      <trkpt lat="42.49965" lon="2.9332">
        <ele>521</ele>
        <time>2026-05-14T09:20:43.000Z</time>
      </trkpt>
      <trkpt lat="42.49965" lon="2.93317">
        <ele>521</ele>
        <time>2026-05-14T09:20:44.000Z</time>
      </trkpt>
      <trkpt lat="42.49964" lon="2.93315">
        <ele>521</ele>
        <time>2026-05-14T09:20:45.000Z</time>
      </trkpt>
      <trkpt lat="42.49963" lon="2.93312">
        <ele>521</ele>
        <time>2026-05-14T09:20:46.000Z</time>
      </trkpt>
      <trkpt lat="42.49962" lon="2.93309">
        <ele>521</ele>
        <time>2026-05-14T09:20:47.000Z</time>
      </trkpt>
      <trkpt lat="42.49961" lon="2.93306">
        <ele>521</ele>
        <time>2026-05-14T09:20:48.000Z</time>
      </trkpt>
      <trkpt lat="42.49961" lon="2.93303">
        <ele>521</ele>
        <time>2026-05-14T09:20:49.000Z</time>
      </trkpt>
      <trkpt lat="42.4996" lon="2.933">
        <ele>521</ele>
        <time>2026-05-14T09:20:50.000Z</time>
      </trkpt>
      <trkpt lat="42.49959" lon="2.93297">
        <ele>521</ele>
        <time>2026-05-14T09:20:51.000Z</time>
      </trkpt>
      <trkpt lat="42.49958" lon="2.93294">
        <ele>521</ele>
        <time>2026-05-14T09:20:52.000Z</time>
      </trkpt>
      <trkpt lat="42.49957" lon="2.93292">
        <ele>521</ele>
        <time>2026-05-14T09:20:53.000Z</time>
      </trkpt>
      <trkpt lat="42.49956" lon="2.93291">
        <ele>520</ele>
        <time>2026-05-14T09:20:54.000Z</time>
      </trkpt>
      <trkpt lat="42.49955" lon="2.93289">
        <ele>520</ele>
        <time>2026-05-14T09:20:55.000Z</time>
      </trkpt>
      <trkpt lat="42.49954" lon="2.93286">
        <ele>521</ele>
        <time>2026-05-14T09:20:56.000Z</time>
      </trkpt>
      <trkpt lat="42.49952" lon="2.93284">
        <ele>521</ele>
        <time>2026-05-14T09:20:57.000Z</time>
      </trkpt>
      <trkpt lat="42.49952" lon="2.93281">
        <ele>522</ele>
        <time>2026-05-14T09:20:58.000Z</time>
      </trkpt>
      <trkpt lat="42.4995" lon="2.93279">
        <ele>522</ele>
        <time>2026-05-14T09:20:59.000Z</time>
      </trkpt>
      <trkpt lat="42.49949" lon="2.93276">
        <ele>521</ele>
        <time>2026-05-14T09:21:00.000Z</time>
      </trkpt>
      <trkpt lat="42.49948" lon="2.93273">
        <ele>522</ele>
        <time>2026-05-14T09:21:01.000Z</time>
      </trkpt>
      <trkpt lat="42.49947" lon="2.93271">
        <ele>522</ele>
        <time>2026-05-14T09:21:02.000Z</time>
      </trkpt>
      <trkpt lat="42.49945" lon="2.93268">
        <ele>521</ele>
        <time>2026-05-14T09:21:03.000Z</time>
      </trkpt>
      <trkpt lat="42.49944" lon="2.93266">
        <ele>521</ele>
        <time>2026-05-14T09:21:04.000Z</time>
      </trkpt>
      <trkpt lat="42.49943" lon="2.93264">
        <ele>521</ele>
        <time>2026-05-14T09:21:05.000Z</time>
      </trkpt>
      <trkpt lat="42.49942" lon="2.93261">
        <ele>521</ele>
        <time>2026-05-14T09:21:06.000Z</time>
      </trkpt>
      <trkpt lat="42.49941" lon="2.9326">
        <ele>520</ele>
        <time>2026-05-14T09:21:07.000Z</time>
      </trkpt>
      <trkpt lat="42.49939" lon="2.93257">
        <ele>520</ele>
        <time>2026-05-14T09:21:08.000Z</time>
      </trkpt>
      <trkpt lat="42.49937" lon="2.93255">
        <ele>520</ele>
        <time>2026-05-14T09:21:09.000Z</time>
      </trkpt>
      <trkpt lat="42.49937" lon="2.93253">
        <ele>520</ele>
        <time>2026-05-14T09:21:10.000Z</time>
      </trkpt>
      <trkpt lat="42.49935" lon="2.93251">
        <ele>520</ele>
        <time>2026-05-14T09:21:11.000Z</time>
      </trkpt>
      <trkpt lat="42.49934" lon="2.93249">
        <ele>521</ele>
        <time>2026-05-14T09:21:12.000Z</time>
      </trkpt>
      <trkpt lat="42.49933" lon="2.93246">
        <ele>521</ele>
        <time>2026-05-14T09:21:13.000Z</time>
      </trkpt>
      <trkpt lat="42.49931" lon="2.93244">
        <ele>521</ele>
        <time>2026-05-14T09:21:14.000Z</time>
      </trkpt>
      <trkpt lat="42.4993" lon="2.93243">
        <ele>522</ele>
        <time>2026-05-14T09:21:15.000Z</time>
      </trkpt>
      <trkpt lat="42.49928" lon="2.93241">
        <ele>522</ele>
        <time>2026-05-14T09:21:16.000Z</time>
      </trkpt>
      <trkpt lat="42.49926" lon="2.93238">
        <ele>523</ele>
        <time>2026-05-14T09:21:17.000Z</time>
      </trkpt>
      <trkpt lat="42.49924" lon="2.93236">
        <ele>522</ele>
        <time>2026-05-14T09:21:18.000Z</time>
      </trkpt>
      <trkpt lat="42.49922" lon="2.93236">
        <ele>522</ele>
        <time>2026-05-14T09:21:19.000Z</time>
      </trkpt>
      <trkpt lat="42.4992" lon="2.93234">
        <ele>523</ele>
        <time>2026-05-14T09:21:20.000Z</time>
      </trkpt>
      <trkpt lat="42.49918" lon="2.93233">
        <ele>523</ele>
        <time>2026-05-14T09:21:21.000Z</time>
      </trkpt>
      <trkpt lat="42.49917" lon="2.93231">
        <ele>523</ele>
        <time>2026-05-14T09:21:22.000Z</time>
      </trkpt>
      <trkpt lat="42.49915" lon="2.9323">
        <ele>524</ele>
        <time>2026-05-14T09:21:23.000Z</time>
      </trkpt>
      <trkpt lat="42.49912" lon="2.93225">
        <ele>524</ele>
        <time>2026-05-14T09:21:25.000Z</time>
      </trkpt>
      <trkpt lat="42.4991" lon="2.93223">
        <ele>524</ele>
        <time>2026-05-14T09:21:26.000Z</time>
      </trkpt>
      <trkpt lat="42.49907" lon="2.93221">
        <ele>524</ele>
        <time>2026-05-14T09:21:27.000Z</time>
      </trkpt>
      <trkpt lat="42.49905" lon="2.9322">
        <ele>524</ele>
        <time>2026-05-14T09:21:28.000Z</time>
      </trkpt>
      <trkpt lat="42.49903" lon="2.93218">
        <ele>524</ele>
        <time>2026-05-14T09:21:29.000Z</time>
      </trkpt>
      <trkpt lat="42.49901" lon="2.93216">
        <ele>524</ele>
        <time>2026-05-14T09:21:30.000Z</time>
      </trkpt>
      <trkpt lat="42.499" lon="2.93215">
        <ele>523</ele>
        <time>2026-05-14T09:21:31.000Z</time>
      </trkpt>
      <trkpt lat="42.49899" lon="2.93213">
        <ele>524</ele>
        <time>2026-05-14T09:21:32.000Z</time>
      </trkpt>
      <trkpt lat="42.49899" lon="2.93211">
        <ele>524</ele>
        <time>2026-05-14T09:21:33.000Z</time>
      </trkpt>
      <trkpt lat="42.49899" lon="2.93209">
        <ele>524</ele>
        <time>2026-05-14T09:21:34.000Z</time>
      </trkpt>
      <trkpt lat="42.49898" lon="2.93207">
        <ele>524</ele>
        <time>2026-05-14T09:21:35.000Z</time>
      </trkpt>
      <trkpt lat="42.49899" lon="2.93205">
        <ele>524</ele>
        <time>2026-05-14T09:21:36.000Z</time>
      </trkpt>
      <trkpt lat="42.49899" lon="2.93204">
        <ele>524</ele>
        <time>2026-05-14T09:21:37.000Z</time>
      </trkpt>
      <trkpt lat="42.49899" lon="2.93203">
        <ele>524</ele>
        <time>2026-05-14T09:21:38.000Z</time>
      </trkpt>
      <trkpt lat="42.499" lon="2.93201">
        <ele>524</ele>
        <time>2026-05-14T09:21:39.000Z</time>
      </trkpt>
      <trkpt lat="42.49901" lon="2.932">
        <ele>524</ele>
        <time>2026-05-14T09:21:40.000Z</time>
      </trkpt>
      <trkpt lat="42.49902" lon="2.93198">
        <ele>524</ele>
        <time>2026-05-14T09:21:41.000Z</time>
      </trkpt>
      <trkpt lat="42.49903" lon="2.93197">
        <ele>524</ele>
        <time>2026-05-14T09:21:42.000Z</time>
      </trkpt>
      <trkpt lat="42.49904" lon="2.93195">
        <ele>524</ele>
        <time>2026-05-14T09:21:43.000Z</time>
      </trkpt>
      <trkpt lat="42.49905" lon="2.93194">
        <ele>524</ele>
        <time>2026-05-14T09:21:44.000Z</time>
      </trkpt>
      <trkpt lat="42.49907" lon="2.93192">
        <ele>524</ele>
        <time>2026-05-14T09:21:45.000Z</time>
      </trkpt>
      <trkpt lat="42.49908" lon="2.93191">
        <ele>524</ele>
        <time>2026-05-14T09:21:46.000Z</time>
      </trkpt>
      <trkpt lat="42.4991" lon="2.93189">
        <ele>524</ele>
        <time>2026-05-14T09:21:47.000Z</time>
      </trkpt>
      <trkpt lat="42.49911" lon="2.93187">
        <ele>525</ele>
        <time>2026-05-14T09:21:48.000Z</time>
      </trkpt>
      <trkpt lat="42.49912" lon="2.93185">
        <ele>524</ele>
        <time>2026-05-14T09:21:49.000Z</time>
      </trkpt>
      <trkpt lat="42.49914" lon="2.93182">
        <ele>524</ele>
        <time>2026-05-14T09:21:50.000Z</time>
      </trkpt>
      <trkpt lat="42.49916" lon="2.93179">
        <ele>525</ele>
        <time>2026-05-14T09:21:51.000Z</time>
      </trkpt>
      <trkpt lat="42.49917" lon="2.93176">
        <ele>525</ele>
        <time>2026-05-14T09:21:52.000Z</time>
      </trkpt>
      <trkpt lat="42.49918" lon="2.93172">
        <ele>525</ele>
        <time>2026-05-14T09:21:53.000Z</time>
      </trkpt>
      <trkpt lat="42.49919" lon="2.93168">
        <ele>525</ele>
        <time>2026-05-14T09:21:54.000Z</time>
      </trkpt>
      <trkpt lat="42.49919" lon="2.93165">
        <ele>524</ele>
        <time>2026-05-14T09:21:55.000Z</time>
      </trkpt>
      <trkpt lat="42.4992" lon="2.93161">
        <ele>524</ele>
        <time>2026-05-14T09:21:56.000Z</time>
      </trkpt>
      <trkpt lat="42.49919" lon="2.93158">
        <ele>524</ele>
        <time>2026-05-14T09:21:57.000Z</time>
      </trkpt>
      <trkpt lat="42.49919" lon="2.93154">
        <ele>525</ele>
        <time>2026-05-14T09:21:58.000Z</time>
      </trkpt>
      <trkpt lat="42.49919" lon="2.9315">
        <ele>525</ele>
        <time>2026-05-14T09:21:59.000Z</time>
      </trkpt>
      <trkpt lat="42.4992" lon="2.93146">
        <ele>526</ele>
        <time>2026-05-14T09:22:00.000Z</time>
      </trkpt>
      <trkpt lat="42.49921" lon="2.93142">
        <ele>526</ele>
        <time>2026-05-14T09:22:01.000Z</time>
      </trkpt>
      <trkpt lat="42.49921" lon="2.93138">
        <ele>526</ele>
        <time>2026-05-14T09:22:02.000Z</time>
      </trkpt>
      <trkpt lat="42.49922" lon="2.93134">
        <ele>526</ele>
        <time>2026-05-14T09:22:03.000Z</time>
      </trkpt>
      <trkpt lat="42.49923" lon="2.9313">
        <ele>526</ele>
        <time>2026-05-14T09:22:04.000Z</time>
      </trkpt>
      <trkpt lat="42.49924" lon="2.93127">
        <ele>526</ele>
        <time>2026-05-14T09:22:05.000Z</time>
      </trkpt>
      <trkpt lat="42.49925" lon="2.93123">
        <ele>526</ele>
        <time>2026-05-14T09:22:06.000Z</time>
      </trkpt>
      <trkpt lat="42.49926" lon="2.9312">
        <ele>526</ele>
        <time>2026-05-14T09:22:07.000Z</time>
      </trkpt>
      <trkpt lat="42.49928" lon="2.93117">
        <ele>526</ele>
        <time>2026-05-14T09:22:08.000Z</time>
      </trkpt>
      <trkpt lat="42.4993" lon="2.93114">
        <ele>526</ele>
        <time>2026-05-14T09:22:09.000Z</time>
      </trkpt>
      <trkpt lat="42.49932" lon="2.93111">
        <ele>526</ele>
        <time>2026-05-14T09:22:10.000Z</time>
      </trkpt>
      <trkpt lat="42.49934" lon="2.93109">
        <ele>526</ele>
        <time>2026-05-14T09:22:11.000Z</time>
      </trkpt>
      <trkpt lat="42.49935" lon="2.93108">
        <ele>526</ele>
        <time>2026-05-14T09:22:12.000Z</time>
      </trkpt>
      <trkpt lat="42.49937" lon="2.93106">
        <ele>526</ele>
        <time>2026-05-14T09:22:13.000Z</time>
      </trkpt>
      <trkpt lat="42.49939" lon="2.93104">
        <ele>526</ele>
        <time>2026-05-14T09:22:14.000Z</time>
      </trkpt>
      <trkpt lat="42.49941" lon="2.93102">
        <ele>525</ele>
        <time>2026-05-14T09:22:15.000Z</time>
      </trkpt>
      <trkpt lat="42.49942" lon="2.93099">
        <ele>525</ele>
        <time>2026-05-14T09:22:16.000Z</time>
      </trkpt>
      <trkpt lat="42.49943" lon="2.93097">
        <ele>525</ele>
        <time>2026-05-14T09:22:17.000Z</time>
      </trkpt>
      <trkpt lat="42.49945" lon="2.93096">
        <ele>525</ele>
        <time>2026-05-14T09:22:18.000Z</time>
      </trkpt>
      <trkpt lat="42.49946" lon="2.93094">
        <ele>525</ele>
        <time>2026-05-14T09:22:19.000Z</time>
      </trkpt>
      <trkpt lat="42.49948" lon="2.93092">
        <ele>526</ele>
        <time>2026-05-14T09:22:20.000Z</time>
      </trkpt>
      <trkpt lat="42.49948" lon="2.93089">
        <ele>526</ele>
        <time>2026-05-14T09:22:21.000Z</time>
      </trkpt>
      <trkpt lat="42.49949" lon="2.93086">
        <ele>526</ele>
        <time>2026-05-14T09:22:22.000Z</time>
      </trkpt>
      <trkpt lat="42.49951" lon="2.93084">
        <ele>526</ele>
        <time>2026-05-14T09:22:23.000Z</time>
      </trkpt>
      <trkpt lat="42.49951" lon="2.93082">
        <ele>526</ele>
        <time>2026-05-14T09:22:24.000Z</time>
      </trkpt>
      <trkpt lat="42.49952" lon="2.93079">
        <ele>526</ele>
        <time>2026-05-14T09:22:25.000Z</time>
      </trkpt>
      <trkpt lat="42.49953" lon="2.93076">
        <ele>526</ele>
        <time>2026-05-14T09:22:26.000Z</time>
      </trkpt>
      <trkpt lat="42.49954" lon="2.93073">
        <ele>526</ele>
        <time>2026-05-14T09:22:27.000Z</time>
      </trkpt>
      <trkpt lat="42.49956" lon="2.9307">
        <ele>526</ele>
        <time>2026-05-14T09:22:28.000Z</time>
      </trkpt>
      <trkpt lat="42.49957" lon="2.93067">
        <ele>526</ele>
        <time>2026-05-14T09:22:29.000Z</time>
      </trkpt>
      <trkpt lat="42.49958" lon="2.93064">
        <ele>526</ele>
        <time>2026-05-14T09:22:30.000Z</time>
      </trkpt>
      <trkpt lat="42.49959" lon="2.93061">
        <ele>527</ele>
        <time>2026-05-14T09:22:31.000Z</time>
      </trkpt>
      <trkpt lat="42.4996" lon="2.93058">
        <ele>526</ele>
        <time>2026-05-14T09:22:32.000Z</time>
      </trkpt>
      <trkpt lat="42.49961" lon="2.93055">
        <ele>527</ele>
        <time>2026-05-14T09:22:33.000Z</time>
      </trkpt>
      <trkpt lat="42.49962" lon="2.93051">
        <ele>527</ele>
        <time>2026-05-14T09:22:34.000Z</time>
      </trkpt>
      <trkpt lat="42.49963" lon="2.93048">
        <ele>526</ele>
        <time>2026-05-14T09:22:35.000Z</time>
      </trkpt>
      <trkpt lat="42.49964" lon="2.93045">
        <ele>526</ele>
        <time>2026-05-14T09:22:36.000Z</time>
      </trkpt>
      <trkpt lat="42.49964" lon="2.93042">
        <ele>527</ele>
        <time>2026-05-14T09:22:37.000Z</time>
      </trkpt>
      <trkpt lat="42.49965" lon="2.93038">
        <ele>527</ele>
        <time>2026-05-14T09:22:38.000Z</time>
      </trkpt>
      <trkpt lat="42.49965" lon="2.93035">
        <ele>527</ele>
        <time>2026-05-14T09:22:39.000Z</time>
      </trkpt>
      <trkpt lat="42.49966" lon="2.93033">
        <ele>527</ele>
        <time>2026-05-14T09:22:40.000Z</time>
      </trkpt>
      <trkpt lat="42.49966" lon="2.93029">
        <ele>528</ele>
        <time>2026-05-14T09:22:41.000Z</time>
      </trkpt>
      <trkpt lat="42.49966" lon="2.93026">
        <ele>528</ele>
        <time>2026-05-14T09:22:42.000Z</time>
      </trkpt>
      <trkpt lat="42.49966" lon="2.93023">
        <ele>528</ele>
        <time>2026-05-14T09:22:43.000Z</time>
      </trkpt>
      <trkpt lat="42.49965" lon="2.9302">
        <ele>527</ele>
        <time>2026-05-14T09:22:44.000Z</time>
      </trkpt>
      <trkpt lat="42.49966" lon="2.93016">
        <ele>528</ele>
        <time>2026-05-14T09:22:45.000Z</time>
      </trkpt>
      <trkpt lat="42.49965" lon="2.93013">
        <ele>527</ele>
        <time>2026-05-14T09:22:46.000Z</time>
      </trkpt>
      <trkpt lat="42.49965" lon="2.9301">
        <ele>528</ele>
        <time>2026-05-14T09:22:47.000Z</time>
      </trkpt>
      <trkpt lat="42.49965" lon="2.93007">
        <ele>528</ele>
        <time>2026-05-14T09:22:48.000Z</time>
      </trkpt>
      <trkpt lat="42.49964" lon="2.93004">
        <ele>528</ele>
        <time>2026-05-14T09:22:49.000Z</time>
      </trkpt>
      <trkpt lat="42.49962" lon="2.93002">
        <ele>527</ele>
        <time>2026-05-14T09:22:50.000Z</time>
      </trkpt>
      <trkpt lat="42.49961" lon="2.92999">
        <ele>528</ele>
        <time>2026-05-14T09:22:51.000Z</time>
      </trkpt>
      <trkpt lat="42.4996" lon="2.92997">
        <ele>527</ele>
        <time>2026-05-14T09:22:52.000Z</time>
      </trkpt>
      <trkpt lat="42.49958" lon="2.92996">
        <ele>528</ele>
        <time>2026-05-14T09:22:53.000Z</time>
      </trkpt>
      <trkpt lat="42.49956" lon="2.92995">
        <ele>528</ele>
        <time>2026-05-14T09:22:54.000Z</time>
      </trkpt>
      <trkpt lat="42.49954" lon="2.92994">
        <ele>528</ele>
        <time>2026-05-14T09:22:55.000Z</time>
      </trkpt>
      <trkpt lat="42.49952" lon="2.92992">
        <ele>528</ele>
        <time>2026-05-14T09:22:56.000Z</time>
      </trkpt>
      <trkpt lat="42.4995" lon="2.92991">
        <ele>529</ele>
        <time>2026-05-14T09:22:57.000Z</time>
      </trkpt>
      <trkpt lat="42.49948" lon="2.9299">
        <ele>529</ele>
        <time>2026-05-14T09:22:58.000Z</time>
      </trkpt>
      <trkpt lat="42.49945" lon="2.92988">
        <ele>529</ele>
        <time>2026-05-14T09:22:59.000Z</time>
      </trkpt>
      <trkpt lat="42.49943" lon="2.92987">
        <ele>530</ele>
        <time>2026-05-14T09:23:00.000Z</time>
      </trkpt>
      <trkpt lat="42.49941" lon="2.92986">
        <ele>530</ele>
        <time>2026-05-14T09:23:01.000Z</time>
      </trkpt>
      <trkpt lat="42.49939" lon="2.92985">
        <ele>531</ele>
        <time>2026-05-14T09:23:02.000Z</time>
      </trkpt>
      <trkpt lat="42.49936" lon="2.92984">
        <ele>531</ele>
        <time>2026-05-14T09:23:03.000Z</time>
      </trkpt>
      <trkpt lat="42.49934" lon="2.92984">
        <ele>531</ele>
        <time>2026-05-14T09:23:04.000Z</time>
      </trkpt>
      <trkpt lat="42.49933" lon="2.92983">
        <ele>532</ele>
        <time>2026-05-14T09:23:05.000Z</time>
      </trkpt>
      <trkpt lat="42.49931" lon="2.92983">
        <ele>532</ele>
        <time>2026-05-14T09:23:06.000Z</time>
      </trkpt>
      <trkpt lat="42.49929" lon="2.92982">
        <ele>532</ele>
        <time>2026-05-14T09:23:07.000Z</time>
      </trkpt>
      <trkpt lat="42.49929" lon="2.92982">
        <ele>532</ele>
        <time>2026-05-14T09:23:08.000Z</time>
      </trkpt>
      <trkpt lat="42.49927" lon="2.92981">
        <ele>532</ele>
        <time>2026-05-14T09:23:09.000Z</time>
      </trkpt>
      <trkpt lat="42.49926" lon="2.9298">
        <ele>533</ele>
        <time>2026-05-14T09:23:10.000Z</time>
      </trkpt>
      <trkpt lat="42.49925" lon="2.92978">
        <ele>533</ele>
        <time>2026-05-14T09:23:11.000Z</time>
      </trkpt>
      <trkpt lat="42.49925" lon="2.92976">
        <ele>533</ele>
        <time>2026-05-14T09:23:12.000Z</time>
      </trkpt>
      <trkpt lat="42.49924" lon="2.92975">
        <ele>534</ele>
        <time>2026-05-14T09:23:13.000Z</time>
      </trkpt>
      <trkpt lat="42.49922" lon="2.92973">
        <ele>534</ele>
        <time>2026-05-14T09:23:14.000Z</time>
      </trkpt>
      <trkpt lat="42.49922" lon="2.92972">
        <ele>534</ele>
        <time>2026-05-14T09:23:15.000Z</time>
      </trkpt>
      <trkpt lat="42.4992" lon="2.92971">
        <ele>534</ele>
        <time>2026-05-14T09:23:16.000Z</time>
      </trkpt>
      <trkpt lat="42.49919" lon="2.92971">
        <ele>535</ele>
        <time>2026-05-14T09:23:17.000Z</time>
      </trkpt>
      <trkpt lat="42.49918" lon="2.92971">
        <ele>536</ele>
        <time>2026-05-14T09:23:18.000Z</time>
      </trkpt>
      <trkpt lat="42.49917" lon="2.92972">
        <ele>536</ele>
        <time>2026-05-14T09:23:19.000Z</time>
      </trkpt>
      <trkpt lat="42.49916" lon="2.92973">
        <ele>537</ele>
        <time>2026-05-14T09:23:20.000Z</time>
      </trkpt>
      <trkpt lat="42.49916" lon="2.92973">
        <ele>536</ele>
        <time>2026-05-14T09:23:21.000Z</time>
      </trkpt>
      <trkpt lat="42.49916" lon="2.92973">
        <ele>537</ele>
        <time>2026-05-14T09:23:22.000Z</time>
      </trkpt>
      <trkpt lat="42.49916" lon="2.92973">
        <ele>536</ele>
        <time>2026-05-14T09:23:23.000Z</time>
      </trkpt>
      <trkpt lat="42.49915" lon="2.92973">
        <ele>537</ele>
        <time>2026-05-14T09:23:24.000Z</time>
      </trkpt>
      <trkpt lat="42.49915" lon="2.92973">
        <ele>537</ele>
        <time>2026-05-14T09:23:25.000Z</time>
      </trkpt>
      <trkpt lat="42.49915" lon="2.92973">
        <ele>537</ele>
        <time>2026-05-14T09:23:26.000Z</time>
      </trkpt>
      <trkpt lat="42.49915" lon="2.92973">
        <ele>537</ele>
        <time>2026-05-14T09:23:27.000Z</time>
      </trkpt>
      <trkpt lat="42.49916" lon="2.92972">
        <ele>537</ele>
        <time>2026-05-14T09:23:28.000Z</time>
      </trkpt>
      <trkpt lat="42.49916" lon="2.9297">
        <ele>536</ele>
        <time>2026-05-14T09:23:29.000Z</time>
      </trkpt>
      <trkpt lat="42.49917" lon="2.92969">
        <ele>536</ele>
        <time>2026-05-14T09:23:30.000Z</time>
      </trkpt>
      <trkpt lat="42.49917" lon="2.92967">
        <ele>535</ele>
        <time>2026-05-14T09:23:31.000Z</time>
      </trkpt>
      <trkpt lat="42.49917" lon="2.92966">
        <ele>536</ele>
        <time>2026-05-14T09:23:32.000Z</time>
      </trkpt>
      <trkpt lat="42.49917" lon="2.92965">
        <ele>536</ele>
        <time>2026-05-14T09:23:33.000Z</time>
      </trkpt>
      <trkpt lat="42.49916" lon="2.92964">
        <ele>536</ele>
        <time>2026-05-14T09:23:34.000Z</time>
      </trkpt>
      <trkpt lat="42.49916" lon="2.92963">
        <ele>536</ele>
        <time>2026-05-14T09:23:35.000Z</time>
      </trkpt>
      <trkpt lat="42.49915" lon="2.92961">
        <ele>536</ele>
        <time>2026-05-14T09:23:36.000Z</time>
      </trkpt>
      <trkpt lat="42.49915" lon="2.9296">
        <ele>535</ele>
        <time>2026-05-14T09:23:37.000Z</time>
      </trkpt>
      <trkpt lat="42.49915" lon="2.92958">
        <ele>536</ele>
        <time>2026-05-14T09:23:38.000Z</time>
      </trkpt>
      <trkpt lat="42.49915" lon="2.92957">
        <ele>535</ele>
        <time>2026-05-14T09:23:39.000Z</time>
      </trkpt>
      <trkpt lat="42.49915" lon="2.92954">
        <ele>535</ele>
        <time>2026-05-14T09:23:40.000Z</time>
      </trkpt>
      <trkpt lat="42.49914" lon="2.92952">
        <ele>536</ele>
        <time>2026-05-14T09:23:41.000Z</time>
      </trkpt>
      <trkpt lat="42.49914" lon="2.9295">
        <ele>536</ele>
        <time>2026-05-14T09:23:42.000Z</time>
      </trkpt>
      <trkpt lat="42.49913" lon="2.92949">
        <ele>536</ele>
        <time>2026-05-14T09:23:43.000Z</time>
      </trkpt>
      <trkpt lat="42.49912" lon="2.92948">
        <ele>536</ele>
        <time>2026-05-14T09:23:44.000Z</time>
      </trkpt>
      <trkpt lat="42.49912" lon="2.92945">
        <ele>536</ele>
        <time>2026-05-14T09:23:45.000Z</time>
      </trkpt>
      <trkpt lat="42.49911" lon="2.92943">
        <ele>536</ele>
        <time>2026-05-14T09:23:46.000Z</time>
      </trkpt>
      <trkpt lat="42.49909" lon="2.9294">
        <ele>536</ele>
        <time>2026-05-14T09:23:47.000Z</time>
      </trkpt>
      <trkpt lat="42.49908" lon="2.92938">
        <ele>536</ele>
        <time>2026-05-14T09:23:48.000Z</time>
      </trkpt>
      <trkpt lat="42.49907" lon="2.92936">
        <ele>536</ele>
        <time>2026-05-14T09:23:49.000Z</time>
      </trkpt>
      <trkpt lat="42.49906" lon="2.92934">
        <ele>536</ele>
        <time>2026-05-14T09:23:50.000Z</time>
      </trkpt>
      <trkpt lat="42.49905" lon="2.92932">
        <ele>536</ele>
        <time>2026-05-14T09:23:51.000Z</time>
      </trkpt>
      <trkpt lat="42.49905" lon="2.92929">
        <ele>537</ele>
        <time>2026-05-14T09:23:52.000Z</time>
      </trkpt>
      <trkpt lat="42.49903" lon="2.92927">
        <ele>536</ele>
        <time>2026-05-14T09:23:53.000Z</time>
      </trkpt>
      <trkpt lat="42.49902" lon="2.92924">
        <ele>536</ele>
        <time>2026-05-14T09:23:54.000Z</time>
      </trkpt>
      <trkpt lat="42.49902" lon="2.92921">
        <ele>537</ele>
        <time>2026-05-14T09:23:55.000Z</time>
      </trkpt>
      <trkpt lat="42.49901" lon="2.92918">
        <ele>537</ele>
        <time>2026-05-14T09:23:56.000Z</time>
      </trkpt>
      <trkpt lat="42.49901" lon="2.92915">
        <ele>537</ele>
        <time>2026-05-14T09:23:57.000Z</time>
      </trkpt>
      <trkpt lat="42.49901" lon="2.92912">
        <ele>538</ele>
        <time>2026-05-14T09:23:58.000Z</time>
      </trkpt>
      <trkpt lat="42.499" lon="2.92909">
        <ele>538</ele>
        <time>2026-05-14T09:23:59.000Z</time>
      </trkpt>
      <trkpt lat="42.499" lon="2.92906">
        <ele>538</ele>
        <time>2026-05-14T09:24:00.000Z</time>
      </trkpt>
      <trkpt lat="42.499" lon="2.92902">
        <ele>539</ele>
        <time>2026-05-14T09:24:01.000Z</time>
      </trkpt>
      <trkpt lat="42.499" lon="2.92898">
        <ele>539</ele>
        <time>2026-05-14T09:24:02.000Z</time>
      </trkpt>
      <trkpt lat="42.49901" lon="2.92894">
        <ele>539</ele>
        <time>2026-05-14T09:24:03.000Z</time>
      </trkpt>
      <trkpt lat="42.499" lon="2.9289">
        <ele>539</ele>
        <time>2026-05-14T09:24:04.000Z</time>
      </trkpt>
      <trkpt lat="42.49899" lon="2.92886">
        <ele>540</ele>
        <time>2026-05-14T09:24:05.000Z</time>
      </trkpt>
      <trkpt lat="42.49897" lon="2.92882">
        <ele>540</ele>
        <time>2026-05-14T09:24:06.000Z</time>
      </trkpt>
      <trkpt lat="42.49895" lon="2.92879">
        <ele>539</ele>
        <time>2026-05-14T09:24:07.000Z</time>
      </trkpt>
      <trkpt lat="42.49893" lon="2.92876">
        <ele>539</ele>
        <time>2026-05-14T09:24:08.000Z</time>
      </trkpt>
      <trkpt lat="42.49891" lon="2.92874">
        <ele>539</ele>
        <time>2026-05-14T09:24:09.000Z</time>
      </trkpt>
      <trkpt lat="42.49889" lon="2.92872">
        <ele>539</ele>
        <time>2026-05-14T09:24:10.000Z</time>
      </trkpt>
      <trkpt lat="42.49885" lon="2.92872">
        <ele>539</ele>
        <time>2026-05-14T09:24:11.000Z</time>
      </trkpt>
      <trkpt lat="42.49883" lon="2.92871">
        <ele>539</ele>
        <time>2026-05-14T09:24:12.000Z</time>
      </trkpt>
      <trkpt lat="42.4988" lon="2.9287">
        <ele>539</ele>
        <time>2026-05-14T09:24:13.000Z</time>
      </trkpt>
      <trkpt lat="42.49877" lon="2.9287">
        <ele>539</ele>
        <time>2026-05-14T09:24:14.000Z</time>
      </trkpt>
      <trkpt lat="42.49874" lon="2.9287">
        <ele>540</ele>
        <time>2026-05-14T09:24:15.000Z</time>
      </trkpt>
      <trkpt lat="42.49872" lon="2.92869">
        <ele>540</ele>
        <time>2026-05-14T09:24:16.000Z</time>
      </trkpt>
      <trkpt lat="42.49871" lon="2.92868">
        <ele>540</ele>
        <time>2026-05-14T09:24:17.000Z</time>
      </trkpt>
      <trkpt lat="42.49869" lon="2.92867">
        <ele>541</ele>
        <time>2026-05-14T09:24:18.000Z</time>
      </trkpt>
      <trkpt lat="42.49868" lon="2.92866">
        <ele>541</ele>
        <time>2026-05-14T09:24:19.000Z</time>
      </trkpt>
      <trkpt lat="42.49866" lon="2.92864">
        <ele>541</ele>
        <time>2026-05-14T09:24:20.000Z</time>
      </trkpt>
      <trkpt lat="42.49864" lon="2.92862">
        <ele>541</ele>
        <time>2026-05-14T09:24:21.000Z</time>
      </trkpt>
      <trkpt lat="42.49863" lon="2.92861">
        <ele>541</ele>
        <time>2026-05-14T09:24:22.000Z</time>
      </trkpt>
      <trkpt lat="42.49861" lon="2.92859">
        <ele>541</ele>
        <time>2026-05-14T09:24:23.000Z</time>
      </trkpt>
      <trkpt lat="42.49859" lon="2.92858">
        <ele>541</ele>
        <time>2026-05-14T09:24:24.000Z</time>
      </trkpt>
      <trkpt lat="42.49857" lon="2.92856">
        <ele>541</ele>
        <time>2026-05-14T09:24:25.000Z</time>
      </trkpt>
      <trkpt lat="42.49856" lon="2.92855">
        <ele>541</ele>
        <time>2026-05-14T09:24:26.000Z</time>
      </trkpt>
      <trkpt lat="42.49853" lon="2.92853">
        <ele>541</ele>
        <time>2026-05-14T09:24:27.000Z</time>
      </trkpt>
      <trkpt lat="42.49852" lon="2.92852">
        <ele>541</ele>
        <time>2026-05-14T09:24:28.000Z</time>
      </trkpt>
      <trkpt lat="42.49851" lon="2.9285">
        <ele>541</ele>
        <time>2026-05-14T09:24:29.000Z</time>
      </trkpt>
      <trkpt lat="42.49849" lon="2.92849">
        <ele>542</ele>
        <time>2026-05-14T09:24:30.000Z</time>
      </trkpt>
      <trkpt lat="42.49848" lon="2.92848">
        <ele>542</ele>
        <time>2026-05-14T09:24:31.000Z</time>
      </trkpt>
      <trkpt lat="42.49847" lon="2.92846">
        <ele>542</ele>
        <time>2026-05-14T09:24:32.000Z</time>
      </trkpt>
      <trkpt lat="42.49846" lon="2.92844">
        <ele>542</ele>
        <time>2026-05-14T09:24:33.000Z</time>
      </trkpt>
      <trkpt lat="42.49845" lon="2.92842">
        <ele>542</ele>
        <time>2026-05-14T09:24:34.000Z</time>
      </trkpt>
      <trkpt lat="42.49843" lon="2.92839">
        <ele>542</ele>
        <time>2026-05-14T09:24:35.000Z</time>
      </trkpt>
      <trkpt lat="42.49842" lon="2.92838">
        <ele>542</ele>
        <time>2026-05-14T09:24:36.000Z</time>
      </trkpt>
      <trkpt lat="42.49841" lon="2.92837">
        <ele>543</ele>
        <time>2026-05-14T09:24:37.000Z</time>
      </trkpt>
      <trkpt lat="42.4984" lon="2.92835">
        <ele>543</ele>
        <time>2026-05-14T09:24:38.000Z</time>
      </trkpt>
      <trkpt lat="42.49839" lon="2.92833">
        <ele>543</ele>
        <time>2026-05-14T09:24:39.000Z</time>
      </trkpt>
      <trkpt lat="42.49838" lon="2.92832">
        <ele>543</ele>
        <time>2026-05-14T09:24:40.000Z</time>
      </trkpt>
      <trkpt lat="42.49836" lon="2.9283">
        <ele>543</ele>
        <time>2026-05-14T09:24:41.000Z</time>
      </trkpt>
      <trkpt lat="42.49835" lon="2.92829">
        <ele>543</ele>
        <time>2026-05-14T09:24:42.000Z</time>
      </trkpt>
      <trkpt lat="42.49835" lon="2.92827">
        <ele>543</ele>
        <time>2026-05-14T09:24:43.000Z</time>
      </trkpt>
      <trkpt lat="42.49833" lon="2.92826">
        <ele>544</ele>
        <time>2026-05-14T09:24:44.000Z</time>
      </trkpt>
      <trkpt lat="42.49833" lon="2.92824">
        <ele>544</ele>
        <time>2026-05-14T09:24:45.000Z</time>
      </trkpt>
      <trkpt lat="42.49831" lon="2.92824">
        <ele>545</ele>
        <time>2026-05-14T09:24:46.000Z</time>
      </trkpt>
      <trkpt lat="42.4983" lon="2.92823">
        <ele>546</ele>
        <time>2026-05-14T09:24:47.000Z</time>
      </trkpt>
      <trkpt lat="42.49828" lon="2.92822">
        <ele>546</ele>
        <time>2026-05-14T09:24:48.000Z</time>
      </trkpt>
      <trkpt lat="42.49826" lon="2.92821">
        <ele>547</ele>
        <time>2026-05-14T09:24:49.000Z</time>
      </trkpt>
      <trkpt lat="42.49824" lon="2.9282">
        <ele>547</ele>
        <time>2026-05-14T09:24:50.000Z</time>
      </trkpt>
      <trkpt lat="42.49822" lon="2.9282">
        <ele>547</ele>
        <time>2026-05-14T09:24:51.000Z</time>
      </trkpt>
      <trkpt lat="42.4982" lon="2.92819">
        <ele>547</ele>
        <time>2026-05-14T09:24:52.000Z</time>
      </trkpt>
      <trkpt lat="42.49818" lon="2.92819">
        <ele>547</ele>
        <time>2026-05-14T09:24:53.000Z</time>
      </trkpt>
      <trkpt lat="42.49816" lon="2.92817">
        <ele>548</ele>
        <time>2026-05-14T09:24:54.000Z</time>
      </trkpt>
      <trkpt lat="42.49814" lon="2.92816">
        <ele>548</ele>
        <time>2026-05-14T09:24:55.000Z</time>
      </trkpt>
      <trkpt lat="42.49813" lon="2.92815">
        <ele>548</ele>
        <time>2026-05-14T09:24:56.000Z</time>
      </trkpt>
      <trkpt lat="42.49811" lon="2.92814">
        <ele>548</ele>
        <time>2026-05-14T09:24:57.000Z</time>
      </trkpt>
      <trkpt lat="42.49809" lon="2.92813">
        <ele>549</ele>
        <time>2026-05-14T09:24:58.000Z</time>
      </trkpt>
      <trkpt lat="42.49808" lon="2.92812">
        <ele>549</ele>
        <time>2026-05-14T09:24:59.000Z</time>
      </trkpt>
      <trkpt lat="42.49806" lon="2.92811">
        <ele>548</ele>
        <time>2026-05-14T09:25:00.000Z</time>
      </trkpt>
      <trkpt lat="42.49805" lon="2.9281">
        <ele>548</ele>
        <time>2026-05-14T09:25:01.000Z</time>
      </trkpt>
      <trkpt lat="42.49803" lon="2.92809">
        <ele>549</ele>
        <time>2026-05-14T09:25:02.000Z</time>
      </trkpt>
      <trkpt lat="42.49801" lon="2.92808">
        <ele>549</ele>
        <time>2026-05-14T09:25:03.000Z</time>
      </trkpt>
      <trkpt lat="42.49799" lon="2.92806">
        <ele>549</ele>
        <time>2026-05-14T09:25:04.000Z</time>
      </trkpt>
      <trkpt lat="42.49798" lon="2.92805">
        <ele>549</ele>
        <time>2026-05-14T09:25:05.000Z</time>
      </trkpt>
      <trkpt lat="42.49796" lon="2.92804">
        <ele>549</ele>
        <time>2026-05-14T09:25:06.000Z</time>
      </trkpt>
      <trkpt lat="42.49794" lon="2.92802">
        <ele>549</ele>
        <time>2026-05-14T09:25:07.000Z</time>
      </trkpt>
      <trkpt lat="42.49792" lon="2.92801">
        <ele>550</ele>
        <time>2026-05-14T09:25:08.000Z</time>
      </trkpt>
      <trkpt lat="42.4979" lon="2.928">
        <ele>550</ele>
        <time>2026-05-14T09:25:09.000Z</time>
      </trkpt>
      <trkpt lat="42.49788" lon="2.92799">
        <ele>550</ele>
        <time>2026-05-14T09:25:10.000Z</time>
      </trkpt>
      <trkpt lat="42.49787" lon="2.92798">
        <ele>550</ele>
        <time>2026-05-14T09:25:11.000Z</time>
      </trkpt>
      <trkpt lat="42.49785" lon="2.92798">
        <ele>550</ele>
        <time>2026-05-14T09:25:12.000Z</time>
      </trkpt>
      <trkpt lat="42.49783" lon="2.92798">
        <ele>550</ele>
        <time>2026-05-14T09:25:13.000Z</time>
      </trkpt>
      <trkpt lat="42.4978" lon="2.92798">
        <ele>550</ele>
        <time>2026-05-14T09:25:14.000Z</time>
      </trkpt>
      <trkpt lat="42.49778" lon="2.92799">
        <ele>551</ele>
        <time>2026-05-14T09:25:15.000Z</time>
      </trkpt>
      <trkpt lat="42.49777" lon="2.928">
        <ele>551</ele>
        <time>2026-05-14T09:25:16.000Z</time>
      </trkpt>
      <trkpt lat="42.49774" lon="2.92802">
        <ele>551</ele>
        <time>2026-05-14T09:25:17.000Z</time>
      </trkpt>
      <trkpt lat="42.49772" lon="2.92803">
        <ele>551</ele>
        <time>2026-05-14T09:25:18.000Z</time>
      </trkpt>
      <trkpt lat="42.4977" lon="2.92805">
        <ele>551</ele>
        <time>2026-05-14T09:25:19.000Z</time>
      </trkpt>
      <trkpt lat="42.49768" lon="2.92808">
        <ele>551</ele>
        <time>2026-05-14T09:25:20.000Z</time>
      </trkpt>
      <trkpt lat="42.49766" lon="2.92809">
        <ele>551</ele>
        <time>2026-05-14T09:25:21.000Z</time>
      </trkpt>
      <trkpt lat="42.49764" lon="2.92812">
        <ele>551</ele>
        <time>2026-05-14T09:25:22.000Z</time>
      </trkpt>
      <trkpt lat="42.49763" lon="2.92814">
        <ele>551</ele>
        <time>2026-05-14T09:25:23.000Z</time>
      </trkpt>
      <trkpt lat="42.49761" lon="2.92816">
        <ele>551</ele>
        <time>2026-05-14T09:25:24.000Z</time>
      </trkpt>
      <trkpt lat="42.49759" lon="2.92818">
        <ele>552</ele>
        <time>2026-05-14T09:25:25.000Z</time>
      </trkpt>
      <trkpt lat="42.49757" lon="2.92821">
        <ele>552</ele>
        <time>2026-05-14T09:25:26.000Z</time>
      </trkpt>
      <trkpt lat="42.49755" lon="2.92823">
        <ele>552</ele>
        <time>2026-05-14T09:25:27.000Z</time>
      </trkpt>
      <trkpt lat="42.49753" lon="2.92824">
        <ele>552</ele>
        <time>2026-05-14T09:25:28.000Z</time>
      </trkpt>
      <trkpt lat="42.49751" lon="2.92827">
        <ele>551</ele>
        <time>2026-05-14T09:25:29.000Z</time>
      </trkpt>
      <trkpt lat="42.49749" lon="2.92829">
        <ele>551</ele>
        <time>2026-05-14T09:25:30.000Z</time>
      </trkpt>
      <trkpt lat="42.49747" lon="2.92831">
        <ele>550</ele>
        <time>2026-05-14T09:25:31.000Z</time>
      </trkpt>
      <trkpt lat="42.49745" lon="2.92831">
        <ele>550</ele>
        <time>2026-05-14T09:25:32.000Z</time>
      </trkpt>
      <trkpt lat="42.49744" lon="2.92832">
        <ele>550</ele>
        <time>2026-05-14T09:25:33.000Z</time>
      </trkpt>
      <trkpt lat="42.49742" lon="2.92833">
        <ele>550</ele>
        <time>2026-05-14T09:25:34.000Z</time>
      </trkpt>
      <trkpt lat="42.4974" lon="2.92834">
        <ele>549</ele>
        <time>2026-05-14T09:25:35.000Z</time>
      </trkpt>
      <trkpt lat="42.49738" lon="2.92834">
        <ele>549</ele>
        <time>2026-05-14T09:25:36.000Z</time>
      </trkpt>
      <trkpt lat="42.49736" lon="2.92835">
        <ele>549</ele>
        <time>2026-05-14T09:25:37.000Z</time>
      </trkpt>
      <trkpt lat="42.49734" lon="2.92837">
        <ele>549</ele>
        <time>2026-05-14T09:25:38.000Z</time>
      </trkpt>
      <trkpt lat="42.49732" lon="2.92839">
        <ele>548</ele>
        <time>2026-05-14T09:25:39.000Z</time>
      </trkpt>
      <trkpt lat="42.4973" lon="2.92841">
        <ele>548</ele>
        <time>2026-05-14T09:25:40.000Z</time>
      </trkpt>
      <trkpt lat="42.49729" lon="2.92842">
        <ele>548</ele>
        <time>2026-05-14T09:25:41.000Z</time>
      </trkpt>
      <trkpt lat="42.49727" lon="2.92843">
        <ele>548</ele>
        <time>2026-05-14T09:25:42.000Z</time>
      </trkpt>
      <trkpt lat="42.49725" lon="2.92845">
        <ele>548</ele>
        <time>2026-05-14T09:25:43.000Z</time>
      </trkpt>
      <trkpt lat="42.49723" lon="2.92845">
        <ele>549</ele>
        <time>2026-05-14T09:25:44.000Z</time>
      </trkpt>
      <trkpt lat="42.49721" lon="2.92847">
        <ele>549</ele>
        <time>2026-05-14T09:25:45.000Z</time>
      </trkpt>
      <trkpt lat="42.4972" lon="2.92849">
        <ele>549</ele>
        <time>2026-05-14T09:25:46.000Z</time>
      </trkpt>
      <trkpt lat="42.49718" lon="2.92851">
        <ele>550</ele>
        <time>2026-05-14T09:25:47.000Z</time>
      </trkpt>
      <trkpt lat="42.49716" lon="2.92853">
        <ele>550</ele>
        <time>2026-05-14T09:25:48.000Z</time>
      </trkpt>
      <trkpt lat="42.49714" lon="2.92854">
        <ele>551</ele>
        <time>2026-05-14T09:25:49.000Z</time>
      </trkpt>
      <trkpt lat="42.49712" lon="2.92856">
        <ele>551</ele>
        <time>2026-05-14T09:25:50.000Z</time>
      </trkpt>
      <trkpt lat="42.4971" lon="2.92857">
        <ele>551</ele>
        <time>2026-05-14T09:25:51.000Z</time>
      </trkpt>
      <trkpt lat="42.49709" lon="2.92858">
        <ele>552</ele>
        <time>2026-05-14T09:25:52.000Z</time>
      </trkpt>
      <trkpt lat="42.49707" lon="2.9286">
        <ele>552</ele>
        <time>2026-05-14T09:25:53.000Z</time>
      </trkpt>
      <trkpt lat="42.49705" lon="2.92862">
        <ele>552</ele>
        <time>2026-05-14T09:25:54.000Z</time>
      </trkpt>
      <trkpt lat="42.49704" lon="2.92864">
        <ele>552</ele>
        <time>2026-05-14T09:25:55.000Z</time>
      </trkpt>
      <trkpt lat="42.49703" lon="2.92866">
        <ele>553</ele>
        <time>2026-05-14T09:25:56.000Z</time>
      </trkpt>
      <trkpt lat="42.49701" lon="2.92867">
        <ele>553</ele>
        <time>2026-05-14T09:25:57.000Z</time>
      </trkpt>
      <trkpt lat="42.49701" lon="2.92869">
        <ele>553</ele>
        <time>2026-05-14T09:25:58.000Z</time>
      </trkpt>
      <trkpt lat="42.49699" lon="2.9287">
        <ele>553</ele>
        <time>2026-05-14T09:25:59.000Z</time>
      </trkpt>
      <trkpt lat="42.49698" lon="2.92871">
        <ele>554</ele>
        <time>2026-05-14T09:26:00.000Z</time>
      </trkpt>
      <trkpt lat="42.49695" lon="2.92873">
        <ele>554</ele>
        <time>2026-05-14T09:26:01.000Z</time>
      </trkpt>
      <trkpt lat="42.49693" lon="2.92875">
        <ele>554</ele>
        <time>2026-05-14T09:26:02.000Z</time>
      </trkpt>
      <trkpt lat="42.49692" lon="2.92877">
        <ele>554</ele>
        <time>2026-05-14T09:26:03.000Z</time>
      </trkpt>
      <trkpt lat="42.4969" lon="2.92878">
        <ele>555</ele>
        <time>2026-05-14T09:26:04.000Z</time>
      </trkpt>
      <trkpt lat="42.49687" lon="2.92878">
        <ele>555</ele>
        <time>2026-05-14T09:26:05.000Z</time>
      </trkpt>
      <trkpt lat="42.49684" lon="2.92879">
        <ele>555</ele>
        <time>2026-05-14T09:26:06.000Z</time>
      </trkpt>
      <trkpt lat="42.49682" lon="2.92879">
        <ele>556</ele>
        <time>2026-05-14T09:26:07.000Z</time>
      </trkpt>
      <trkpt lat="42.4968" lon="2.9288">
        <ele>556</ele>
        <time>2026-05-14T09:26:08.000Z</time>
      </trkpt>
      <trkpt lat="42.49678" lon="2.92881">
        <ele>556</ele>
        <time>2026-05-14T09:26:09.000Z</time>
      </trkpt>
      <trkpt lat="42.49675" lon="2.92882">
        <ele>556</ele>
        <time>2026-05-14T09:26:10.000Z</time>
      </trkpt>
      <trkpt lat="42.49672" lon="2.92882">
        <ele>556</ele>
        <time>2026-05-14T09:26:11.000Z</time>
      </trkpt>
      <trkpt lat="42.4967" lon="2.92883">
        <ele>556</ele>
        <time>2026-05-14T09:26:12.000Z</time>
      </trkpt>
      <trkpt lat="42.49668" lon="2.92885">
        <ele>556</ele>
        <time>2026-05-14T09:26:13.000Z</time>
      </trkpt>
      <trkpt lat="42.49666" lon="2.92886">
        <ele>556</ele>
        <time>2026-05-14T09:26:14.000Z</time>
      </trkpt>
      <trkpt lat="42.49664" lon="2.92888">
        <ele>557</ele>
        <time>2026-05-14T09:26:15.000Z</time>
      </trkpt>
      <trkpt lat="42.49662" lon="2.92889">
        <ele>557</ele>
        <time>2026-05-14T09:26:16.000Z</time>
      </trkpt>
      <trkpt lat="42.4966" lon="2.92891">
        <ele>557</ele>
        <time>2026-05-14T09:26:17.000Z</time>
      </trkpt>
      <trkpt lat="42.49658" lon="2.92893">
        <ele>557</ele>
        <time>2026-05-14T09:26:18.000Z</time>
      </trkpt>
      <trkpt lat="42.49656" lon="2.92894">
        <ele>557</ele>
        <time>2026-05-14T09:26:19.000Z</time>
      </trkpt>
      <trkpt lat="42.49655" lon="2.92896">
        <ele>557</ele>
        <time>2026-05-14T09:26:20.000Z</time>
      </trkpt>
      <trkpt lat="42.49653" lon="2.92898">
        <ele>557</ele>
        <time>2026-05-14T09:26:21.000Z</time>
      </trkpt>
      <trkpt lat="42.49651" lon="2.92901">
        <ele>557</ele>
        <time>2026-05-14T09:26:22.000Z</time>
      </trkpt>
      <trkpt lat="42.4965" lon="2.92902">
        <ele>558</ele>
        <time>2026-05-14T09:26:23.000Z</time>
      </trkpt>
      <trkpt lat="42.49648" lon="2.92903">
        <ele>558</ele>
        <time>2026-05-14T09:26:24.000Z</time>
      </trkpt>
      <trkpt lat="42.49646" lon="2.92904">
        <ele>558</ele>
        <time>2026-05-14T09:26:25.000Z</time>
      </trkpt>
      <trkpt lat="42.49644" lon="2.92906">
        <ele>558</ele>
        <time>2026-05-14T09:26:26.000Z</time>
      </trkpt>
      <trkpt lat="42.49642" lon="2.92907">
        <ele>558</ele>
        <time>2026-05-14T09:26:27.000Z</time>
      </trkpt>
      <trkpt lat="42.4964" lon="2.9291">
        <ele>558</ele>
        <time>2026-05-14T09:26:28.000Z</time>
      </trkpt>
      <trkpt lat="42.49639" lon="2.92911">
        <ele>558</ele>
        <time>2026-05-14T09:26:29.000Z</time>
      </trkpt>
      <trkpt lat="42.49638" lon="2.92914">
        <ele>557</ele>
        <time>2026-05-14T09:26:30.000Z</time>
      </trkpt>
      <trkpt lat="42.49636" lon="2.92915">
        <ele>558</ele>
        <time>2026-05-14T09:26:31.000Z</time>
      </trkpt>
      <trkpt lat="42.49634" lon="2.92916">
        <ele>558</ele>
        <time>2026-05-14T09:26:32.000Z</time>
      </trkpt>
      <trkpt lat="42.49632" lon="2.92917">
        <ele>557</ele>
        <time>2026-05-14T09:26:33.000Z</time>
      </trkpt>
      <trkpt lat="42.4963" lon="2.92917">
        <ele>557</ele>
        <time>2026-05-14T09:26:34.000Z</time>
      </trkpt>
      <trkpt lat="42.49628" lon="2.92918">
        <ele>557</ele>
        <time>2026-05-14T09:26:35.000Z</time>
      </trkpt>
      <trkpt lat="42.49626" lon="2.92919">
        <ele>557</ele>
        <time>2026-05-14T09:26:36.000Z</time>
      </trkpt>
      <trkpt lat="42.49625" lon="2.92919">
        <ele>557</ele>
        <time>2026-05-14T09:26:37.000Z</time>
      </trkpt>
      <trkpt lat="42.49623" lon="2.9292">
        <ele>558</ele>
        <time>2026-05-14T09:26:38.000Z</time>
      </trkpt>
      <trkpt lat="42.49621" lon="2.92921">
        <ele>558</ele>
        <time>2026-05-14T09:26:39.000Z</time>
      </trkpt>
      <trkpt lat="42.49619" lon="2.92922">
        <ele>558</ele>
        <time>2026-05-14T09:26:40.000Z</time>
      </trkpt>
      <trkpt lat="42.49617" lon="2.92923">
        <ele>558</ele>
        <time>2026-05-14T09:26:41.000Z</time>
      </trkpt>
      <trkpt lat="42.49615" lon="2.92924">
        <ele>559</ele>
        <time>2026-05-14T09:26:42.000Z</time>
      </trkpt>
      <trkpt lat="42.49613" lon="2.92925">
        <ele>559</ele>
        <time>2026-05-14T09:26:43.000Z</time>
      </trkpt>
      <trkpt lat="42.49612" lon="2.92926">
        <ele>559</ele>
        <time>2026-05-14T09:26:44.000Z</time>
      </trkpt>
      <trkpt lat="42.49611" lon="2.92927">
        <ele>559</ele>
        <time>2026-05-14T09:26:45.000Z</time>
      </trkpt>
      <trkpt lat="42.49609" lon="2.92928">
        <ele>559</ele>
        <time>2026-05-14T09:26:46.000Z</time>
      </trkpt>
      <trkpt lat="42.49607" lon="2.92929">
        <ele>559</ele>
        <time>2026-05-14T09:26:47.000Z</time>
      </trkpt>
      <trkpt lat="42.49605" lon="2.92931">
        <ele>559</ele>
        <time>2026-05-14T09:26:48.000Z</time>
      </trkpt>
      <trkpt lat="42.49603" lon="2.92933">
        <ele>558</ele>
        <time>2026-05-14T09:26:49.000Z</time>
      </trkpt>
      <trkpt lat="42.49601" lon="2.92935">
        <ele>559</ele>
        <time>2026-05-14T09:26:50.000Z</time>
      </trkpt>
      <trkpt lat="42.496" lon="2.92937">
        <ele>559</ele>
        <time>2026-05-14T09:26:51.000Z</time>
      </trkpt>
      <trkpt lat="42.49598" lon="2.92939">
        <ele>559</ele>
        <time>2026-05-14T09:26:52.000Z</time>
      </trkpt>
      <trkpt lat="42.49596" lon="2.92941">
        <ele>559</ele>
        <time>2026-05-14T09:26:53.000Z</time>
      </trkpt>
      <trkpt lat="42.49594" lon="2.92943">
        <ele>559</ele>
        <time>2026-05-14T09:26:54.000Z</time>
      </trkpt>
      <trkpt lat="42.49592" lon="2.92945">
        <ele>559</ele>
        <time>2026-05-14T09:26:55.000Z</time>
      </trkpt>
      <trkpt lat="42.4959" lon="2.92947">
        <ele>559</ele>
        <time>2026-05-14T09:26:56.000Z</time>
      </trkpt>
      <trkpt lat="42.49588" lon="2.92948">
        <ele>559</ele>
        <time>2026-05-14T09:26:57.000Z</time>
      </trkpt>
      <trkpt lat="42.49585" lon="2.92949">
        <ele>559</ele>
        <time>2026-05-14T09:26:58.000Z</time>
      </trkpt>
      <trkpt lat="42.49583" lon="2.9295">
        <ele>559</ele>
        <time>2026-05-14T09:26:59.000Z</time>
      </trkpt>
      <trkpt lat="42.49581" lon="2.9295">
        <ele>559</ele>
        <time>2026-05-14T09:27:00.000Z</time>
      </trkpt>
      <trkpt lat="42.4958" lon="2.9295">
        <ele>559</ele>
        <time>2026-05-14T09:27:01.000Z</time>
      </trkpt>
      <trkpt lat="42.49578" lon="2.92949">
        <ele>559</ele>
        <time>2026-05-14T09:27:02.000Z</time>
      </trkpt>
      <trkpt lat="42.49576" lon="2.92948">
        <ele>559</ele>
        <time>2026-05-14T09:27:03.000Z</time>
      </trkpt>
      <trkpt lat="42.49574" lon="2.92948">
        <ele>559</ele>
        <time>2026-05-14T09:27:04.000Z</time>
      </trkpt>
      <trkpt lat="42.49572" lon="2.92947">
        <ele>558</ele>
        <time>2026-05-14T09:27:05.000Z</time>
      </trkpt>
      <trkpt lat="42.4957" lon="2.92945">
        <ele>559</ele>
        <time>2026-05-14T09:27:06.000Z</time>
      </trkpt>
      <trkpt lat="42.49569" lon="2.92944">
        <ele>559</ele>
        <time>2026-05-14T09:27:07.000Z</time>
      </trkpt>
      <trkpt lat="42.49567" lon="2.92943">
        <ele>559</ele>
        <time>2026-05-14T09:27:08.000Z</time>
      </trkpt>
      <trkpt lat="42.49565" lon="2.92942">
        <ele>559</ele>
        <time>2026-05-14T09:27:09.000Z</time>
      </trkpt>
      <trkpt lat="42.49564" lon="2.92941">
        <ele>559</ele>
        <time>2026-05-14T09:27:10.000Z</time>
      </trkpt>
      <trkpt lat="42.49562" lon="2.92939">
        <ele>559</ele>
        <time>2026-05-14T09:27:11.000Z</time>
      </trkpt>
      <trkpt lat="42.4956" lon="2.92938">
        <ele>559</ele>
        <time>2026-05-14T09:27:12.000Z</time>
      </trkpt>
      <trkpt lat="42.49557" lon="2.92936">
        <ele>559</ele>
        <time>2026-05-14T09:27:13.000Z</time>
      </trkpt>
      <trkpt lat="42.49555" lon="2.92935">
        <ele>559</ele>
        <time>2026-05-14T09:27:14.000Z</time>
      </trkpt>
      <trkpt lat="42.49553" lon="2.92934">
        <ele>560</ele>
        <time>2026-05-14T09:27:15.000Z</time>
      </trkpt>
      <trkpt lat="42.49551" lon="2.92934">
        <ele>560</ele>
        <time>2026-05-14T09:27:16.000Z</time>
      </trkpt>
      <trkpt lat="42.49549" lon="2.92933">
        <ele>560</ele>
        <time>2026-05-14T09:27:17.000Z</time>
      </trkpt>
      <trkpt lat="42.49547" lon="2.92932">
        <ele>560</ele>
        <time>2026-05-14T09:27:18.000Z</time>
      </trkpt>
      <trkpt lat="42.49544" lon="2.92931">
        <ele>560</ele>
        <time>2026-05-14T09:27:19.000Z</time>
      </trkpt>
      <trkpt lat="42.49542" lon="2.9293">
        <ele>560</ele>
        <time>2026-05-14T09:27:20.000Z</time>
      </trkpt>
      <trkpt lat="42.4954" lon="2.92929">
        <ele>561</ele>
        <time>2026-05-14T09:27:21.000Z</time>
      </trkpt>
      <trkpt lat="42.49538" lon="2.92929">
        <ele>561</ele>
        <time>2026-05-14T09:27:22.000Z</time>
      </trkpt>
      <trkpt lat="42.49535" lon="2.92929">
        <ele>561</ele>
        <time>2026-05-14T09:27:23.000Z</time>
      </trkpt>
      <trkpt lat="42.49533" lon="2.92929">
        <ele>562</ele>
        <time>2026-05-14T09:27:24.000Z</time>
      </trkpt>
      <trkpt lat="42.49531" lon="2.92929">
        <ele>562</ele>
        <time>2026-05-14T09:27:25.000Z</time>
      </trkpt>
      <trkpt lat="42.49528" lon="2.92929">
        <ele>562</ele>
        <time>2026-05-14T09:27:26.000Z</time>
      </trkpt>
      <trkpt lat="42.49527" lon="2.9293">
        <ele>562</ele>
        <time>2026-05-14T09:27:27.000Z</time>
      </trkpt>
      <trkpt lat="42.49524" lon="2.9293">
        <ele>562</ele>
        <time>2026-05-14T09:27:28.000Z</time>
      </trkpt>
      <trkpt lat="42.49522" lon="2.92931">
        <ele>562</ele>
        <time>2026-05-14T09:27:29.000Z</time>
      </trkpt>
      <trkpt lat="42.4952" lon="2.92931">
        <ele>562</ele>
        <time>2026-05-14T09:27:30.000Z</time>
      </trkpt>
      <trkpt lat="42.49518" lon="2.92931">
        <ele>562</ele>
        <time>2026-05-14T09:27:31.000Z</time>
      </trkpt>
      <trkpt lat="42.49517" lon="2.92932">
        <ele>562</ele>
        <time>2026-05-14T09:27:32.000Z</time>
      </trkpt>
      <trkpt lat="42.49515" lon="2.92932">
        <ele>562</ele>
        <time>2026-05-14T09:27:33.000Z</time>
      </trkpt>
      <trkpt lat="42.49513" lon="2.92931">
        <ele>563</ele>
        <time>2026-05-14T09:27:34.000Z</time>
      </trkpt>
      <trkpt lat="42.4951" lon="2.92931">
        <ele>564</ele>
        <time>2026-05-14T09:27:35.000Z</time>
      </trkpt>
      <trkpt lat="42.49508" lon="2.9293">
        <ele>564</ele>
        <time>2026-05-14T09:27:36.000Z</time>
      </trkpt>
      <trkpt lat="42.49506" lon="2.9293">
        <ele>564</ele>
        <time>2026-05-14T09:27:37.000Z</time>
      </trkpt>
      <trkpt lat="42.49504" lon="2.9293">
        <ele>565</ele>
        <time>2026-05-14T09:27:38.000Z</time>
      </trkpt>
      <trkpt lat="42.49502" lon="2.9293">
        <ele>565</ele>
        <time>2026-05-14T09:27:39.000Z</time>
      </trkpt>
      <trkpt lat="42.495" lon="2.9293">
        <ele>565</ele>
        <time>2026-05-14T09:27:40.000Z</time>
      </trkpt>
      <trkpt lat="42.49499" lon="2.9293">
        <ele>566</ele>
        <time>2026-05-14T09:27:41.000Z</time>
      </trkpt>
      <trkpt lat="42.49497" lon="2.9293">
        <ele>566</ele>
        <time>2026-05-14T09:27:42.000Z</time>
      </trkpt>
      <trkpt lat="42.49495" lon="2.92929">
        <ele>566</ele>
        <time>2026-05-14T09:27:43.000Z</time>
      </trkpt>
      <trkpt lat="42.49493" lon="2.92929">
        <ele>567</ele>
        <time>2026-05-14T09:27:44.000Z</time>
      </trkpt>
      <trkpt lat="42.49491" lon="2.92929">
        <ele>567</ele>
        <time>2026-05-14T09:27:45.000Z</time>
      </trkpt>
      <trkpt lat="42.49489" lon="2.92929">
        <ele>567</ele>
        <time>2026-05-14T09:27:46.000Z</time>
      </trkpt>
      <trkpt lat="42.49487" lon="2.92929">
        <ele>567</ele>
        <time>2026-05-14T09:27:47.000Z</time>
      </trkpt>
      <trkpt lat="42.49485" lon="2.9293">
        <ele>567</ele>
        <time>2026-05-14T09:27:48.000Z</time>
      </trkpt>
      <trkpt lat="42.49483" lon="2.9293">
        <ele>568</ele>
        <time>2026-05-14T09:27:49.000Z</time>
      </trkpt>
      <trkpt lat="42.4948" lon="2.9293">
        <ele>568</ele>
        <time>2026-05-14T09:27:50.000Z</time>
      </trkpt>
      <trkpt lat="42.49478" lon="2.9293">
        <ele>569</ele>
        <time>2026-05-14T09:27:51.000Z</time>
      </trkpt>
      <trkpt lat="42.49476" lon="2.92929">
        <ele>569</ele>
        <time>2026-05-14T09:27:52.000Z</time>
      </trkpt>
      <trkpt lat="42.49474" lon="2.92928">
        <ele>569</ele>
        <time>2026-05-14T09:27:53.000Z</time>
      </trkpt>
      <trkpt lat="42.49472" lon="2.92928">
        <ele>569</ele>
        <time>2026-05-14T09:27:54.000Z</time>
      </trkpt>
      <trkpt lat="42.49471" lon="2.92927">
        <ele>569</ele>
        <time>2026-05-14T09:27:55.000Z</time>
      </trkpt>
      <trkpt lat="42.49469" lon="2.92927">
        <ele>569</ele>
        <time>2026-05-14T09:27:56.000Z</time>
      </trkpt>
      <trkpt lat="42.49467" lon="2.92927">
        <ele>570</ele>
        <time>2026-05-14T09:27:57.000Z</time>
      </trkpt>
      <trkpt lat="42.49465" lon="2.92926">
        <ele>570</ele>
        <time>2026-05-14T09:27:58.000Z</time>
      </trkpt>
      <trkpt lat="42.49464" lon="2.92925">
        <ele>570</ele>
        <time>2026-05-14T09:27:59.000Z</time>
      </trkpt>
      <trkpt lat="42.49462" lon="2.92925">
        <ele>570</ele>
        <time>2026-05-14T09:28:00.000Z</time>
      </trkpt>
      <trkpt lat="42.4946" lon="2.92923">
        <ele>570</ele>
        <time>2026-05-14T09:28:01.000Z</time>
      </trkpt>
      <trkpt lat="42.49459" lon="2.92923">
        <ele>570</ele>
        <time>2026-05-14T09:28:02.000Z</time>
      </trkpt>
      <trkpt lat="42.49458" lon="2.92922">
        <ele>570</ele>
        <time>2026-05-14T09:28:03.000Z</time>
      </trkpt>
      <trkpt lat="42.49457" lon="2.92921">
        <ele>570</ele>
        <time>2026-05-14T09:28:04.000Z</time>
      </trkpt>
      <trkpt lat="42.49455" lon="2.9292">
        <ele>570</ele>
        <time>2026-05-14T09:28:05.000Z</time>
      </trkpt>
      <trkpt lat="42.49453" lon="2.92919">
        <ele>570</ele>
        <time>2026-05-14T09:28:06.000Z</time>
      </trkpt>
      <trkpt lat="42.49452" lon="2.92918">
        <ele>570</ele>
        <time>2026-05-14T09:28:07.000Z</time>
      </trkpt>
      <trkpt lat="42.49451" lon="2.92918">
        <ele>570</ele>
        <time>2026-05-14T09:28:08.000Z</time>
      </trkpt>
      <trkpt lat="42.49449" lon="2.92918">
        <ele>570</ele>
        <time>2026-05-14T09:28:09.000Z</time>
      </trkpt>
      <trkpt lat="42.49447" lon="2.92917">
        <ele>570</ele>
        <time>2026-05-14T09:28:10.000Z</time>
      </trkpt>
      <trkpt lat="42.49446" lon="2.92916">
        <ele>570</ele>
        <time>2026-05-14T09:28:11.000Z</time>
      </trkpt>
      <trkpt lat="42.49445" lon="2.92915">
        <ele>570</ele>
        <time>2026-05-14T09:28:12.000Z</time>
      </trkpt>
      <trkpt lat="42.49443" lon="2.92913">
        <ele>571</ele>
        <time>2026-05-14T09:28:13.000Z</time>
      </trkpt>
      <trkpt lat="42.49442" lon="2.92912">
        <ele>572</ele>
        <time>2026-05-14T09:28:14.000Z</time>
      </trkpt>
      <trkpt lat="42.49441" lon="2.92911">
        <ele>572</ele>
        <time>2026-05-14T09:28:15.000Z</time>
      </trkpt>
      <trkpt lat="42.49438" lon="2.92911">
        <ele>572</ele>
        <time>2026-05-14T09:28:16.000Z</time>
      </trkpt>
      <trkpt lat="42.49436" lon="2.9291">
        <ele>573</ele>
        <time>2026-05-14T09:28:17.000Z</time>
      </trkpt>
      <trkpt lat="42.49434" lon="2.92909">
        <ele>573</ele>
        <time>2026-05-14T09:28:18.000Z</time>
      </trkpt>
      <trkpt lat="42.49432" lon="2.92909">
        <ele>573</ele>
        <time>2026-05-14T09:28:19.000Z</time>
      </trkpt>
      <trkpt lat="42.4943" lon="2.92909">
        <ele>572</ele>
        <time>2026-05-14T09:28:20.000Z</time>
      </trkpt>
      <trkpt lat="42.49427" lon="2.92909">
        <ele>573</ele>
        <time>2026-05-14T09:28:21.000Z</time>
      </trkpt>
      <trkpt lat="42.49425" lon="2.92909">
        <ele>574</ele>
        <time>2026-05-14T09:28:22.000Z</time>
      </trkpt>
      <trkpt lat="42.49422" lon="2.92909">
        <ele>574</ele>
        <time>2026-05-14T09:28:23.000Z</time>
      </trkpt>
      <trkpt lat="42.4942" lon="2.92909">
        <ele>574</ele>
        <time>2026-05-14T09:28:24.000Z</time>
      </trkpt>
      <trkpt lat="42.49419" lon="2.9291">
        <ele>575</ele>
        <time>2026-05-14T09:28:25.000Z</time>
      </trkpt>
      <trkpt lat="42.49416" lon="2.9291">
        <ele>575</ele>
        <time>2026-05-14T09:28:26.000Z</time>
      </trkpt>
      <trkpt lat="42.49413" lon="2.9291">
        <ele>575</ele>
        <time>2026-05-14T09:28:27.000Z</time>
      </trkpt>
      <trkpt lat="42.49411" lon="2.92911">
        <ele>575</ele>
        <time>2026-05-14T09:28:28.000Z</time>
      </trkpt>
      <trkpt lat="42.49408" lon="2.9291">
        <ele>575</ele>
        <time>2026-05-14T09:28:29.000Z</time>
      </trkpt>
      <trkpt lat="42.49406" lon="2.92911">
        <ele>574</ele>
        <time>2026-05-14T09:28:30.000Z</time>
      </trkpt>
      <trkpt lat="42.49404" lon="2.92912">
        <ele>574</ele>
        <time>2026-05-14T09:28:31.000Z</time>
      </trkpt>
      <trkpt lat="42.49402" lon="2.92913">
        <ele>574</ele>
        <time>2026-05-14T09:28:32.000Z</time>
      </trkpt>
      <trkpt lat="42.494" lon="2.92914">
        <ele>574</ele>
        <time>2026-05-14T09:28:33.000Z</time>
      </trkpt>
      <trkpt lat="42.49398" lon="2.92915">
        <ele>575</ele>
        <time>2026-05-14T09:28:34.000Z</time>
      </trkpt>
      <trkpt lat="42.49396" lon="2.92917">
        <ele>574</ele>
        <time>2026-05-14T09:28:35.000Z</time>
      </trkpt>
      <trkpt lat="42.49395" lon="2.92917">
        <ele>574</ele>
        <time>2026-05-14T09:28:36.000Z</time>
      </trkpt>
      <trkpt lat="42.49394" lon="2.92919">
        <ele>574</ele>
        <time>2026-05-14T09:28:37.000Z</time>
      </trkpt>
      <trkpt lat="42.49392" lon="2.92921">
        <ele>574</ele>
        <time>2026-05-14T09:28:38.000Z</time>
      </trkpt>
      <trkpt lat="42.49389" lon="2.92922">
        <ele>574</ele>
        <time>2026-05-14T09:28:39.000Z</time>
      </trkpt>
      <trkpt lat="42.49387" lon="2.92922">
        <ele>574</ele>
        <time>2026-05-14T09:28:40.000Z</time>
      </trkpt>
      <trkpt lat="42.49386" lon="2.92924">
        <ele>574</ele>
        <time>2026-05-14T09:28:41.000Z</time>
      </trkpt>
      <trkpt lat="42.49384" lon="2.92925">
        <ele>574</ele>
        <time>2026-05-14T09:28:42.000Z</time>
      </trkpt>
      <trkpt lat="42.49382" lon="2.92927">
        <ele>574</ele>
        <time>2026-05-14T09:28:43.000Z</time>
      </trkpt>
      <trkpt lat="42.49381" lon="2.92927">
        <ele>575</ele>
        <time>2026-05-14T09:28:44.000Z</time>
      </trkpt>
      <trkpt lat="42.49379" lon="2.92928">
        <ele>576</ele>
        <time>2026-05-14T09:28:45.000Z</time>
      </trkpt>
      <trkpt lat="42.49377" lon="2.92928">
        <ele>576</ele>
        <time>2026-05-14T09:28:46.000Z</time>
      </trkpt>
      <trkpt lat="42.49376" lon="2.92928">
        <ele>576</ele>
        <time>2026-05-14T09:28:47.000Z</time>
      </trkpt>
      <trkpt lat="42.49375" lon="2.92927">
        <ele>576</ele>
        <time>2026-05-14T09:28:48.000Z</time>
      </trkpt>
      <trkpt lat="42.49374" lon="2.92926">
        <ele>576</ele>
        <time>2026-05-14T09:28:49.000Z</time>
      </trkpt>
      <trkpt lat="42.49373" lon="2.92924">
        <ele>576</ele>
        <time>2026-05-14T09:28:50.000Z</time>
      </trkpt>
      <trkpt lat="42.49372" lon="2.92923">
        <ele>577</ele>
        <time>2026-05-14T09:28:51.000Z</time>
      </trkpt>
      <trkpt lat="42.49371" lon="2.92921">
        <ele>577</ele>
        <time>2026-05-14T09:28:52.000Z</time>
      </trkpt>
      <trkpt lat="42.49369" lon="2.92919">
        <ele>576</ele>
        <time>2026-05-14T09:28:53.000Z</time>
      </trkpt>
      <trkpt lat="42.49368" lon="2.92918">
        <ele>576</ele>
        <time>2026-05-14T09:28:54.000Z</time>
      </trkpt>
      <trkpt lat="42.49366" lon="2.92917">
        <ele>575</ele>
        <time>2026-05-14T09:28:55.000Z</time>
      </trkpt>
      <trkpt lat="42.49365" lon="2.92916">
        <ele>575</ele>
        <time>2026-05-14T09:28:56.000Z</time>
      </trkpt>
      <trkpt lat="42.49362" lon="2.92916">
        <ele>575</ele>
        <time>2026-05-14T09:28:57.000Z</time>
      </trkpt>
      <trkpt lat="42.4936" lon="2.92917">
        <ele>575</ele>
        <time>2026-05-14T09:28:58.000Z</time>
      </trkpt>
      <trkpt lat="42.49357" lon="2.92917">
        <ele>575</ele>
        <time>2026-05-14T09:28:59.000Z</time>
      </trkpt>
      <trkpt lat="42.49355" lon="2.92919">
        <ele>575</ele>
        <time>2026-05-14T09:29:00.000Z</time>
      </trkpt>
      <trkpt lat="42.49353" lon="2.9292">
        <ele>575</ele>
        <time>2026-05-14T09:29:01.000Z</time>
      </trkpt>
      <trkpt lat="42.49351" lon="2.92921">
        <ele>575</ele>
        <time>2026-05-14T09:29:02.000Z</time>
      </trkpt>
      <trkpt lat="42.49349" lon="2.92922">
        <ele>575</ele>
        <time>2026-05-14T09:29:03.000Z</time>
      </trkpt>
      <trkpt lat="42.49348" lon="2.92924">
        <ele>575</ele>
        <time>2026-05-14T09:29:04.000Z</time>
      </trkpt>
      <trkpt lat="42.49346" lon="2.92926">
        <ele>574</ele>
        <time>2026-05-14T09:29:05.000Z</time>
      </trkpt>
      <trkpt lat="42.49345" lon="2.92927">
        <ele>574</ele>
        <time>2026-05-14T09:29:06.000Z</time>
      </trkpt>
      <trkpt lat="42.49344" lon="2.92928">
        <ele>573</ele>
        <time>2026-05-14T09:29:07.000Z</time>
      </trkpt>
      <trkpt lat="42.49342" lon="2.9293">
        <ele>574</ele>
        <time>2026-05-14T09:29:08.000Z</time>
      </trkpt>
      <trkpt lat="42.49341" lon="2.92932">
        <ele>574</ele>
        <time>2026-05-14T09:29:09.000Z</time>
      </trkpt>
      <trkpt lat="42.4934" lon="2.92934">
        <ele>575</ele>
        <time>2026-05-14T09:29:10.000Z</time>
      </trkpt>
      <trkpt lat="42.49338" lon="2.92936">
        <ele>575</ele>
        <time>2026-05-14T09:29:11.000Z</time>
      </trkpt>
      <trkpt lat="42.49338" lon="2.92937">
        <ele>576</ele>
        <time>2026-05-14T09:29:12.000Z</time>
      </trkpt>
      <trkpt lat="42.49337" lon="2.92941">
        <ele>576</ele>
        <time>2026-05-14T09:29:13.000Z</time>
      </trkpt>
      <trkpt lat="42.49336" lon="2.92942">
        <ele>577</ele>
        <time>2026-05-14T09:29:14.000Z</time>
      </trkpt>
      <trkpt lat="42.49335" lon="2.92944">
        <ele>577</ele>
        <time>2026-05-14T09:29:15.000Z</time>
      </trkpt>
      <trkpt lat="42.49334" lon="2.92946">
        <ele>577</ele>
        <time>2026-05-14T09:29:16.000Z</time>
      </trkpt>
      <trkpt lat="42.49332" lon="2.92949">
        <ele>576</ele>
        <time>2026-05-14T09:29:17.000Z</time>
      </trkpt>
      <trkpt lat="42.49331" lon="2.92952">
        <ele>576</ele>
        <time>2026-05-14T09:29:18.000Z</time>
      </trkpt>
      <trkpt lat="42.49329" lon="2.92954">
        <ele>575</ele>
        <time>2026-05-14T09:29:19.000Z</time>
      </trkpt>
      <trkpt lat="42.49328" lon="2.92956">
        <ele>576</ele>
        <time>2026-05-14T09:29:20.000Z</time>
      </trkpt>
      <trkpt lat="42.49326" lon="2.92958">
        <ele>576</ele>
        <time>2026-05-14T09:29:21.000Z</time>
      </trkpt>
      <trkpt lat="42.49324" lon="2.9296">
        <ele>576</ele>
        <time>2026-05-14T09:29:22.000Z</time>
      </trkpt>
      <trkpt lat="42.49322" lon="2.92961">
        <ele>576</ele>
        <time>2026-05-14T09:29:23.000Z</time>
      </trkpt>
      <trkpt lat="42.4932" lon="2.92962">
        <ele>576</ele>
        <time>2026-05-14T09:29:24.000Z</time>
      </trkpt>
      <trkpt lat="42.49318" lon="2.92963">
        <ele>576</ele>
        <time>2026-05-14T09:29:25.000Z</time>
      </trkpt>
      <trkpt lat="42.49316" lon="2.92965">
        <ele>576</ele>
        <time>2026-05-14T09:29:26.000Z</time>
      </trkpt>
      <trkpt lat="42.49314" lon="2.92966">
        <ele>577</ele>
        <time>2026-05-14T09:29:27.000Z</time>
      </trkpt>
      <trkpt lat="42.49313" lon="2.92968">
        <ele>577</ele>
        <time>2026-05-14T09:29:28.000Z</time>
      </trkpt>
      <trkpt lat="42.49312" lon="2.92969">
        <ele>577</ele>
        <time>2026-05-14T09:29:29.000Z</time>
      </trkpt>
      <trkpt lat="42.4931" lon="2.92971">
        <ele>577</ele>
        <time>2026-05-14T09:29:30.000Z</time>
      </trkpt>
      <trkpt lat="42.49309" lon="2.92973">
        <ele>577</ele>
        <time>2026-05-14T09:29:31.000Z</time>
      </trkpt>
      <trkpt lat="42.49307" lon="2.92974">
        <ele>578</ele>
        <time>2026-05-14T09:29:32.000Z</time>
      </trkpt>
      <trkpt lat="42.49306" lon="2.92975">
        <ele>579</ele>
        <time>2026-05-14T09:29:33.000Z</time>
      </trkpt>
      <trkpt lat="42.49304" lon="2.92976">
        <ele>579</ele>
        <time>2026-05-14T09:29:34.000Z</time>
      </trkpt>
      <trkpt lat="42.49303" lon="2.92977">
        <ele>579</ele>
        <time>2026-05-14T09:29:35.000Z</time>
      </trkpt>
      <trkpt lat="42.493" lon="2.92978">
        <ele>578</ele>
        <time>2026-05-14T09:29:36.000Z</time>
      </trkpt>
      <trkpt lat="42.49298" lon="2.92978">
        <ele>578</ele>
        <time>2026-05-14T09:29:37.000Z</time>
      </trkpt>
      <trkpt lat="42.49296" lon="2.92979">
        <ele>578</ele>
        <time>2026-05-14T09:29:38.000Z</time>
      </trkpt>
      <trkpt lat="42.49294" lon="2.9298">
        <ele>578</ele>
        <time>2026-05-14T09:29:39.000Z</time>
      </trkpt>
      <trkpt lat="42.49292" lon="2.92981">
        <ele>578</ele>
        <time>2026-05-14T09:29:40.000Z</time>
      </trkpt>
      <trkpt lat="42.49291" lon="2.92983">
        <ele>578</ele>
        <time>2026-05-14T09:29:41.000Z</time>
      </trkpt>
      <trkpt lat="42.4929" lon="2.92984">
        <ele>578</ele>
        <time>2026-05-14T09:29:42.000Z</time>
      </trkpt>
      <trkpt lat="42.49288" lon="2.92985">
        <ele>579</ele>
        <time>2026-05-14T09:29:43.000Z</time>
      </trkpt>
      <trkpt lat="42.49286" lon="2.92987">
        <ele>579</ele>
        <time>2026-05-14T09:29:44.000Z</time>
      </trkpt>
      <trkpt lat="42.49284" lon="2.92987">
        <ele>579</ele>
        <time>2026-05-14T09:29:45.000Z</time>
      </trkpt>
      <trkpt lat="42.49283" lon="2.92988">
        <ele>579</ele>
        <time>2026-05-14T09:29:46.000Z</time>
      </trkpt>
      <trkpt lat="42.49281" lon="2.92988">
        <ele>579</ele>
        <time>2026-05-14T09:29:47.000Z</time>
      </trkpt>
      <trkpt lat="42.4928" lon="2.9299">
        <ele>580</ele>
        <time>2026-05-14T09:29:48.000Z</time>
      </trkpt>
      <trkpt lat="42.49279" lon="2.9299">
        <ele>580</ele>
        <time>2026-05-14T09:29:49.000Z</time>
      </trkpt>
      <trkpt lat="42.49278" lon="2.9299">
        <ele>581</ele>
        <time>2026-05-14T09:29:50.000Z</time>
      </trkpt>
      <trkpt lat="42.49276" lon="2.9299">
        <ele>581</ele>
        <time>2026-05-14T09:29:51.000Z</time>
      </trkpt>
      <trkpt lat="42.49275" lon="2.9299">
        <ele>581</ele>
        <time>2026-05-14T09:29:52.000Z</time>
      </trkpt>
      <trkpt lat="42.49275" lon="2.9299">
        <ele>580</ele>
        <time>2026-05-14T09:29:53.000Z</time>
      </trkpt>
      <trkpt lat="42.49274" lon="2.92989">
        <ele>580</ele>
        <time>2026-05-14T09:29:54.000Z</time>
      </trkpt>
      <trkpt lat="42.49274" lon="2.9299">
        <ele>579</ele>
        <time>2026-05-14T09:29:55.000Z</time>
      </trkpt>
      <trkpt lat="42.49274" lon="2.9299">
        <ele>579</ele>
        <time>2026-05-14T09:29:56.000Z</time>
      </trkpt>
      <trkpt lat="42.49273" lon="2.9299">
        <ele>578</ele>
        <time>2026-05-14T09:29:57.000Z</time>
      </trkpt>
      <trkpt lat="42.49273" lon="2.92991">
        <ele>578</ele>
        <time>2026-05-14T09:29:58.000Z</time>
      </trkpt>
      <trkpt lat="42.49273" lon="2.92991">
        <ele>578</ele>
        <time>2026-05-14T09:29:59.000Z</time>
      </trkpt>
      <trkpt lat="42.49272" lon="2.9299">
        <ele>578</ele>
        <time>2026-05-14T09:30:00.000Z</time>
      </trkpt>
      <trkpt lat="42.49273" lon="2.92996">
        <ele>575</ele>
        <time>2026-05-14T09:31:58.000Z</time>
      </trkpt>
      <trkpt lat="42.49274" lon="2.92996">
        <ele>575</ele>
        <time>2026-05-14T09:31:59.000Z</time>
      </trkpt>
      <trkpt lat="42.49274" lon="2.92996">
        <ele>576</ele>
        <time>2026-05-14T09:32:00.000Z</time>
      </trkpt>
      <trkpt lat="42.49273" lon="2.92993">
        <ele>574</ele>
        <time>2026-05-14T09:32:30.000Z</time>
      </trkpt>
      <trkpt lat="42.49273" lon="2.92992">
        <ele>574</ele>
        <time>2026-05-14T09:32:31.000Z</time>
      </trkpt>
      <trkpt lat="42.49273" lon="2.92991">
        <ele>574</ele>
        <time>2026-05-14T09:32:32.000Z</time>
      </trkpt>
      <trkpt lat="42.49272" lon="2.9299">
        <ele>573</ele>
        <time>2026-05-14T09:32:33.000Z</time>
      </trkpt>
      <trkpt lat="42.4927" lon="2.92989">
        <ele>572</ele>
        <time>2026-05-14T09:32:34.000Z</time>
      </trkpt>
      <trkpt lat="42.4927" lon="2.92987">
        <ele>572</ele>
        <time>2026-05-14T09:32:35.000Z</time>
      </trkpt>
      <trkpt lat="42.49269" lon="2.92985">
        <ele>573</ele>
        <time>2026-05-14T09:32:36.000Z</time>
      </trkpt>
      <trkpt lat="42.49269" lon="2.92983">
        <ele>573</ele>
        <time>2026-05-14T09:32:37.000Z</time>
      </trkpt>
      <trkpt lat="42.49269" lon="2.92982">
        <ele>573</ele>
        <time>2026-05-14T09:32:38.000Z</time>
      </trkpt>
      <trkpt lat="42.49268" lon="2.92981">
        <ele>573</ele>
        <time>2026-05-14T09:32:39.000Z</time>
      </trkpt>
      <trkpt lat="42.49268" lon="2.92981">
        <ele>573</ele>
        <time>2026-05-14T09:32:40.000Z</time>
      </trkpt>
      <trkpt lat="42.49267" lon="2.9298">
        <ele>573</ele>
        <time>2026-05-14T09:32:41.000Z</time>
      </trkpt>
      <trkpt lat="42.49267" lon="2.92979">
        <ele>573</ele>
        <time>2026-05-14T09:32:42.000Z</time>
      </trkpt>
      <trkpt lat="42.49267" lon="2.92978">
        <ele>574</ele>
        <time>2026-05-14T09:32:43.000Z</time>
      </trkpt>
      <trkpt lat="42.49267" lon="2.92977">
        <ele>574</ele>
        <time>2026-05-14T09:32:44.000Z</time>
      </trkpt>
      <trkpt lat="42.49267" lon="2.92976">
        <ele>574</ele>
        <time>2026-05-14T09:32:45.000Z</time>
      </trkpt>
      <trkpt lat="42.49268" lon="2.92975">
        <ele>574</ele>
        <time>2026-05-14T09:32:46.000Z</time>
      </trkpt>
      <trkpt lat="42.49268" lon="2.92973">
        <ele>574</ele>
        <time>2026-05-14T09:32:47.000Z</time>
      </trkpt>
      <trkpt lat="42.49268" lon="2.92972">
        <ele>574</ele>
        <time>2026-05-14T09:32:48.000Z</time>
      </trkpt>
      <trkpt lat="42.49268" lon="2.92972">
        <ele>574</ele>
        <time>2026-05-14T09:32:49.000Z</time>
      </trkpt>
      <trkpt lat="42.49268" lon="2.92972">
        <ele>574</ele>
        <time>2026-05-14T09:32:50.000Z</time>
      </trkpt>
      <trkpt lat="42.49268" lon="2.92972">
        <ele>574</ele>
        <time>2026-05-14T09:32:51.000Z</time>
      </trkpt>
      <trkpt lat="42.49268" lon="2.92973">
        <ele>574</ele>
        <time>2026-05-14T09:32:52.000Z</time>
      </trkpt>
      <trkpt lat="42.49269" lon="2.92974">
        <ele>574</ele>
        <time>2026-05-14T09:32:53.000Z</time>
      </trkpt>
      <trkpt lat="42.49269" lon="2.92974">
        <ele>574</ele>
        <time>2026-05-14T09:32:54.000Z</time>
      </trkpt>
      <trkpt lat="42.49268" lon="2.92973">
        <ele>574</ele>
        <time>2026-05-14T09:32:55.000Z</time>
      </trkpt>
      <trkpt lat="42.49268" lon="2.92973">
        <ele>574</ele>
        <time>2026-05-14T09:32:56.000Z</time>
      </trkpt>
      <trkpt lat="42.49268" lon="2.92973">
        <ele>574</ele>
        <time>2026-05-14T09:32:57.000Z</time>
      </trkpt>
      <trkpt lat="42.49267" lon="2.92972">
        <ele>574</ele>
        <time>2026-05-14T09:32:58.000Z</time>
      </trkpt>
      <trkpt lat="42.49268" lon="2.92972">
        <ele>577</ele>
        <time>2026-05-14T09:33:17.000Z</time>
      </trkpt>
      <trkpt lat="42.49269" lon="2.92972">
        <ele>576</ele>
        <time>2026-05-14T09:33:18.000Z</time>
      </trkpt>
      <trkpt lat="42.4927" lon="2.92972">
        <ele>577</ele>
        <time>2026-05-14T09:33:19.000Z</time>
      </trkpt>
      <trkpt lat="42.49271" lon="2.92969">
        <ele>577</ele>
        <time>2026-05-14T09:33:20.000Z</time>
      </trkpt>
      <trkpt lat="42.49271" lon="2.92967">
        <ele>577</ele>
        <time>2026-05-14T09:33:21.000Z</time>
      </trkpt>
      <trkpt lat="42.49271" lon="2.92966">
        <ele>577</ele>
        <time>2026-05-14T09:33:22.000Z</time>
      </trkpt>
      <trkpt lat="42.4927" lon="2.92963">
        <ele>577</ele>
        <time>2026-05-14T09:33:23.000Z</time>
      </trkpt>
      <trkpt lat="42.49269" lon="2.92961">
        <ele>577</ele>
        <time>2026-05-14T09:33:24.000Z</time>
      </trkpt>
      <trkpt lat="42.49269" lon="2.92959">
        <ele>578</ele>
        <time>2026-05-14T09:33:25.000Z</time>
      </trkpt>
      <trkpt lat="42.49269" lon="2.92958">
        <ele>578</ele>
        <time>2026-05-14T09:33:26.000Z</time>
      </trkpt>
      <trkpt lat="42.49269" lon="2.92955">
        <ele>578</ele>
        <time>2026-05-14T09:33:27.000Z</time>
      </trkpt>
      <trkpt lat="42.49269" lon="2.92952">
        <ele>578</ele>
        <time>2026-05-14T09:33:28.000Z</time>
      </trkpt>
      <trkpt lat="42.4927" lon="2.92949">
        <ele>579</ele>
        <time>2026-05-14T09:33:29.000Z</time>
      </trkpt>
      <trkpt lat="42.4927" lon="2.92946">
        <ele>579</ele>
        <time>2026-05-14T09:33:30.000Z</time>
      </trkpt>
      <trkpt lat="42.4927" lon="2.92944">
        <ele>580</ele>
        <time>2026-05-14T09:33:31.000Z</time>
      </trkpt>
      <trkpt lat="42.49269" lon="2.92942">
        <ele>580</ele>
        <time>2026-05-14T09:33:32.000Z</time>
      </trkpt>
      <trkpt lat="42.49269" lon="2.9294">
        <ele>580</ele>
        <time>2026-05-14T09:33:33.000Z</time>
      </trkpt>
      <trkpt lat="42.4927" lon="2.92938">
        <ele>580</ele>
        <time>2026-05-14T09:33:34.000Z</time>
      </trkpt>
      <trkpt lat="42.4927" lon="2.92936">
        <ele>580</ele>
        <time>2026-05-14T09:33:35.000Z</time>
      </trkpt>
      <trkpt lat="42.4927" lon="2.92933">
        <ele>580</ele>
        <time>2026-05-14T09:33:36.000Z</time>
      </trkpt>
      <trkpt lat="42.4927" lon="2.92931">
        <ele>581</ele>
        <time>2026-05-14T09:33:37.000Z</time>
      </trkpt>
      <trkpt lat="42.4927" lon="2.92928">
        <ele>581</ele>
        <time>2026-05-14T09:33:38.000Z</time>
      </trkpt>
      <trkpt lat="42.49271" lon="2.92926">
        <ele>581</ele>
        <time>2026-05-14T09:33:39.000Z</time>
      </trkpt>
      <trkpt lat="42.49271" lon="2.92923">
        <ele>581</ele>
        <time>2026-05-14T09:33:40.000Z</time>
      </trkpt>
      <trkpt lat="42.49271" lon="2.92921">
        <ele>581</ele>
        <time>2026-05-14T09:33:41.000Z</time>
      </trkpt>
      <trkpt lat="42.49272" lon="2.92919">
        <ele>581</ele>
        <time>2026-05-14T09:33:42.000Z</time>
      </trkpt>
      <trkpt lat="42.49271" lon="2.92916">
        <ele>581</ele>
        <time>2026-05-14T09:33:43.000Z</time>
      </trkpt>
      <trkpt lat="42.49272" lon="2.92913">
        <ele>581</ele>
        <time>2026-05-14T09:33:44.000Z</time>
      </trkpt>
      <trkpt lat="42.49272" lon="2.9291">
        <ele>582</ele>
        <time>2026-05-14T09:33:45.000Z</time>
      </trkpt>
      <trkpt lat="42.49273" lon="2.92907">
        <ele>581</ele>
        <time>2026-05-14T09:33:46.000Z</time>
      </trkpt>
      <trkpt lat="42.49273" lon="2.92904">
        <ele>581</ele>
        <time>2026-05-14T09:33:47.000Z</time>
      </trkpt>
      <trkpt lat="42.49274" lon="2.92902">
        <ele>581</ele>
        <time>2026-05-14T09:33:48.000Z</time>
      </trkpt>
      <trkpt lat="42.49275" lon="2.92899">
        <ele>582</ele>
        <time>2026-05-14T09:33:49.000Z</time>
      </trkpt>
      <trkpt lat="42.49275" lon="2.92897">
        <ele>582</ele>
        <time>2026-05-14T09:33:50.000Z</time>
      </trkpt>
      <trkpt lat="42.49276" lon="2.92894">
        <ele>582</ele>
        <time>2026-05-14T09:33:51.000Z</time>
      </trkpt>
      <trkpt lat="42.49276" lon="2.92891">
        <ele>582</ele>
        <time>2026-05-14T09:33:52.000Z</time>
      </trkpt>
      <trkpt lat="42.49277" lon="2.92889">
        <ele>582</ele>
        <time>2026-05-14T09:33:53.000Z</time>
      </trkpt>
      <trkpt lat="42.49277" lon="2.92886">
        <ele>582</ele>
        <time>2026-05-14T09:33:54.000Z</time>
      </trkpt>
      <trkpt lat="42.49278" lon="2.92883">
        <ele>582</ele>
        <time>2026-05-14T09:33:55.000Z</time>
      </trkpt>
      <trkpt lat="42.49278" lon="2.92881">
        <ele>582</ele>
        <time>2026-05-14T09:33:56.000Z</time>
      </trkpt>
      <trkpt lat="42.49279" lon="2.92878">
        <ele>582</ele>
        <time>2026-05-14T09:33:57.000Z</time>
      </trkpt>
      <trkpt lat="42.49279" lon="2.92875">
        <ele>582</ele>
        <time>2026-05-14T09:33:58.000Z</time>
      </trkpt>
      <trkpt lat="42.49279" lon="2.92872">
        <ele>582</ele>
        <time>2026-05-14T09:33:59.000Z</time>
      </trkpt>
      <trkpt lat="42.49279" lon="2.9287">
        <ele>582</ele>
        <time>2026-05-14T09:34:00.000Z</time>
      </trkpt>
      <trkpt lat="42.49279" lon="2.92867">
        <ele>582</ele>
        <time>2026-05-14T09:34:01.000Z</time>
      </trkpt>
      <trkpt lat="42.49279" lon="2.92865">
        <ele>581</ele>
        <time>2026-05-14T09:34:02.000Z</time>
      </trkpt>
      <trkpt lat="42.49279" lon="2.92863">
        <ele>581</ele>
        <time>2026-05-14T09:34:03.000Z</time>
      </trkpt>
      <trkpt lat="42.49279" lon="2.9286">
        <ele>582</ele>
        <time>2026-05-14T09:34:04.000Z</time>
      </trkpt>
      <trkpt lat="42.49279" lon="2.92858">
        <ele>582</ele>
        <time>2026-05-14T09:34:05.000Z</time>
      </trkpt>
      <trkpt lat="42.49279" lon="2.92856">
        <ele>582</ele>
        <time>2026-05-14T09:34:06.000Z</time>
      </trkpt>
      <trkpt lat="42.49279" lon="2.92853">
        <ele>582</ele>
        <time>2026-05-14T09:34:07.000Z</time>
      </trkpt>
      <trkpt lat="42.49279" lon="2.92851">
        <ele>582</ele>
        <time>2026-05-14T09:34:08.000Z</time>
      </trkpt>
      <trkpt lat="42.49279" lon="2.92849">
        <ele>582</ele>
        <time>2026-05-14T09:34:09.000Z</time>
      </trkpt>
      <trkpt lat="42.49279" lon="2.92846">
        <ele>582</ele>
        <time>2026-05-14T09:34:10.000Z</time>
      </trkpt>
      <trkpt lat="42.49278" lon="2.92844">
        <ele>582</ele>
        <time>2026-05-14T09:34:11.000Z</time>
      </trkpt>
      <trkpt lat="42.49278" lon="2.92842">
        <ele>582</ele>
        <time>2026-05-14T09:34:12.000Z</time>
      </trkpt>
      <trkpt lat="42.49278" lon="2.9284">
        <ele>583</ele>
        <time>2026-05-14T09:34:13.000Z</time>
      </trkpt>
      <trkpt lat="42.49278" lon="2.92838">
        <ele>583</ele>
        <time>2026-05-14T09:34:14.000Z</time>
      </trkpt>
      <trkpt lat="42.49278" lon="2.92836">
        <ele>583</ele>
        <time>2026-05-14T09:34:15.000Z</time>
      </trkpt>
      <trkpt lat="42.49277" lon="2.92834">
        <ele>583</ele>
        <time>2026-05-14T09:34:16.000Z</time>
      </trkpt>
      <trkpt lat="42.49277" lon="2.92831">
        <ele>583</ele>
        <time>2026-05-14T09:34:17.000Z</time>
      </trkpt>
      <trkpt lat="42.49277" lon="2.92828">
        <ele>583</ele>
        <time>2026-05-14T09:34:18.000Z</time>
      </trkpt>
      <trkpt lat="42.49276" lon="2.92827">
        <ele>583</ele>
        <time>2026-05-14T09:34:19.000Z</time>
      </trkpt>
      <trkpt lat="42.49276" lon="2.92826">
        <ele>583</ele>
        <time>2026-05-14T09:34:20.000Z</time>
      </trkpt>
      <trkpt lat="42.49275" lon="2.92824">
        <ele>583</ele>
        <time>2026-05-14T09:34:21.000Z</time>
      </trkpt>
      <trkpt lat="42.49274" lon="2.92823">
        <ele>583</ele>
        <time>2026-05-14T09:34:22.000Z</time>
      </trkpt>
      <trkpt lat="42.49273" lon="2.92822">
        <ele>583</ele>
        <time>2026-05-14T09:34:23.000Z</time>
      </trkpt>
      <trkpt lat="42.49272" lon="2.9282">
        <ele>583</ele>
        <time>2026-05-14T09:34:24.000Z</time>
      </trkpt>
      <trkpt lat="42.49271" lon="2.9282">
        <ele>584</ele>
        <time>2026-05-14T09:34:25.000Z</time>
      </trkpt>
      <trkpt lat="42.49271" lon="2.92818">
        <ele>584</ele>
        <time>2026-05-14T09:34:26.000Z</time>
      </trkpt>
      <trkpt lat="42.4927" lon="2.92816">
        <ele>584</ele>
        <time>2026-05-14T09:34:27.000Z</time>
      </trkpt>
      <trkpt lat="42.49269" lon="2.92814">
        <ele>584</ele>
        <time>2026-05-14T09:34:28.000Z</time>
      </trkpt>
      <trkpt lat="42.49268" lon="2.92813">
        <ele>584</ele>
        <time>2026-05-14T09:34:29.000Z</time>
      </trkpt>
      <trkpt lat="42.49267" lon="2.92811">
        <ele>584</ele>
        <time>2026-05-14T09:34:30.000Z</time>
      </trkpt>
      <trkpt lat="42.49267" lon="2.9281">
        <ele>584</ele>
        <time>2026-05-14T09:34:31.000Z</time>
      </trkpt>
      <trkpt lat="42.49266" lon="2.92808">
        <ele>585</ele>
        <time>2026-05-14T09:34:32.000Z</time>
      </trkpt>
      <trkpt lat="42.49266" lon="2.92806">
        <ele>585</ele>
        <time>2026-05-14T09:34:33.000Z</time>
      </trkpt>
      <trkpt lat="42.49266" lon="2.92805">
        <ele>585</ele>
        <time>2026-05-14T09:34:34.000Z</time>
      </trkpt>
      <trkpt lat="42.49266" lon="2.92803">
        <ele>584</ele>
        <time>2026-05-14T09:34:35.000Z</time>
      </trkpt>
      <trkpt lat="42.49266" lon="2.92802">
        <ele>584</ele>
        <time>2026-05-14T09:34:36.000Z</time>
      </trkpt>
      <trkpt lat="42.49267" lon="2.928">
        <ele>584</ele>
        <time>2026-05-14T09:34:37.000Z</time>
      </trkpt>
      <trkpt lat="42.49267" lon="2.92799">
        <ele>584</ele>
        <time>2026-05-14T09:34:38.000Z</time>
      </trkpt>
      <trkpt lat="42.49268" lon="2.92799">
        <ele>583</ele>
        <time>2026-05-14T09:34:39.000Z</time>
      </trkpt>
      <trkpt lat="42.49268" lon="2.92799">
        <ele>584</ele>
        <time>2026-05-14T09:34:40.000Z</time>
      </trkpt>
      <trkpt lat="42.49269" lon="2.92798">
        <ele>584</ele>
        <time>2026-05-14T09:34:41.000Z</time>
      </trkpt>
      <trkpt lat="42.49269" lon="2.92797">
        <ele>584</ele>
        <time>2026-05-14T09:34:42.000Z</time>
      </trkpt>
      <trkpt lat="42.4927" lon="2.92797">
        <ele>584</ele>
        <time>2026-05-14T09:34:43.000Z</time>
      </trkpt>
      <trkpt lat="42.49271" lon="2.92796">
        <ele>585</ele>
        <time>2026-05-14T09:34:44.000Z</time>
      </trkpt>
      <trkpt lat="42.49271" lon="2.92795">
        <ele>585</ele>
        <time>2026-05-14T09:34:45.000Z</time>
      </trkpt>
      <trkpt lat="42.49272" lon="2.92793">
        <ele>585</ele>
        <time>2026-05-14T09:34:46.000Z</time>
      </trkpt>
      <trkpt lat="42.49273" lon="2.92793">
        <ele>585</ele>
        <time>2026-05-14T09:34:47.000Z</time>
      </trkpt>
      <trkpt lat="42.49274" lon="2.92792">
        <ele>585</ele>
        <time>2026-05-14T09:34:48.000Z</time>
      </trkpt>
      <trkpt lat="42.49275" lon="2.92792">
        <ele>585</ele>
        <time>2026-05-14T09:34:49.000Z</time>
      </trkpt>
      <trkpt lat="42.49276" lon="2.92791">
        <ele>585</ele>
        <time>2026-05-14T09:34:50.000Z</time>
      </trkpt>
      <trkpt lat="42.49277" lon="2.92791">
        <ele>586</ele>
        <time>2026-05-14T09:34:51.000Z</time>
      </trkpt>
      <trkpt lat="42.49278" lon="2.92791">
        <ele>586</ele>
        <time>2026-05-14T09:34:52.000Z</time>
      </trkpt>
      <trkpt lat="42.49279" lon="2.9279">
        <ele>586</ele>
        <time>2026-05-14T09:34:53.000Z</time>
      </trkpt>
      <trkpt lat="42.4928" lon="2.9279">
        <ele>586</ele>
        <time>2026-05-14T09:34:54.000Z</time>
      </trkpt>
      <trkpt lat="42.49281" lon="2.9279">
        <ele>586</ele>
        <time>2026-05-14T09:34:55.000Z</time>
      </trkpt>
      <trkpt lat="42.49283" lon="2.92788">
        <ele>587</ele>
        <time>2026-05-14T09:34:56.000Z</time>
      </trkpt>
      <trkpt lat="42.49284" lon="2.92786">
        <ele>587</ele>
        <time>2026-05-14T09:34:57.000Z</time>
      </trkpt>
      <trkpt lat="42.49286" lon="2.92785">
        <ele>588</ele>
        <time>2026-05-14T09:34:58.000Z</time>
      </trkpt>
      <trkpt lat="42.49287" lon="2.92784">
        <ele>588</ele>
        <time>2026-05-14T09:34:59.000Z</time>
      </trkpt>
      <trkpt lat="42.49288" lon="2.92783">
        <ele>588</ele>
        <time>2026-05-14T09:35:00.000Z</time>
      </trkpt>
      <trkpt lat="42.49289" lon="2.92782">
        <ele>588</ele>
        <time>2026-05-14T09:35:01.000Z</time>
      </trkpt>
      <trkpt lat="42.49291" lon="2.92781">
        <ele>588</ele>
        <time>2026-05-14T09:35:02.000Z</time>
      </trkpt>
      <trkpt lat="42.49293" lon="2.92779">
        <ele>588</ele>
        <time>2026-05-14T09:35:03.000Z</time>
      </trkpt>
      <trkpt lat="42.49295" lon="2.92778">
        <ele>589</ele>
        <time>2026-05-14T09:35:04.000Z</time>
      </trkpt>
      <trkpt lat="42.49296" lon="2.92776">
        <ele>589</ele>
        <time>2026-05-14T09:35:05.000Z</time>
      </trkpt>
      <trkpt lat="42.49297" lon="2.92774">
        <ele>589</ele>
        <time>2026-05-14T09:35:06.000Z</time>
      </trkpt>
      <trkpt lat="42.49299" lon="2.92772">
        <ele>589</ele>
        <time>2026-05-14T09:35:07.000Z</time>
      </trkpt>
      <trkpt lat="42.493" lon="2.9277">
        <ele>589</ele>
        <time>2026-05-14T09:35:08.000Z</time>
      </trkpt>
      <trkpt lat="42.49302" lon="2.92768">
        <ele>589</ele>
        <time>2026-05-14T09:35:09.000Z</time>
      </trkpt>
      <trkpt lat="42.49303" lon="2.92766">
        <ele>590</ele>
        <time>2026-05-14T09:35:10.000Z</time>
      </trkpt>
      <trkpt lat="42.49305" lon="2.92765">
        <ele>590</ele>
        <time>2026-05-14T09:35:11.000Z</time>
      </trkpt>
      <trkpt lat="42.49306" lon="2.92763">
        <ele>590</ele>
        <time>2026-05-14T09:35:12.000Z</time>
      </trkpt>
      <trkpt lat="42.49308" lon="2.92761">
        <ele>590</ele>
        <time>2026-05-14T09:35:13.000Z</time>
      </trkpt>
      <trkpt lat="42.49309" lon="2.92759">
        <ele>591</ele>
        <time>2026-05-14T09:35:14.000Z</time>
      </trkpt>
      <trkpt lat="42.4931" lon="2.92757">
        <ele>591</ele>
        <time>2026-05-14T09:35:15.000Z</time>
      </trkpt>
      <trkpt lat="42.49311" lon="2.92756">
        <ele>591</ele>
        <time>2026-05-14T09:35:16.000Z</time>
      </trkpt>
      <trkpt lat="42.49313" lon="2.92755">
        <ele>590</ele>
        <time>2026-05-14T09:35:17.000Z</time>
      </trkpt>
      <trkpt lat="42.49314" lon="2.92754">
        <ele>590</ele>
        <time>2026-05-14T09:35:18.000Z</time>
      </trkpt>
      <trkpt lat="42.49315" lon="2.92752">
        <ele>591</ele>
        <time>2026-05-14T09:35:19.000Z</time>
      </trkpt>
      <trkpt lat="42.49316" lon="2.92751">
        <ele>591</ele>
        <time>2026-05-14T09:35:20.000Z</time>
      </trkpt>
      <trkpt lat="42.49317" lon="2.92749">
        <ele>591</ele>
        <time>2026-05-14T09:35:21.000Z</time>
      </trkpt>
      <trkpt lat="42.49319" lon="2.92747">
        <ele>591</ele>
        <time>2026-05-14T09:35:22.000Z</time>
      </trkpt>
      <trkpt lat="42.49319" lon="2.92746">
        <ele>592</ele>
        <time>2026-05-14T09:35:23.000Z</time>
      </trkpt>
      <trkpt lat="42.4932" lon="2.92744">
        <ele>592</ele>
        <time>2026-05-14T09:35:24.000Z</time>
      </trkpt>
      <trkpt lat="42.49321" lon="2.92742">
        <ele>592</ele>
        <time>2026-05-14T09:35:25.000Z</time>
      </trkpt>
      <trkpt lat="42.49322" lon="2.92741">
        <ele>591</ele>
        <time>2026-05-14T09:35:26.000Z</time>
      </trkpt>
      <trkpt lat="42.49323" lon="2.92739">
        <ele>591</ele>
        <time>2026-05-14T09:35:27.000Z</time>
      </trkpt>
      <trkpt lat="42.49324" lon="2.92737">
        <ele>592</ele>
        <time>2026-05-14T09:35:28.000Z</time>
      </trkpt>
      <trkpt lat="42.49326" lon="2.92735">
        <ele>592</ele>
        <time>2026-05-14T09:35:29.000Z</time>
      </trkpt>
      <trkpt lat="42.49327" lon="2.92733">
        <ele>592</ele>
        <time>2026-05-14T09:35:30.000Z</time>
      </trkpt>
      <trkpt lat="42.49329" lon="2.92731">
        <ele>592</ele>
        <time>2026-05-14T09:35:31.000Z</time>
      </trkpt>
      <trkpt lat="42.4933" lon="2.92729">
        <ele>592</ele>
        <time>2026-05-14T09:35:32.000Z</time>
      </trkpt>
      <trkpt lat="42.49331" lon="2.92728">
        <ele>593</ele>
        <time>2026-05-14T09:35:33.000Z</time>
      </trkpt>
      <trkpt lat="42.49331" lon="2.92726">
        <ele>593</ele>
        <time>2026-05-14T09:35:34.000Z</time>
      </trkpt>
      <trkpt lat="42.49333" lon="2.92724">
        <ele>593</ele>
        <time>2026-05-14T09:35:35.000Z</time>
      </trkpt>
      <trkpt lat="42.49334" lon="2.92722">
        <ele>593</ele>
        <time>2026-05-14T09:35:36.000Z</time>
      </trkpt>
      <trkpt lat="42.49334" lon="2.92721">
        <ele>593</ele>
        <time>2026-05-14T09:35:37.000Z</time>
      </trkpt>
      <trkpt lat="42.49335" lon="2.92719">
        <ele>593</ele>
        <time>2026-05-14T09:35:38.000Z</time>
      </trkpt>
      <trkpt lat="42.49337" lon="2.92717">
        <ele>593</ele>
        <time>2026-05-14T09:35:39.000Z</time>
      </trkpt>
      <trkpt lat="42.49338" lon="2.92715">
        <ele>594</ele>
        <time>2026-05-14T09:35:40.000Z</time>
      </trkpt>
      <trkpt lat="42.49339" lon="2.92714">
        <ele>593</ele>
        <time>2026-05-14T09:35:41.000Z</time>
      </trkpt>
      <trkpt lat="42.4934" lon="2.92713">
        <ele>593</ele>
        <time>2026-05-14T09:35:42.000Z</time>
      </trkpt>
      <trkpt lat="42.49341" lon="2.92712">
        <ele>593</ele>
        <time>2026-05-14T09:35:43.000Z</time>
      </trkpt>
      <trkpt lat="42.49342" lon="2.9271">
        <ele>593</ele>
        <time>2026-05-14T09:35:44.000Z</time>
      </trkpt>
      <trkpt lat="42.49343" lon="2.92708">
        <ele>593</ele>
        <time>2026-05-14T09:35:45.000Z</time>
      </trkpt>
      <trkpt lat="42.49344" lon="2.92707">
        <ele>593</ele>
        <time>2026-05-14T09:35:46.000Z</time>
      </trkpt>
      <trkpt lat="42.49345" lon="2.92705">
        <ele>593</ele>
        <time>2026-05-14T09:35:47.000Z</time>
      </trkpt>
      <trkpt lat="42.49347" lon="2.92704">
        <ele>593</ele>
        <time>2026-05-14T09:35:48.000Z</time>
      </trkpt>
      <trkpt lat="42.49348" lon="2.92703">
        <ele>594</ele>
        <time>2026-05-14T09:35:49.000Z</time>
      </trkpt>
      <trkpt lat="42.49349" lon="2.92702">
        <ele>595</ele>
        <time>2026-05-14T09:35:50.000Z</time>
      </trkpt>
      <trkpt lat="42.4935" lon="2.92702">
        <ele>595</ele>
        <time>2026-05-14T09:35:51.000Z</time>
      </trkpt>
      <trkpt lat="42.49351" lon="2.92701">
        <ele>596</ele>
        <time>2026-05-14T09:35:52.000Z</time>
      </trkpt>
      <trkpt lat="42.49352" lon="2.92701">
        <ele>596</ele>
        <time>2026-05-14T09:35:53.000Z</time>
      </trkpt>
      <trkpt lat="42.49353" lon="2.927">
        <ele>596</ele>
        <time>2026-05-14T09:35:54.000Z</time>
      </trkpt>
      <trkpt lat="42.49354" lon="2.92699">
        <ele>596</ele>
        <time>2026-05-14T09:35:55.000Z</time>
      </trkpt>
      <trkpt lat="42.49354" lon="2.92699">
        <ele>595</ele>
        <time>2026-05-14T09:35:56.000Z</time>
      </trkpt>
      <trkpt lat="42.49355" lon="2.92699">
        <ele>595</ele>
        <time>2026-05-14T09:35:57.000Z</time>
      </trkpt>
      <trkpt lat="42.49356" lon="2.92697">
        <ele>596</ele>
        <time>2026-05-14T09:35:58.000Z</time>
      </trkpt>
      <trkpt lat="42.49358" lon="2.92696">
        <ele>596</ele>
        <time>2026-05-14T09:35:59.000Z</time>
      </trkpt>
      <trkpt lat="42.49359" lon="2.92695">
        <ele>596</ele>
        <time>2026-05-14T09:36:00.000Z</time>
      </trkpt>
      <trkpt lat="42.4936" lon="2.92694">
        <ele>596</ele>
        <time>2026-05-14T09:36:01.000Z</time>
      </trkpt>
      <trkpt lat="42.49361" lon="2.92693">
        <ele>596</ele>
        <time>2026-05-14T09:36:02.000Z</time>
      </trkpt>
      <trkpt lat="42.49362" lon="2.92693">
        <ele>597</ele>
        <time>2026-05-14T09:36:03.000Z</time>
      </trkpt>
      <trkpt lat="42.49364" lon="2.92692">
        <ele>597</ele>
        <time>2026-05-14T09:36:04.000Z</time>
      </trkpt>
      <trkpt lat="42.49365" lon="2.92692">
        <ele>597</ele>
        <time>2026-05-14T09:36:05.000Z</time>
      </trkpt>
      <trkpt lat="42.49366" lon="2.92691">
        <ele>597</ele>
        <time>2026-05-14T09:36:06.000Z</time>
      </trkpt>
      <trkpt lat="42.49367" lon="2.9269">
        <ele>597</ele>
        <time>2026-05-14T09:36:07.000Z</time>
      </trkpt>
      <trkpt lat="42.49368" lon="2.9269">
        <ele>597</ele>
        <time>2026-05-14T09:36:08.000Z</time>
      </trkpt>
      <trkpt lat="42.49369" lon="2.92689">
        <ele>597</ele>
        <time>2026-05-14T09:36:09.000Z</time>
      </trkpt>
      <trkpt lat="42.4937" lon="2.92687">
        <ele>597</ele>
        <time>2026-05-14T09:36:10.000Z</time>
      </trkpt>
      <trkpt lat="42.49371" lon="2.92687">
        <ele>597</ele>
        <time>2026-05-14T09:36:11.000Z</time>
      </trkpt>
      <trkpt lat="42.49372" lon="2.92686">
        <ele>597</ele>
        <time>2026-05-14T09:36:12.000Z</time>
      </trkpt>
      <trkpt lat="42.49373" lon="2.92686">
        <ele>598</ele>
        <time>2026-05-14T09:36:13.000Z</time>
      </trkpt>
      <trkpt lat="42.49375" lon="2.92686">
        <ele>598</ele>
        <time>2026-05-14T09:36:14.000Z</time>
      </trkpt>
      <trkpt lat="42.49376" lon="2.92685">
        <ele>598</ele>
        <time>2026-05-14T09:36:15.000Z</time>
      </trkpt>
      <trkpt lat="42.49378" lon="2.92685">
        <ele>599</ele>
        <time>2026-05-14T09:36:16.000Z</time>
      </trkpt>
      <trkpt lat="42.49379" lon="2.92684">
        <ele>600</ele>
        <time>2026-05-14T09:36:17.000Z</time>
      </trkpt>
      <trkpt lat="42.49381" lon="2.92684">
        <ele>601</ele>
        <time>2026-05-14T09:36:18.000Z</time>
      </trkpt>
      <trkpt lat="42.49382" lon="2.92684">
        <ele>601</ele>
        <time>2026-05-14T09:36:19.000Z</time>
      </trkpt>
      <trkpt lat="42.49383" lon="2.92684">
        <ele>602</ele>
        <time>2026-05-14T09:36:20.000Z</time>
      </trkpt>
      <trkpt lat="42.49385" lon="2.92684">
        <ele>602</ele>
        <time>2026-05-14T09:36:21.000Z</time>
      </trkpt>
      <trkpt lat="42.49386" lon="2.92684">
        <ele>602</ele>
        <time>2026-05-14T09:36:22.000Z</time>
      </trkpt>
      <trkpt lat="42.49388" lon="2.92684">
        <ele>602</ele>
        <time>2026-05-14T09:36:23.000Z</time>
      </trkpt>
      <trkpt lat="42.4939" lon="2.92684">
        <ele>602</ele>
        <time>2026-05-14T09:36:24.000Z</time>
      </trkpt>
      <trkpt lat="42.49391" lon="2.92684">
        <ele>603</ele>
        <time>2026-05-14T09:36:25.000Z</time>
      </trkpt>
      <trkpt lat="42.49392" lon="2.92684">
        <ele>603</ele>
        <time>2026-05-14T09:36:26.000Z</time>
      </trkpt>
      <trkpt lat="42.49394" lon="2.92684">
        <ele>603</ele>
        <time>2026-05-14T09:36:27.000Z</time>
      </trkpt>
      <trkpt lat="42.49395" lon="2.92683">
        <ele>603</ele>
        <time>2026-05-14T09:36:28.000Z</time>
      </trkpt>
      <trkpt lat="42.49397" lon="2.92682">
        <ele>603</ele>
        <time>2026-05-14T09:36:29.000Z</time>
      </trkpt>
      <trkpt lat="42.49399" lon="2.92681">
        <ele>603</ele>
        <time>2026-05-14T09:36:30.000Z</time>
      </trkpt>
      <trkpt lat="42.49401" lon="2.92681">
        <ele>604</ele>
        <time>2026-05-14T09:36:31.000Z</time>
      </trkpt>
      <trkpt lat="42.49403" lon="2.92681">
        <ele>605</ele>
        <time>2026-05-14T09:36:32.000Z</time>
      </trkpt>
      <trkpt lat="42.49404" lon="2.92681">
        <ele>605</ele>
        <time>2026-05-14T09:36:33.000Z</time>
      </trkpt>
      <trkpt lat="42.49406" lon="2.92681">
        <ele>606</ele>
        <time>2026-05-14T09:36:34.000Z</time>
      </trkpt>
      <trkpt lat="42.49407" lon="2.9268">
        <ele>606</ele>
        <time>2026-05-14T09:36:35.000Z</time>
      </trkpt>
      <trkpt lat="42.49409" lon="2.9268">
        <ele>606</ele>
        <time>2026-05-14T09:36:36.000Z</time>
      </trkpt>
      <trkpt lat="42.4941" lon="2.92679">
        <ele>607</ele>
        <time>2026-05-14T09:36:37.000Z</time>
      </trkpt>
      <trkpt lat="42.49412" lon="2.92677">
        <ele>607</ele>
        <time>2026-05-14T09:36:38.000Z</time>
      </trkpt>
      <trkpt lat="42.49413" lon="2.92675">
        <ele>608</ele>
        <time>2026-05-14T09:36:39.000Z</time>
      </trkpt>
      <trkpt lat="42.49414" lon="2.92671">
        <ele>608</ele>
        <time>2026-05-14T09:36:40.000Z</time>
      </trkpt>
      <trkpt lat="42.49414" lon="2.92667">
        <ele>607</ele>
        <time>2026-05-14T09:36:41.000Z</time>
      </trkpt>
      <trkpt lat="42.49414" lon="2.92664">
        <ele>607</ele>
        <time>2026-05-14T09:36:42.000Z</time>
      </trkpt>
      <trkpt lat="42.49413" lon="2.92661">
        <ele>607</ele>
        <time>2026-05-14T09:36:43.000Z</time>
      </trkpt>
      <trkpt lat="42.49413" lon="2.92658">
        <ele>608</ele>
        <time>2026-05-14T09:36:44.000Z</time>
      </trkpt>
      <trkpt lat="42.49412" lon="2.92656">
        <ele>608</ele>
        <time>2026-05-14T09:36:45.000Z</time>
      </trkpt>
      <trkpt lat="42.49411" lon="2.92655">
        <ele>608</ele>
        <time>2026-05-14T09:36:46.000Z</time>
      </trkpt>
      <trkpt lat="42.4941" lon="2.92654">
        <ele>608</ele>
        <time>2026-05-14T09:36:47.000Z</time>
      </trkpt>
      <trkpt lat="42.49408" lon="2.92653">
        <ele>608</ele>
        <time>2026-05-14T09:36:48.000Z</time>
      </trkpt>
      <trkpt lat="42.49407" lon="2.92653">
        <ele>607</ele>
        <time>2026-05-14T09:36:49.000Z</time>
      </trkpt>
      <trkpt lat="42.49406" lon="2.92653">
        <ele>607</ele>
        <time>2026-05-14T09:36:50.000Z</time>
      </trkpt>
      <trkpt lat="42.49405" lon="2.92653">
        <ele>607</ele>
        <time>2026-05-14T09:36:51.000Z</time>
      </trkpt>
      <trkpt lat="42.49404" lon="2.92653">
        <ele>607</ele>
        <time>2026-05-14T09:36:52.000Z</time>
      </trkpt>
      <trkpt lat="42.49402" lon="2.92653">
        <ele>607</ele>
        <time>2026-05-14T09:36:53.000Z</time>
      </trkpt>
      <trkpt lat="42.49401" lon="2.92653">
        <ele>607</ele>
        <time>2026-05-14T09:36:54.000Z</time>
      </trkpt>
      <trkpt lat="42.494" lon="2.92653">
        <ele>607</ele>
        <time>2026-05-14T09:36:55.000Z</time>
      </trkpt>
      <trkpt lat="42.49398" lon="2.92654">
        <ele>607</ele>
        <time>2026-05-14T09:36:56.000Z</time>
      </trkpt>
      <trkpt lat="42.49397" lon="2.92654">
        <ele>607</ele>
        <time>2026-05-14T09:36:57.000Z</time>
      </trkpt>
      <trkpt lat="42.49395" lon="2.92654">
        <ele>607</ele>
        <time>2026-05-14T09:36:58.000Z</time>
      </trkpt>
      <trkpt lat="42.49394" lon="2.92654">
        <ele>607</ele>
        <time>2026-05-14T09:36:59.000Z</time>
      </trkpt>
      <trkpt lat="42.49392" lon="2.92654">
        <ele>607</ele>
        <time>2026-05-14T09:37:00.000Z</time>
      </trkpt>
      <trkpt lat="42.4939" lon="2.92653">
        <ele>607</ele>
        <time>2026-05-14T09:37:01.000Z</time>
      </trkpt>
      <trkpt lat="42.49389" lon="2.92653">
        <ele>607</ele>
        <time>2026-05-14T09:37:02.000Z</time>
      </trkpt>
      <trkpt lat="42.49388" lon="2.92652">
        <ele>607</ele>
        <time>2026-05-14T09:37:03.000Z</time>
      </trkpt>
      <trkpt lat="42.49387" lon="2.92652">
        <ele>607</ele>
        <time>2026-05-14T09:37:04.000Z</time>
      </trkpt>
      <trkpt lat="42.49386" lon="2.92652">
        <ele>608</ele>
        <time>2026-05-14T09:37:05.000Z</time>
      </trkpt>
      <trkpt lat="42.49385" lon="2.92652">
        <ele>608</ele>
        <time>2026-05-14T09:37:06.000Z</time>
      </trkpt>
      <trkpt lat="42.49384" lon="2.92652">
        <ele>608</ele>
        <time>2026-05-14T09:37:07.000Z</time>
      </trkpt>
      <trkpt lat="42.49383" lon="2.92652">
        <ele>608</ele>
        <time>2026-05-14T09:37:08.000Z</time>
      </trkpt>
      <trkpt lat="42.49381" lon="2.92652">
        <ele>608</ele>
        <time>2026-05-14T09:37:09.000Z</time>
      </trkpt>
      <trkpt lat="42.4938" lon="2.92652">
        <ele>609</ele>
        <time>2026-05-14T09:37:10.000Z</time>
      </trkpt>
      <trkpt lat="42.49379" lon="2.92652">
        <ele>609</ele>
        <time>2026-05-14T09:37:11.000Z</time>
      </trkpt>
      <trkpt lat="42.49378" lon="2.92652">
        <ele>609</ele>
        <time>2026-05-14T09:37:12.000Z</time>
      </trkpt>
      <trkpt lat="42.49377" lon="2.92652">
        <ele>609</ele>
        <time>2026-05-14T09:37:13.000Z</time>
      </trkpt>
      <trkpt lat="42.49376" lon="2.92651">
        <ele>609</ele>
        <time>2026-05-14T09:37:14.000Z</time>
      </trkpt>
      <trkpt lat="42.49374" lon="2.92651">
        <ele>610</ele>
        <time>2026-05-14T09:37:15.000Z</time>
      </trkpt>
      <trkpt lat="42.49373" lon="2.92651">
        <ele>609</ele>
        <time>2026-05-14T09:37:16.000Z</time>
      </trkpt>
      <trkpt lat="42.49371" lon="2.92651">
        <ele>609</ele>
        <time>2026-05-14T09:37:17.000Z</time>
      </trkpt>
      <trkpt lat="42.49369" lon="2.92651">
        <ele>610</ele>
        <time>2026-05-14T09:37:18.000Z</time>
      </trkpt>
      <trkpt lat="42.49368" lon="2.92651">
        <ele>610</ele>
        <time>2026-05-14T09:37:19.000Z</time>
      </trkpt>
      <trkpt lat="42.49366" lon="2.92651">
        <ele>609</ele>
        <time>2026-05-14T09:37:20.000Z</time>
      </trkpt>
      <trkpt lat="42.49364" lon="2.92651">
        <ele>609</ele>
        <time>2026-05-14T09:37:21.000Z</time>
      </trkpt>
      <trkpt lat="42.49362" lon="2.92651">
        <ele>609</ele>
        <time>2026-05-14T09:37:22.000Z</time>
      </trkpt>
      <trkpt lat="42.49361" lon="2.92651">
        <ele>609</ele>
        <time>2026-05-14T09:37:23.000Z</time>
      </trkpt>
      <trkpt lat="42.4936" lon="2.9265">
        <ele>609</ele>
        <time>2026-05-14T09:37:24.000Z</time>
      </trkpt>
      <trkpt lat="42.49359" lon="2.9265">
        <ele>609</ele>
        <time>2026-05-14T09:37:25.000Z</time>
      </trkpt>
      <trkpt lat="42.49357" lon="2.92651">
        <ele>609</ele>
        <time>2026-05-14T09:37:26.000Z</time>
      </trkpt>
      <trkpt lat="42.49356" lon="2.92652">
        <ele>609</ele>
        <time>2026-05-14T09:37:27.000Z</time>
      </trkpt>
      <trkpt lat="42.49354" lon="2.92652">
        <ele>609</ele>
        <time>2026-05-14T09:37:28.000Z</time>
      </trkpt>
      <trkpt lat="42.49352" lon="2.92653">
        <ele>609</ele>
        <time>2026-05-14T09:37:29.000Z</time>
      </trkpt>
      <trkpt lat="42.49351" lon="2.92653">
        <ele>609</ele>
        <time>2026-05-14T09:37:30.000Z</time>
      </trkpt>
      <trkpt lat="42.4935" lon="2.92654">
        <ele>609</ele>
        <time>2026-05-14T09:37:31.000Z</time>
      </trkpt>
      <trkpt lat="42.49348" lon="2.92654">
        <ele>609</ele>
        <time>2026-05-14T09:37:32.000Z</time>
      </trkpt>
      <trkpt lat="42.49347" lon="2.92654">
        <ele>610</ele>
        <time>2026-05-14T09:37:33.000Z</time>
      </trkpt>
      <trkpt lat="42.49345" lon="2.92654">
        <ele>609</ele>
        <time>2026-05-14T09:37:34.000Z</time>
      </trkpt>
      <trkpt lat="42.49344" lon="2.92654">
        <ele>609</ele>
        <time>2026-05-14T09:37:35.000Z</time>
      </trkpt>
      <trkpt lat="42.49343" lon="2.92654">
        <ele>609</ele>
        <time>2026-05-14T09:37:36.000Z</time>
      </trkpt>
      <trkpt lat="42.49342" lon="2.92655">
        <ele>609</ele>
        <time>2026-05-14T09:37:37.000Z</time>
      </trkpt>
      <trkpt lat="42.49341" lon="2.92655">
        <ele>608</ele>
        <time>2026-05-14T09:37:38.000Z</time>
      </trkpt>
      <trkpt lat="42.4934" lon="2.92656">
        <ele>608</ele>
        <time>2026-05-14T09:37:39.000Z</time>
      </trkpt>
      <trkpt lat="42.49339" lon="2.92656">
        <ele>609</ele>
        <time>2026-05-14T09:37:40.000Z</time>
      </trkpt>
      <trkpt lat="42.49338" lon="2.92657">
        <ele>609</ele>
        <time>2026-05-14T09:37:41.000Z</time>
      </trkpt>
      <trkpt lat="42.49337" lon="2.92658">
        <ele>609</ele>
        <time>2026-05-14T09:37:42.000Z</time>
      </trkpt>
      <trkpt lat="42.49335" lon="2.92658">
        <ele>608</ele>
        <time>2026-05-14T09:37:43.000Z</time>
      </trkpt>
      <trkpt lat="42.49334" lon="2.92658">
        <ele>608</ele>
        <time>2026-05-14T09:37:44.000Z</time>
      </trkpt>
      <trkpt lat="42.49333" lon="2.92658">
        <ele>608</ele>
        <time>2026-05-14T09:37:45.000Z</time>
      </trkpt>
      <trkpt lat="42.49332" lon="2.92658">
        <ele>609</ele>
        <time>2026-05-14T09:37:46.000Z</time>
      </trkpt>
      <trkpt lat="42.49331" lon="2.92659">
        <ele>608</ele>
        <time>2026-05-14T09:37:47.000Z</time>
      </trkpt>
      <trkpt lat="42.49329" lon="2.92659">
        <ele>608</ele>
        <time>2026-05-14T09:37:48.000Z</time>
      </trkpt>
      <trkpt lat="42.49327" lon="2.9266">
        <ele>608</ele>
        <time>2026-05-14T09:37:49.000Z</time>
      </trkpt>
      <trkpt lat="42.49325" lon="2.9266">
        <ele>608</ele>
        <time>2026-05-14T09:37:50.000Z</time>
      </trkpt>
      <trkpt lat="42.49324" lon="2.92661">
        <ele>608</ele>
        <time>2026-05-14T09:37:51.000Z</time>
      </trkpt>
      <trkpt lat="42.49323" lon="2.92662">
        <ele>607</ele>
        <time>2026-05-14T09:37:52.000Z</time>
      </trkpt>
      <trkpt lat="42.49321" lon="2.92662">
        <ele>607</ele>
        <time>2026-05-14T09:37:53.000Z</time>
      </trkpt>
      <trkpt lat="42.4932" lon="2.92662">
        <ele>607</ele>
        <time>2026-05-14T09:37:54.000Z</time>
      </trkpt>
      <trkpt lat="42.49319" lon="2.92662">
        <ele>608</ele>
        <time>2026-05-14T09:37:55.000Z</time>
      </trkpt>
      <trkpt lat="42.49318" lon="2.92662">
        <ele>608</ele>
        <time>2026-05-14T09:37:56.000Z</time>
      </trkpt>
      <trkpt lat="42.49317" lon="2.92662">
        <ele>607</ele>
        <time>2026-05-14T09:37:57.000Z</time>
      </trkpt>
      <trkpt lat="42.49316" lon="2.92662">
        <ele>608</ele>
        <time>2026-05-14T09:37:58.000Z</time>
      </trkpt>
      <trkpt lat="42.49315" lon="2.92663">
        <ele>608</ele>
        <time>2026-05-14T09:37:59.000Z</time>
      </trkpt>
      <trkpt lat="42.49314" lon="2.92663">
        <ele>608</ele>
        <time>2026-05-14T09:38:00.000Z</time>
      </trkpt>
      <trkpt lat="42.49313" lon="2.92664">
        <ele>608</ele>
        <time>2026-05-14T09:38:01.000Z</time>
      </trkpt>
      <trkpt lat="42.49312" lon="2.92664">
        <ele>608</ele>
        <time>2026-05-14T09:38:02.000Z</time>
      </trkpt>
      <trkpt lat="42.49311" lon="2.92665">
        <ele>608</ele>
        <time>2026-05-14T09:38:03.000Z</time>
      </trkpt>
      <trkpt lat="42.4931" lon="2.92666">
        <ele>608</ele>
        <time>2026-05-14T09:38:04.000Z</time>
      </trkpt>
      <trkpt lat="42.49309" lon="2.92667">
        <ele>608</ele>
        <time>2026-05-14T09:38:05.000Z</time>
      </trkpt>
      <trkpt lat="42.49307" lon="2.92668">
        <ele>608</ele>
        <time>2026-05-14T09:38:06.000Z</time>
      </trkpt>
      <trkpt lat="42.49306" lon="2.92669">
        <ele>608</ele>
        <time>2026-05-14T09:38:07.000Z</time>
      </trkpt>
      <trkpt lat="42.49304" lon="2.9267">
        <ele>608</ele>
        <time>2026-05-14T09:38:08.000Z</time>
      </trkpt>
      <trkpt lat="42.49303" lon="2.92671">
        <ele>608</ele>
        <time>2026-05-14T09:38:09.000Z</time>
      </trkpt>
      <trkpt lat="42.49302" lon="2.92672">
        <ele>608</ele>
        <time>2026-05-14T09:38:10.000Z</time>
      </trkpt>
      <trkpt lat="42.493" lon="2.92673">
        <ele>608</ele>
        <time>2026-05-14T09:38:11.000Z</time>
      </trkpt>
      <trkpt lat="42.49299" lon="2.92674">
        <ele>608</ele>
        <time>2026-05-14T09:38:12.000Z</time>
      </trkpt>
      <trkpt lat="42.49298" lon="2.92675">
        <ele>608</ele>
        <time>2026-05-14T09:38:13.000Z</time>
      </trkpt>
      <trkpt lat="42.49297" lon="2.92676">
        <ele>609</ele>
        <time>2026-05-14T09:38:14.000Z</time>
      </trkpt>
      <trkpt lat="42.49295" lon="2.92677">
        <ele>609</ele>
        <time>2026-05-14T09:38:15.000Z</time>
      </trkpt>
      <trkpt lat="42.49294" lon="2.92678">
        <ele>610</ele>
        <time>2026-05-14T09:38:16.000Z</time>
      </trkpt>
      <trkpt lat="42.49293" lon="2.92678">
        <ele>610</ele>
        <time>2026-05-14T09:38:17.000Z</time>
      </trkpt>
      <trkpt lat="42.49292" lon="2.92679">
        <ele>610</ele>
        <time>2026-05-14T09:38:18.000Z</time>
      </trkpt>
      <trkpt lat="42.49291" lon="2.92679">
        <ele>610</ele>
        <time>2026-05-14T09:38:19.000Z</time>
      </trkpt>
      <trkpt lat="42.4929" lon="2.9268">
        <ele>610</ele>
        <time>2026-05-14T09:38:20.000Z</time>
      </trkpt>
      <trkpt lat="42.49289" lon="2.92681">
        <ele>610</ele>
        <time>2026-05-14T09:38:21.000Z</time>
      </trkpt>
      <trkpt lat="42.49288" lon="2.92682">
        <ele>611</ele>
        <time>2026-05-14T09:38:22.000Z</time>
      </trkpt>
      <trkpt lat="42.49287" lon="2.92682">
        <ele>612</ele>
        <time>2026-05-14T09:38:23.000Z</time>
      </trkpt>
      <trkpt lat="42.49286" lon="2.92683">
        <ele>612</ele>
        <time>2026-05-14T09:38:24.000Z</time>
      </trkpt>
      <trkpt lat="42.49285" lon="2.92684">
        <ele>612</ele>
        <time>2026-05-14T09:38:25.000Z</time>
      </trkpt>
      <trkpt lat="42.49284" lon="2.92684">
        <ele>612</ele>
        <time>2026-05-14T09:38:26.000Z</time>
      </trkpt>
      <trkpt lat="42.49283" lon="2.92684">
        <ele>612</ele>
        <time>2026-05-14T09:38:27.000Z</time>
      </trkpt>
      <trkpt lat="42.49282" lon="2.92685">
        <ele>612</ele>
        <time>2026-05-14T09:38:28.000Z</time>
      </trkpt>
      <trkpt lat="42.49281" lon="2.92686">
        <ele>611</ele>
        <time>2026-05-14T09:38:29.000Z</time>
      </trkpt>
      <trkpt lat="42.4928" lon="2.92686">
        <ele>611</ele>
        <time>2026-05-14T09:38:30.000Z</time>
      </trkpt>
      <trkpt lat="42.49279" lon="2.92687">
        <ele>611</ele>
        <time>2026-05-14T09:38:31.000Z</time>
      </trkpt>
      <trkpt lat="42.49279" lon="2.92687">
        <ele>611</ele>
        <time>2026-05-14T09:38:32.000Z</time>
      </trkpt>
      <trkpt lat="42.49277" lon="2.92688">
        <ele>611</ele>
        <time>2026-05-14T09:38:33.000Z</time>
      </trkpt>
      <trkpt lat="42.49276" lon="2.92689">
        <ele>611</ele>
        <time>2026-05-14T09:38:34.000Z</time>
      </trkpt>
      <trkpt lat="42.49275" lon="2.9269">
        <ele>611</ele>
        <time>2026-05-14T09:38:35.000Z</time>
      </trkpt>
      <trkpt lat="42.49274" lon="2.92691">
        <ele>611</ele>
        <time>2026-05-14T09:38:36.000Z</time>
      </trkpt>
      <trkpt lat="42.49273" lon="2.92692">
        <ele>612</ele>
        <time>2026-05-14T09:38:37.000Z</time>
      </trkpt>
      <trkpt lat="42.49272" lon="2.92692">
        <ele>612</ele>
        <time>2026-05-14T09:38:38.000Z</time>
      </trkpt>
      <trkpt lat="42.49271" lon="2.92693">
        <ele>612</ele>
        <time>2026-05-14T09:38:39.000Z</time>
      </trkpt>
      <trkpt lat="42.4927" lon="2.92694">
        <ele>612</ele>
        <time>2026-05-14T09:38:40.000Z</time>
      </trkpt>
      <trkpt lat="42.49269" lon="2.92694">
        <ele>612</ele>
        <time>2026-05-14T09:38:41.000Z</time>
      </trkpt>
      <trkpt lat="42.49268" lon="2.92695">
        <ele>612</ele>
        <time>2026-05-14T09:38:42.000Z</time>
      </trkpt>
      <trkpt lat="42.49268" lon="2.92695">
        <ele>612</ele>
        <time>2026-05-14T09:38:43.000Z</time>
      </trkpt>
      <trkpt lat="42.49268" lon="2.92695">
        <ele>612</ele>
        <time>2026-05-14T09:38:44.000Z</time>
      </trkpt>
      <trkpt lat="42.49267" lon="2.92696">
        <ele>612</ele>
        <time>2026-05-14T09:38:45.000Z</time>
      </trkpt>
      <trkpt lat="42.49266" lon="2.92696">
        <ele>612</ele>
        <time>2026-05-14T09:38:46.000Z</time>
      </trkpt>
      <trkpt lat="42.49266" lon="2.92696">
        <ele>612</ele>
        <time>2026-05-14T09:38:47.000Z</time>
      </trkpt>
      <trkpt lat="42.49265" lon="2.92696">
        <ele>612</ele>
        <time>2026-05-14T09:38:48.000Z</time>
      </trkpt>
      <trkpt lat="42.49265" lon="2.92697">
        <ele>612</ele>
        <time>2026-05-14T09:38:49.000Z</time>
      </trkpt>
      <trkpt lat="42.49264" lon="2.92697">
        <ele>612</ele>
        <time>2026-05-14T09:38:50.000Z</time>
      </trkpt>
      <trkpt lat="42.49263" lon="2.92697">
        <ele>612</ele>
        <time>2026-05-14T09:38:51.000Z</time>
      </trkpt>
      <trkpt lat="42.49262" lon="2.92697">
        <ele>613</ele>
        <time>2026-05-14T09:38:52.000Z</time>
      </trkpt>
      <trkpt lat="42.49262" lon="2.92697">
        <ele>612</ele>
        <time>2026-05-14T09:38:53.000Z</time>
      </trkpt>
      <trkpt lat="42.49261" lon="2.92698">
        <ele>613</ele>
        <time>2026-05-14T09:38:54.000Z</time>
      </trkpt>
      <trkpt lat="42.4926" lon="2.92698">
        <ele>613</ele>
        <time>2026-05-14T09:38:55.000Z</time>
      </trkpt>
      <trkpt lat="42.49259" lon="2.92698">
        <ele>614</ele>
        <time>2026-05-14T09:38:56.000Z</time>
      </trkpt>
      <trkpt lat="42.49257" lon="2.92698">
        <ele>615</ele>
        <time>2026-05-14T09:38:57.000Z</time>
      </trkpt>
      <trkpt lat="42.49257" lon="2.92697">
        <ele>615</ele>
        <time>2026-05-14T09:38:58.000Z</time>
      </trkpt>
      <trkpt lat="42.49255" lon="2.92697">
        <ele>616</ele>
        <time>2026-05-14T09:38:59.000Z</time>
      </trkpt>
      <trkpt lat="42.49254" lon="2.92697">
        <ele>617</ele>
        <time>2026-05-14T09:39:00.000Z</time>
      </trkpt>
      <trkpt lat="42.49253" lon="2.92696">
        <ele>617</ele>
        <time>2026-05-14T09:39:01.000Z</time>
      </trkpt>
      <trkpt lat="42.49252" lon="2.92696">
        <ele>617</ele>
        <time>2026-05-14T09:39:02.000Z</time>
      </trkpt>
      <trkpt lat="42.49251" lon="2.92696">
        <ele>617</ele>
        <time>2026-05-14T09:39:03.000Z</time>
      </trkpt>
      <trkpt lat="42.4925" lon="2.92696">
        <ele>616</ele>
        <time>2026-05-14T09:39:04.000Z</time>
      </trkpt>
      <trkpt lat="42.49249" lon="2.92695">
        <ele>616</ele>
        <time>2026-05-14T09:39:05.000Z</time>
      </trkpt>
      <trkpt lat="42.49247" lon="2.92695">
        <ele>615</ele>
        <time>2026-05-14T09:39:06.000Z</time>
      </trkpt>
      <trkpt lat="42.49246" lon="2.92695">
        <ele>615</ele>
        <time>2026-05-14T09:39:07.000Z</time>
      </trkpt>
      <trkpt lat="42.49246" lon="2.92694">
        <ele>615</ele>
        <time>2026-05-14T09:39:08.000Z</time>
      </trkpt>
      <trkpt lat="42.49245" lon="2.92694">
        <ele>615</ele>
        <time>2026-05-14T09:39:09.000Z</time>
      </trkpt>
      <trkpt lat="42.49244" lon="2.92694">
        <ele>615</ele>
        <time>2026-05-14T09:39:10.000Z</time>
      </trkpt>
      <trkpt lat="42.49243" lon="2.92693">
        <ele>614</ele>
        <time>2026-05-14T09:39:11.000Z</time>
      </trkpt>
      <trkpt lat="42.49241" lon="2.92693">
        <ele>614</ele>
        <time>2026-05-14T09:39:12.000Z</time>
      </trkpt>
      <trkpt lat="42.4924" lon="2.92693">
        <ele>615</ele>
        <time>2026-05-14T09:39:13.000Z</time>
      </trkpt>
      <trkpt lat="42.49239" lon="2.92693">
        <ele>615</ele>
        <time>2026-05-14T09:39:14.000Z</time>
      </trkpt>
      <trkpt lat="42.49237" lon="2.92693">
        <ele>615</ele>
        <time>2026-05-14T09:39:15.000Z</time>
      </trkpt>
      <trkpt lat="42.49236" lon="2.92693">
        <ele>615</ele>
        <time>2026-05-14T09:39:16.000Z</time>
      </trkpt>
      <trkpt lat="42.49235" lon="2.92694">
        <ele>614</ele>
        <time>2026-05-14T09:39:17.000Z</time>
      </trkpt>
      <trkpt lat="42.49234" lon="2.92693">
        <ele>615</ele>
        <time>2026-05-14T09:39:18.000Z</time>
      </trkpt>
      <trkpt lat="42.49233" lon="2.92693">
        <ele>615</ele>
        <time>2026-05-14T09:39:19.000Z</time>
      </trkpt>
      <trkpt lat="42.49232" lon="2.92693">
        <ele>615</ele>
        <time>2026-05-14T09:39:20.000Z</time>
      </trkpt>
      <trkpt lat="42.49231" lon="2.92695">
        <ele>615</ele>
        <time>2026-05-14T09:39:21.000Z</time>
      </trkpt>
      <trkpt lat="42.49229" lon="2.92696">
        <ele>618</ele>
        <time>2026-05-14T09:39:35.000Z</time>
      </trkpt>
      <trkpt lat="42.49228" lon="2.92696">
        <ele>618</ele>
        <time>2026-05-14T09:39:36.000Z</time>
      </trkpt>
      <trkpt lat="42.49227" lon="2.92697">
        <ele>619</ele>
        <time>2026-05-14T09:39:37.000Z</time>
      </trkpt>
      <trkpt lat="42.49226" lon="2.92697">
        <ele>619</ele>
        <time>2026-05-14T09:39:38.000Z</time>
      </trkpt>
      <trkpt lat="42.49225" lon="2.92697">
        <ele>619</ele>
        <time>2026-05-14T09:39:39.000Z</time>
      </trkpt>
      <trkpt lat="42.49224" lon="2.92698">
        <ele>619</ele>
        <time>2026-05-14T09:39:40.000Z</time>
      </trkpt>
      <trkpt lat="42.49223" lon="2.92698">
        <ele>618</ele>
        <time>2026-05-14T09:39:41.000Z</time>
      </trkpt>
      <trkpt lat="42.49222" lon="2.92698">
        <ele>618</ele>
        <time>2026-05-14T09:39:42.000Z</time>
      </trkpt>
      <trkpt lat="42.49221" lon="2.92698">
        <ele>619</ele>
        <time>2026-05-14T09:39:43.000Z</time>
      </trkpt>
      <trkpt lat="42.4922" lon="2.92698">
        <ele>618</ele>
        <time>2026-05-14T09:39:44.000Z</time>
      </trkpt>
      <trkpt lat="42.49219" lon="2.92698">
        <ele>617</ele>
        <time>2026-05-14T09:39:45.000Z</time>
      </trkpt>
      <trkpt lat="42.49217" lon="2.92698">
        <ele>617</ele>
        <time>2026-05-14T09:39:46.000Z</time>
      </trkpt>
      <trkpt lat="42.49216" lon="2.92698">
        <ele>617</ele>
        <time>2026-05-14T09:39:47.000Z</time>
      </trkpt>
      <trkpt lat="42.49215" lon="2.92699">
        <ele>617</ele>
        <time>2026-05-14T09:39:48.000Z</time>
      </trkpt>
      <trkpt lat="42.49214" lon="2.927">
        <ele>617</ele>
        <time>2026-05-14T09:39:49.000Z</time>
      </trkpt>
      <trkpt lat="42.49213" lon="2.927">
        <ele>617</ele>
        <time>2026-05-14T09:39:50.000Z</time>
      </trkpt>
      <trkpt lat="42.49212" lon="2.927">
        <ele>617</ele>
        <time>2026-05-14T09:39:51.000Z</time>
      </trkpt>
      <trkpt lat="42.49211" lon="2.927">
        <ele>617</ele>
        <time>2026-05-14T09:39:52.000Z</time>
      </trkpt>
      <trkpt lat="42.4921" lon="2.92701">
        <ele>616</ele>
        <time>2026-05-14T09:39:53.000Z</time>
      </trkpt>
      <trkpt lat="42.49209" lon="2.92701">
        <ele>617</ele>
        <time>2026-05-14T09:39:54.000Z</time>
      </trkpt>
      <trkpt lat="42.49208" lon="2.92701">
        <ele>617</ele>
        <time>2026-05-14T09:39:55.000Z</time>
      </trkpt>
      <trkpt lat="42.49206" lon="2.92702">
        <ele>617</ele>
        <time>2026-05-14T09:39:56.000Z</time>
      </trkpt>
      <trkpt lat="42.49206" lon="2.92702">
        <ele>618</ele>
        <time>2026-05-14T09:39:57.000Z</time>
      </trkpt>
      <trkpt lat="42.49205" lon="2.92702">
        <ele>618</ele>
        <time>2026-05-14T09:39:58.000Z</time>
      </trkpt>
      <trkpt lat="42.49204" lon="2.92703">
        <ele>618</ele>
        <time>2026-05-14T09:39:59.000Z</time>
      </trkpt>
      <trkpt lat="42.49203" lon="2.92703">
        <ele>618</ele>
        <time>2026-05-14T09:40:00.000Z</time>
      </trkpt>
      <trkpt lat="42.49202" lon="2.92703">
        <ele>618</ele>
        <time>2026-05-14T09:40:01.000Z</time>
      </trkpt>
      <trkpt lat="42.49201" lon="2.92703">
        <ele>618</ele>
        <time>2026-05-14T09:40:02.000Z</time>
      </trkpt>
      <trkpt lat="42.492" lon="2.92703">
        <ele>619</ele>
        <time>2026-05-14T09:40:03.000Z</time>
      </trkpt>
      <trkpt lat="42.49199" lon="2.92703">
        <ele>619</ele>
        <time>2026-05-14T09:40:04.000Z</time>
      </trkpt>
      <trkpt lat="42.49198" lon="2.92704">
        <ele>619</ele>
        <time>2026-05-14T09:40:05.000Z</time>
      </trkpt>
      <trkpt lat="42.49197" lon="2.92704">
        <ele>620</ele>
        <time>2026-05-14T09:40:06.000Z</time>
      </trkpt>
      <trkpt lat="42.49196" lon="2.92704">
        <ele>620</ele>
        <time>2026-05-14T09:40:07.000Z</time>
      </trkpt>
      <trkpt lat="42.49195" lon="2.92704">
        <ele>620</ele>
        <time>2026-05-14T09:40:08.000Z</time>
      </trkpt>
      <trkpt lat="42.49193" lon="2.92704">
        <ele>620</ele>
        <time>2026-05-14T09:40:09.000Z</time>
      </trkpt>
      <trkpt lat="42.49192" lon="2.92704">
        <ele>619</ele>
        <time>2026-05-14T09:40:10.000Z</time>
      </trkpt>
      <trkpt lat="42.49191" lon="2.92705">
        <ele>619</ele>
        <time>2026-05-14T09:40:11.000Z</time>
      </trkpt>
      <trkpt lat="42.4919" lon="2.92705">
        <ele>619</ele>
        <time>2026-05-14T09:40:12.000Z</time>
      </trkpt>
      <trkpt lat="42.4919" lon="2.92705">
        <ele>619</ele>
        <time>2026-05-14T09:40:13.000Z</time>
      </trkpt>
      <trkpt lat="42.49188" lon="2.92706">
        <ele>619</ele>
        <time>2026-05-14T09:40:14.000Z</time>
      </trkpt>
      <trkpt lat="42.49187" lon="2.92706">
        <ele>618</ele>
        <time>2026-05-14T09:40:15.000Z</time>
      </trkpt>
      <trkpt lat="42.49186" lon="2.92707">
        <ele>618</ele>
        <time>2026-05-14T09:40:16.000Z</time>
      </trkpt>
      <trkpt lat="42.49185" lon="2.92707">
        <ele>619</ele>
        <time>2026-05-14T09:40:17.000Z</time>
      </trkpt>
      <trkpt lat="42.49184" lon="2.92708">
        <ele>619</ele>
        <time>2026-05-14T09:40:18.000Z</time>
      </trkpt>
      <trkpt lat="42.49183" lon="2.92709">
        <ele>619</ele>
        <time>2026-05-14T09:40:19.000Z</time>
      </trkpt>
      <trkpt lat="42.49183" lon="2.92709">
        <ele>620</ele>
        <time>2026-05-14T09:40:20.000Z</time>
      </trkpt>
      <trkpt lat="42.49182" lon="2.9271">
        <ele>619</ele>
        <time>2026-05-14T09:40:21.000Z</time>
      </trkpt>
      <trkpt lat="42.49181" lon="2.9271">
        <ele>620</ele>
        <time>2026-05-14T09:40:22.000Z</time>
      </trkpt>
      <trkpt lat="42.4918" lon="2.92711">
        <ele>619</ele>
        <time>2026-05-14T09:40:23.000Z</time>
      </trkpt>
      <trkpt lat="42.49179" lon="2.92711">
        <ele>620</ele>
        <time>2026-05-14T09:40:24.000Z</time>
      </trkpt>
      <trkpt lat="42.49178" lon="2.92711">
        <ele>620</ele>
        <time>2026-05-14T09:40:25.000Z</time>
      </trkpt>
      <trkpt lat="42.49177" lon="2.92711">
        <ele>620</ele>
        <time>2026-05-14T09:40:26.000Z</time>
      </trkpt>
      <trkpt lat="42.49176" lon="2.92712">
        <ele>621</ele>
        <time>2026-05-14T09:40:27.000Z</time>
      </trkpt>
      <trkpt lat="42.49174" lon="2.92713">
        <ele>620</ele>
        <time>2026-05-14T09:40:28.000Z</time>
      </trkpt>
      <trkpt lat="42.49173" lon="2.92714">
        <ele>621</ele>
        <time>2026-05-14T09:40:29.000Z</time>
      </trkpt>
      <trkpt lat="42.49172" lon="2.92715">
        <ele>620</ele>
        <time>2026-05-14T09:40:30.000Z</time>
      </trkpt>
      <trkpt lat="42.49171" lon="2.92716">
        <ele>620</ele>
        <time>2026-05-14T09:40:31.000Z</time>
      </trkpt>
      <trkpt lat="42.49171" lon="2.92717">
        <ele>620</ele>
        <time>2026-05-14T09:40:32.000Z</time>
      </trkpt>
      <trkpt lat="42.4917" lon="2.92718">
        <ele>621</ele>
        <time>2026-05-14T09:40:33.000Z</time>
      </trkpt>
      <trkpt lat="42.49169" lon="2.92719">
        <ele>621</ele>
        <time>2026-05-14T09:40:34.000Z</time>
      </trkpt>
      <trkpt lat="42.49168" lon="2.9272">
        <ele>622</ele>
        <time>2026-05-14T09:40:35.000Z</time>
      </trkpt>
      <trkpt lat="42.49168" lon="2.92721">
        <ele>622</ele>
        <time>2026-05-14T09:40:36.000Z</time>
      </trkpt>
      <trkpt lat="42.49167" lon="2.92722">
        <ele>622</ele>
        <time>2026-05-14T09:40:37.000Z</time>
      </trkpt>
      <trkpt lat="42.49166" lon="2.92722">
        <ele>622</ele>
        <time>2026-05-14T09:40:38.000Z</time>
      </trkpt>
      <trkpt lat="42.49165" lon="2.92723">
        <ele>623</ele>
        <time>2026-05-14T09:40:39.000Z</time>
      </trkpt>
      <trkpt lat="42.49164" lon="2.92724">
        <ele>623</ele>
        <time>2026-05-14T09:40:40.000Z</time>
      </trkpt>
      <trkpt lat="42.49163" lon="2.92725">
        <ele>624</ele>
        <time>2026-05-14T09:40:41.000Z</time>
      </trkpt>
      <trkpt lat="42.49162" lon="2.92726">
        <ele>624</ele>
        <time>2026-05-14T09:40:42.000Z</time>
      </trkpt>
      <trkpt lat="42.4916" lon="2.92727">
        <ele>623</ele>
        <time>2026-05-14T09:40:43.000Z</time>
      </trkpt>
      <trkpt lat="42.4916" lon="2.92728">
        <ele>624</ele>
        <time>2026-05-14T09:40:44.000Z</time>
      </trkpt>
      <trkpt lat="42.49159" lon="2.92729">
        <ele>624</ele>
        <time>2026-05-14T09:40:45.000Z</time>
      </trkpt>
      <trkpt lat="42.49158" lon="2.9273">
        <ele>624</ele>
        <time>2026-05-14T09:40:46.000Z</time>
      </trkpt>
      <trkpt lat="42.49157" lon="2.92731">
        <ele>625</ele>
        <time>2026-05-14T09:40:47.000Z</time>
      </trkpt>
      <trkpt lat="42.49156" lon="2.92732">
        <ele>626</ele>
        <time>2026-05-14T09:40:48.000Z</time>
      </trkpt>
      <trkpt lat="42.49156" lon="2.92733">
        <ele>625</ele>
        <time>2026-05-14T09:40:49.000Z</time>
      </trkpt>
      <trkpt lat="42.49155" lon="2.92734">
        <ele>626</ele>
        <time>2026-05-14T09:40:50.000Z</time>
      </trkpt>
      <trkpt lat="42.49155" lon="2.92735">
        <ele>626</ele>
        <time>2026-05-14T09:40:51.000Z</time>
      </trkpt>
      <trkpt lat="42.49155" lon="2.92737">
        <ele>626</ele>
        <time>2026-05-14T09:40:52.000Z</time>
      </trkpt>
      <trkpt lat="42.49154" lon="2.92738">
        <ele>626</ele>
        <time>2026-05-14T09:40:53.000Z</time>
      </trkpt>
      <trkpt lat="42.49153" lon="2.92739">
        <ele>626</ele>
        <time>2026-05-14T09:40:54.000Z</time>
      </trkpt>
      <trkpt lat="42.49152" lon="2.92741">
        <ele>626</ele>
        <time>2026-05-14T09:40:55.000Z</time>
      </trkpt>
      <trkpt lat="42.49152" lon="2.92742">
        <ele>626</ele>
        <time>2026-05-14T09:40:56.000Z</time>
      </trkpt>
      <trkpt lat="42.49153" lon="2.92744">
        <ele>626</ele>
        <time>2026-05-14T09:40:57.000Z</time>
      </trkpt>
      <trkpt lat="42.49152" lon="2.92746">
        <ele>626</ele>
        <time>2026-05-14T09:40:58.000Z</time>
      </trkpt>
      <trkpt lat="42.49152" lon="2.92747">
        <ele>626</ele>
        <time>2026-05-14T09:40:59.000Z</time>
      </trkpt>
      <trkpt lat="42.49152" lon="2.92749">
        <ele>626</ele>
        <time>2026-05-14T09:41:00.000Z</time>
      </trkpt>
      <trkpt lat="42.49153" lon="2.92751">
        <ele>626</ele>
        <time>2026-05-14T09:41:01.000Z</time>
      </trkpt>
      <trkpt lat="42.49153" lon="2.92753">
        <ele>627</ele>
        <time>2026-05-14T09:41:02.000Z</time>
      </trkpt>
      <trkpt lat="42.49153" lon="2.92755">
        <ele>628</ele>
        <time>2026-05-14T09:41:03.000Z</time>
      </trkpt>
      <trkpt lat="42.49153" lon="2.92757">
        <ele>628</ele>
        <time>2026-05-14T09:41:04.000Z</time>
      </trkpt>
      <trkpt lat="42.49154" lon="2.92759">
        <ele>628</ele>
        <time>2026-05-14T09:41:05.000Z</time>
      </trkpt>
      <trkpt lat="42.49154" lon="2.92761">
        <ele>628</ele>
        <time>2026-05-14T09:41:06.000Z</time>
      </trkpt>
      <trkpt lat="42.49154" lon="2.92762">
        <ele>629</ele>
        <time>2026-05-14T09:41:07.000Z</time>
      </trkpt>
      <trkpt lat="42.49154" lon="2.92763">
        <ele>629</ele>
        <time>2026-05-14T09:41:08.000Z</time>
      </trkpt>
      <trkpt lat="42.49155" lon="2.92765">
        <ele>629</ele>
        <time>2026-05-14T09:41:09.000Z</time>
      </trkpt>
      <trkpt lat="42.49155" lon="2.92767">
        <ele>630</ele>
        <time>2026-05-14T09:41:10.000Z</time>
      </trkpt>
      <trkpt lat="42.49155" lon="2.92769">
        <ele>631</ele>
        <time>2026-05-14T09:41:11.000Z</time>
      </trkpt>
      <trkpt lat="42.49156" lon="2.9277">
        <ele>631</ele>
        <time>2026-05-14T09:41:12.000Z</time>
      </trkpt>
      <trkpt lat="42.49157" lon="2.9277">
        <ele>631</ele>
        <time>2026-05-14T09:41:13.000Z</time>
      </trkpt>
      <trkpt lat="42.49157" lon="2.92771">
        <ele>632</ele>
        <time>2026-05-14T09:41:14.000Z</time>
      </trkpt>
      <trkpt lat="42.49157" lon="2.92772">
        <ele>631</ele>
        <time>2026-05-14T09:41:15.000Z</time>
      </trkpt>
      <trkpt lat="42.49158" lon="2.92774">
        <ele>632</ele>
        <time>2026-05-14T09:41:16.000Z</time>
      </trkpt>
      <trkpt lat="42.49159" lon="2.92776">
        <ele>632</ele>
        <time>2026-05-14T09:41:17.000Z</time>
      </trkpt>
      <trkpt lat="42.49159" lon="2.92778">
        <ele>633</ele>
        <time>2026-05-14T09:41:18.000Z</time>
      </trkpt>
      <trkpt lat="42.4916" lon="2.92779">
        <ele>633</ele>
        <time>2026-05-14T09:41:19.000Z</time>
      </trkpt>
      <trkpt lat="42.4916" lon="2.9278">
        <ele>634</ele>
        <time>2026-05-14T09:41:20.000Z</time>
      </trkpt>
      <trkpt lat="42.4916" lon="2.92779">
        <ele>635</ele>
        <time>2026-05-14T09:41:21.000Z</time>
      </trkpt>
      <trkpt lat="42.4916" lon="2.92779">
        <ele>636</ele>
        <time>2026-05-14T09:41:22.000Z</time>
      </trkpt>
      <trkpt lat="42.4916" lon="2.9278">
        <ele>637</ele>
        <time>2026-05-14T09:41:23.000Z</time>
      </trkpt>
      <trkpt lat="42.49161" lon="2.9278">
        <ele>637</ele>
        <time>2026-05-14T09:41:24.000Z</time>
      </trkpt>
      <trkpt lat="42.4916" lon="2.92781">
        <ele>637</ele>
        <time>2026-05-14T09:41:25.000Z</time>
      </trkpt>
      <trkpt lat="42.49161" lon="2.92783">
        <ele>637</ele>
        <time>2026-05-14T09:41:26.000Z</time>
      </trkpt>
      <trkpt lat="42.49161" lon="2.92784">
        <ele>637</ele>
        <time>2026-05-14T09:41:27.000Z</time>
      </trkpt>
      <trkpt lat="42.49161" lon="2.92785">
        <ele>637</ele>
        <time>2026-05-14T09:41:28.000Z</time>
      </trkpt>
      <trkpt lat="42.49162" lon="2.92787">
        <ele>638</ele>
        <time>2026-05-14T09:41:29.000Z</time>
      </trkpt>
      <trkpt lat="42.49163" lon="2.92789">
        <ele>638</ele>
        <time>2026-05-14T09:41:30.000Z</time>
      </trkpt>
      <trkpt lat="42.49163" lon="2.9279">
        <ele>638</ele>
        <time>2026-05-14T09:41:31.000Z</time>
      </trkpt>
      <trkpt lat="42.49163" lon="2.92792">
        <ele>638</ele>
        <time>2026-05-14T09:41:32.000Z</time>
      </trkpt>
      <trkpt lat="42.49162" lon="2.92794">
        <ele>638</ele>
        <time>2026-05-14T09:41:33.000Z</time>
      </trkpt>
      <trkpt lat="42.49162" lon="2.92795">
        <ele>638</ele>
        <time>2026-05-14T09:41:34.000Z</time>
      </trkpt>
      <trkpt lat="42.49162" lon="2.92796">
        <ele>638</ele>
        <time>2026-05-14T09:41:35.000Z</time>
      </trkpt>
      <trkpt lat="42.49162" lon="2.92797">
        <ele>638</ele>
        <time>2026-05-14T09:41:36.000Z</time>
      </trkpt>
      <trkpt lat="42.49162" lon="2.92798">
        <ele>638</ele>
        <time>2026-05-14T09:41:37.000Z</time>
      </trkpt>
      <trkpt lat="42.49162" lon="2.928">
        <ele>638</ele>
        <time>2026-05-14T09:41:38.000Z</time>
      </trkpt>
      <trkpt lat="42.49162" lon="2.92802">
        <ele>639</ele>
        <time>2026-05-14T09:41:39.000Z</time>
      </trkpt>
      <trkpt lat="42.49162" lon="2.92803">
        <ele>641</ele>
        <time>2026-05-14T09:41:40.000Z</time>
      </trkpt>
      <trkpt lat="42.49162" lon="2.92805">
        <ele>641</ele>
        <time>2026-05-14T09:41:41.000Z</time>
      </trkpt>
      <trkpt lat="42.49162" lon="2.92806">
        <ele>640</ele>
        <time>2026-05-14T09:41:42.000Z</time>
      </trkpt>
      <trkpt lat="42.49162" lon="2.92807">
        <ele>641</ele>
        <time>2026-05-14T09:41:43.000Z</time>
      </trkpt>
      <trkpt lat="42.49162" lon="2.92808">
        <ele>641</ele>
        <time>2026-05-14T09:41:44.000Z</time>
      </trkpt>
      <trkpt lat="42.49162" lon="2.9281">
        <ele>641</ele>
        <time>2026-05-14T09:41:45.000Z</time>
      </trkpt>
      <trkpt lat="42.49162" lon="2.92811">
        <ele>641</ele>
        <time>2026-05-14T09:41:46.000Z</time>
      </trkpt>
      <trkpt lat="42.49162" lon="2.92813">
        <ele>641</ele>
        <time>2026-05-14T09:41:47.000Z</time>
      </trkpt>
      <trkpt lat="42.49161" lon="2.92813">
        <ele>641</ele>
        <time>2026-05-14T09:41:48.000Z</time>
      </trkpt>
      <trkpt lat="42.49161" lon="2.92814">
        <ele>641</ele>
        <time>2026-05-14T09:41:49.000Z</time>
      </trkpt>
      <trkpt lat="42.49161" lon="2.92816">
        <ele>641</ele>
        <time>2026-05-14T09:41:50.000Z</time>
      </trkpt>
      <trkpt lat="42.49161" lon="2.92817">
        <ele>641</ele>
        <time>2026-05-14T09:41:51.000Z</time>
      </trkpt>
      <trkpt lat="42.4916" lon="2.92818">
        <ele>641</ele>
        <time>2026-05-14T09:41:52.000Z</time>
      </trkpt>
      <trkpt lat="42.4916" lon="2.92819">
        <ele>641</ele>
        <time>2026-05-14T09:41:53.000Z</time>
      </trkpt>
      <trkpt lat="42.4916" lon="2.92821">
        <ele>641</ele>
        <time>2026-05-14T09:41:54.000Z</time>
      </trkpt>
      <trkpt lat="42.4916" lon="2.92823">
        <ele>642</ele>
        <time>2026-05-14T09:41:55.000Z</time>
      </trkpt>
      <trkpt lat="42.4916" lon="2.92824">
        <ele>641</ele>
        <time>2026-05-14T09:41:56.000Z</time>
      </trkpt>
      <trkpt lat="42.49159" lon="2.92826">
        <ele>641</ele>
        <time>2026-05-14T09:41:57.000Z</time>
      </trkpt>
      <trkpt lat="42.49159" lon="2.92828">
        <ele>642</ele>
        <time>2026-05-14T09:41:58.000Z</time>
      </trkpt>
      <trkpt lat="42.49159" lon="2.92828">
        <ele>643</ele>
        <time>2026-05-14T09:41:59.000Z</time>
      </trkpt>
      <trkpt lat="42.49159" lon="2.92829">
        <ele>643</ele>
        <time>2026-05-14T09:42:00.000Z</time>
      </trkpt>
      <trkpt lat="42.49159" lon="2.9283">
        <ele>642</ele>
        <time>2026-05-14T09:42:01.000Z</time>
      </trkpt>
      <trkpt lat="42.49158" lon="2.9283">
        <ele>642</ele>
        <time>2026-05-14T09:42:02.000Z</time>
      </trkpt>
      <trkpt lat="42.49157" lon="2.92831">
        <ele>643</ele>
        <time>2026-05-14T09:42:03.000Z</time>
      </trkpt>
      <trkpt lat="42.49157" lon="2.92832">
        <ele>643</ele>
        <time>2026-05-14T09:42:04.000Z</time>
      </trkpt>
      <trkpt lat="42.49156" lon="2.92833">
        <ele>643</ele>
        <time>2026-05-14T09:42:05.000Z</time>
      </trkpt>
      <trkpt lat="42.49155" lon="2.92834">
        <ele>643</ele>
        <time>2026-05-14T09:42:06.000Z</time>
      </trkpt>
      <trkpt lat="42.49155" lon="2.92835">
        <ele>643</ele>
        <time>2026-05-14T09:42:07.000Z</time>
      </trkpt>
      <trkpt lat="42.49154" lon="2.92836">
        <ele>644</ele>
        <time>2026-05-14T09:42:08.000Z</time>
      </trkpt>
      <trkpt lat="42.49153" lon="2.92837">
        <ele>644</ele>
        <time>2026-05-14T09:42:09.000Z</time>
      </trkpt>
      <trkpt lat="42.49152" lon="2.92838">
        <ele>643</ele>
        <time>2026-05-14T09:42:10.000Z</time>
      </trkpt>
      <trkpt lat="42.49152" lon="2.92839">
        <ele>643</ele>
        <time>2026-05-14T09:42:11.000Z</time>
      </trkpt>
      <trkpt lat="42.49151" lon="2.92839">
        <ele>643</ele>
        <time>2026-05-14T09:42:12.000Z</time>
      </trkpt>
      <trkpt lat="42.4915" lon="2.9284">
        <ele>644</ele>
        <time>2026-05-14T09:42:13.000Z</time>
      </trkpt>
      <trkpt lat="42.49149" lon="2.92841">
        <ele>644</ele>
        <time>2026-05-14T09:42:14.000Z</time>
      </trkpt>
      <trkpt lat="42.49148" lon="2.92842">
        <ele>645</ele>
        <time>2026-05-14T09:42:15.000Z</time>
      </trkpt>
      <trkpt lat="42.49147" lon="2.92843">
        <ele>645</ele>
        <time>2026-05-14T09:42:16.000Z</time>
      </trkpt>
      <trkpt lat="42.49146" lon="2.92844">
        <ele>645</ele>
        <time>2026-05-14T09:42:17.000Z</time>
      </trkpt>
      <trkpt lat="42.49146" lon="2.92845">
        <ele>645</ele>
        <time>2026-05-14T09:42:18.000Z</time>
      </trkpt>
      <trkpt lat="42.49145" lon="2.92846">
        <ele>646</ele>
        <time>2026-05-14T09:42:19.000Z</time>
      </trkpt>
      <trkpt lat="42.49144" lon="2.92847">
        <ele>646</ele>
        <time>2026-05-14T09:42:20.000Z</time>
      </trkpt>
      <trkpt lat="42.49143" lon="2.92848">
        <ele>646</ele>
        <time>2026-05-14T09:42:21.000Z</time>
      </trkpt>
      <trkpt lat="42.49142" lon="2.92848">
        <ele>646</ele>
        <time>2026-05-14T09:42:22.000Z</time>
      </trkpt>
      <trkpt lat="42.49142" lon="2.9285">
        <ele>646</ele>
        <time>2026-05-14T09:42:23.000Z</time>
      </trkpt>
      <trkpt lat="42.4914" lon="2.92851">
        <ele>646</ele>
        <time>2026-05-14T09:42:24.000Z</time>
      </trkpt>
      <trkpt lat="42.4914" lon="2.92852">
        <ele>646</ele>
        <time>2026-05-14T09:42:25.000Z</time>
      </trkpt>
      <trkpt lat="42.49139" lon="2.92853">
        <ele>646</ele>
        <time>2026-05-14T09:42:26.000Z</time>
      </trkpt>
      <trkpt lat="42.49138" lon="2.92854">
        <ele>645</ele>
        <time>2026-05-14T09:42:27.000Z</time>
      </trkpt>
      <trkpt lat="42.49137" lon="2.92854">
        <ele>645</ele>
        <time>2026-05-14T09:42:28.000Z</time>
      </trkpt>
      <trkpt lat="42.49136" lon="2.92855">
        <ele>645</ele>
        <time>2026-05-14T09:42:29.000Z</time>
      </trkpt>
      <trkpt lat="42.49135" lon="2.92856">
        <ele>645</ele>
        <time>2026-05-14T09:42:30.000Z</time>
      </trkpt>
      <trkpt lat="42.49135" lon="2.92856">
        <ele>645</ele>
        <time>2026-05-14T09:42:31.000Z</time>
      </trkpt>
      <trkpt lat="42.49134" lon="2.92857">
        <ele>645</ele>
        <time>2026-05-14T09:42:32.000Z</time>
      </trkpt>
      <trkpt lat="42.49133" lon="2.92857">
        <ele>645</ele>
        <time>2026-05-14T09:42:33.000Z</time>
      </trkpt>
      <trkpt lat="42.49132" lon="2.92858">
        <ele>645</ele>
        <time>2026-05-14T09:42:34.000Z</time>
      </trkpt>
      <trkpt lat="42.49132" lon="2.92858">
        <ele>645</ele>
        <time>2026-05-14T09:42:35.000Z</time>
      </trkpt>
      <trkpt lat="42.49131" lon="2.92859">
        <ele>646</ele>
        <time>2026-05-14T09:42:36.000Z</time>
      </trkpt>
      <trkpt lat="42.4913" lon="2.9286">
        <ele>645</ele>
        <time>2026-05-14T09:42:37.000Z</time>
      </trkpt>
      <trkpt lat="42.4913" lon="2.92861">
        <ele>645</ele>
        <time>2026-05-14T09:42:38.000Z</time>
      </trkpt>
      <trkpt lat="42.49129" lon="2.92861">
        <ele>646</ele>
        <time>2026-05-14T09:42:39.000Z</time>
      </trkpt>
      <trkpt lat="42.49128" lon="2.92862">
        <ele>646</ele>
        <time>2026-05-14T09:42:40.000Z</time>
      </trkpt>
      <trkpt lat="42.49127" lon="2.92863">
        <ele>646</ele>
        <time>2026-05-14T09:42:41.000Z</time>
      </trkpt>
      <trkpt lat="42.49126" lon="2.92863">
        <ele>646</ele>
        <time>2026-05-14T09:42:42.000Z</time>
      </trkpt>
      <trkpt lat="42.49126" lon="2.92864">
        <ele>646</ele>
        <time>2026-05-14T09:42:43.000Z</time>
      </trkpt>
      <trkpt lat="42.49125" lon="2.92865">
        <ele>646</ele>
        <time>2026-05-14T09:42:44.000Z</time>
      </trkpt>
      <trkpt lat="42.49124" lon="2.92866">
        <ele>646</ele>
        <time>2026-05-14T09:42:45.000Z</time>
      </trkpt>
      <trkpt lat="42.49123" lon="2.92867">
        <ele>646</ele>
        <time>2026-05-14T09:42:46.000Z</time>
      </trkpt>
      <trkpt lat="42.49122" lon="2.92868">
        <ele>647</ele>
        <time>2026-05-14T09:42:47.000Z</time>
      </trkpt>
      <trkpt lat="42.49122" lon="2.92869">
        <ele>647</ele>
        <time>2026-05-14T09:42:48.000Z</time>
      </trkpt>
      <trkpt lat="42.49121" lon="2.9287">
        <ele>647</ele>
        <time>2026-05-14T09:42:49.000Z</time>
      </trkpt>
      <trkpt lat="42.4912" lon="2.92871">
        <ele>646</ele>
        <time>2026-05-14T09:42:50.000Z</time>
      </trkpt>
      <trkpt lat="42.49118" lon="2.92871">
        <ele>646</ele>
        <time>2026-05-14T09:42:51.000Z</time>
      </trkpt>
      <trkpt lat="42.49117" lon="2.92872">
        <ele>646</ele>
        <time>2026-05-14T09:42:52.000Z</time>
      </trkpt>
      <trkpt lat="42.49115" lon="2.92873">
        <ele>646</ele>
        <time>2026-05-14T09:42:53.000Z</time>
      </trkpt>
      <trkpt lat="42.49114" lon="2.92873">
        <ele>646</ele>
        <time>2026-05-14T09:42:54.000Z</time>
      </trkpt>
      <trkpt lat="42.49113" lon="2.92873">
        <ele>646</ele>
        <time>2026-05-14T09:42:55.000Z</time>
      </trkpt>
      <trkpt lat="42.49112" lon="2.92874">
        <ele>646</ele>
        <time>2026-05-14T09:42:56.000Z</time>
      </trkpt>
      <trkpt lat="42.49111" lon="2.92874">
        <ele>646</ele>
        <time>2026-05-14T09:42:57.000Z</time>
      </trkpt>
      <trkpt lat="42.4911" lon="2.92875">
        <ele>646</ele>
        <time>2026-05-14T09:42:58.000Z</time>
      </trkpt>
      <trkpt lat="42.49109" lon="2.92875">
        <ele>646</ele>
        <time>2026-05-14T09:42:59.000Z</time>
      </trkpt>
      <trkpt lat="42.49109" lon="2.92877">
        <ele>646</ele>
        <time>2026-05-14T09:43:00.000Z</time>
      </trkpt>
      <trkpt lat="42.49108" lon="2.92877">
        <ele>646</ele>
        <time>2026-05-14T09:43:01.000Z</time>
      </trkpt>
      <trkpt lat="42.49107" lon="2.92877">
        <ele>646</ele>
        <time>2026-05-14T09:43:02.000Z</time>
      </trkpt>
      <trkpt lat="42.49106" lon="2.92878">
        <ele>646</ele>
        <time>2026-05-14T09:43:03.000Z</time>
      </trkpt>
      <trkpt lat="42.49106" lon="2.92879">
        <ele>647</ele>
        <time>2026-05-14T09:43:04.000Z</time>
      </trkpt>
      <trkpt lat="42.49105" lon="2.9288">
        <ele>647</ele>
        <time>2026-05-14T09:43:05.000Z</time>
      </trkpt>
      <trkpt lat="42.49105" lon="2.92881">
        <ele>647</ele>
        <time>2026-05-14T09:43:06.000Z</time>
      </trkpt>
      <trkpt lat="42.49105" lon="2.92881">
        <ele>648</ele>
        <time>2026-05-14T09:43:07.000Z</time>
      </trkpt>
      <trkpt lat="42.49106" lon="2.9288">
        <ele>649</ele>
        <time>2026-05-14T09:43:08.000Z</time>
      </trkpt>
      <trkpt lat="42.49107" lon="2.9288">
        <ele>649</ele>
        <time>2026-05-14T09:43:09.000Z</time>
      </trkpt>
      <trkpt lat="42.49107" lon="2.9288">
        <ele>649</ele>
        <time>2026-05-14T09:43:10.000Z</time>
      </trkpt>
      <trkpt lat="42.49107" lon="2.9288">
        <ele>649</ele>
        <time>2026-05-14T09:43:11.000Z</time>
      </trkpt>
      <trkpt lat="42.49107" lon="2.9288">
        <ele>649</ele>
        <time>2026-05-14T09:43:12.000Z</time>
      </trkpt>
      <trkpt lat="42.49107" lon="2.92879">
        <ele>648</ele>
        <time>2026-05-14T09:43:13.000Z</time>
      </trkpt>
      <trkpt lat="42.49107" lon="2.92879">
        <ele>648</ele>
        <time>2026-05-14T09:43:14.000Z</time>
      </trkpt>
      <trkpt lat="42.49107" lon="2.92878">
        <ele>649</ele>
        <time>2026-05-14T09:43:15.000Z</time>
      </trkpt>
      <trkpt lat="42.49108" lon="2.92878">
        <ele>649</ele>
        <time>2026-05-14T09:43:16.000Z</time>
      </trkpt>
      <trkpt lat="42.49109" lon="2.92877">
        <ele>649</ele>
        <time>2026-05-14T09:43:17.000Z</time>
      </trkpt>
      <trkpt lat="42.4911" lon="2.92876">
        <ele>649</ele>
        <time>2026-05-14T09:43:18.000Z</time>
      </trkpt>
      <trkpt lat="42.49111" lon="2.92875">
        <ele>648</ele>
        <time>2026-05-14T09:43:19.000Z</time>
      </trkpt>
      <trkpt lat="42.49111" lon="2.92874">
        <ele>649</ele>
        <time>2026-05-14T09:43:20.000Z</time>
      </trkpt>
      <trkpt lat="42.49113" lon="2.92872">
        <ele>649</ele>
        <time>2026-05-14T09:43:21.000Z</time>
      </trkpt>
      <trkpt lat="42.49114" lon="2.92872">
        <ele>649</ele>
        <time>2026-05-14T09:43:22.000Z</time>
      </trkpt>
      <trkpt lat="42.49116" lon="2.92871">
        <ele>649</ele>
        <time>2026-05-14T09:43:23.000Z</time>
      </trkpt>
      <trkpt lat="42.49118" lon="2.9287">
        <ele>649</ele>
        <time>2026-05-14T09:43:24.000Z</time>
      </trkpt>
      <trkpt lat="42.4912" lon="2.92869">
        <ele>649</ele>
        <time>2026-05-14T09:43:25.000Z</time>
      </trkpt>
      <trkpt lat="42.49122" lon="2.92868">
        <ele>649</ele>
        <time>2026-05-14T09:43:26.000Z</time>
      </trkpt>
      <trkpt lat="42.49124" lon="2.92866">
        <ele>649</ele>
        <time>2026-05-14T09:43:27.000Z</time>
      </trkpt>
      <trkpt lat="42.49125" lon="2.92864">
        <ele>649</ele>
        <time>2026-05-14T09:43:28.000Z</time>
      </trkpt>
      <trkpt lat="42.49127" lon="2.92863">
        <ele>649</ele>
        <time>2026-05-14T09:43:29.000Z</time>
      </trkpt>
      <trkpt lat="42.49128" lon="2.92862">
        <ele>649</ele>
        <time>2026-05-14T09:43:30.000Z</time>
      </trkpt>
      <trkpt lat="42.49129" lon="2.92862">
        <ele>650</ele>
        <time>2026-05-14T09:43:31.000Z</time>
      </trkpt>
      <trkpt lat="42.4913" lon="2.92863">
        <ele>650</ele>
        <time>2026-05-14T09:43:32.000Z</time>
      </trkpt>
      <trkpt lat="42.4913" lon="2.92862">
        <ele>650</ele>
        <time>2026-05-14T09:43:33.000Z</time>
      </trkpt>
      <trkpt lat="42.4913" lon="2.92862">
        <ele>650</ele>
        <time>2026-05-14T09:43:34.000Z</time>
      </trkpt>
      <trkpt lat="42.49132" lon="2.92862">
        <ele>650</ele>
        <time>2026-05-14T09:43:52.000Z</time>
      </trkpt>
      <trkpt lat="42.49132" lon="2.92861">
        <ele>650</ele>
        <time>2026-05-14T09:43:53.000Z</time>
      </trkpt>
      <trkpt lat="42.49133" lon="2.9286">
        <ele>650</ele>
        <time>2026-05-14T09:43:54.000Z</time>
      </trkpt>
      <trkpt lat="42.49134" lon="2.92858">
        <ele>649</ele>
        <time>2026-05-14T09:43:55.000Z</time>
      </trkpt>
      <trkpt lat="42.49136" lon="2.92857">
        <ele>649</ele>
        <time>2026-05-14T09:43:56.000Z</time>
      </trkpt>
      <trkpt lat="42.49137" lon="2.92856">
        <ele>649</ele>
        <time>2026-05-14T09:43:57.000Z</time>
      </trkpt>
      <trkpt lat="42.49138" lon="2.92856">
        <ele>649</ele>
        <time>2026-05-14T09:43:58.000Z</time>
      </trkpt>
      <trkpt lat="42.49138" lon="2.92855">
        <ele>649</ele>
        <time>2026-05-14T09:43:59.000Z</time>
      </trkpt>
      <trkpt lat="42.49139" lon="2.92854">
        <ele>649</ele>
        <time>2026-05-14T09:44:00.000Z</time>
      </trkpt>
      <trkpt lat="42.4914" lon="2.92852">
        <ele>649</ele>
        <time>2026-05-14T09:44:01.000Z</time>
      </trkpt>
      <trkpt lat="42.49141" lon="2.9285">
        <ele>650</ele>
        <time>2026-05-14T09:44:02.000Z</time>
      </trkpt>
      <trkpt lat="42.49143" lon="2.92849">
        <ele>650</ele>
        <time>2026-05-14T09:44:03.000Z</time>
      </trkpt>
      <trkpt lat="42.49146" lon="2.92846">
        <ele>651</ele>
        <time>2026-05-14T09:44:04.000Z</time>
      </trkpt>
      <trkpt lat="42.49148" lon="2.92841">
        <ele>650</ele>
        <time>2026-05-14T09:44:05.000Z</time>
      </trkpt>
      <trkpt lat="42.4915" lon="2.92838">
        <ele>650</ele>
        <time>2026-05-14T09:44:06.000Z</time>
      </trkpt>
      <trkpt lat="42.49153" lon="2.92835">
        <ele>649</ele>
        <time>2026-05-14T09:44:07.000Z</time>
      </trkpt>
      <trkpt lat="42.49155" lon="2.92831">
        <ele>649</ele>
        <time>2026-05-14T09:44:08.000Z</time>
      </trkpt>
      <trkpt lat="42.49157" lon="2.92827">
        <ele>648</ele>
        <time>2026-05-14T09:44:09.000Z</time>
      </trkpt>
      <trkpt lat="42.49159" lon="2.92823">
        <ele>648</ele>
        <time>2026-05-14T09:44:10.000Z</time>
      </trkpt>
      <trkpt lat="42.4916" lon="2.92818">
        <ele>647</ele>
        <time>2026-05-14T09:44:11.000Z</time>
      </trkpt>
      <trkpt lat="42.49161" lon="2.92814">
        <ele>647</ele>
        <time>2026-05-14T09:44:12.000Z</time>
      </trkpt>
      <trkpt lat="42.49161" lon="2.92809">
        <ele>646</ele>
        <time>2026-05-14T09:44:13.000Z</time>
      </trkpt>
      <trkpt lat="42.49162" lon="2.92802">
        <ele>646</ele>
        <time>2026-05-14T09:44:14.000Z</time>
      </trkpt>
      <trkpt lat="42.49162" lon="2.92796">
        <ele>645</ele>
        <time>2026-05-14T09:44:15.000Z</time>
      </trkpt>
      <trkpt lat="42.49162" lon="2.92789">
        <ele>645</ele>
        <time>2026-05-14T09:44:16.000Z</time>
      </trkpt>
      <trkpt lat="42.49162" lon="2.92782">
        <ele>645</ele>
        <time>2026-05-14T09:44:17.000Z</time>
      </trkpt>
      <trkpt lat="42.49161" lon="2.92777">
        <ele>644</ele>
        <time>2026-05-14T09:44:18.000Z</time>
      </trkpt>
      <trkpt lat="42.49159" lon="2.92772">
        <ele>645</ele>
        <time>2026-05-14T09:44:19.000Z</time>
      </trkpt>
      <trkpt lat="42.49159" lon="2.92767">
        <ele>644</ele>
        <time>2026-05-14T09:44:20.000Z</time>
      </trkpt>
      <trkpt lat="42.49158" lon="2.92762">
        <ele>645</ele>
        <time>2026-05-14T09:44:21.000Z</time>
      </trkpt>
      <trkpt lat="42.49157" lon="2.92757">
        <ele>645</ele>
        <time>2026-05-14T09:44:22.000Z</time>
      </trkpt>
      <trkpt lat="42.49157" lon="2.92751">
        <ele>646</ele>
        <time>2026-05-14T09:44:23.000Z</time>
      </trkpt>
      <trkpt lat="42.49157" lon="2.92745">
        <ele>646</ele>
        <time>2026-05-14T09:44:24.000Z</time>
      </trkpt>
      <trkpt lat="42.49158" lon="2.9274">
        <ele>645</ele>
        <time>2026-05-14T09:44:25.000Z</time>
      </trkpt>
      <trkpt lat="42.49161" lon="2.92736">
        <ele>645</ele>
        <time>2026-05-14T09:44:26.000Z</time>
      </trkpt>
      <trkpt lat="42.49165" lon="2.92731">
        <ele>645</ele>
        <time>2026-05-14T09:44:27.000Z</time>
      </trkpt>
      <trkpt lat="42.49168" lon="2.92727">
        <ele>645</ele>
        <time>2026-05-14T09:44:28.000Z</time>
      </trkpt>
      <trkpt lat="42.49173" lon="2.92725">
        <ele>645</ele>
        <time>2026-05-14T09:44:29.000Z</time>
      </trkpt>
      <trkpt lat="42.49176" lon="2.92723">
        <ele>644</ele>
        <time>2026-05-14T09:44:30.000Z</time>
      </trkpt>
      <trkpt lat="42.49181" lon="2.92722">
        <ele>644</ele>
        <time>2026-05-14T09:44:31.000Z</time>
      </trkpt>
      <trkpt lat="42.49185" lon="2.9272">
        <ele>642</ele>
        <time>2026-05-14T09:44:32.000Z</time>
      </trkpt>
      <trkpt lat="42.4919" lon="2.92719">
        <ele>642</ele>
        <time>2026-05-14T09:44:33.000Z</time>
      </trkpt>
      <trkpt lat="42.49196" lon="2.92719">
        <ele>642</ele>
        <time>2026-05-14T09:44:34.000Z</time>
      </trkpt>
      <trkpt lat="42.49202" lon="2.92719">
        <ele>641</ele>
        <time>2026-05-14T09:44:35.000Z</time>
      </trkpt>
      <trkpt lat="42.49207" lon="2.92718">
        <ele>640</ele>
        <time>2026-05-14T09:44:36.000Z</time>
      </trkpt>
      <trkpt lat="42.49213" lon="2.92717">
        <ele>639</ele>
        <time>2026-05-14T09:44:37.000Z</time>
      </trkpt>
      <trkpt lat="42.49218" lon="2.92717">
        <ele>638</ele>
        <time>2026-05-14T09:44:38.000Z</time>
      </trkpt>
      <trkpt lat="42.49222" lon="2.92716">
        <ele>637</ele>
        <time>2026-05-14T09:44:39.000Z</time>
      </trkpt>
      <trkpt lat="42.49227" lon="2.92715">
        <ele>637</ele>
        <time>2026-05-14T09:44:40.000Z</time>
      </trkpt>
      <trkpt lat="42.49232" lon="2.92715">
        <ele>636</ele>
        <time>2026-05-14T09:44:41.000Z</time>
      </trkpt>
      <trkpt lat="42.49237" lon="2.92714">
        <ele>636</ele>
        <time>2026-05-14T09:44:42.000Z</time>
      </trkpt>
      <trkpt lat="42.49243" lon="2.92714">
        <ele>636</ele>
        <time>2026-05-14T09:44:43.000Z</time>
      </trkpt>
      <trkpt lat="42.49249" lon="2.92716">
        <ele>635</ele>
        <time>2026-05-14T09:44:44.000Z</time>
      </trkpt>
      <trkpt lat="42.49254" lon="2.92717">
        <ele>635</ele>
        <time>2026-05-14T09:44:45.000Z</time>
      </trkpt>
      <trkpt lat="42.49259" lon="2.92717">
        <ele>635</ele>
        <time>2026-05-14T09:44:46.000Z</time>
      </trkpt>
      <trkpt lat="42.49264" lon="2.92719">
        <ele>634</ele>
        <time>2026-05-14T09:44:47.000Z</time>
      </trkpt>
      <trkpt lat="42.49268" lon="2.92719">
        <ele>633</ele>
        <time>2026-05-14T09:44:48.000Z</time>
      </trkpt>
      <trkpt lat="42.49273" lon="2.92719">
        <ele>633</ele>
        <time>2026-05-14T09:44:49.000Z</time>
      </trkpt>
      <trkpt lat="42.49277" lon="2.92718">
        <ele>632</ele>
        <time>2026-05-14T09:44:50.000Z</time>
      </trkpt>
      <trkpt lat="42.49281" lon="2.92717">
        <ele>631</ele>
        <time>2026-05-14T09:44:51.000Z</time>
      </trkpt>
      <trkpt lat="42.49285" lon="2.92715">
        <ele>631</ele>
        <time>2026-05-14T09:44:52.000Z</time>
      </trkpt>
      <trkpt lat="42.49289" lon="2.92713">
        <ele>631</ele>
        <time>2026-05-14T09:44:53.000Z</time>
      </trkpt>
      <trkpt lat="42.49294" lon="2.9271">
        <ele>630</ele>
        <time>2026-05-14T09:44:54.000Z</time>
      </trkpt>
      <trkpt lat="42.49298" lon="2.92706">
        <ele>629</ele>
        <time>2026-05-14T09:44:55.000Z</time>
      </trkpt>
      <trkpt lat="42.49303" lon="2.92704">
        <ele>629</ele>
        <time>2026-05-14T09:44:56.000Z</time>
      </trkpt>
      <trkpt lat="42.49308" lon="2.92699">
        <ele>628</ele>
        <time>2026-05-14T09:44:57.000Z</time>
      </trkpt>
      <trkpt lat="42.49313" lon="2.92696">
        <ele>627</ele>
        <time>2026-05-14T09:44:58.000Z</time>
      </trkpt>
      <trkpt lat="42.49318" lon="2.92693">
        <ele>627</ele>
        <time>2026-05-14T09:44:59.000Z</time>
      </trkpt>
      <trkpt lat="42.49322" lon="2.9269">
        <ele>627</ele>
        <time>2026-05-14T09:45:00.000Z</time>
      </trkpt>
      <trkpt lat="42.49328" lon="2.92687">
        <ele>626</ele>
        <time>2026-05-14T09:45:01.000Z</time>
      </trkpt>
      <trkpt lat="42.49335" lon="2.92684">
        <ele>626</ele>
        <time>2026-05-14T09:45:02.000Z</time>
      </trkpt>
      <trkpt lat="42.49341" lon="2.92683">
        <ele>625</ele>
        <time>2026-05-14T09:45:03.000Z</time>
      </trkpt>
      <trkpt lat="42.49347" lon="2.92681">
        <ele>625</ele>
        <time>2026-05-14T09:45:04.000Z</time>
      </trkpt>
      <trkpt lat="42.49354" lon="2.92679">
        <ele>625</ele>
        <time>2026-05-14T09:45:05.000Z</time>
      </trkpt>
      <trkpt lat="42.49361" lon="2.92678">
        <ele>624</ele>
        <time>2026-05-14T09:45:06.000Z</time>
      </trkpt>
      <trkpt lat="42.49367" lon="2.92676">
        <ele>623</ele>
        <time>2026-05-14T09:45:07.000Z</time>
      </trkpt>
      <trkpt lat="42.49373" lon="2.92675">
        <ele>621</ele>
        <time>2026-05-14T09:45:08.000Z</time>
      </trkpt>
      <trkpt lat="42.49379" lon="2.92673">
        <ele>620</ele>
        <time>2026-05-14T09:45:09.000Z</time>
      </trkpt>
      <trkpt lat="42.49382" lon="2.92671">
        <ele>619</ele>
        <time>2026-05-14T09:45:10.000Z</time>
      </trkpt>
      <trkpt lat="42.49384" lon="2.9267">
        <ele>619</ele>
        <time>2026-05-14T09:45:11.000Z</time>
      </trkpt>
      <trkpt lat="42.49385" lon="2.92667">
        <ele>619</ele>
        <time>2026-05-14T09:45:12.000Z</time>
      </trkpt>
      <trkpt lat="42.49385" lon="2.92668">
        <ele>619</ele>
        <time>2026-05-14T09:45:13.000Z</time>
      </trkpt>
      <trkpt lat="42.49385" lon="2.92668">
        <ele>619</ele>
        <time>2026-05-14T09:45:14.000Z</time>
      </trkpt>
      <trkpt lat="42.49385" lon="2.92666">
        <ele>619</ele>
        <time>2026-05-14T09:45:15.000Z</time>
      </trkpt>
      <trkpt lat="42.49385" lon="2.92666">
        <ele>619</ele>
        <time>2026-05-14T09:45:16.000Z</time>
      </trkpt>
      <trkpt lat="42.49386" lon="2.92664">
        <ele>618</ele>
        <time>2026-05-14T09:45:17.000Z</time>
      </trkpt>
      <trkpt lat="42.49388" lon="2.9266">
        <ele>616</ele>
        <time>2026-05-14T09:45:31.000Z</time>
      </trkpt>
      <trkpt lat="42.49389" lon="2.9266">
        <ele>616</ele>
        <time>2026-05-14T09:45:32.000Z</time>
      </trkpt>
      <trkpt lat="42.49391" lon="2.92659">
        <ele>615</ele>
        <time>2026-05-14T09:45:33.000Z</time>
      </trkpt>
      <trkpt lat="42.49393" lon="2.92659">
        <ele>615</ele>
        <time>2026-05-14T09:45:34.000Z</time>
      </trkpt>
      <trkpt lat="42.49395" lon="2.92658">
        <ele>614</ele>
        <time>2026-05-14T09:45:35.000Z</time>
      </trkpt>
      <trkpt lat="42.49398" lon="2.92658">
        <ele>614</ele>
        <time>2026-05-14T09:45:36.000Z</time>
      </trkpt>
      <trkpt lat="42.49401" lon="2.92657">
        <ele>614</ele>
        <time>2026-05-14T09:45:37.000Z</time>
      </trkpt>
      <trkpt lat="42.49405" lon="2.92657">
        <ele>613</ele>
        <time>2026-05-14T09:45:38.000Z</time>
      </trkpt>
      <trkpt lat="42.49408" lon="2.92657">
        <ele>612</ele>
        <time>2026-05-14T09:45:39.000Z</time>
      </trkpt>
      <trkpt lat="42.49413" lon="2.92657">
        <ele>611</ele>
        <time>2026-05-14T09:45:40.000Z</time>
      </trkpt>
      <trkpt lat="42.49415" lon="2.92659">
        <ele>610</ele>
        <time>2026-05-14T09:45:41.000Z</time>
      </trkpt>
      <trkpt lat="42.49416" lon="2.92662">
        <ele>609</ele>
        <time>2026-05-14T09:45:42.000Z</time>
      </trkpt>
      <trkpt lat="42.49415" lon="2.92664">
        <ele>609</ele>
        <time>2026-05-14T09:45:43.000Z</time>
      </trkpt>
      <trkpt lat="42.49412" lon="2.92666">
        <ele>609</ele>
        <time>2026-05-14T09:45:44.000Z</time>
      </trkpt>
      <trkpt lat="42.49409" lon="2.92668">
        <ele>608</ele>
        <time>2026-05-14T09:45:45.000Z</time>
      </trkpt>
      <trkpt lat="42.49404" lon="2.92669">
        <ele>608</ele>
        <time>2026-05-14T09:45:46.000Z</time>
      </trkpt>
      <trkpt lat="42.49397" lon="2.92672">
        <ele>607</ele>
        <time>2026-05-14T09:45:47.000Z</time>
      </trkpt>
      <trkpt lat="42.49391" lon="2.92673">
        <ele>607</ele>
        <time>2026-05-14T09:45:48.000Z</time>
      </trkpt>
      <trkpt lat="42.49386" lon="2.92675">
        <ele>607</ele>
        <time>2026-05-14T09:45:49.000Z</time>
      </trkpt>
      <trkpt lat="42.49381" lon="2.92678">
        <ele>606</ele>
        <time>2026-05-14T09:45:50.000Z</time>
      </trkpt>
      <trkpt lat="42.49377" lon="2.9268">
        <ele>605</ele>
        <time>2026-05-14T09:45:51.000Z</time>
      </trkpt>
      <trkpt lat="42.49372" lon="2.92684">
        <ele>605</ele>
        <time>2026-05-14T09:45:52.000Z</time>
      </trkpt>
      <trkpt lat="42.49367" lon="2.92688">
        <ele>604</ele>
        <time>2026-05-14T09:45:53.000Z</time>
      </trkpt>
      <trkpt lat="42.49362" lon="2.92691">
        <ele>604</ele>
        <time>2026-05-14T09:45:54.000Z</time>
      </trkpt>
      <trkpt lat="42.49357" lon="2.92697">
        <ele>604</ele>
        <time>2026-05-14T09:45:55.000Z</time>
      </trkpt>
      <trkpt lat="42.49352" lon="2.92702">
        <ele>604</ele>
        <time>2026-05-14T09:45:56.000Z</time>
      </trkpt>
      <trkpt lat="42.49348" lon="2.92707">
        <ele>603</ele>
        <time>2026-05-14T09:45:57.000Z</time>
      </trkpt>
      <trkpt lat="42.49343" lon="2.92715">
        <ele>603</ele>
        <time>2026-05-14T09:45:58.000Z</time>
      </trkpt>
      <trkpt lat="42.4934" lon="2.92723">
        <ele>602</ele>
        <time>2026-05-14T09:45:59.000Z</time>
      </trkpt>
      <trkpt lat="42.49336" lon="2.9273">
        <ele>602</ele>
        <time>2026-05-14T09:46:00.000Z</time>
      </trkpt>
      <trkpt lat="42.49332" lon="2.92737">
        <ele>602</ele>
        <time>2026-05-14T09:46:01.000Z</time>
      </trkpt>
      <trkpt lat="42.49327" lon="2.92744">
        <ele>601</ele>
        <time>2026-05-14T09:46:02.000Z</time>
      </trkpt>
      <trkpt lat="42.49322" lon="2.92751">
        <ele>601</ele>
        <time>2026-05-14T09:46:03.000Z</time>
      </trkpt>
      <trkpt lat="42.49316" lon="2.92758">
        <ele>601</ele>
        <time>2026-05-14T09:46:04.000Z</time>
      </trkpt>
      <trkpt lat="42.4931" lon="2.92765">
        <ele>601</ele>
        <time>2026-05-14T09:46:05.000Z</time>
      </trkpt>
      <trkpt lat="42.49303" lon="2.92771">
        <ele>600</ele>
        <time>2026-05-14T09:46:06.000Z</time>
      </trkpt>
      <trkpt lat="42.49297" lon="2.92776">
        <ele>599</ele>
        <time>2026-05-14T09:46:07.000Z</time>
      </trkpt>
      <trkpt lat="42.4929" lon="2.9278">
        <ele>599</ele>
        <time>2026-05-14T09:46:08.000Z</time>
      </trkpt>
      <trkpt lat="42.49284" lon="2.92784">
        <ele>599</ele>
        <time>2026-05-14T09:46:09.000Z</time>
      </trkpt>
      <trkpt lat="42.49278" lon="2.92788">
        <ele>598</ele>
        <time>2026-05-14T09:46:10.000Z</time>
      </trkpt>
      <trkpt lat="42.49271" lon="2.92793">
        <ele>597</ele>
        <time>2026-05-14T09:46:11.000Z</time>
      </trkpt>
      <trkpt lat="42.49264" lon="2.92799">
        <ele>596</ele>
        <time>2026-05-14T09:46:12.000Z</time>
      </trkpt>
      <trkpt lat="42.49261" lon="2.92806">
        <ele>595</ele>
        <time>2026-05-14T09:46:13.000Z</time>
      </trkpt>
      <trkpt lat="42.4926" lon="2.92812">
        <ele>595</ele>
        <time>2026-05-14T09:46:14.000Z</time>
      </trkpt>
      <trkpt lat="42.49263" lon="2.9282">
        <ele>594</ele>
        <time>2026-05-14T09:46:15.000Z</time>
      </trkpt>
      <trkpt lat="42.49266" lon="2.92826">
        <ele>593</ele>
        <time>2026-05-14T09:46:16.000Z</time>
      </trkpt>
      <trkpt lat="42.4927" lon="2.92831">
        <ele>593</ele>
        <time>2026-05-14T09:46:17.000Z</time>
      </trkpt>
      <trkpt lat="42.49273" lon="2.92837">
        <ele>592</ele>
        <time>2026-05-14T09:46:18.000Z</time>
      </trkpt>
      <trkpt lat="42.49275" lon="2.92844">
        <ele>592</ele>
        <time>2026-05-14T09:46:19.000Z</time>
      </trkpt>
      <trkpt lat="42.49277" lon="2.92852">
        <ele>591</ele>
        <time>2026-05-14T09:46:20.000Z</time>
      </trkpt>
      <trkpt lat="42.49278" lon="2.92861">
        <ele>591</ele>
        <time>2026-05-14T09:46:21.000Z</time>
      </trkpt>
      <trkpt lat="42.49278" lon="2.92871">
        <ele>591</ele>
        <time>2026-05-14T09:46:22.000Z</time>
      </trkpt>
      <trkpt lat="42.49278" lon="2.9288">
        <ele>590</ele>
        <time>2026-05-14T09:46:23.000Z</time>
      </trkpt>
      <trkpt lat="42.49277" lon="2.92888">
        <ele>590</ele>
        <time>2026-05-14T09:46:24.000Z</time>
      </trkpt>
      <trkpt lat="42.49276" lon="2.92897">
        <ele>590</ele>
        <time>2026-05-14T09:46:25.000Z</time>
      </trkpt>
      <trkpt lat="42.49275" lon="2.92906">
        <ele>589</ele>
        <time>2026-05-14T09:46:26.000Z</time>
      </trkpt>
      <trkpt lat="42.49273" lon="2.92915">
        <ele>589</ele>
        <time>2026-05-14T09:46:27.000Z</time>
      </trkpt>
      <trkpt lat="42.49271" lon="2.92924">
        <ele>589</ele>
        <time>2026-05-14T09:46:28.000Z</time>
      </trkpt>
      <trkpt lat="42.4927" lon="2.92932">
        <ele>588</ele>
        <time>2026-05-14T09:46:29.000Z</time>
      </trkpt>
      <trkpt lat="42.49267" lon="2.9294">
        <ele>588</ele>
        <time>2026-05-14T09:46:30.000Z</time>
      </trkpt>
      <trkpt lat="42.49266" lon="2.92948">
        <ele>587</ele>
        <time>2026-05-14T09:46:31.000Z</time>
      </trkpt>
      <trkpt lat="42.49265" lon="2.92957">
        <ele>586</ele>
        <time>2026-05-14T09:46:32.000Z</time>
      </trkpt>
      <trkpt lat="42.49264" lon="2.92965">
        <ele>585</ele>
        <time>2026-05-14T09:46:33.000Z</time>
      </trkpt>
      <trkpt lat="42.49265" lon="2.92973">
        <ele>584</ele>
        <time>2026-05-14T09:46:34.000Z</time>
      </trkpt>
      <trkpt lat="42.49265" lon="2.92979">
        <ele>584</ele>
        <time>2026-05-14T09:46:35.000Z</time>
      </trkpt>
      <trkpt lat="42.49266" lon="2.92985">
        <ele>583</ele>
        <time>2026-05-14T09:46:36.000Z</time>
      </trkpt>
      <trkpt lat="42.49268" lon="2.9299">
        <ele>584</ele>
        <time>2026-05-14T09:46:37.000Z</time>
      </trkpt>
      <trkpt lat="42.49273" lon="2.92995">
        <ele>584</ele>
        <time>2026-05-14T09:46:38.000Z</time>
      </trkpt>
      <trkpt lat="42.49277" lon="2.92996">
        <ele>584</ele>
        <time>2026-05-14T09:46:39.000Z</time>
      </trkpt>
      <trkpt lat="42.49281" lon="2.92997">
        <ele>584</ele>
        <time>2026-05-14T09:46:40.000Z</time>
      </trkpt>
      <trkpt lat="42.49284" lon="2.92997">
        <ele>584</ele>
        <time>2026-05-14T09:46:41.000Z</time>
      </trkpt>
      <trkpt lat="42.49287" lon="2.92996">
        <ele>584</ele>
        <time>2026-05-14T09:46:42.000Z</time>
      </trkpt>
      <trkpt lat="42.4929" lon="2.92996">
        <ele>585</ele>
        <time>2026-05-14T09:46:43.000Z</time>
      </trkpt>
      <trkpt lat="42.49292" lon="2.92997">
        <ele>585</ele>
        <time>2026-05-14T09:46:44.000Z</time>
      </trkpt>
      <trkpt lat="42.49294" lon="2.92996">
        <ele>585</ele>
        <time>2026-05-14T09:46:45.000Z</time>
      </trkpt>
      <trkpt lat="42.49296" lon="2.92995">
        <ele>584</ele>
        <time>2026-05-14T09:46:46.000Z</time>
      </trkpt>
      <trkpt lat="42.49297" lon="2.92994">
        <ele>584</ele>
        <time>2026-05-14T09:46:47.000Z</time>
      </trkpt>
      <trkpt lat="42.49299" lon="2.92993">
        <ele>584</ele>
        <time>2026-05-14T09:46:48.000Z</time>
      </trkpt>
      <trkpt lat="42.49301" lon="2.92992">
        <ele>584</ele>
        <time>2026-05-14T09:46:49.000Z</time>
      </trkpt>
      <trkpt lat="42.49304" lon="2.9299">
        <ele>584</ele>
        <time>2026-05-14T09:46:50.000Z</time>
      </trkpt>
      <trkpt lat="42.49307" lon="2.92987">
        <ele>584</ele>
        <time>2026-05-14T09:46:51.000Z</time>
      </trkpt>
      <trkpt lat="42.4931" lon="2.92985">
        <ele>584</ele>
        <time>2026-05-14T09:46:52.000Z</time>
      </trkpt>
      <trkpt lat="42.49314" lon="2.92982">
        <ele>584</ele>
        <time>2026-05-14T09:46:53.000Z</time>
      </trkpt>
      <trkpt lat="42.49317" lon="2.9298">
        <ele>584</ele>
        <time>2026-05-14T09:46:54.000Z</time>
      </trkpt>
      <trkpt lat="42.4932" lon="2.92977">
        <ele>583</ele>
        <time>2026-05-14T09:46:55.000Z</time>
      </trkpt>
      <trkpt lat="42.49323" lon="2.92974">
        <ele>583</ele>
        <time>2026-05-14T09:46:56.000Z</time>
      </trkpt>
      <trkpt lat="42.49326" lon="2.9297">
        <ele>583</ele>
        <time>2026-05-14T09:46:57.000Z</time>
      </trkpt>
      <trkpt lat="42.49329" lon="2.92967">
        <ele>582</ele>
        <time>2026-05-14T09:46:58.000Z</time>
      </trkpt>
      <trkpt lat="42.49332" lon="2.92963">
        <ele>582</ele>
        <time>2026-05-14T09:46:59.000Z</time>
      </trkpt>
      <trkpt lat="42.49335" lon="2.92958">
        <ele>582</ele>
        <time>2026-05-14T09:47:00.000Z</time>
      </trkpt>
      <trkpt lat="42.49338" lon="2.92952">
        <ele>582</ele>
        <time>2026-05-14T09:47:01.000Z</time>
      </trkpt>
      <trkpt lat="42.4934" lon="2.92947">
        <ele>581</ele>
        <time>2026-05-14T09:47:02.000Z</time>
      </trkpt>
      <trkpt lat="42.49342" lon="2.92941">
        <ele>581</ele>
        <time>2026-05-14T09:47:03.000Z</time>
      </trkpt>
      <trkpt lat="42.49345" lon="2.92936">
        <ele>580</ele>
        <time>2026-05-14T09:47:04.000Z</time>
      </trkpt>
      <trkpt lat="42.49349" lon="2.92932">
        <ele>580</ele>
        <time>2026-05-14T09:47:05.000Z</time>
      </trkpt>
      <trkpt lat="42.49354" lon="2.92928">
        <ele>580</ele>
        <time>2026-05-14T09:47:06.000Z</time>
      </trkpt>
      <trkpt lat="42.49359" lon="2.92927">
        <ele>579</ele>
        <time>2026-05-14T09:47:07.000Z</time>
      </trkpt>
      <trkpt lat="42.49364" lon="2.92931">
        <ele>578</ele>
        <time>2026-05-14T09:47:08.000Z</time>
      </trkpt>
      <trkpt lat="42.49369" lon="2.92935">
        <ele>577</ele>
        <time>2026-05-14T09:47:09.000Z</time>
      </trkpt>
      <trkpt lat="42.49374" lon="2.92939">
        <ele>577</ele>
        <time>2026-05-14T09:47:10.000Z</time>
      </trkpt>
      <trkpt lat="42.4938" lon="2.92941">
        <ele>577</ele>
        <time>2026-05-14T09:47:11.000Z</time>
      </trkpt>
      <trkpt lat="42.49385" lon="2.92939">
        <ele>576</ele>
        <time>2026-05-14T09:47:12.000Z</time>
      </trkpt>
      <trkpt lat="42.49391" lon="2.92937">
        <ele>576</ele>
        <time>2026-05-14T09:47:13.000Z</time>
      </trkpt>
      <trkpt lat="42.49395" lon="2.92933">
        <ele>575</ele>
        <time>2026-05-14T09:47:14.000Z</time>
      </trkpt>
      <trkpt lat="42.494" lon="2.9293">
        <ele>575</ele>
        <time>2026-05-14T09:47:15.000Z</time>
      </trkpt>
      <trkpt lat="42.49405" lon="2.92928">
        <ele>575</ele>
        <time>2026-05-14T09:47:16.000Z</time>
      </trkpt>
      <trkpt lat="42.49411" lon="2.92926">
        <ele>574</ele>
        <time>2026-05-14T09:47:17.000Z</time>
      </trkpt>
      <trkpt lat="42.49417" lon="2.92926">
        <ele>574</ele>
        <time>2026-05-14T09:47:18.000Z</time>
      </trkpt>
      <trkpt lat="42.49424" lon="2.92925">
        <ele>574</ele>
        <time>2026-05-14T09:47:19.000Z</time>
      </trkpt>
      <trkpt lat="42.49431" lon="2.92925">
        <ele>574</ele>
        <time>2026-05-14T09:47:20.000Z</time>
      </trkpt>
      <trkpt lat="42.49438" lon="2.92926">
        <ele>573</ele>
        <time>2026-05-14T09:47:21.000Z</time>
      </trkpt>
      <trkpt lat="42.49444" lon="2.92929">
        <ele>573</ele>
        <time>2026-05-14T09:47:22.000Z</time>
      </trkpt>
      <trkpt lat="42.4945" lon="2.92934">
        <ele>572</ele>
        <time>2026-05-14T09:47:23.000Z</time>
      </trkpt>
      <trkpt lat="42.49456" lon="2.92939">
        <ele>571</ele>
        <time>2026-05-14T09:47:24.000Z</time>
      </trkpt>
      <trkpt lat="42.49463" lon="2.92943">
        <ele>571</ele>
        <time>2026-05-14T09:47:25.000Z</time>
      </trkpt>
      <trkpt lat="42.49469" lon="2.92945">
        <ele>570</ele>
        <time>2026-05-14T09:47:26.000Z</time>
      </trkpt>
      <trkpt lat="42.49475" lon="2.92946">
        <ele>569</ele>
        <time>2026-05-14T09:47:27.000Z</time>
      </trkpt>
      <trkpt lat="42.49481" lon="2.92946">
        <ele>569</ele>
        <time>2026-05-14T09:47:28.000Z</time>
      </trkpt>
      <trkpt lat="42.49488" lon="2.92945">
        <ele>569</ele>
        <time>2026-05-14T09:47:29.000Z</time>
      </trkpt>
      <trkpt lat="42.49495" lon="2.92945">
        <ele>569</ele>
        <time>2026-05-14T09:47:30.000Z</time>
      </trkpt>
      <trkpt lat="42.49502" lon="2.92945">
        <ele>569</ele>
        <time>2026-05-14T09:47:31.000Z</time>
      </trkpt>
      <trkpt lat="42.49509" lon="2.92945">
        <ele>569</ele>
        <time>2026-05-14T09:47:32.000Z</time>
      </trkpt>
      <trkpt lat="42.49516" lon="2.92946">
        <ele>569</ele>
        <time>2026-05-14T09:47:33.000Z</time>
      </trkpt>
      <trkpt lat="42.49523" lon="2.92947">
        <ele>569</ele>
        <time>2026-05-14T09:47:34.000Z</time>
      </trkpt>
      <trkpt lat="42.4953" lon="2.92946">
        <ele>569</ele>
        <time>2026-05-14T09:47:35.000Z</time>
      </trkpt>
      <trkpt lat="42.49537" lon="2.92946">
        <ele>568</ele>
        <time>2026-05-14T09:47:36.000Z</time>
      </trkpt>
      <trkpt lat="42.49544" lon="2.92946">
        <ele>568</ele>
        <time>2026-05-14T09:47:37.000Z</time>
      </trkpt>
      <trkpt lat="42.49551" lon="2.92947">
        <ele>568</ele>
        <time>2026-05-14T09:47:38.000Z</time>
      </trkpt>
      <trkpt lat="42.49557" lon="2.92948">
        <ele>567</ele>
        <time>2026-05-14T09:47:39.000Z</time>
      </trkpt>
      <trkpt lat="42.49564" lon="2.92951">
        <ele>567</ele>
        <time>2026-05-14T09:47:40.000Z</time>
      </trkpt>
      <trkpt lat="42.49569" lon="2.92955">
        <ele>567</ele>
        <time>2026-05-14T09:47:41.000Z</time>
      </trkpt>
      <trkpt lat="42.49576" lon="2.92958">
        <ele>567</ele>
        <time>2026-05-14T09:47:42.000Z</time>
      </trkpt>
      <trkpt lat="42.49583" lon="2.92959">
        <ele>566</ele>
        <time>2026-05-14T09:47:43.000Z</time>
      </trkpt>
      <trkpt lat="42.49591" lon="2.92958">
        <ele>566</ele>
        <time>2026-05-14T09:47:44.000Z</time>
      </trkpt>
      <trkpt lat="42.49595" lon="2.92956">
        <ele>566</ele>
        <time>2026-05-14T09:47:45.000Z</time>
      </trkpt>
      <trkpt lat="42.49601" lon="2.92951">
        <ele>566</ele>
        <time>2026-05-14T09:47:46.000Z</time>
      </trkpt>
      <trkpt lat="42.49606" lon="2.92947">
        <ele>566</ele>
        <time>2026-05-14T09:47:47.000Z</time>
      </trkpt>
      <trkpt lat="42.4961" lon="2.92943">
        <ele>565</ele>
        <time>2026-05-14T09:47:48.000Z</time>
      </trkpt>
      <trkpt lat="42.49615" lon="2.9294">
        <ele>565</ele>
        <time>2026-05-14T09:47:49.000Z</time>
      </trkpt>
      <trkpt lat="42.4962" lon="2.92936">
        <ele>565</ele>
        <time>2026-05-14T09:47:50.000Z</time>
      </trkpt>
      <trkpt lat="42.49626" lon="2.92931">
        <ele>565</ele>
        <time>2026-05-14T09:47:51.000Z</time>
      </trkpt>
      <trkpt lat="42.49631" lon="2.92926">
        <ele>564</ele>
        <time>2026-05-14T09:47:52.000Z</time>
      </trkpt>
      <trkpt lat="42.49636" lon="2.92922">
        <ele>564</ele>
        <time>2026-05-14T09:47:53.000Z</time>
      </trkpt>
      <trkpt lat="42.49642" lon="2.92919">
        <ele>564</ele>
        <time>2026-05-14T09:47:54.000Z</time>
      </trkpt>
      <trkpt lat="42.49648" lon="2.92915">
        <ele>563</ele>
        <time>2026-05-14T09:47:55.000Z</time>
      </trkpt>
      <trkpt lat="42.49654" lon="2.92911">
        <ele>562</ele>
        <time>2026-05-14T09:47:56.000Z</time>
      </trkpt>
      <trkpt lat="42.4966" lon="2.92905">
        <ele>563</ele>
        <time>2026-05-14T09:47:57.000Z</time>
      </trkpt>
      <trkpt lat="42.49666" lon="2.929">
        <ele>562</ele>
        <time>2026-05-14T09:47:58.000Z</time>
      </trkpt>
      <trkpt lat="42.49671" lon="2.92894">
        <ele>562</ele>
        <time>2026-05-14T09:47:59.000Z</time>
      </trkpt>
      <trkpt lat="42.49678" lon="2.92889">
        <ele>562</ele>
        <time>2026-05-14T09:48:00.000Z</time>
      </trkpt>
      <trkpt lat="42.49684" lon="2.92885">
        <ele>562</ele>
        <time>2026-05-14T09:48:01.000Z</time>
      </trkpt>
      <trkpt lat="42.4969" lon="2.9288">
        <ele>561</ele>
        <time>2026-05-14T09:48:02.000Z</time>
      </trkpt>
      <trkpt lat="42.49698" lon="2.92876">
        <ele>561</ele>
        <time>2026-05-14T09:48:03.000Z</time>
      </trkpt>
      <trkpt lat="42.49704" lon="2.92871">
        <ele>561</ele>
        <time>2026-05-14T09:48:04.000Z</time>
      </trkpt>
      <trkpt lat="42.49709" lon="2.92866">
        <ele>560</ele>
        <time>2026-05-14T09:48:05.000Z</time>
      </trkpt>
      <trkpt lat="42.49715" lon="2.92861">
        <ele>560</ele>
        <time>2026-05-14T09:48:06.000Z</time>
      </trkpt>
      <trkpt lat="42.49721" lon="2.92856">
        <ele>559</ele>
        <time>2026-05-14T09:48:07.000Z</time>
      </trkpt>
      <trkpt lat="42.49727" lon="2.9285">
        <ele>559</ele>
        <time>2026-05-14T09:48:08.000Z</time>
      </trkpt>
      <trkpt lat="42.49732" lon="2.92845">
        <ele>558</ele>
        <time>2026-05-14T09:48:09.000Z</time>
      </trkpt>
      <trkpt lat="42.49738" lon="2.9284">
        <ele>558</ele>
        <time>2026-05-14T09:48:10.000Z</time>
      </trkpt>
      <trkpt lat="42.49744" lon="2.92835">
        <ele>557</ele>
        <time>2026-05-14T09:48:11.000Z</time>
      </trkpt>
      <trkpt lat="42.49749" lon="2.92831">
        <ele>557</ele>
        <time>2026-05-14T09:48:12.000Z</time>
      </trkpt>
      <trkpt lat="42.49756" lon="2.92827">
        <ele>557</ele>
        <time>2026-05-14T09:48:13.000Z</time>
      </trkpt>
      <trkpt lat="42.49761" lon="2.92823">
        <ele>556</ele>
        <time>2026-05-14T09:48:14.000Z</time>
      </trkpt>
      <trkpt lat="42.49767" lon="2.92818">
        <ele>555</ele>
        <time>2026-05-14T09:48:15.000Z</time>
      </trkpt>
      <trkpt lat="42.49772" lon="2.92813">
        <ele>555</ele>
        <time>2026-05-14T09:48:16.000Z</time>
      </trkpt>
      <trkpt lat="42.49776" lon="2.92807">
        <ele>555</ele>
        <time>2026-05-14T09:48:17.000Z</time>
      </trkpt>
      <trkpt lat="42.4978" lon="2.92805">
        <ele>555</ele>
        <time>2026-05-14T09:48:18.000Z</time>
      </trkpt>
      <trkpt lat="42.49783" lon="2.92804">
        <ele>555</ele>
        <time>2026-05-14T09:48:19.000Z</time>
      </trkpt>
      <trkpt lat="42.49787" lon="2.92805">
        <ele>555</ele>
        <time>2026-05-14T09:48:20.000Z</time>
      </trkpt>
      <trkpt lat="42.49791" lon="2.92806">
        <ele>555</ele>
        <time>2026-05-14T09:48:21.000Z</time>
      </trkpt>
      <trkpt lat="42.49795" lon="2.92809">
        <ele>554</ele>
        <time>2026-05-14T09:48:22.000Z</time>
      </trkpt>
      <trkpt lat="42.498" lon="2.92811">
        <ele>553</ele>
        <time>2026-05-14T09:48:23.000Z</time>
      </trkpt>
      <trkpt lat="42.49804" lon="2.92813">
        <ele>552</ele>
        <time>2026-05-14T09:48:24.000Z</time>
      </trkpt>
      <trkpt lat="42.49808" lon="2.92817">
        <ele>551</ele>
        <time>2026-05-14T09:48:25.000Z</time>
      </trkpt>
      <trkpt lat="42.49813" lon="2.9282">
        <ele>550</ele>
        <time>2026-05-14T09:48:26.000Z</time>
      </trkpt>
      <trkpt lat="42.49817" lon="2.92823">
        <ele>550</ele>
        <time>2026-05-14T09:48:27.000Z</time>
      </trkpt>
      <trkpt lat="42.49821" lon="2.92827">
        <ele>549</ele>
        <time>2026-05-14T09:48:28.000Z</time>
      </trkpt>
      <trkpt lat="42.49825" lon="2.9283">
        <ele>548</ele>
        <time>2026-05-14T09:48:29.000Z</time>
      </trkpt>
      <trkpt lat="42.4983" lon="2.92834">
        <ele>547</ele>
        <time>2026-05-14T09:48:30.000Z</time>
      </trkpt>
      <trkpt lat="42.49834" lon="2.92839">
        <ele>548</ele>
        <time>2026-05-14T09:48:31.000Z</time>
      </trkpt>
      <trkpt lat="42.49837" lon="2.92845">
        <ele>548</ele>
        <time>2026-05-14T09:48:32.000Z</time>
      </trkpt>
      <trkpt lat="42.4984" lon="2.92851">
        <ele>547</ele>
        <time>2026-05-14T09:48:33.000Z</time>
      </trkpt>
      <trkpt lat="42.49844" lon="2.92856">
        <ele>546</ele>
        <time>2026-05-14T09:48:34.000Z</time>
      </trkpt>
      <trkpt lat="42.49849" lon="2.92861">
        <ele>545</ele>
        <time>2026-05-14T09:48:35.000Z</time>
      </trkpt>
      <trkpt lat="42.49853" lon="2.92865">
        <ele>544</ele>
        <time>2026-05-14T09:48:36.000Z</time>
      </trkpt>
      <trkpt lat="42.49857" lon="2.92871">
        <ele>544</ele>
        <time>2026-05-14T09:48:37.000Z</time>
      </trkpt>
      <trkpt lat="42.49862" lon="2.92876">
        <ele>543</ele>
        <time>2026-05-14T09:48:38.000Z</time>
      </trkpt>
      <trkpt lat="42.49867" lon="2.9288">
        <ele>543</ele>
        <time>2026-05-14T09:48:39.000Z</time>
      </trkpt>
      <trkpt lat="42.49874" lon="2.92881">
        <ele>542</ele>
        <time>2026-05-14T09:48:40.000Z</time>
      </trkpt>
      <trkpt lat="42.49881" lon="2.92882">
        <ele>541</ele>
        <time>2026-05-14T09:48:41.000Z</time>
      </trkpt>
      <trkpt lat="42.49886" lon="2.92887">
        <ele>540</ele>
        <time>2026-05-14T09:48:42.000Z</time>
      </trkpt>
      <trkpt lat="42.49891" lon="2.92892">
        <ele>539</ele>
        <time>2026-05-14T09:48:43.000Z</time>
      </trkpt>
      <trkpt lat="42.49894" lon="2.92899">
        <ele>539</ele>
        <time>2026-05-14T09:48:44.000Z</time>
      </trkpt>
      <trkpt lat="42.49895" lon="2.92906">
        <ele>540</ele>
        <time>2026-05-14T09:48:45.000Z</time>
      </trkpt>
      <trkpt lat="42.49897" lon="2.92912">
        <ele>539</ele>
        <time>2026-05-14T09:48:46.000Z</time>
      </trkpt>
      <trkpt lat="42.49898" lon="2.92918">
        <ele>539</ele>
        <time>2026-05-14T09:48:47.000Z</time>
      </trkpt>
      <trkpt lat="42.499" lon="2.92923">
        <ele>540</ele>
        <time>2026-05-14T09:48:48.000Z</time>
      </trkpt>
      <trkpt lat="42.49901" lon="2.92929">
        <ele>540</ele>
        <time>2026-05-14T09:48:49.000Z</time>
      </trkpt>
      <trkpt lat="42.49902" lon="2.92935">
        <ele>540</ele>
        <time>2026-05-14T09:48:50.000Z</time>
      </trkpt>
      <trkpt lat="42.49904" lon="2.92941">
        <ele>539</ele>
        <time>2026-05-14T09:48:51.000Z</time>
      </trkpt>
      <trkpt lat="42.49905" lon="2.92947">
        <ele>539</ele>
        <time>2026-05-14T09:48:52.000Z</time>
      </trkpt>
      <trkpt lat="42.49907" lon="2.92952">
        <ele>539</ele>
        <time>2026-05-14T09:48:53.000Z</time>
      </trkpt>
      <trkpt lat="42.4991" lon="2.92958">
        <ele>539</ele>
        <time>2026-05-14T09:48:54.000Z</time>
      </trkpt>
      <trkpt lat="42.49913" lon="2.92964">
        <ele>538</ele>
        <time>2026-05-14T09:48:55.000Z</time>
      </trkpt>
      <trkpt lat="42.49916" lon="2.9297">
        <ele>538</ele>
        <time>2026-05-14T09:48:56.000Z</time>
      </trkpt>
      <trkpt lat="42.49919" lon="2.92978">
        <ele>538</ele>
        <time>2026-05-14T09:48:57.000Z</time>
      </trkpt>
      <trkpt lat="42.49923" lon="2.92984">
        <ele>538</ele>
        <time>2026-05-14T09:48:58.000Z</time>
      </trkpt>
      <trkpt lat="42.49928" lon="2.9299">
        <ele>537</ele>
        <time>2026-05-14T09:48:59.000Z</time>
      </trkpt>
      <trkpt lat="42.49934" lon="2.92993">
        <ele>536</ele>
        <time>2026-05-14T09:49:00.000Z</time>
      </trkpt>
      <trkpt lat="42.4994" lon="2.92995">
        <ele>536</ele>
        <time>2026-05-14T09:49:01.000Z</time>
      </trkpt>
      <trkpt lat="42.49947" lon="2.92999">
        <ele>536</ele>
        <time>2026-05-14T09:49:02.000Z</time>
      </trkpt>
      <trkpt lat="42.49954" lon="2.93003">
        <ele>536</ele>
        <time>2026-05-14T09:49:03.000Z</time>
      </trkpt>
      <trkpt lat="42.4996" lon="2.93009">
        <ele>535</ele>
        <time>2026-05-14T09:49:04.000Z</time>
      </trkpt>
      <trkpt lat="42.49964" lon="2.93015">
        <ele>535</ele>
        <time>2026-05-14T09:49:05.000Z</time>
      </trkpt>
      <trkpt lat="42.49964" lon="2.93025">
        <ele>535</ele>
        <time>2026-05-14T09:49:06.000Z</time>
      </trkpt>
      <trkpt lat="42.49963" lon="2.93035">
        <ele>534</ele>
        <time>2026-05-14T09:49:07.000Z</time>
      </trkpt>
      <trkpt lat="42.49961" lon="2.93044">
        <ele>534</ele>
        <time>2026-05-14T09:49:08.000Z</time>
      </trkpt>
      <trkpt lat="42.49959" lon="2.93053">
        <ele>533</ele>
        <time>2026-05-14T09:49:09.000Z</time>
      </trkpt>
      <trkpt lat="42.49956" lon="2.93061">
        <ele>533</ele>
        <time>2026-05-14T09:49:10.000Z</time>
      </trkpt>
      <trkpt lat="42.49953" lon="2.9307">
        <ele>532</ele>
        <time>2026-05-14T09:49:11.000Z</time>
      </trkpt>
      <trkpt lat="42.4995" lon="2.93078">
        <ele>532</ele>
        <time>2026-05-14T09:49:12.000Z</time>
      </trkpt>
      <trkpt lat="42.49947" lon="2.93085">
        <ele>532</ele>
        <time>2026-05-14T09:49:13.000Z</time>
      </trkpt>
      <trkpt lat="42.49944" lon="2.93093">
        <ele>532</ele>
        <time>2026-05-14T09:49:14.000Z</time>
      </trkpt>
      <trkpt lat="42.49939" lon="2.93101">
        <ele>531</ele>
        <time>2026-05-14T09:49:15.000Z</time>
      </trkpt>
      <trkpt lat="42.49935" lon="2.93107">
        <ele>531</ele>
        <time>2026-05-14T09:49:16.000Z</time>
      </trkpt>
      <trkpt lat="42.49931" lon="2.93113">
        <ele>530</ele>
        <time>2026-05-14T09:49:17.000Z</time>
      </trkpt>
      <trkpt lat="42.49925" lon="2.93117">
        <ele>530</ele>
        <time>2026-05-14T09:49:18.000Z</time>
      </trkpt>
      <trkpt lat="42.49921" lon="2.93122">
        <ele>529</ele>
        <time>2026-05-14T09:49:19.000Z</time>
      </trkpt>
      <trkpt lat="42.49918" lon="2.93129">
        <ele>529</ele>
        <time>2026-05-14T09:49:20.000Z</time>
      </trkpt>
      <trkpt lat="42.49917" lon="2.93135">
        <ele>529</ele>
        <time>2026-05-14T09:49:21.000Z</time>
      </trkpt>
      <trkpt lat="42.49917" lon="2.93142">
        <ele>529</ele>
        <time>2026-05-14T09:49:22.000Z</time>
      </trkpt>
      <trkpt lat="42.49917" lon="2.93149">
        <ele>528</ele>
        <time>2026-05-14T09:49:23.000Z</time>
      </trkpt>
      <trkpt lat="42.49917" lon="2.93156">
        <ele>528</ele>
        <time>2026-05-14T09:49:24.000Z</time>
      </trkpt>
      <trkpt lat="42.49916" lon="2.93163">
        <ele>529</ele>
        <time>2026-05-14T09:49:25.000Z</time>
      </trkpt>
      <trkpt lat="42.49916" lon="2.9317">
        <ele>529</ele>
        <time>2026-05-14T09:49:26.000Z</time>
      </trkpt>
      <trkpt lat="42.49915" lon="2.93174">
        <ele>529</ele>
        <time>2026-05-14T09:49:27.000Z</time>
      </trkpt>
      <trkpt lat="42.49913" lon="2.93179">
        <ele>529</ele>
        <time>2026-05-14T09:49:28.000Z</time>
      </trkpt>
      <trkpt lat="42.49911" lon="2.93183">
        <ele>529</ele>
        <time>2026-05-14T09:49:29.000Z</time>
      </trkpt>
      <trkpt lat="42.49909" lon="2.93187">
        <ele>529</ele>
        <time>2026-05-14T09:49:30.000Z</time>
      </trkpt>
      <trkpt lat="42.49907" lon="2.93191">
        <ele>529</ele>
        <time>2026-05-14T09:49:31.000Z</time>
      </trkpt>
      <trkpt lat="42.49905" lon="2.93194">
        <ele>529</ele>
        <time>2026-05-14T09:49:32.000Z</time>
      </trkpt>
      <trkpt lat="42.49903" lon="2.93196">
        <ele>528</ele>
        <time>2026-05-14T09:49:33.000Z</time>
      </trkpt>
      <trkpt lat="42.499" lon="2.93199">
        <ele>528</ele>
        <time>2026-05-14T09:49:34.000Z</time>
      </trkpt>
      <trkpt lat="42.49897" lon="2.93203">
        <ele>528</ele>
        <time>2026-05-14T09:49:35.000Z</time>
      </trkpt>
      <trkpt lat="42.49896" lon="2.93206">
        <ele>527</ele>
        <time>2026-05-14T09:49:36.000Z</time>
      </trkpt>
      <trkpt lat="42.49895" lon="2.9321">
        <ele>527</ele>
        <time>2026-05-14T09:49:37.000Z</time>
      </trkpt>
      <trkpt lat="42.49895" lon="2.93214">
        <ele>527</ele>
        <time>2026-05-14T09:49:38.000Z</time>
      </trkpt>
      <trkpt lat="42.49897" lon="2.93218">
        <ele>527</ele>
        <time>2026-05-14T09:49:39.000Z</time>
      </trkpt>
      <trkpt lat="42.49901" lon="2.93222">
        <ele>527</ele>
        <time>2026-05-14T09:49:40.000Z</time>
      </trkpt>
      <trkpt lat="42.49906" lon="2.93229">
        <ele>527</ele>
        <time>2026-05-14T09:49:41.000Z</time>
      </trkpt>
      <trkpt lat="42.49912" lon="2.93235">
        <ele>526</ele>
        <time>2026-05-14T09:49:42.000Z</time>
      </trkpt>
      <trkpt lat="42.49917" lon="2.9324">
        <ele>526</ele>
        <time>2026-05-14T09:49:43.000Z</time>
      </trkpt>
      <trkpt lat="42.49922" lon="2.93246">
        <ele>525</ele>
        <time>2026-05-14T09:49:44.000Z</time>
      </trkpt>
      <trkpt lat="42.49927" lon="2.9325">
        <ele>525</ele>
        <time>2026-05-14T09:49:45.000Z</time>
      </trkpt>
      <trkpt lat="42.49931" lon="2.93257">
        <ele>525</ele>
        <time>2026-05-14T09:49:46.000Z</time>
      </trkpt>
      <trkpt lat="42.49934" lon="2.93263">
        <ele>525</ele>
        <time>2026-05-14T09:49:47.000Z</time>
      </trkpt>
      <trkpt lat="42.49938" lon="2.9327">
        <ele>525</ele>
        <time>2026-05-14T09:49:48.000Z</time>
      </trkpt>
      <trkpt lat="42.49942" lon="2.93276">
        <ele>525</ele>
        <time>2026-05-14T09:49:49.000Z</time>
      </trkpt>
      <trkpt lat="42.49945" lon="2.93284">
        <ele>526</ele>
        <time>2026-05-14T09:49:50.000Z</time>
      </trkpt>
      <trkpt lat="42.49948" lon="2.93291">
        <ele>526</ele>
        <time>2026-05-14T09:49:51.000Z</time>
      </trkpt>
      <trkpt lat="42.49951" lon="2.93297">
        <ele>526</ele>
        <time>2026-05-14T09:49:52.000Z</time>
      </trkpt>
      <trkpt lat="42.49953" lon="2.93304">
        <ele>526</ele>
        <time>2026-05-14T09:49:53.000Z</time>
      </trkpt>
      <trkpt lat="42.49955" lon="2.9331">
        <ele>525</ele>
        <time>2026-05-14T09:49:54.000Z</time>
      </trkpt>
      <trkpt lat="42.49957" lon="2.93318">
        <ele>525</ele>
        <time>2026-05-14T09:49:55.000Z</time>
      </trkpt>
      <trkpt lat="42.49959" lon="2.93325">
        <ele>524</ele>
        <time>2026-05-14T09:49:56.000Z</time>
      </trkpt>
      <trkpt lat="42.49961" lon="2.93332">
        <ele>524</ele>
        <time>2026-05-14T09:49:57.000Z</time>
      </trkpt>
      <trkpt lat="42.49962" lon="2.9334">
        <ele>524</ele>
        <time>2026-05-14T09:49:58.000Z</time>
      </trkpt>
      <trkpt lat="42.49963" lon="2.93348">
        <ele>523</ele>
        <time>2026-05-14T09:49:59.000Z</time>
      </trkpt>
      <trkpt lat="42.49963" lon="2.93358">
        <ele>523</ele>
        <time>2026-05-14T09:50:00.000Z</time>
      </trkpt>
      <trkpt lat="42.49964" lon="2.93368">
        <ele>522</ele>
        <time>2026-05-14T09:50:01.000Z</time>
      </trkpt>
      <trkpt lat="42.49964" lon="2.93378">
        <ele>522</ele>
        <time>2026-05-14T09:50:02.000Z</time>
      </trkpt>
      <trkpt lat="42.49964" lon="2.93388">
        <ele>521</ele>
        <time>2026-05-14T09:50:03.000Z</time>
      </trkpt>
      <trkpt lat="42.49963" lon="2.93399">
        <ele>521</ele>
        <time>2026-05-14T09:50:04.000Z</time>
      </trkpt>
      <trkpt lat="42.49958" lon="2.93407">
        <ele>521</ele>
        <time>2026-05-14T09:50:05.000Z</time>
      </trkpt>
      <trkpt lat="42.49952" lon="2.93414">
        <ele>520</ele>
        <time>2026-05-14T09:50:06.000Z</time>
      </trkpt>
      <trkpt lat="42.49945" lon="2.93418">
        <ele>521</ele>
        <time>2026-05-14T09:50:07.000Z</time>
      </trkpt>
      <trkpt lat="42.4994" lon="2.93421">
        <ele>520</ele>
        <time>2026-05-14T09:50:08.000Z</time>
      </trkpt>
      <trkpt lat="42.49934" lon="2.93422">
        <ele>520</ele>
        <time>2026-05-14T09:50:09.000Z</time>
      </trkpt>
      <trkpt lat="42.49928" lon="2.93422">
        <ele>520</ele>
        <time>2026-05-14T09:50:10.000Z</time>
      </trkpt>
      <trkpt lat="42.49924" lon="2.93422">
        <ele>519</ele>
        <time>2026-05-14T09:50:11.000Z</time>
      </trkpt>
      <trkpt lat="42.49922" lon="2.93425">
        <ele>518</ele>
        <time>2026-05-14T09:50:12.000Z</time>
      </trkpt>
      <trkpt lat="42.49921" lon="2.93429">
        <ele>517</ele>
        <time>2026-05-14T09:50:13.000Z</time>
      </trkpt>
      <trkpt lat="42.49924" lon="2.93433">
        <ele>517</ele>
        <time>2026-05-14T09:50:14.000Z</time>
      </trkpt>
      <trkpt lat="42.49927" lon="2.93437">
        <ele>517</ele>
        <time>2026-05-14T09:50:15.000Z</time>
      </trkpt>
      <trkpt lat="42.49929" lon="2.93442">
        <ele>517</ele>
        <time>2026-05-14T09:50:16.000Z</time>
      </trkpt>
      <trkpt lat="42.49933" lon="2.93447">
        <ele>517</ele>
        <time>2026-05-14T09:50:17.000Z</time>
      </trkpt>
      <trkpt lat="42.49935" lon="2.93448">
        <ele>517</ele>
        <time>2026-05-14T09:50:18.000Z</time>
      </trkpt>
      <trkpt lat="42.49938" lon="2.9345">
        <ele>517</ele>
        <time>2026-05-14T09:50:19.000Z</time>
      </trkpt>
      <trkpt lat="42.49941" lon="2.93453">
        <ele>517</ele>
        <time>2026-05-14T09:50:20.000Z</time>
      </trkpt>
      <trkpt lat="42.49944" lon="2.93456">
        <ele>517</ele>
        <time>2026-05-14T09:50:21.000Z</time>
      </trkpt>
      <trkpt lat="42.49948" lon="2.9346">
        <ele>517</ele>
        <time>2026-05-14T09:50:22.000Z</time>
      </trkpt>
      <trkpt lat="42.49953" lon="2.93465">
        <ele>516</ele>
        <time>2026-05-14T09:50:23.000Z</time>
      </trkpt>
      <trkpt lat="42.49957" lon="2.93469">
        <ele>516</ele>
        <time>2026-05-14T09:50:24.000Z</time>
      </trkpt>
      <trkpt lat="42.49961" lon="2.93471">
        <ele>517</ele>
        <time>2026-05-14T09:50:25.000Z</time>
      </trkpt>
      <trkpt lat="42.49966" lon="2.93474">
        <ele>517</ele>
        <time>2026-05-14T09:50:26.000Z</time>
      </trkpt>
      <trkpt lat="42.4997" lon="2.93478">
        <ele>517</ele>
        <time>2026-05-14T09:50:27.000Z</time>
      </trkpt>
      <trkpt lat="42.49974" lon="2.93482">
        <ele>517</ele>
        <time>2026-05-14T09:50:28.000Z</time>
      </trkpt>
      <trkpt lat="42.49979" lon="2.93486">
        <ele>516</ele>
        <time>2026-05-14T09:50:29.000Z</time>
      </trkpt>
      <trkpt lat="42.49984" lon="2.93487">
        <ele>516</ele>
        <time>2026-05-14T09:50:30.000Z</time>
      </trkpt>
      <trkpt lat="42.49988" lon="2.93486">
        <ele>516</ele>
        <time>2026-05-14T09:50:31.000Z</time>
      </trkpt>
      <trkpt lat="42.49993" lon="2.93485">
        <ele>515</ele>
        <time>2026-05-14T09:50:32.000Z</time>
      </trkpt>
      <trkpt lat="42.49999" lon="2.93484">
        <ele>515</ele>
        <time>2026-05-14T09:50:33.000Z</time>
      </trkpt>
      <trkpt lat="42.50005" lon="2.93482">
        <ele>514</ele>
        <time>2026-05-14T09:50:34.000Z</time>
      </trkpt>
      <trkpt lat="42.50012" lon="2.9348">
        <ele>514</ele>
        <time>2026-05-14T09:50:35.000Z</time>
      </trkpt>
      <trkpt lat="42.50017" lon="2.93477">
        <ele>514</ele>
        <time>2026-05-14T09:50:36.000Z</time>
      </trkpt>
      <trkpt lat="42.50022" lon="2.93472">
        <ele>515</ele>
        <time>2026-05-14T09:50:37.000Z</time>
      </trkpt>
      <trkpt lat="42.50027" lon="2.93468">
        <ele>514</ele>
        <time>2026-05-14T09:50:38.000Z</time>
      </trkpt>
      <trkpt lat="42.50032" lon="2.93464">
        <ele>514</ele>
        <time>2026-05-14T09:50:39.000Z</time>
      </trkpt>
      <trkpt lat="42.50038" lon="2.9346">
        <ele>514</ele>
        <time>2026-05-14T09:50:40.000Z</time>
      </trkpt>
      <trkpt lat="42.50043" lon="2.93454">
        <ele>514</ele>
        <time>2026-05-14T09:50:41.000Z</time>
      </trkpt>
      <trkpt lat="42.50048" lon="2.93448">
        <ele>513</ele>
        <time>2026-05-14T09:50:42.000Z</time>
      </trkpt>
      <trkpt lat="42.50052" lon="2.93441">
        <ele>513</ele>
        <time>2026-05-14T09:50:43.000Z</time>
      </trkpt>
      <trkpt lat="42.50056" lon="2.93433">
        <ele>512</ele>
        <time>2026-05-14T09:50:44.000Z</time>
      </trkpt>
      <trkpt lat="42.5006" lon="2.93425">
        <ele>512</ele>
        <time>2026-05-14T09:50:45.000Z</time>
      </trkpt>
      <trkpt lat="42.50065" lon="2.93416">
        <ele>512</ele>
        <time>2026-05-14T09:50:46.000Z</time>
      </trkpt>
      <trkpt lat="42.50069" lon="2.93407">
        <ele>512</ele>
        <time>2026-05-14T09:50:47.000Z</time>
      </trkpt>
      <trkpt lat="42.50073" lon="2.93397">
        <ele>511</ele>
        <time>2026-05-14T09:50:48.000Z</time>
      </trkpt>
      <trkpt lat="42.50075" lon="2.93387">
        <ele>511</ele>
        <time>2026-05-14T09:50:49.000Z</time>
      </trkpt>
      <trkpt lat="42.50078" lon="2.93377">
        <ele>511</ele>
        <time>2026-05-14T09:50:50.000Z</time>
      </trkpt>
      <trkpt lat="42.50081" lon="2.93365">
        <ele>511</ele>
        <time>2026-05-14T09:50:51.000Z</time>
      </trkpt>
      <trkpt lat="42.50083" lon="2.93356">
        <ele>510</ele>
        <time>2026-05-14T09:50:52.000Z</time>
      </trkpt>
      <trkpt lat="42.50085" lon="2.93346">
        <ele>510</ele>
        <time>2026-05-14T09:50:53.000Z</time>
      </trkpt>
      <trkpt lat="42.50086" lon="2.93336">
        <ele>510</ele>
        <time>2026-05-14T09:50:54.000Z</time>
      </trkpt>
      <trkpt lat="42.50086" lon="2.93325">
        <ele>510</ele>
        <time>2026-05-14T09:50:55.000Z</time>
      </trkpt>
      <trkpt lat="42.50086" lon="2.93315">
        <ele>509</ele>
        <time>2026-05-14T09:50:56.000Z</time>
      </trkpt>
      <trkpt lat="42.50086" lon="2.93305">
        <ele>509</ele>
        <time>2026-05-14T09:50:57.000Z</time>
      </trkpt>
      <trkpt lat="42.50086" lon="2.93295">
        <ele>508</ele>
        <time>2026-05-14T09:50:58.000Z</time>
      </trkpt>
      <trkpt lat="42.50085" lon="2.93286">
        <ele>508</ele>
        <time>2026-05-14T09:50:59.000Z</time>
      </trkpt>
      <trkpt lat="42.50085" lon="2.93278">
        <ele>507</ele>
        <time>2026-05-14T09:51:00.000Z</time>
      </trkpt>
      <trkpt lat="42.50085" lon="2.9327">
        <ele>506</ele>
        <time>2026-05-14T09:51:01.000Z</time>
      </trkpt>
      <trkpt lat="42.50086" lon="2.93262">
        <ele>506</ele>
        <time>2026-05-14T09:51:02.000Z</time>
      </trkpt>
      <trkpt lat="42.50088" lon="2.93253">
        <ele>506</ele>
        <time>2026-05-14T09:51:03.000Z</time>
      </trkpt>
      <trkpt lat="42.50091" lon="2.93245">
        <ele>505</ele>
        <time>2026-05-14T09:51:04.000Z</time>
      </trkpt>
      <trkpt lat="42.50094" lon="2.93238">
        <ele>504</ele>
        <time>2026-05-14T09:51:05.000Z</time>
      </trkpt>
      <trkpt lat="42.50098" lon="2.9323">
        <ele>503</ele>
        <time>2026-05-14T09:51:06.000Z</time>
      </trkpt>
      <trkpt lat="42.50101" lon="2.93224">
        <ele>503</ele>
        <time>2026-05-14T09:51:07.000Z</time>
      </trkpt>
      <trkpt lat="42.50105" lon="2.93219">
        <ele>503</ele>
        <time>2026-05-14T09:51:08.000Z</time>
      </trkpt>
      <trkpt lat="42.50109" lon="2.93217">
        <ele>503</ele>
        <time>2026-05-14T09:51:09.000Z</time>
      </trkpt>
      <trkpt lat="42.50112" lon="2.93218">
        <ele>502</ele>
        <time>2026-05-14T09:51:10.000Z</time>
      </trkpt>
      <trkpt lat="42.50116" lon="2.93222">
        <ele>501</ele>
        <time>2026-05-14T09:51:11.000Z</time>
      </trkpt>
      <trkpt lat="42.5012" lon="2.93225">
        <ele>499</ele>
        <time>2026-05-14T09:51:12.000Z</time>
      </trkpt>
      <trkpt lat="42.50124" lon="2.93229">
        <ele>499</ele>
        <time>2026-05-14T09:51:13.000Z</time>
      </trkpt>
      <trkpt lat="42.50129" lon="2.93232">
        <ele>498</ele>
        <time>2026-05-14T09:51:14.000Z</time>
      </trkpt>
      <trkpt lat="42.50134" lon="2.93235">
        <ele>497</ele>
        <time>2026-05-14T09:51:15.000Z</time>
      </trkpt>
      <trkpt lat="42.50138" lon="2.93239">
        <ele>497</ele>
        <time>2026-05-14T09:51:16.000Z</time>
      </trkpt>
      <trkpt lat="42.5014" lon="2.93242">
        <ele>496</ele>
        <time>2026-05-14T09:51:17.000Z</time>
      </trkpt>
      <trkpt lat="42.50144" lon="2.93246">
        <ele>495</ele>
        <time>2026-05-14T09:51:18.000Z</time>
      </trkpt>
      <trkpt lat="42.50148" lon="2.93249">
        <ele>494</ele>
        <time>2026-05-14T09:51:19.000Z</time>
      </trkpt>
      <trkpt lat="42.50152" lon="2.93253">
        <ele>494</ele>
        <time>2026-05-14T09:51:20.000Z</time>
      </trkpt>
      <trkpt lat="42.50156" lon="2.93256">
        <ele>494</ele>
        <time>2026-05-14T09:51:21.000Z</time>
      </trkpt>
      <trkpt lat="42.50159" lon="2.9326">
        <ele>493</ele>
        <time>2026-05-14T09:51:22.000Z</time>
      </trkpt>
      <trkpt lat="42.50163" lon="2.93264">
        <ele>492</ele>
        <time>2026-05-14T09:51:23.000Z</time>
      </trkpt>
      <trkpt lat="42.50167" lon="2.93268">
        <ele>492</ele>
        <time>2026-05-14T09:51:24.000Z</time>
      </trkpt>
      <trkpt lat="42.5017" lon="2.93271">
        <ele>492</ele>
        <time>2026-05-14T09:51:25.000Z</time>
      </trkpt>
      <trkpt lat="42.50174" lon="2.93275">
        <ele>492</ele>
        <time>2026-05-14T09:51:26.000Z</time>
      </trkpt>
      <trkpt lat="42.50177" lon="2.93279">
        <ele>492</ele>
        <time>2026-05-14T09:51:27.000Z</time>
      </trkpt>
      <trkpt lat="42.50181" lon="2.93282">
        <ele>492</ele>
        <time>2026-05-14T09:51:28.000Z</time>
      </trkpt>
      <trkpt lat="42.50184" lon="2.93287">
        <ele>491</ele>
        <time>2026-05-14T09:51:29.000Z</time>
      </trkpt>
      <trkpt lat="42.50188" lon="2.93292">
        <ele>492</ele>
        <time>2026-05-14T09:51:30.000Z</time>
      </trkpt>
      <trkpt lat="42.50191" lon="2.93297">
        <ele>492</ele>
        <time>2026-05-14T09:51:31.000Z</time>
      </trkpt>
      <trkpt lat="42.50195" lon="2.933">
        <ele>492</ele>
        <time>2026-05-14T09:51:32.000Z</time>
      </trkpt>
      <trkpt lat="42.502" lon="2.93301">
        <ele>492</ele>
        <time>2026-05-14T09:51:33.000Z</time>
      </trkpt>
      <trkpt lat="42.50205" lon="2.93299">
        <ele>492</ele>
        <time>2026-05-14T09:51:34.000Z</time>
      </trkpt>
      <trkpt lat="42.5021" lon="2.93297">
        <ele>491</ele>
        <time>2026-05-14T09:51:35.000Z</time>
      </trkpt>
      <trkpt lat="42.50215" lon="2.93294">
        <ele>491</ele>
        <time>2026-05-14T09:51:36.000Z</time>
      </trkpt>
      <trkpt lat="42.5022" lon="2.93293">
        <ele>490</ele>
        <time>2026-05-14T09:51:37.000Z</time>
      </trkpt>
      <trkpt lat="42.50225" lon="2.93294">
        <ele>490</ele>
        <time>2026-05-14T09:51:38.000Z</time>
      </trkpt>
      <trkpt lat="42.50229" lon="2.93296">
        <ele>490</ele>
        <time>2026-05-14T09:51:39.000Z</time>
      </trkpt>
      <trkpt lat="42.50233" lon="2.93297">
        <ele>490</ele>
        <time>2026-05-14T09:51:40.000Z</time>
      </trkpt>
      <trkpt lat="42.50236" lon="2.93299">
        <ele>491</ele>
        <time>2026-05-14T09:51:41.000Z</time>
      </trkpt>
      <trkpt lat="42.5024" lon="2.93298">
        <ele>491</ele>
        <time>2026-05-14T09:51:42.000Z</time>
      </trkpt>
      <trkpt lat="42.50244" lon="2.93296">
        <ele>492</ele>
        <time>2026-05-14T09:51:43.000Z</time>
      </trkpt>
      <trkpt lat="42.50247" lon="2.93292">
        <ele>492</ele>
        <time>2026-05-14T09:51:44.000Z</time>
      </trkpt>
      <trkpt lat="42.50254" lon="2.93286">
        <ele>492</ele>
        <time>2026-05-14T09:51:45.000Z</time>
      </trkpt>
      <trkpt lat="42.50259" lon="2.93281">
        <ele>491</ele>
        <time>2026-05-14T09:51:46.000Z</time>
      </trkpt>
      <trkpt lat="42.50263" lon="2.93275">
        <ele>491</ele>
        <time>2026-05-14T09:51:47.000Z</time>
      </trkpt>
      <trkpt lat="42.50268" lon="2.9327">
        <ele>491</ele>
        <time>2026-05-14T09:51:48.000Z</time>
      </trkpt>
      <trkpt lat="42.50274" lon="2.93266">
        <ele>490</ele>
        <time>2026-05-14T09:51:49.000Z</time>
      </trkpt>
      <trkpt lat="42.5028" lon="2.93263">
        <ele>490</ele>
        <time>2026-05-14T09:51:50.000Z</time>
      </trkpt>
      <trkpt lat="42.50286" lon="2.93259">
        <ele>489</ele>
        <time>2026-05-14T09:51:51.000Z</time>
      </trkpt>
      <trkpt lat="42.50291" lon="2.93255">
        <ele>489</ele>
        <time>2026-05-14T09:51:52.000Z</time>
      </trkpt>
      <trkpt lat="42.50297" lon="2.93252">
        <ele>489</ele>
        <time>2026-05-14T09:51:53.000Z</time>
      </trkpt>
      <trkpt lat="42.50304" lon="2.9325">
        <ele>490</ele>
        <time>2026-05-14T09:51:54.000Z</time>
      </trkpt>
      <trkpt lat="42.50311" lon="2.9325">
        <ele>490</ele>
        <time>2026-05-14T09:51:55.000Z</time>
      </trkpt>
      <trkpt lat="42.50318" lon="2.93248">
        <ele>490</ele>
        <time>2026-05-14T09:51:56.000Z</time>
      </trkpt>
      <trkpt lat="42.50325" lon="2.93245">
        <ele>489</ele>
        <time>2026-05-14T09:51:57.000Z</time>
      </trkpt>
      <trkpt lat="42.5033" lon="2.93241">
        <ele>489</ele>
        <time>2026-05-14T09:51:58.000Z</time>
      </trkpt>
      <trkpt lat="42.50334" lon="2.93234">
        <ele>489</ele>
        <time>2026-05-14T09:51:59.000Z</time>
      </trkpt>
      <trkpt lat="42.50338" lon="2.93226">
        <ele>489</ele>
        <time>2026-05-14T09:52:00.000Z</time>
      </trkpt>
      <trkpt lat="42.50341" lon="2.93217">
        <ele>489</ele>
        <time>2026-05-14T09:52:01.000Z</time>
      </trkpt>
      <trkpt lat="42.50344" lon="2.93209">
        <ele>489</ele>
        <time>2026-05-14T09:52:02.000Z</time>
      </trkpt>
      <trkpt lat="42.50348" lon="2.93201">
        <ele>489</ele>
        <time>2026-05-14T09:52:03.000Z</time>
      </trkpt>
      <trkpt lat="42.50351" lon="2.93192">
        <ele>489</ele>
        <time>2026-05-14T09:52:04.000Z</time>
      </trkpt>
      <trkpt lat="42.50355" lon="2.93183">
        <ele>488</ele>
        <time>2026-05-14T09:52:05.000Z</time>
      </trkpt>
      <trkpt lat="42.50359" lon="2.93175">
        <ele>488</ele>
        <time>2026-05-14T09:52:06.000Z</time>
      </trkpt>
      <trkpt lat="42.50362" lon="2.93166">
        <ele>488</ele>
        <time>2026-05-14T09:52:07.000Z</time>
      </trkpt>
      <trkpt lat="42.50365" lon="2.93157">
        <ele>488</ele>
        <time>2026-05-14T09:52:08.000Z</time>
      </trkpt>
      <trkpt lat="42.50368" lon="2.93148">
        <ele>488</ele>
        <time>2026-05-14T09:52:09.000Z</time>
      </trkpt>
      <trkpt lat="42.50371" lon="2.9314">
        <ele>488</ele>
        <time>2026-05-14T09:52:10.000Z</time>
      </trkpt>
      <trkpt lat="42.50374" lon="2.93132">
        <ele>487</ele>
        <time>2026-05-14T09:52:11.000Z</time>
      </trkpt>
      <trkpt lat="42.50378" lon="2.93125">
        <ele>487</ele>
        <time>2026-05-14T09:52:12.000Z</time>
      </trkpt>
      <trkpt lat="42.50381" lon="2.93118">
        <ele>487</ele>
        <time>2026-05-14T09:52:13.000Z</time>
      </trkpt>
      <trkpt lat="42.50385" lon="2.9311">
        <ele>487</ele>
        <time>2026-05-14T09:52:14.000Z</time>
      </trkpt>
      <trkpt lat="42.50388" lon="2.93102">
        <ele>487</ele>
        <time>2026-05-14T09:52:15.000Z</time>
      </trkpt>
      <trkpt lat="42.5039" lon="2.93093">
        <ele>486</ele>
        <time>2026-05-14T09:52:16.000Z</time>
      </trkpt>
      <trkpt lat="42.50392" lon="2.93085">
        <ele>486</ele>
        <time>2026-05-14T09:52:17.000Z</time>
      </trkpt>
      <trkpt lat="42.50393" lon="2.93078">
        <ele>486</ele>
        <time>2026-05-14T09:52:18.000Z</time>
      </trkpt>
      <trkpt lat="42.50395" lon="2.9307">
        <ele>486</ele>
        <time>2026-05-14T09:52:19.000Z</time>
      </trkpt>
      <trkpt lat="42.50397" lon="2.93063">
        <ele>485</ele>
        <time>2026-05-14T09:52:20.000Z</time>
      </trkpt>
      <trkpt lat="42.504" lon="2.93055">
        <ele>485</ele>
        <time>2026-05-14T09:52:21.000Z</time>
      </trkpt>
      <trkpt lat="42.50402" lon="2.93047">
        <ele>484</ele>
        <time>2026-05-14T09:52:22.000Z</time>
      </trkpt>
      <trkpt lat="42.50405" lon="2.93042">
        <ele>484</ele>
        <time>2026-05-14T09:52:23.000Z</time>
      </trkpt>
      <trkpt lat="42.50409" lon="2.93039">
        <ele>483</ele>
        <time>2026-05-14T09:52:24.000Z</time>
      </trkpt>
      <trkpt lat="42.50412" lon="2.93038">
        <ele>482</ele>
        <time>2026-05-14T09:52:25.000Z</time>
      </trkpt>
      <trkpt lat="42.50414" lon="2.93039">
        <ele>482</ele>
        <time>2026-05-14T09:52:26.000Z</time>
      </trkpt>
      <trkpt lat="42.50417" lon="2.93041">
        <ele>482</ele>
        <time>2026-05-14T09:52:27.000Z</time>
      </trkpt>
      <trkpt lat="42.50419" lon="2.93045">
        <ele>480</ele>
        <time>2026-05-14T09:52:28.000Z</time>
      </trkpt>
      <trkpt lat="42.50422" lon="2.93048">
        <ele>480</ele>
        <time>2026-05-14T09:52:29.000Z</time>
      </trkpt>
      <trkpt lat="42.50426" lon="2.93052">
        <ele>480</ele>
        <time>2026-05-14T09:52:30.000Z</time>
      </trkpt>
      <trkpt lat="42.5043" lon="2.93056">
        <ele>480</ele>
        <time>2026-05-14T09:52:31.000Z</time>
      </trkpt>
      <trkpt lat="42.50433" lon="2.9306">
        <ele>480</ele>
        <time>2026-05-14T09:52:32.000Z</time>
      </trkpt>
      <trkpt lat="42.50437" lon="2.93065">
        <ele>480</ele>
        <time>2026-05-14T09:52:33.000Z</time>
      </trkpt>
      <trkpt lat="42.50441" lon="2.9307">
        <ele>480</ele>
        <time>2026-05-14T09:52:34.000Z</time>
      </trkpt>
      <trkpt lat="42.50445" lon="2.93074">
        <ele>480</ele>
        <time>2026-05-14T09:52:35.000Z</time>
      </trkpt>
      <trkpt lat="42.50451" lon="2.93078">
        <ele>480</ele>
        <time>2026-05-14T09:52:36.000Z</time>
      </trkpt>
      <trkpt lat="42.50456" lon="2.93081">
        <ele>479</ele>
        <time>2026-05-14T09:52:37.000Z</time>
      </trkpt>
      <trkpt lat="42.50462" lon="2.93083">
        <ele>478</ele>
        <time>2026-05-14T09:52:38.000Z</time>
      </trkpt>
      <trkpt lat="42.50469" lon="2.93084">
        <ele>477</ele>
        <time>2026-05-14T09:52:39.000Z</time>
      </trkpt>
      <trkpt lat="42.50477" lon="2.93083">
        <ele>477</ele>
        <time>2026-05-14T09:52:40.000Z</time>
      </trkpt>
      <trkpt lat="42.50485" lon="2.9308">
        <ele>477</ele>
        <time>2026-05-14T09:52:41.000Z</time>
      </trkpt>
      <trkpt lat="42.50493" lon="2.93078">
        <ele>477</ele>
        <time>2026-05-14T09:52:42.000Z</time>
      </trkpt>
      <trkpt lat="42.50502" lon="2.93075">
        <ele>477</ele>
        <time>2026-05-14T09:52:43.000Z</time>
      </trkpt>
      <trkpt lat="42.5051" lon="2.93076">
        <ele>476</ele>
        <time>2026-05-14T09:52:44.000Z</time>
      </trkpt>
      <trkpt lat="42.50518" lon="2.93075">
        <ele>476</ele>
        <time>2026-05-14T09:52:45.000Z</time>
      </trkpt>
      <trkpt lat="42.50526" lon="2.93073">
        <ele>476</ele>
        <time>2026-05-14T09:52:46.000Z</time>
      </trkpt>
      <trkpt lat="42.50533" lon="2.9307">
        <ele>474</ele>
        <time>2026-05-14T09:52:47.000Z</time>
      </trkpt>
      <trkpt lat="42.50541" lon="2.93067">
        <ele>474</ele>
        <time>2026-05-14T09:52:48.000Z</time>
      </trkpt>
      <trkpt lat="42.50549" lon="2.93064">
        <ele>473</ele>
        <time>2026-05-14T09:52:49.000Z</time>
      </trkpt>
      <trkpt lat="42.50556" lon="2.9306">
        <ele>473</ele>
        <time>2026-05-14T09:52:50.000Z</time>
      </trkpt>
      <trkpt lat="42.50563" lon="2.93055">
        <ele>472</ele>
        <time>2026-05-14T09:52:51.000Z</time>
      </trkpt>
      <trkpt lat="42.50569" lon="2.93049">
        <ele>472</ele>
        <time>2026-05-14T09:52:52.000Z</time>
      </trkpt>
      <trkpt lat="42.50574" lon="2.93041">
        <ele>472</ele>
        <time>2026-05-14T09:52:53.000Z</time>
      </trkpt>
      <trkpt lat="42.5058" lon="2.93034">
        <ele>471</ele>
        <time>2026-05-14T09:52:54.000Z</time>
      </trkpt>
      <trkpt lat="42.50585" lon="2.93028">
        <ele>471</ele>
        <time>2026-05-14T09:52:55.000Z</time>
      </trkpt>
      <trkpt lat="42.50591" lon="2.93024">
        <ele>470</ele>
        <time>2026-05-14T09:52:56.000Z</time>
      </trkpt>
      <trkpt lat="42.50597" lon="2.93021">
        <ele>470</ele>
        <time>2026-05-14T09:52:57.000Z</time>
      </trkpt>
      <trkpt lat="42.50603" lon="2.93021">
        <ele>470</ele>
        <time>2026-05-14T09:52:58.000Z</time>
      </trkpt>
      <trkpt lat="42.50609" lon="2.93022">
        <ele>469</ele>
        <time>2026-05-14T09:52:59.000Z</time>
      </trkpt>
      <trkpt lat="42.50616" lon="2.93021">
        <ele>469</ele>
        <time>2026-05-14T09:53:00.000Z</time>
      </trkpt>
      <trkpt lat="42.50621" lon="2.93021">
        <ele>468</ele>
        <time>2026-05-14T09:53:01.000Z</time>
      </trkpt>
      <trkpt lat="42.50627" lon="2.93024">
        <ele>467</ele>
        <time>2026-05-14T09:53:02.000Z</time>
      </trkpt>
      <trkpt lat="42.50631" lon="2.93029">
        <ele>466</ele>
        <time>2026-05-14T09:53:03.000Z</time>
      </trkpt>
      <trkpt lat="42.50634" lon="2.93037">
        <ele>464</ele>
        <time>2026-05-14T09:53:04.000Z</time>
      </trkpt>
      <trkpt lat="42.50638" lon="2.93044">
        <ele>463</ele>
        <time>2026-05-14T09:53:05.000Z</time>
      </trkpt>
      <trkpt lat="42.5064" lon="2.93052">
        <ele>462</ele>
        <time>2026-05-14T09:53:06.000Z</time>
      </trkpt>
      <trkpt lat="42.50643" lon="2.93058">
        <ele>462</ele>
        <time>2026-05-14T09:53:07.000Z</time>
      </trkpt>
      <trkpt lat="42.50646" lon="2.93066">
        <ele>463</ele>
        <time>2026-05-14T09:53:08.000Z</time>
      </trkpt>
      <trkpt lat="42.50649" lon="2.93073">
        <ele>463</ele>
        <time>2026-05-14T09:53:09.000Z</time>
      </trkpt>
      <trkpt lat="42.50653" lon="2.9308">
        <ele>462</ele>
        <time>2026-05-14T09:53:10.000Z</time>
      </trkpt>
      <trkpt lat="42.50657" lon="2.93087">
        <ele>462</ele>
        <time>2026-05-14T09:53:11.000Z</time>
      </trkpt>
      <trkpt lat="42.5066" lon="2.93094">
        <ele>462</ele>
        <time>2026-05-14T09:53:12.000Z</time>
      </trkpt>
      <trkpt lat="42.50664" lon="2.93101">
        <ele>461</ele>
        <time>2026-05-14T09:53:13.000Z</time>
      </trkpt>
      <trkpt lat="42.50667" lon="2.9311">
        <ele>461</ele>
        <time>2026-05-14T09:53:14.000Z</time>
      </trkpt>
      <trkpt lat="42.50669" lon="2.93118">
        <ele>461</ele>
        <time>2026-05-14T09:53:15.000Z</time>
      </trkpt>
      <trkpt lat="42.50672" lon="2.93125">
        <ele>461</ele>
        <time>2026-05-14T09:53:16.000Z</time>
      </trkpt>
      <trkpt lat="42.50675" lon="2.93133">
        <ele>460</ele>
        <time>2026-05-14T09:53:17.000Z</time>
      </trkpt>
      <trkpt lat="42.50678" lon="2.93139">
        <ele>460</ele>
        <time>2026-05-14T09:53:18.000Z</time>
      </trkpt>
      <trkpt lat="42.5068" lon="2.93146">
        <ele>459</ele>
        <time>2026-05-14T09:53:19.000Z</time>
      </trkpt>
      <trkpt lat="42.50682" lon="2.93153">
        <ele>459</ele>
        <time>2026-05-14T09:53:20.000Z</time>
      </trkpt>
      <trkpt lat="42.50682" lon="2.93161">
        <ele>459</ele>
        <time>2026-05-14T09:53:21.000Z</time>
      </trkpt>
      <trkpt lat="42.50681" lon="2.93168">
        <ele>458</ele>
        <time>2026-05-14T09:53:22.000Z</time>
      </trkpt>
      <trkpt lat="42.50678" lon="2.93175">
        <ele>458</ele>
        <time>2026-05-14T09:53:23.000Z</time>
      </trkpt>
      <trkpt lat="42.50676" lon="2.93182">
        <ele>458</ele>
        <time>2026-05-14T09:53:24.000Z</time>
      </trkpt>
      <trkpt lat="42.50673" lon="2.93189">
        <ele>458</ele>
        <time>2026-05-14T09:53:25.000Z</time>
      </trkpt>
      <trkpt lat="42.50671" lon="2.93196">
        <ele>457</ele>
        <time>2026-05-14T09:53:26.000Z</time>
      </trkpt>
      <trkpt lat="42.50671" lon="2.93203">
        <ele>457</ele>
        <time>2026-05-14T09:53:27.000Z</time>
      </trkpt>
      <trkpt lat="42.5067" lon="2.93212">
        <ele>457</ele>
        <time>2026-05-14T09:53:28.000Z</time>
      </trkpt>
      <trkpt lat="42.5067" lon="2.93221">
        <ele>456</ele>
        <time>2026-05-14T09:53:29.000Z</time>
      </trkpt>
      <trkpt lat="42.50671" lon="2.9323">
        <ele>455</ele>
        <time>2026-05-14T09:53:30.000Z</time>
      </trkpt>
      <trkpt lat="42.50672" lon="2.93239">
        <ele>455</ele>
        <time>2026-05-14T09:53:31.000Z</time>
      </trkpt>
      <trkpt lat="42.50673" lon="2.93248">
        <ele>455</ele>
        <time>2026-05-14T09:53:32.000Z</time>
      </trkpt>
      <trkpt lat="42.50674" lon="2.93258">
        <ele>454</ele>
        <time>2026-05-14T09:53:33.000Z</time>
      </trkpt>
      <trkpt lat="42.50674" lon="2.93268">
        <ele>454</ele>
        <time>2026-05-14T09:53:34.000Z</time>
      </trkpt>
      <trkpt lat="42.50675" lon="2.93278">
        <ele>453</ele>
        <time>2026-05-14T09:53:35.000Z</time>
      </trkpt>
      <trkpt lat="42.50677" lon="2.93288">
        <ele>453</ele>
        <time>2026-05-14T09:53:36.000Z</time>
      </trkpt>
      <trkpt lat="42.5068" lon="2.93297">
        <ele>453</ele>
        <time>2026-05-14T09:53:37.000Z</time>
      </trkpt>
      <trkpt lat="42.50682" lon="2.93306">
        <ele>453</ele>
        <time>2026-05-14T09:53:38.000Z</time>
      </trkpt>
      <trkpt lat="42.50684" lon="2.93313">
        <ele>453</ele>
        <time>2026-05-14T09:53:39.000Z</time>
      </trkpt>
      <trkpt lat="42.50687" lon="2.9332">
        <ele>453</ele>
        <time>2026-05-14T09:53:40.000Z</time>
      </trkpt>
      <trkpt lat="42.50693" lon="2.93324">
        <ele>453</ele>
        <time>2026-05-14T09:53:41.000Z</time>
      </trkpt>
      <trkpt lat="42.507" lon="2.93324">
        <ele>453</ele>
        <time>2026-05-14T09:53:42.000Z</time>
      </trkpt>
      <trkpt lat="42.50706" lon="2.9332">
        <ele>453</ele>
        <time>2026-05-14T09:53:43.000Z</time>
      </trkpt>
      <trkpt lat="42.50711" lon="2.93316">
        <ele>453</ele>
        <time>2026-05-14T09:53:44.000Z</time>
      </trkpt>
      <trkpt lat="42.50716" lon="2.93312">
        <ele>452</ele>
        <time>2026-05-14T09:53:45.000Z</time>
      </trkpt>
      <trkpt lat="42.50722" lon="2.93309">
        <ele>452</ele>
        <time>2026-05-14T09:53:46.000Z</time>
      </trkpt>
      <trkpt lat="42.50727" lon="2.93307">
        <ele>451</ele>
        <time>2026-05-14T09:53:47.000Z</time>
      </trkpt>
      <trkpt lat="42.50733" lon="2.93307">
        <ele>451</ele>
        <time>2026-05-14T09:53:48.000Z</time>
      </trkpt>
      <trkpt lat="42.5074" lon="2.93308">
        <ele>451</ele>
        <time>2026-05-14T09:53:49.000Z</time>
      </trkpt>
      <trkpt lat="42.50746" lon="2.9331">
        <ele>451</ele>
        <time>2026-05-14T09:53:50.000Z</time>
      </trkpt>
      <trkpt lat="42.50752" lon="2.9331">
        <ele>450</ele>
        <time>2026-05-14T09:53:51.000Z</time>
      </trkpt>
      <trkpt lat="42.50759" lon="2.93311">
        <ele>449</ele>
        <time>2026-05-14T09:53:52.000Z</time>
      </trkpt>
      <trkpt lat="42.50766" lon="2.9331">
        <ele>449</ele>
        <time>2026-05-14T09:53:53.000Z</time>
      </trkpt>
      <trkpt lat="42.50772" lon="2.93307">
        <ele>449</ele>
        <time>2026-05-14T09:53:54.000Z</time>
      </trkpt>
      <trkpt lat="42.50779" lon="2.93305">
        <ele>448</ele>
        <time>2026-05-14T09:53:55.000Z</time>
      </trkpt>
      <trkpt lat="42.50786" lon="2.93303">
        <ele>448</ele>
        <time>2026-05-14T09:53:56.000Z</time>
      </trkpt>
      <trkpt lat="42.50793" lon="2.93301">
        <ele>447</ele>
        <time>2026-05-14T09:53:57.000Z</time>
      </trkpt>
      <trkpt lat="42.508" lon="2.93299">
        <ele>447</ele>
        <time>2026-05-14T09:53:58.000Z</time>
      </trkpt>
      <trkpt lat="42.50806" lon="2.93296">
        <ele>448</ele>
        <time>2026-05-14T09:53:59.000Z</time>
      </trkpt>
      <trkpt lat="42.50813" lon="2.93292">
        <ele>446</ele>
        <time>2026-05-14T09:54:00.000Z</time>
      </trkpt>
      <trkpt lat="42.50819" lon="2.93286">
        <ele>446</ele>
        <time>2026-05-14T09:54:01.000Z</time>
      </trkpt>
      <trkpt lat="42.50824" lon="2.93279">
        <ele>446</ele>
        <time>2026-05-14T09:54:02.000Z</time>
      </trkpt>
      <trkpt lat="42.5083" lon="2.93272">
        <ele>446</ele>
        <time>2026-05-14T09:54:03.000Z</time>
      </trkpt>
      <trkpt lat="42.50836" lon="2.93265">
        <ele>444</ele>
        <time>2026-05-14T09:54:04.000Z</time>
      </trkpt>
      <trkpt lat="42.50842" lon="2.93259">
        <ele>443</ele>
        <time>2026-05-14T09:54:05.000Z</time>
      </trkpt>
      <trkpt lat="42.50849" lon="2.93253">
        <ele>443</ele>
        <time>2026-05-14T09:54:06.000Z</time>
      </trkpt>
      <trkpt lat="42.50855" lon="2.93249">
        <ele>443</ele>
        <time>2026-05-14T09:54:07.000Z</time>
      </trkpt>
      <trkpt lat="42.50861" lon="2.93244">
        <ele>442</ele>
        <time>2026-05-14T09:54:08.000Z</time>
      </trkpt>
      <trkpt lat="42.50867" lon="2.93241">
        <ele>441</ele>
        <time>2026-05-14T09:54:09.000Z</time>
      </trkpt>
      <trkpt lat="42.50873" lon="2.93243">
        <ele>442</ele>
        <time>2026-05-14T09:54:10.000Z</time>
      </trkpt>
      <trkpt lat="42.50878" lon="2.93247">
        <ele>442</ele>
        <time>2026-05-14T09:54:11.000Z</time>
      </trkpt>
      <trkpt lat="42.50883" lon="2.93252">
        <ele>441</ele>
        <time>2026-05-14T09:54:12.000Z</time>
      </trkpt>
      <trkpt lat="42.50888" lon="2.93258">
        <ele>440</ele>
        <time>2026-05-14T09:54:13.000Z</time>
      </trkpt>
      <trkpt lat="42.50891" lon="2.93264">
        <ele>440</ele>
        <time>2026-05-14T09:54:14.000Z</time>
      </trkpt>
      <trkpt lat="42.50894" lon="2.9327">
        <ele>439</ele>
        <time>2026-05-14T09:54:15.000Z</time>
      </trkpt>
      <trkpt lat="42.50897" lon="2.93277">
        <ele>439</ele>
        <time>2026-05-14T09:54:16.000Z</time>
      </trkpt>
      <trkpt lat="42.50898" lon="2.93284">
        <ele>439</ele>
        <time>2026-05-14T09:54:17.000Z</time>
      </trkpt>
      <trkpt lat="42.50898" lon="2.93291">
        <ele>439</ele>
        <time>2026-05-14T09:54:18.000Z</time>
      </trkpt>
      <trkpt lat="42.50899" lon="2.93299">
        <ele>438</ele>
        <time>2026-05-14T09:54:19.000Z</time>
      </trkpt>
      <trkpt lat="42.50899" lon="2.93308">
        <ele>437</ele>
        <time>2026-05-14T09:54:20.000Z</time>
      </trkpt>
      <trkpt lat="42.509" lon="2.93318">
        <ele>436</ele>
        <time>2026-05-14T09:54:21.000Z</time>
      </trkpt>
      <trkpt lat="42.50901" lon="2.93328">
        <ele>435</ele>
        <time>2026-05-14T09:54:22.000Z</time>
      </trkpt>
      <trkpt lat="42.50902" lon="2.93337">
        <ele>434</ele>
        <time>2026-05-14T09:54:23.000Z</time>
      </trkpt>
      <trkpt lat="42.50901" lon="2.93347">
        <ele>433</ele>
        <time>2026-05-14T09:54:24.000Z</time>
      </trkpt>
      <trkpt lat="42.50901" lon="2.93357">
        <ele>433</ele>
        <time>2026-05-14T09:54:25.000Z</time>
      </trkpt>
      <trkpt lat="42.50899" lon="2.93368">
        <ele>432</ele>
        <time>2026-05-14T09:54:26.000Z</time>
      </trkpt>
      <trkpt lat="42.50897" lon="2.93379">
        <ele>432</ele>
        <time>2026-05-14T09:54:27.000Z</time>
      </trkpt>
      <trkpt lat="42.50895" lon="2.9339">
        <ele>431</ele>
        <time>2026-05-14T09:54:28.000Z</time>
      </trkpt>
      <trkpt lat="42.50893" lon="2.93399">
        <ele>430</ele>
        <time>2026-05-14T09:54:29.000Z</time>
      </trkpt>
      <trkpt lat="42.50891" lon="2.9341">
        <ele>429</ele>
        <time>2026-05-14T09:54:30.000Z</time>
      </trkpt>
      <trkpt lat="42.50889" lon="2.93418">
        <ele>428</ele>
        <time>2026-05-14T09:54:31.000Z</time>
      </trkpt>
      <trkpt lat="42.50888" lon="2.93425">
        <ele>428</ele>
        <time>2026-05-14T09:54:32.000Z</time>
      </trkpt>
      <trkpt lat="42.50885" lon="2.93431">
        <ele>427</ele>
        <time>2026-05-14T09:54:33.000Z</time>
      </trkpt>
      <trkpt lat="42.50881" lon="2.93435">
        <ele>427</ele>
        <time>2026-05-14T09:54:34.000Z</time>
      </trkpt>
      <trkpt lat="42.50876" lon="2.9344">
        <ele>426</ele>
        <time>2026-05-14T09:54:35.000Z</time>
      </trkpt>
      <trkpt lat="42.50874" lon="2.93445">
        <ele>425</ele>
        <time>2026-05-14T09:54:36.000Z</time>
      </trkpt>
      <trkpt lat="42.50874" lon="2.93449">
        <ele>425</ele>
        <time>2026-05-14T09:54:37.000Z</time>
      </trkpt>
      <trkpt lat="42.50878" lon="2.93454">
        <ele>424</ele>
        <time>2026-05-14T09:54:38.000Z</time>
      </trkpt>
      <trkpt lat="42.50883" lon="2.9346">
        <ele>424</ele>
        <time>2026-05-14T09:54:39.000Z</time>
      </trkpt>
      <trkpt lat="42.50889" lon="2.93463">
        <ele>423</ele>
        <time>2026-05-14T09:54:40.000Z</time>
      </trkpt>
      <trkpt lat="42.50896" lon="2.93464">
        <ele>422</ele>
        <time>2026-05-14T09:54:41.000Z</time>
      </trkpt>
      <trkpt lat="42.50904" lon="2.93464">
        <ele>422</ele>
        <time>2026-05-14T09:54:42.000Z</time>
      </trkpt>
      <trkpt lat="42.50911" lon="2.93462">
        <ele>421</ele>
        <time>2026-05-14T09:54:43.000Z</time>
      </trkpt>
      <trkpt lat="42.50917" lon="2.9346">
        <ele>422</ele>
        <time>2026-05-14T09:54:44.000Z</time>
      </trkpt>
      <trkpt lat="42.50924" lon="2.9346">
        <ele>421</ele>
        <time>2026-05-14T09:54:45.000Z</time>
      </trkpt>
      <trkpt lat="42.50932" lon="2.9346">
        <ele>421</ele>
        <time>2026-05-14T09:54:46.000Z</time>
      </trkpt>
      <trkpt lat="42.5094" lon="2.93462">
        <ele>419</ele>
        <time>2026-05-14T09:54:47.000Z</time>
      </trkpt>
      <trkpt lat="42.50949" lon="2.93463">
        <ele>418</ele>
        <time>2026-05-14T09:54:48.000Z</time>
      </trkpt>
      <trkpt lat="42.50959" lon="2.93466">
        <ele>417</ele>
        <time>2026-05-14T09:54:49.000Z</time>
      </trkpt>
      <trkpt lat="42.50967" lon="2.93469">
        <ele>416</ele>
        <time>2026-05-14T09:54:50.000Z</time>
      </trkpt>
      <trkpt lat="42.50975" lon="2.93472">
        <ele>415</ele>
        <time>2026-05-14T09:54:51.000Z</time>
      </trkpt>
      <trkpt lat="42.5098" lon="2.93475">
        <ele>414</ele>
        <time>2026-05-14T09:54:52.000Z</time>
      </trkpt>
      <trkpt lat="42.50984" lon="2.93478">
        <ele>413</ele>
        <time>2026-05-14T09:54:53.000Z</time>
      </trkpt>
      <trkpt lat="42.50987" lon="2.93484">
        <ele>413</ele>
        <time>2026-05-14T09:54:54.000Z</time>
      </trkpt>
      <trkpt lat="42.50989" lon="2.9349">
        <ele>412</ele>
        <time>2026-05-14T09:54:55.000Z</time>
      </trkpt>
      <trkpt lat="42.50988" lon="2.93497">
        <ele>410</ele>
        <time>2026-05-14T09:54:56.000Z</time>
      </trkpt>
      <trkpt lat="42.50987" lon="2.93505">
        <ele>410</ele>
        <time>2026-05-14T09:54:57.000Z</time>
      </trkpt>
      <trkpt lat="42.50987" lon="2.93512">
        <ele>409</ele>
        <time>2026-05-14T09:54:58.000Z</time>
      </trkpt>
      <trkpt lat="42.50984" lon="2.93521">
        <ele>407</ele>
        <time>2026-05-14T09:54:59.000Z</time>
      </trkpt>
      <trkpt lat="42.50982" lon="2.93529">
        <ele>406</ele>
        <time>2026-05-14T09:55:00.000Z</time>
      </trkpt>
      <trkpt lat="42.50979" lon="2.93539">
        <ele>406</ele>
        <time>2026-05-14T09:55:01.000Z</time>
      </trkpt>
      <trkpt lat="42.50976" lon="2.93549">
        <ele>405</ele>
        <time>2026-05-14T09:55:02.000Z</time>
      </trkpt>
      <trkpt lat="42.50973" lon="2.93557">
        <ele>404</ele>
        <time>2026-05-14T09:55:03.000Z</time>
      </trkpt>
      <trkpt lat="42.50971" lon="2.93566">
        <ele>404</ele>
        <time>2026-05-14T09:55:04.000Z</time>
      </trkpt>
      <trkpt lat="42.50969" lon="2.93576">
        <ele>403</ele>
        <time>2026-05-14T09:55:05.000Z</time>
      </trkpt>
      <trkpt lat="42.50966" lon="2.93586">
        <ele>403</ele>
        <time>2026-05-14T09:55:06.000Z</time>
      </trkpt>
      <trkpt lat="42.50963" lon="2.93596">
        <ele>403</ele>
        <time>2026-05-14T09:55:07.000Z</time>
      </trkpt>
      <trkpt lat="42.50959" lon="2.93604">
        <ele>402</ele>
        <time>2026-05-14T09:55:08.000Z</time>
      </trkpt>
      <trkpt lat="42.50955" lon="2.93611">
        <ele>402</ele>
        <time>2026-05-14T09:55:09.000Z</time>
      </trkpt>
      <trkpt lat="42.5095" lon="2.93617">
        <ele>402</ele>
        <time>2026-05-14T09:55:10.000Z</time>
      </trkpt>
      <trkpt lat="42.50944" lon="2.93621">
        <ele>401</ele>
        <time>2026-05-14T09:55:11.000Z</time>
      </trkpt>
      <trkpt lat="42.50937" lon="2.93622">
        <ele>401</ele>
        <time>2026-05-14T09:55:12.000Z</time>
      </trkpt>
      <trkpt lat="42.50931" lon="2.93622">
        <ele>401</ele>
        <time>2026-05-14T09:55:13.000Z</time>
      </trkpt>
      <trkpt lat="42.50925" lon="2.93623">
        <ele>401</ele>
        <time>2026-05-14T09:55:14.000Z</time>
      </trkpt>
      <trkpt lat="42.50921" lon="2.93625">
        <ele>400</ele>
        <time>2026-05-14T09:55:15.000Z</time>
      </trkpt>
      <trkpt lat="42.50917" lon="2.93629">
        <ele>399</ele>
        <time>2026-05-14T09:55:16.000Z</time>
      </trkpt>
      <trkpt lat="42.50913" lon="2.93635">
        <ele>399</ele>
        <time>2026-05-14T09:55:17.000Z</time>
      </trkpt>
      <trkpt lat="42.50911" lon="2.93641">
        <ele>398</ele>
        <time>2026-05-14T09:55:18.000Z</time>
      </trkpt>
      <trkpt lat="42.5091" lon="2.93647">
        <ele>398</ele>
        <time>2026-05-14T09:55:19.000Z</time>
      </trkpt>
      <trkpt lat="42.5091" lon="2.93653">
        <ele>397</ele>
        <time>2026-05-14T09:55:20.000Z</time>
      </trkpt>
      <trkpt lat="42.5091" lon="2.93655">
        <ele>397</ele>
        <time>2026-05-14T09:55:21.000Z</time>
      </trkpt>
      <trkpt lat="42.5091" lon="2.93656">
        <ele>396</ele>
        <time>2026-05-14T09:55:22.000Z</time>
      </trkpt>
      <trkpt lat="42.5091" lon="2.93656">
        <ele>396</ele>
        <time>2026-05-14T09:55:23.000Z</time>
      </trkpt>
      <trkpt lat="42.50911" lon="2.93655">
        <ele>396</ele>
        <time>2026-05-14T09:55:24.000Z</time>
      </trkpt>
      <trkpt lat="42.50911" lon="2.93656">
        <ele>395</ele>
        <time>2026-05-14T09:55:25.000Z</time>
      </trkpt>
      <trkpt lat="42.50911" lon="2.93658">
        <ele>395</ele>
        <time>2026-05-14T09:55:26.000Z</time>
      </trkpt>
      <trkpt lat="42.50911" lon="2.93662">
        <ele>395</ele>
        <time>2026-05-14T09:55:27.000Z</time>
      </trkpt>
      <trkpt lat="42.50911" lon="2.93667">
        <ele>395</ele>
        <time>2026-05-14T09:55:28.000Z</time>
      </trkpt>
      <trkpt lat="42.50911" lon="2.93671">
        <ele>394</ele>
        <time>2026-05-14T09:55:29.000Z</time>
      </trkpt>
      <trkpt lat="42.5091" lon="2.93677">
        <ele>393</ele>
        <time>2026-05-14T09:55:30.000Z</time>
      </trkpt>
      <trkpt lat="42.5091" lon="2.93684">
        <ele>392</ele>
        <time>2026-05-14T09:55:31.000Z</time>
      </trkpt>
      <trkpt lat="42.50909" lon="2.93692">
        <ele>393</ele>
        <time>2026-05-14T09:55:32.000Z</time>
      </trkpt>
      <trkpt lat="42.50908" lon="2.937">
        <ele>392</ele>
        <time>2026-05-14T09:55:33.000Z</time>
      </trkpt>
      <trkpt lat="42.50905" lon="2.93709">
        <ele>391</ele>
        <time>2026-05-14T09:55:34.000Z</time>
      </trkpt>
      <trkpt lat="42.509" lon="2.93716">
        <ele>391</ele>
        <time>2026-05-14T09:55:35.000Z</time>
      </trkpt>
      <trkpt lat="42.50895" lon="2.93723">
        <ele>391</ele>
        <time>2026-05-14T09:55:36.000Z</time>
      </trkpt>
      <trkpt lat="42.5089" lon="2.9373">
        <ele>390</ele>
        <time>2026-05-14T09:55:37.000Z</time>
      </trkpt>
      <trkpt lat="42.50885" lon="2.93735">
        <ele>389</ele>
        <time>2026-05-14T09:55:38.000Z</time>
      </trkpt>
      <trkpt lat="42.50881" lon="2.93741">
        <ele>388</ele>
        <time>2026-05-14T09:55:39.000Z</time>
      </trkpt>
      <trkpt lat="42.50877" lon="2.93749">
        <ele>388</ele>
        <time>2026-05-14T09:55:40.000Z</time>
      </trkpt>
      <trkpt lat="42.50874" lon="2.93758">
        <ele>387</ele>
        <time>2026-05-14T09:55:41.000Z</time>
      </trkpt>
      <trkpt lat="42.50872" lon="2.93766">
        <ele>386</ele>
        <time>2026-05-14T09:55:42.000Z</time>
      </trkpt>
      <trkpt lat="42.5087" lon="2.93772">
        <ele>386</ele>
        <time>2026-05-14T09:55:43.000Z</time>
      </trkpt>
      <trkpt lat="42.50869" lon="2.93777">
        <ele>383</ele>
        <time>2026-05-14T09:55:44.000Z</time>
      </trkpt>
      <trkpt lat="42.5087" lon="2.93781">
        <ele>383</ele>
        <time>2026-05-14T09:55:45.000Z</time>
      </trkpt>
      <trkpt lat="42.50873" lon="2.93784">
        <ele>383</ele>
        <time>2026-05-14T09:55:46.000Z</time>
      </trkpt>
      <trkpt lat="42.50877" lon="2.93785">
        <ele>383</ele>
        <time>2026-05-14T09:55:47.000Z</time>
      </trkpt>
      <trkpt lat="42.50881" lon="2.93782">
        <ele>382</ele>
        <time>2026-05-14T09:55:48.000Z</time>
      </trkpt>
      <trkpt lat="42.50883" lon="2.9378">
        <ele>382</ele>
        <time>2026-05-14T09:55:49.000Z</time>
      </trkpt>
      <trkpt lat="42.50884" lon="2.93777">
        <ele>381</ele>
        <time>2026-05-14T09:55:50.000Z</time>
      </trkpt>
      <trkpt lat="42.50885" lon="2.93772">
        <ele>381</ele>
        <time>2026-05-14T09:55:51.000Z</time>
      </trkpt>
      <trkpt lat="42.50889" lon="2.93768">
        <ele>380</ele>
        <time>2026-05-14T09:55:52.000Z</time>
      </trkpt>
      <trkpt lat="42.50895" lon="2.93765">
        <ele>379</ele>
        <time>2026-05-14T09:55:53.000Z</time>
      </trkpt>
      <trkpt lat="42.50901" lon="2.93762">
        <ele>378</ele>
        <time>2026-05-14T09:55:54.000Z</time>
      </trkpt>
      <trkpt lat="42.50906" lon="2.9376">
        <ele>376</ele>
        <time>2026-05-14T09:55:55.000Z</time>
      </trkpt>
      <trkpt lat="42.50912" lon="2.93758">
        <ele>375</ele>
        <time>2026-05-14T09:55:56.000Z</time>
      </trkpt>
      <trkpt lat="42.50917" lon="2.93755">
        <ele>374</ele>
        <time>2026-05-14T09:55:57.000Z</time>
      </trkpt>
      <trkpt lat="42.50921" lon="2.93751">
        <ele>373</ele>
        <time>2026-05-14T09:55:58.000Z</time>
      </trkpt>
      <trkpt lat="42.50925" lon="2.93747">
        <ele>372</ele>
        <time>2026-05-14T09:55:59.000Z</time>
      </trkpt>
      <trkpt lat="42.50928" lon="2.93741">
        <ele>371</ele>
        <time>2026-05-14T09:56:00.000Z</time>
      </trkpt>
      <trkpt lat="42.5093" lon="2.93735">
        <ele>370</ele>
        <time>2026-05-14T09:56:01.000Z</time>
      </trkpt>
      <trkpt lat="42.50931" lon="2.93728">
        <ele>370</ele>
        <time>2026-05-14T09:56:02.000Z</time>
      </trkpt>
      <trkpt lat="42.50933" lon="2.93721">
        <ele>369</ele>
        <time>2026-05-14T09:56:03.000Z</time>
      </trkpt>
      <trkpt lat="42.50935" lon="2.93713">
        <ele>368</ele>
        <time>2026-05-14T09:56:04.000Z</time>
      </trkpt>
      <trkpt lat="42.50937" lon="2.93706">
        <ele>367</ele>
        <time>2026-05-14T09:56:05.000Z</time>
      </trkpt>
      <trkpt lat="42.50939" lon="2.93699">
        <ele>367</ele>
        <time>2026-05-14T09:56:06.000Z</time>
      </trkpt>
      <trkpt lat="42.50942" lon="2.93694">
        <ele>366</ele>
        <time>2026-05-14T09:56:07.000Z</time>
      </trkpt>
      <trkpt lat="42.50946" lon="2.9369">
        <ele>366</ele>
        <time>2026-05-14T09:56:08.000Z</time>
      </trkpt>
      <trkpt lat="42.5095" lon="2.93689">
        <ele>366</ele>
        <time>2026-05-14T09:56:09.000Z</time>
      </trkpt>
      <trkpt lat="42.50955" lon="2.9369">
        <ele>366</ele>
        <time>2026-05-14T09:56:10.000Z</time>
      </trkpt>
      <trkpt lat="42.5096" lon="2.93691">
        <ele>366</ele>
        <time>2026-05-14T09:56:11.000Z</time>
      </trkpt>
      <trkpt lat="42.50964" lon="2.93691">
        <ele>366</ele>
        <time>2026-05-14T09:56:12.000Z</time>
      </trkpt>
      <trkpt lat="42.50969" lon="2.9369">
        <ele>365</ele>
        <time>2026-05-14T09:56:13.000Z</time>
      </trkpt>
      <trkpt lat="42.50974" lon="2.9369">
        <ele>365</ele>
        <time>2026-05-14T09:56:14.000Z</time>
      </trkpt>
      <trkpt lat="42.5098" lon="2.93689">
        <ele>365</ele>
        <time>2026-05-14T09:56:15.000Z</time>
      </trkpt>
      <trkpt lat="42.50985" lon="2.93689">
        <ele>364</ele>
        <time>2026-05-14T09:56:16.000Z</time>
      </trkpt>
      <trkpt lat="42.5099" lon="2.93688">
        <ele>363</ele>
        <time>2026-05-14T09:56:17.000Z</time>
      </trkpt>
      <trkpt lat="42.50995" lon="2.93686">
        <ele>363</ele>
        <time>2026-05-14T09:56:18.000Z</time>
      </trkpt>
      <trkpt lat="42.51" lon="2.93684">
        <ele>363</ele>
        <time>2026-05-14T09:56:19.000Z</time>
      </trkpt>
      <trkpt lat="42.51004" lon="2.9368">
        <ele>363</ele>
        <time>2026-05-14T09:56:20.000Z</time>
      </trkpt>
      <trkpt lat="42.51009" lon="2.93677">
        <ele>363</ele>
        <time>2026-05-14T09:56:21.000Z</time>
      </trkpt>
      <trkpt lat="42.51014" lon="2.93673">
        <ele>362</ele>
        <time>2026-05-14T09:56:22.000Z</time>
      </trkpt>
      <trkpt lat="42.51019" lon="2.93669">
        <ele>362</ele>
        <time>2026-05-14T09:56:23.000Z</time>
      </trkpt>
      <trkpt lat="42.51025" lon="2.93664">
        <ele>361</ele>
        <time>2026-05-14T09:56:24.000Z</time>
      </trkpt>
      <trkpt lat="42.51029" lon="2.93661">
        <ele>360</ele>
        <time>2026-05-14T09:56:25.000Z</time>
      </trkpt>
      <trkpt lat="42.51034" lon="2.93658">
        <ele>360</ele>
        <time>2026-05-14T09:56:26.000Z</time>
      </trkpt>
      <trkpt lat="42.51038" lon="2.93653">
        <ele>359</ele>
        <time>2026-05-14T09:56:27.000Z</time>
      </trkpt>
      <trkpt lat="42.51042" lon="2.93648">
        <ele>359</ele>
        <time>2026-05-14T09:56:28.000Z</time>
      </trkpt>
      <trkpt lat="42.51048" lon="2.93644">
        <ele>358</ele>
        <time>2026-05-14T09:56:29.000Z</time>
      </trkpt>
      <trkpt lat="42.51053" lon="2.9364">
        <ele>357</ele>
        <time>2026-05-14T09:56:30.000Z</time>
      </trkpt>
      <trkpt lat="42.51056" lon="2.93634">
        <ele>357</ele>
        <time>2026-05-14T09:56:31.000Z</time>
      </trkpt>
      <trkpt lat="42.51059" lon="2.93631">
        <ele>356</ele>
        <time>2026-05-14T09:56:32.000Z</time>
      </trkpt>
      <trkpt lat="42.51064" lon="2.93628">
        <ele>355</ele>
        <time>2026-05-14T09:56:33.000Z</time>
      </trkpt>
      <trkpt lat="42.51067" lon="2.93624">
        <ele>355</ele>
        <time>2026-05-14T09:56:34.000Z</time>
      </trkpt>
      <trkpt lat="42.51071" lon="2.93618">
        <ele>354</ele>
        <time>2026-05-14T09:56:35.000Z</time>
      </trkpt>
      <trkpt lat="42.51076" lon="2.93614">
        <ele>353</ele>
        <time>2026-05-14T09:56:36.000Z</time>
      </trkpt>
      <trkpt lat="42.51081" lon="2.93611">
        <ele>353</ele>
        <time>2026-05-14T09:56:37.000Z</time>
      </trkpt>
      <trkpt lat="42.51088" lon="2.9361">
        <ele>352</ele>
        <time>2026-05-14T09:56:38.000Z</time>
      </trkpt>
      <trkpt lat="42.51094" lon="2.93611">
        <ele>352</ele>
        <time>2026-05-14T09:56:39.000Z</time>
      </trkpt>
      <trkpt lat="42.511" lon="2.93613">
        <ele>351</ele>
        <time>2026-05-14T09:56:40.000Z</time>
      </trkpt>
      <trkpt lat="42.51106" lon="2.93615">
        <ele>350</ele>
        <time>2026-05-14T09:56:41.000Z</time>
      </trkpt>
      <trkpt lat="42.51112" lon="2.93618">
        <ele>350</ele>
        <time>2026-05-14T09:56:42.000Z</time>
      </trkpt>
      <trkpt lat="42.51117" lon="2.93621">
        <ele>349</ele>
        <time>2026-05-14T09:56:43.000Z</time>
      </trkpt>
      <trkpt lat="42.51122" lon="2.93624">
        <ele>348</ele>
        <time>2026-05-14T09:56:44.000Z</time>
      </trkpt>
      <trkpt lat="42.51128" lon="2.93625">
        <ele>348</ele>
        <time>2026-05-14T09:56:45.000Z</time>
      </trkpt>
      <trkpt lat="42.51134" lon="2.93624">
        <ele>348</ele>
        <time>2026-05-14T09:56:46.000Z</time>
      </trkpt>
      <trkpt lat="42.51139" lon="2.93623">
        <ele>347</ele>
        <time>2026-05-14T09:56:47.000Z</time>
      </trkpt>
      <trkpt lat="42.51143" lon="2.93622">
        <ele>347</ele>
        <time>2026-05-14T09:56:48.000Z</time>
      </trkpt>
      <trkpt lat="42.51146" lon="2.93623">
        <ele>347</ele>
        <time>2026-05-14T09:56:49.000Z</time>
      </trkpt>
      <trkpt lat="42.51147" lon="2.93626">
        <ele>346</ele>
        <time>2026-05-14T09:56:50.000Z</time>
      </trkpt>
      <trkpt lat="42.51147" lon="2.93628">
        <ele>346</ele>
        <time>2026-05-14T09:56:51.000Z</time>
      </trkpt>
      <trkpt lat="42.51146" lon="2.93631">
        <ele>346</ele>
        <time>2026-05-14T09:56:52.000Z</time>
      </trkpt>
      <trkpt lat="42.51142" lon="2.93632">
        <ele>345</ele>
        <time>2026-05-14T09:56:53.000Z</time>
      </trkpt>
      <trkpt lat="42.51137" lon="2.93633">
        <ele>344</ele>
        <time>2026-05-14T09:56:54.000Z</time>
      </trkpt>
      <trkpt lat="42.51132" lon="2.93634">
        <ele>344</ele>
        <time>2026-05-14T09:56:55.000Z</time>
      </trkpt>
      <trkpt lat="42.51127" lon="2.93634">
        <ele>343</ele>
        <time>2026-05-14T09:56:56.000Z</time>
      </trkpt>
      <trkpt lat="42.51122" lon="2.93636">
        <ele>343</ele>
        <time>2026-05-14T09:56:57.000Z</time>
      </trkpt>
      <trkpt lat="42.51117" lon="2.93637">
        <ele>343</ele>
        <time>2026-05-14T09:56:58.000Z</time>
      </trkpt>
      <trkpt lat="42.51112" lon="2.93637">
        <ele>342</ele>
        <time>2026-05-14T09:56:59.000Z</time>
      </trkpt>
      <trkpt lat="42.51107" lon="2.93635">
        <ele>342</ele>
        <time>2026-05-14T09:57:00.000Z</time>
      </trkpt>
      <trkpt lat="42.51102" lon="2.93634">
        <ele>342</ele>
        <time>2026-05-14T09:57:01.000Z</time>
      </trkpt>
      <trkpt lat="42.51097" lon="2.93634">
        <ele>342</ele>
        <time>2026-05-14T09:57:02.000Z</time>
      </trkpt>
      <trkpt lat="42.51092" lon="2.93636">
        <ele>341</ele>
        <time>2026-05-14T09:57:03.000Z</time>
      </trkpt>
      <trkpt lat="42.51088" lon="2.93639">
        <ele>341</ele>
        <time>2026-05-14T09:57:04.000Z</time>
      </trkpt>
      <trkpt lat="42.51084" lon="2.93643">
        <ele>341</ele>
        <time>2026-05-14T09:57:05.000Z</time>
      </trkpt>
      <trkpt lat="42.51081" lon="2.93649">
        <ele>341</ele>
        <time>2026-05-14T09:57:06.000Z</time>
      </trkpt>
      <trkpt lat="42.51078" lon="2.93655">
        <ele>340</ele>
        <time>2026-05-14T09:57:07.000Z</time>
      </trkpt>
      <trkpt lat="42.51075" lon="2.93662">
        <ele>340</ele>
        <time>2026-05-14T09:57:08.000Z</time>
      </trkpt>
      <trkpt lat="42.51072" lon="2.93667">
        <ele>339</ele>
        <time>2026-05-14T09:57:09.000Z</time>
      </trkpt>
      <trkpt lat="42.5107" lon="2.93673">
        <ele>339</ele>
        <time>2026-05-14T09:57:10.000Z</time>
      </trkpt>
      <trkpt lat="42.51068" lon="2.93679">
        <ele>339</ele>
        <time>2026-05-14T09:57:11.000Z</time>
      </trkpt>
      <trkpt lat="42.51065" lon="2.93685">
        <ele>339</ele>
        <time>2026-05-14T09:57:12.000Z</time>
      </trkpt>
      <trkpt lat="42.51062" lon="2.93691">
        <ele>338</ele>
        <time>2026-05-14T09:57:13.000Z</time>
      </trkpt>
      <trkpt lat="42.51058" lon="2.93696">
        <ele>338</ele>
        <time>2026-05-14T09:57:14.000Z</time>
      </trkpt>
      <trkpt lat="42.51055" lon="2.93703">
        <ele>337</ele>
        <time>2026-05-14T09:57:15.000Z</time>
      </trkpt>
      <trkpt lat="42.51052" lon="2.93708">
        <ele>337</ele>
        <time>2026-05-14T09:57:16.000Z</time>
      </trkpt>
      <trkpt lat="42.51048" lon="2.93712">
        <ele>336</ele>
        <time>2026-05-14T09:57:17.000Z</time>
      </trkpt>
      <trkpt lat="42.51043" lon="2.93717">
        <ele>336</ele>
        <time>2026-05-14T09:57:18.000Z</time>
      </trkpt>
      <trkpt lat="42.51039" lon="2.93722">
        <ele>336</ele>
        <time>2026-05-14T09:57:19.000Z</time>
      </trkpt>
      <trkpt lat="42.51036" lon="2.93727">
        <ele>336</ele>
        <time>2026-05-14T09:57:20.000Z</time>
      </trkpt>
      <trkpt lat="42.51033" lon="2.93734">
        <ele>335</ele>
        <time>2026-05-14T09:57:21.000Z</time>
      </trkpt>
      <trkpt lat="42.5103" lon="2.93741">
        <ele>335</ele>
        <time>2026-05-14T09:57:22.000Z</time>
      </trkpt>
      <trkpt lat="42.51029" lon="2.93748">
        <ele>335</ele>
        <time>2026-05-14T09:57:23.000Z</time>
      </trkpt>
      <trkpt lat="42.51027" lon="2.93753">
        <ele>335</ele>
        <time>2026-05-14T09:57:24.000Z</time>
      </trkpt>
      <trkpt lat="42.51025" lon="2.93758">
        <ele>334</ele>
        <time>2026-05-14T09:57:25.000Z</time>
      </trkpt>
      <trkpt lat="42.51022" lon="2.93761">
        <ele>334</ele>
        <time>2026-05-14T09:57:26.000Z</time>
      </trkpt>
      <trkpt lat="42.51019" lon="2.93763">
        <ele>334</ele>
        <time>2026-05-14T09:57:27.000Z</time>
      </trkpt>
      <trkpt lat="42.51015" lon="2.93764">
        <ele>334</ele>
        <time>2026-05-14T09:57:28.000Z</time>
      </trkpt>
      <trkpt lat="42.51012" lon="2.93767">
        <ele>334</ele>
        <time>2026-05-14T09:57:29.000Z</time>
      </trkpt>
      <trkpt lat="42.51009" lon="2.93768">
        <ele>334</ele>
        <time>2026-05-14T09:57:30.000Z</time>
      </trkpt>
      <trkpt lat="42.51005" lon="2.93769">
        <ele>334</ele>
        <time>2026-05-14T09:57:31.000Z</time>
      </trkpt>
      <trkpt lat="42.51002" lon="2.93772">
        <ele>334</ele>
        <time>2026-05-14T09:57:32.000Z</time>
      </trkpt>
      <trkpt lat="42.51" lon="2.93775">
        <ele>334</ele>
        <time>2026-05-14T09:57:33.000Z</time>
      </trkpt>
      <trkpt lat="42.50998" lon="2.9378">
        <ele>334</ele>
        <time>2026-05-14T09:57:34.000Z</time>
      </trkpt>
      <trkpt lat="42.50997" lon="2.93785">
        <ele>334</ele>
        <time>2026-05-14T09:57:35.000Z</time>
      </trkpt>
      <trkpt lat="42.50996" lon="2.9379">
        <ele>334</ele>
        <time>2026-05-14T09:57:36.000Z</time>
      </trkpt>
      <trkpt lat="42.50996" lon="2.93794">
        <ele>333</ele>
        <time>2026-05-14T09:57:37.000Z</time>
      </trkpt>
      <trkpt lat="42.50997" lon="2.93798">
        <ele>333</ele>
        <time>2026-05-14T09:57:38.000Z</time>
      </trkpt>
      <trkpt lat="42.50997" lon="2.93802">
        <ele>332</ele>
        <time>2026-05-14T09:57:39.000Z</time>
      </trkpt>
      <trkpt lat="42.50997" lon="2.93807">
        <ele>332</ele>
        <time>2026-05-14T09:57:40.000Z</time>
      </trkpt>
      <trkpt lat="42.50997" lon="2.93812">
        <ele>332</ele>
        <time>2026-05-14T09:57:41.000Z</time>
      </trkpt>
      <trkpt lat="42.50996" lon="2.93816">
        <ele>332</ele>
        <time>2026-05-14T09:57:42.000Z</time>
      </trkpt>
      <trkpt lat="42.50994" lon="2.9382">
        <ele>331</ele>
        <time>2026-05-14T09:57:43.000Z</time>
      </trkpt>
      <trkpt lat="42.5099" lon="2.93822">
        <ele>331</ele>
        <time>2026-05-14T09:57:44.000Z</time>
      </trkpt>
      <trkpt lat="42.50987" lon="2.93823">
        <ele>330</ele>
        <time>2026-05-14T09:57:45.000Z</time>
      </trkpt>
      <trkpt lat="42.50983" lon="2.93825">
        <ele>330</ele>
        <time>2026-05-14T09:57:46.000Z</time>
      </trkpt>
      <trkpt lat="42.50979" lon="2.93827">
        <ele>328</ele>
        <time>2026-05-14T09:57:47.000Z</time>
      </trkpt>
      <trkpt lat="42.50976" lon="2.93832">
        <ele>328</ele>
        <time>2026-05-14T09:57:48.000Z</time>
      </trkpt>
      <trkpt lat="42.50973" lon="2.93837">
        <ele>326</ele>
        <time>2026-05-14T09:57:49.000Z</time>
      </trkpt>
      <trkpt lat="42.50971" lon="2.93842">
        <ele>326</ele>
        <time>2026-05-14T09:57:50.000Z</time>
      </trkpt>
      <trkpt lat="42.50969" lon="2.93849">
        <ele>325</ele>
        <time>2026-05-14T09:57:51.000Z</time>
      </trkpt>
      <trkpt lat="42.50969" lon="2.93853">
        <ele>324</ele>
        <time>2026-05-14T09:57:52.000Z</time>
      </trkpt>
      <trkpt lat="42.50971" lon="2.93858">
        <ele>324</ele>
        <time>2026-05-14T09:57:53.000Z</time>
      </trkpt>
      <trkpt lat="42.50974" lon="2.9386">
        <ele>324</ele>
        <time>2026-05-14T09:57:54.000Z</time>
      </trkpt>
      <trkpt lat="42.50977" lon="2.93862">
        <ele>323</ele>
        <time>2026-05-14T09:57:55.000Z</time>
      </trkpt>
      <trkpt lat="42.5098" lon="2.93861">
        <ele>323</ele>
        <time>2026-05-14T09:57:56.000Z</time>
      </trkpt>
      <trkpt lat="42.50984" lon="2.93857">
        <ele>322</ele>
        <time>2026-05-14T09:57:57.000Z</time>
      </trkpt>
      <trkpt lat="42.50988" lon="2.93855">
        <ele>322</ele>
        <time>2026-05-14T09:57:58.000Z</time>
      </trkpt>
      <trkpt lat="42.50991" lon="2.93852">
        <ele>322</ele>
        <time>2026-05-14T09:57:59.000Z</time>
      </trkpt>
      <trkpt lat="42.50996" lon="2.93851">
        <ele>321</ele>
        <time>2026-05-14T09:58:00.000Z</time>
      </trkpt>
      <trkpt lat="42.51001" lon="2.93851">
        <ele>321</ele>
        <time>2026-05-14T09:58:01.000Z</time>
      </trkpt>
      <trkpt lat="42.51006" lon="2.9385">
        <ele>320</ele>
        <time>2026-05-14T09:58:02.000Z</time>
      </trkpt>
      <trkpt lat="42.5101" lon="2.93849">
        <ele>321</ele>
        <time>2026-05-14T09:58:03.000Z</time>
      </trkpt>
      <trkpt lat="42.51014" lon="2.93846">
        <ele>320</ele>
        <time>2026-05-14T09:58:04.000Z</time>
      </trkpt>
      <trkpt lat="42.51017" lon="2.93841">
        <ele>320</ele>
        <time>2026-05-14T09:58:05.000Z</time>
      </trkpt>
      <trkpt lat="42.51021" lon="2.93836">
        <ele>319</ele>
        <time>2026-05-14T09:58:06.000Z</time>
      </trkpt>
      <trkpt lat="42.51023" lon="2.9383">
        <ele>319</ele>
        <time>2026-05-14T09:58:07.000Z</time>
      </trkpt>
      <trkpt lat="42.51025" lon="2.93823">
        <ele>317</ele>
        <time>2026-05-14T09:58:08.000Z</time>
      </trkpt>
      <trkpt lat="42.51026" lon="2.93818">
        <ele>317</ele>
        <time>2026-05-14T09:58:09.000Z</time>
      </trkpt>
      <trkpt lat="42.51028" lon="2.93811">
        <ele>317</ele>
        <time>2026-05-14T09:58:10.000Z</time>
      </trkpt>
      <trkpt lat="42.51031" lon="2.93806">
        <ele>316</ele>
        <time>2026-05-14T09:58:11.000Z</time>
      </trkpt>
      <trkpt lat="42.51035" lon="2.93803">
        <ele>316</ele>
        <time>2026-05-14T09:58:12.000Z</time>
      </trkpt>
      <trkpt lat="42.51039" lon="2.93801">
        <ele>315</ele>
        <time>2026-05-14T09:58:13.000Z</time>
      </trkpt>
      <trkpt lat="42.51043" lon="2.93799">
        <ele>315</ele>
        <time>2026-05-14T09:58:14.000Z</time>
      </trkpt>
      <trkpt lat="42.51048" lon="2.93796">
        <ele>315</ele>
        <time>2026-05-14T09:58:15.000Z</time>
      </trkpt>
      <trkpt lat="42.51052" lon="2.93792">
        <ele>315</ele>
        <time>2026-05-14T09:58:16.000Z</time>
      </trkpt>
      <trkpt lat="42.51057" lon="2.93787">
        <ele>315</ele>
        <time>2026-05-14T09:58:17.000Z</time>
      </trkpt>
      <trkpt lat="42.51061" lon="2.93781">
        <ele>315</ele>
        <time>2026-05-14T09:58:18.000Z</time>
      </trkpt>
      <trkpt lat="42.51064" lon="2.93775">
        <ele>315</ele>
        <time>2026-05-14T09:58:19.000Z</time>
      </trkpt>
      <trkpt lat="42.51067" lon="2.93769">
        <ele>314</ele>
        <time>2026-05-14T09:58:20.000Z</time>
      </trkpt>
      <trkpt lat="42.51071" lon="2.93765">
        <ele>314</ele>
        <time>2026-05-14T09:58:21.000Z</time>
      </trkpt>
      <trkpt lat="42.51075" lon="2.93762">
        <ele>314</ele>
        <time>2026-05-14T09:58:22.000Z</time>
      </trkpt>
      <trkpt lat="42.51079" lon="2.93759">
        <ele>313</ele>
        <time>2026-05-14T09:58:23.000Z</time>
      </trkpt>
      <trkpt lat="42.51083" lon="2.93756">
        <ele>313</ele>
        <time>2026-05-14T09:58:24.000Z</time>
      </trkpt>
      <trkpt lat="42.51087" lon="2.93752">
        <ele>313</ele>
        <time>2026-05-14T09:58:25.000Z</time>
      </trkpt>
      <trkpt lat="42.51091" lon="2.93749">
        <ele>313</ele>
        <time>2026-05-14T09:58:26.000Z</time>
      </trkpt>
      <trkpt lat="42.51095" lon="2.93745">
        <ele>312</ele>
        <time>2026-05-14T09:58:27.000Z</time>
      </trkpt>
      <trkpt lat="42.51099" lon="2.93743">
        <ele>311</ele>
        <time>2026-05-14T09:58:28.000Z</time>
      </trkpt>
      <trkpt lat="42.51103" lon="2.9374">
        <ele>310</ele>
        <time>2026-05-14T09:58:29.000Z</time>
      </trkpt>
      <trkpt lat="42.51107" lon="2.93741">
        <ele>310</ele>
        <time>2026-05-14T09:58:30.000Z</time>
      </trkpt>
      <trkpt lat="42.51111" lon="2.93743">
        <ele>309</ele>
        <time>2026-05-14T09:58:31.000Z</time>
      </trkpt>
      <trkpt lat="42.51115" lon="2.93745">
        <ele>308</ele>
        <time>2026-05-14T09:58:32.000Z</time>
      </trkpt>
      <trkpt lat="42.51119" lon="2.93747">
        <ele>307</ele>
        <time>2026-05-14T09:58:33.000Z</time>
      </trkpt>
      <trkpt lat="42.51122" lon="2.93748">
        <ele>307</ele>
        <time>2026-05-14T09:58:34.000Z</time>
      </trkpt>
      <trkpt lat="42.51125" lon="2.93749">
        <ele>307</ele>
        <time>2026-05-14T09:58:35.000Z</time>
      </trkpt>
      <trkpt lat="42.51128" lon="2.9375">
        <ele>307</ele>
        <time>2026-05-14T09:58:36.000Z</time>
      </trkpt>
      <trkpt lat="42.51131" lon="2.93751">
        <ele>308</ele>
        <time>2026-05-14T09:58:37.000Z</time>
      </trkpt>
      <trkpt lat="42.51134" lon="2.93751">
        <ele>307</ele>
        <time>2026-05-14T09:58:38.000Z</time>
      </trkpt>
      <trkpt lat="42.51138" lon="2.93751">
        <ele>307</ele>
        <time>2026-05-14T09:58:39.000Z</time>
      </trkpt>
      <trkpt lat="42.51143" lon="2.9375">
        <ele>307</ele>
        <time>2026-05-14T09:58:40.000Z</time>
      </trkpt>
      <trkpt lat="42.51147" lon="2.93749">
        <ele>306</ele>
        <time>2026-05-14T09:58:41.000Z</time>
      </trkpt>
      <trkpt lat="42.51152" lon="2.93747">
        <ele>307</ele>
        <time>2026-05-14T09:58:42.000Z</time>
      </trkpt>
      <trkpt lat="42.51155" lon="2.93745">
        <ele>307</ele>
        <time>2026-05-14T09:58:43.000Z</time>
      </trkpt>
      <trkpt lat="42.51156" lon="2.93744">
        <ele>307</ele>
        <time>2026-05-14T09:58:44.000Z</time>
      </trkpt>
      <trkpt lat="42.51156" lon="2.93744">
        <ele>306</ele>
        <time>2026-05-14T09:58:45.000Z</time>
      </trkpt>
      <trkpt lat="42.51156" lon="2.93744">
        <ele>306</ele>
        <time>2026-05-14T09:58:46.000Z</time>
      </trkpt>
      <trkpt lat="42.51155" lon="2.93743">
        <ele>306</ele>
        <time>2026-05-14T09:58:47.000Z</time>
      </trkpt>
      <trkpt lat="42.51156" lon="2.93743">
        <ele>306</ele>
        <time>2026-05-14T09:58:48.000Z</time>
      </trkpt>
      <trkpt lat="42.51156" lon="2.93744">
        <ele>306</ele>
        <time>2026-05-14T09:58:49.000Z</time>
      </trkpt>
      <trkpt lat="42.51156" lon="2.93745">
        <ele>307</ele>
        <time>2026-05-14T09:58:50.000Z</time>
      </trkpt>
      <trkpt lat="42.51156" lon="2.93745">
        <ele>307</ele>
        <time>2026-05-14T09:58:51.000Z</time>
      </trkpt>
      <trkpt lat="42.51155" lon="2.93746">
        <ele>307</ele>
        <time>2026-05-14T09:58:52.000Z</time>
      </trkpt>
      <trkpt lat="42.51154" lon="2.93746">
        <ele>307</ele>
        <time>2026-05-14T09:58:53.000Z</time>
      </trkpt>
      <trkpt lat="42.51153" lon="2.93748">
        <ele>307</ele>
        <time>2026-05-14T09:58:54.000Z</time>
      </trkpt>
      <trkpt lat="42.51154" lon="2.93748">
        <ele>307</ele>
        <time>2026-05-14T09:58:55.000Z</time>
      </trkpt>
      <trkpt lat="42.51153" lon="2.93748">
        <ele>306</ele>
        <time>2026-05-14T09:58:56.000Z</time>
      </trkpt>
      <trkpt lat="42.51153" lon="2.93748">
        <ele>306</ele>
        <time>2026-05-14T09:58:57.000Z</time>
      </trkpt>
      <trkpt lat="42.51154" lon="2.93747">
        <ele>305</ele>
        <time>2026-05-14T10:00:40.000Z</time>
      </trkpt>
      <trkpt lat="42.51155" lon="2.93747">
        <ele>305</ele>
        <time>2026-05-14T10:00:41.000Z</time>
      </trkpt>
      <trkpt lat="42.51154" lon="2.93748">
        <ele>305</ele>
        <time>2026-05-14T10:00:42.000Z</time>
      </trkpt>
      <trkpt lat="42.51153" lon="2.93749">
        <ele>305</ele>
        <time>2026-05-14T10:00:43.000Z</time>
      </trkpt>
      <trkpt lat="42.51153" lon="2.9375">
        <ele>305</ele>
        <time>2026-05-14T10:00:44.000Z</time>
      </trkpt>
      <trkpt lat="42.51152" lon="2.9375">
        <ele>305</ele>
        <time>2026-05-14T10:00:45.000Z</time>
      </trkpt>
      <trkpt lat="42.51152" lon="2.9375">
        <ele>306</ele>
        <time>2026-05-14T10:00:46.000Z</time>
      </trkpt>
      <trkpt lat="42.51151" lon="2.93751">
        <ele>306</ele>
        <time>2026-05-14T10:00:47.000Z</time>
      </trkpt>
      <trkpt lat="42.5115" lon="2.9375">
        <ele>307</ele>
        <time>2026-05-14T10:00:48.000Z</time>
      </trkpt>
      <trkpt lat="42.5115" lon="2.93751">
        <ele>307</ele>
        <time>2026-05-14T10:00:49.000Z</time>
      </trkpt>
      <trkpt lat="42.51152" lon="2.93747">
        <ele>306</ele>
        <time>2026-05-14T10:01:29.000Z</time>
      </trkpt>
      <trkpt lat="42.51153" lon="2.93747">
        <ele>306</ele>
        <time>2026-05-14T10:01:30.000Z</time>
      </trkpt>
      <trkpt lat="42.51153" lon="2.93746">
        <ele>306</ele>
        <time>2026-05-14T10:01:31.000Z</time>
      </trkpt>
      <trkpt lat="42.51153" lon="2.93744">
        <ele>305</ele>
        <time>2026-05-14T10:01:32.000Z</time>
      </trkpt>
      <trkpt lat="42.51154" lon="2.93744">
        <ele>305</ele>
        <time>2026-05-14T10:01:33.000Z</time>
      </trkpt>
      <trkpt lat="42.51154" lon="2.93744">
        <ele>305</ele>
        <time>2026-05-14T10:01:34.000Z</time>
      </trkpt>
      <trkpt lat="42.51155" lon="2.93744">
        <ele>305</ele>
        <time>2026-05-14T10:01:35.000Z</time>
      </trkpt>
      <trkpt lat="42.51155" lon="2.93744">
        <ele>305</ele>
        <time>2026-05-14T10:01:36.000Z</time>
      </trkpt>
      <trkpt lat="42.51155" lon="2.93744">
        <ele>305</ele>
        <time>2026-05-14T10:01:37.000Z</time>
      </trkpt>
      <trkpt lat="42.51154" lon="2.93745">
        <ele>305</ele>
        <time>2026-05-14T10:01:38.000Z</time>
      </trkpt>
      <trkpt lat="42.51154" lon="2.93746">
        <ele>306</ele>
        <time>2026-05-14T10:01:39.000Z</time>
      </trkpt>
      <trkpt lat="42.51153" lon="2.93744">
        <ele>304</ele>
        <time>2026-05-14T10:01:57.000Z</time>
      </trkpt>
      <trkpt lat="42.51154" lon="2.93744">
        <ele>304</ele>
        <time>2026-05-14T10:01:58.000Z</time>
      </trkpt>
      <trkpt lat="42.51154" lon="2.93745">
        <ele>304</ele>
        <time>2026-05-14T10:01:59.000Z</time>
      </trkpt>
      <trkpt lat="42.51154" lon="2.93745">
        <ele>305</ele>
        <time>2026-05-14T10:02:00.000Z</time>
      </trkpt>
      <trkpt lat="42.51155" lon="2.93747">
        <ele>306</ele>
        <time>2026-05-14T10:02:52.000Z</time>
      </trkpt>
      <trkpt lat="42.51157" lon="2.93746">
        <ele>306</ele>
        <time>2026-05-14T10:02:53.000Z</time>
      </trkpt>
      <trkpt lat="42.51159" lon="2.93745">
        <ele>306</ele>
        <time>2026-05-14T10:02:54.000Z</time>
      </trkpt>
      <trkpt lat="42.51161" lon="2.93742">
        <ele>306</ele>
        <time>2026-05-14T10:02:55.000Z</time>
      </trkpt>
      <trkpt lat="42.51164" lon="2.93741">
        <ele>305</ele>
        <time>2026-05-14T10:02:56.000Z</time>
      </trkpt>
      <trkpt lat="42.51167" lon="2.93741">
        <ele>305</ele>
        <time>2026-05-14T10:02:57.000Z</time>
      </trkpt>
      <trkpt lat="42.51169" lon="2.93741">
        <ele>306</ele>
        <time>2026-05-14T10:02:58.000Z</time>
      </trkpt>
      <trkpt lat="42.51169" lon="2.93743">
        <ele>306</ele>
        <time>2026-05-14T10:02:59.000Z</time>
      </trkpt>
      <trkpt lat="42.51169" lon="2.93746">
        <ele>305</ele>
        <time>2026-05-14T10:03:00.000Z</time>
      </trkpt>
      <trkpt lat="42.51167" lon="2.93748">
        <ele>305</ele>
        <time>2026-05-14T10:03:01.000Z</time>
      </trkpt>
      <trkpt lat="42.51165" lon="2.9375">
        <ele>304</ele>
        <time>2026-05-14T10:03:02.000Z</time>
      </trkpt>
      <trkpt lat="42.51163" lon="2.93753">
        <ele>304</ele>
        <time>2026-05-14T10:03:03.000Z</time>
      </trkpt>
      <trkpt lat="42.51161" lon="2.93756">
        <ele>304</ele>
        <time>2026-05-14T10:03:04.000Z</time>
      </trkpt>
      <trkpt lat="42.51158" lon="2.93758">
        <ele>304</ele>
        <time>2026-05-14T10:03:05.000Z</time>
      </trkpt>
      <trkpt lat="42.51156" lon="2.93761">
        <ele>304</ele>
        <time>2026-05-14T10:03:06.000Z</time>
      </trkpt>
      <trkpt lat="42.51154" lon="2.93763">
        <ele>304</ele>
        <time>2026-05-14T10:03:07.000Z</time>
      </trkpt>
      <trkpt lat="42.51151" lon="2.93764">
        <ele>304</ele>
        <time>2026-05-14T10:03:08.000Z</time>
      </trkpt>
      <trkpt lat="42.51148" lon="2.93765">
        <ele>304</ele>
        <time>2026-05-14T10:03:09.000Z</time>
      </trkpt>
      <trkpt lat="42.51144" lon="2.93766">
        <ele>303</ele>
        <time>2026-05-14T10:03:10.000Z</time>
      </trkpt>
      <trkpt lat="42.51141" lon="2.93766">
        <ele>303</ele>
        <time>2026-05-14T10:03:11.000Z</time>
      </trkpt>
      <trkpt lat="42.51138" lon="2.93766">
        <ele>302</ele>
        <time>2026-05-14T10:03:12.000Z</time>
      </trkpt>
      <trkpt lat="42.51136" lon="2.93767">
        <ele>302</ele>
        <time>2026-05-14T10:03:13.000Z</time>
      </trkpt>
      <trkpt lat="42.51133" lon="2.93767">
        <ele>301</ele>
        <time>2026-05-14T10:03:14.000Z</time>
      </trkpt>
      <trkpt lat="42.5113" lon="2.93767">
        <ele>301</ele>
        <time>2026-05-14T10:03:15.000Z</time>
      </trkpt>
      <trkpt lat="42.51128" lon="2.93768">
        <ele>301</ele>
        <time>2026-05-14T10:03:16.000Z</time>
      </trkpt>
      <trkpt lat="42.51125" lon="2.93768">
        <ele>301</ele>
        <time>2026-05-14T10:03:17.000Z</time>
      </trkpt>
      <trkpt lat="42.51122" lon="2.9377">
        <ele>301</ele>
        <time>2026-05-14T10:03:18.000Z</time>
      </trkpt>
      <trkpt lat="42.51118" lon="2.93772">
        <ele>300</ele>
        <time>2026-05-14T10:03:19.000Z</time>
      </trkpt>
      <trkpt lat="42.51116" lon="2.93774">
        <ele>300</ele>
        <time>2026-05-14T10:03:20.000Z</time>
      </trkpt>
      <trkpt lat="42.51113" lon="2.93777">
        <ele>300</ele>
        <time>2026-05-14T10:03:21.000Z</time>
      </trkpt>
      <trkpt lat="42.5111" lon="2.93781">
        <ele>301</ele>
        <time>2026-05-14T10:03:22.000Z</time>
      </trkpt>
      <trkpt lat="42.51108" lon="2.93785">
        <ele>300</ele>
        <time>2026-05-14T10:03:23.000Z</time>
      </trkpt>
      <trkpt lat="42.51107" lon="2.93789">
        <ele>300</ele>
        <time>2026-05-14T10:03:24.000Z</time>
      </trkpt>
      <trkpt lat="42.51105" lon="2.93793">
        <ele>300</ele>
        <time>2026-05-14T10:03:25.000Z</time>
      </trkpt>
      <trkpt lat="42.51103" lon="2.93797">
        <ele>300</ele>
        <time>2026-05-14T10:03:26.000Z</time>
      </trkpt>
      <trkpt lat="42.51102" lon="2.93802">
        <ele>300</ele>
        <time>2026-05-14T10:03:27.000Z</time>
      </trkpt>
      <trkpt lat="42.511" lon="2.93806">
        <ele>300</ele>
        <time>2026-05-14T10:03:28.000Z</time>
      </trkpt>
      <trkpt lat="42.51099" lon="2.93809">
        <ele>299</ele>
        <time>2026-05-14T10:03:29.000Z</time>
      </trkpt>
      <trkpt lat="42.51097" lon="2.93811">
        <ele>299</ele>
        <time>2026-05-14T10:03:30.000Z</time>
      </trkpt>
      <trkpt lat="42.51096" lon="2.93814">
        <ele>300</ele>
        <time>2026-05-14T10:03:31.000Z</time>
      </trkpt>
      <trkpt lat="42.51094" lon="2.93817">
        <ele>299</ele>
        <time>2026-05-14T10:03:32.000Z</time>
      </trkpt>
      <trkpt lat="42.51092" lon="2.9382">
        <ele>298</ele>
        <time>2026-05-14T10:03:33.000Z</time>
      </trkpt>
      <trkpt lat="42.51091" lon="2.93821">
        <ele>298</ele>
        <time>2026-05-14T10:03:34.000Z</time>
      </trkpt>
      <trkpt lat="42.51089" lon="2.93823">
        <ele>299</ele>
        <time>2026-05-14T10:03:35.000Z</time>
      </trkpt>
      <trkpt lat="42.51088" lon="2.93825">
        <ele>299</ele>
        <time>2026-05-14T10:03:36.000Z</time>
      </trkpt>
      <trkpt lat="42.51086" lon="2.93827">
        <ele>299</ele>
        <time>2026-05-14T10:03:37.000Z</time>
      </trkpt>
      <trkpt lat="42.51085" lon="2.93828">
        <ele>298</ele>
        <time>2026-05-14T10:03:38.000Z</time>
      </trkpt>
      <trkpt lat="42.51083" lon="2.9383">
        <ele>297</ele>
        <time>2026-05-14T10:03:39.000Z</time>
      </trkpt>
      <trkpt lat="42.5108" lon="2.93832">
        <ele>297</ele>
        <time>2026-05-14T10:03:40.000Z</time>
      </trkpt>
      <trkpt lat="42.51078" lon="2.93834">
        <ele>298</ele>
        <time>2026-05-14T10:03:41.000Z</time>
      </trkpt>
      <trkpt lat="42.51076" lon="2.93836">
        <ele>298</ele>
        <time>2026-05-14T10:03:42.000Z</time>
      </trkpt>
      <trkpt lat="42.51074" lon="2.93839">
        <ele>297</ele>
        <time>2026-05-14T10:03:43.000Z</time>
      </trkpt>
      <trkpt lat="42.51074" lon="2.93843">
        <ele>296</ele>
        <time>2026-05-14T10:03:44.000Z</time>
      </trkpt>
      <trkpt lat="42.51074" lon="2.93847">
        <ele>295</ele>
        <time>2026-05-14T10:03:45.000Z</time>
      </trkpt>
      <trkpt lat="42.51076" lon="2.93849">
        <ele>294</ele>
        <time>2026-05-14T10:03:46.000Z</time>
      </trkpt>
      <trkpt lat="42.5108" lon="2.93848">
        <ele>294</ele>
        <time>2026-05-14T10:03:47.000Z</time>
      </trkpt>
      <trkpt lat="42.51083" lon="2.93846">
        <ele>294</ele>
        <time>2026-05-14T10:03:48.000Z</time>
      </trkpt>
      <trkpt lat="42.51086" lon="2.93843">
        <ele>294</ele>
        <time>2026-05-14T10:03:49.000Z</time>
      </trkpt>
      <trkpt lat="42.51089" lon="2.9384">
        <ele>293</ele>
        <time>2026-05-14T10:03:50.000Z</time>
      </trkpt>
      <trkpt lat="42.51092" lon="2.93838">
        <ele>294</ele>
        <time>2026-05-14T10:03:51.000Z</time>
      </trkpt>
      <trkpt lat="42.51095" lon="2.93835">
        <ele>293</ele>
        <time>2026-05-14T10:03:52.000Z</time>
      </trkpt>
      <trkpt lat="42.51098" lon="2.93832">
        <ele>293</ele>
        <time>2026-05-14T10:03:53.000Z</time>
      </trkpt>
      <trkpt lat="42.51101" lon="2.93829">
        <ele>293</ele>
        <time>2026-05-14T10:03:54.000Z</time>
      </trkpt>
      <trkpt lat="42.51105" lon="2.93827">
        <ele>292</ele>
        <time>2026-05-14T10:03:55.000Z</time>
      </trkpt>
      <trkpt lat="42.51108" lon="2.93824">
        <ele>292</ele>
        <time>2026-05-14T10:03:56.000Z</time>
      </trkpt>
      <trkpt lat="42.51111" lon="2.93821">
        <ele>292</ele>
        <time>2026-05-14T10:03:57.000Z</time>
      </trkpt>
      <trkpt lat="42.51114" lon="2.93819">
        <ele>292</ele>
        <time>2026-05-14T10:03:58.000Z</time>
      </trkpt>
      <trkpt lat="42.51116" lon="2.93817">
        <ele>292</ele>
        <time>2026-05-14T10:03:59.000Z</time>
      </trkpt>
      <trkpt lat="42.51119" lon="2.93814">
        <ele>292</ele>
        <time>2026-05-14T10:04:00.000Z</time>
      </trkpt>
      <trkpt lat="42.51121" lon="2.93811">
        <ele>292</ele>
        <time>2026-05-14T10:04:01.000Z</time>
      </trkpt>
      <trkpt lat="42.51123" lon="2.93809">
        <ele>292</ele>
        <time>2026-05-14T10:04:02.000Z</time>
      </trkpt>
      <trkpt lat="42.51124" lon="2.93807">
        <ele>292</ele>
        <time>2026-05-14T10:04:03.000Z</time>
      </trkpt>
      <trkpt lat="42.51124" lon="2.93806">
        <ele>292</ele>
        <time>2026-05-14T10:04:04.000Z</time>
      </trkpt>
      <trkpt lat="42.51124" lon="2.93807">
        <ele>291</ele>
        <time>2026-05-14T10:04:05.000Z</time>
      </trkpt>
      <trkpt lat="42.51124" lon="2.93808">
        <ele>291</ele>
        <time>2026-05-14T10:04:06.000Z</time>
      </trkpt>
      <trkpt lat="42.51124" lon="2.93807">
        <ele>291</ele>
        <time>2026-05-14T10:04:07.000Z</time>
      </trkpt>
      <trkpt lat="42.51124" lon="2.93806">
        <ele>291</ele>
        <time>2026-05-14T10:04:08.000Z</time>
      </trkpt>
      <trkpt lat="42.51125" lon="2.93806">
        <ele>292</ele>
        <time>2026-05-14T10:04:09.000Z</time>
      </trkpt>
      <trkpt lat="42.51126" lon="2.93804">
        <ele>291</ele>
        <time>2026-05-14T10:04:48.000Z</time>
      </trkpt>
      <trkpt lat="42.51126" lon="2.93803">
        <ele>291</ele>
        <time>2026-05-14T10:04:49.000Z</time>
      </trkpt>
      <trkpt lat="42.51127" lon="2.93802">
        <ele>291</ele>
        <time>2026-05-14T10:04:50.000Z</time>
      </trkpt>
      <trkpt lat="42.51128" lon="2.93801">
        <ele>291</ele>
        <time>2026-05-14T10:04:51.000Z</time>
      </trkpt>
      <trkpt lat="42.51129" lon="2.93799">
        <ele>291</ele>
        <time>2026-05-14T10:04:52.000Z</time>
      </trkpt>
      <trkpt lat="42.51131" lon="2.93798">
        <ele>291</ele>
        <time>2026-05-14T10:04:53.000Z</time>
      </trkpt>
      <trkpt lat="42.51133" lon="2.93797">
        <ele>290</ele>
        <time>2026-05-14T10:04:54.000Z</time>
      </trkpt>
      <trkpt lat="42.51135" lon="2.93797">
        <ele>290</ele>
        <time>2026-05-14T10:04:55.000Z</time>
      </trkpt>
      <trkpt lat="42.51137" lon="2.93797">
        <ele>290</ele>
        <time>2026-05-14T10:04:56.000Z</time>
      </trkpt>
      <trkpt lat="42.51139" lon="2.93797">
        <ele>290</ele>
        <time>2026-05-14T10:04:57.000Z</time>
      </trkpt>
      <trkpt lat="42.51141" lon="2.93796">
        <ele>290</ele>
        <time>2026-05-14T10:04:58.000Z</time>
      </trkpt>
      <trkpt lat="42.51144" lon="2.93797">
        <ele>289</ele>
        <time>2026-05-14T10:04:59.000Z</time>
      </trkpt>
      <trkpt lat="42.51147" lon="2.93797">
        <ele>289</ele>
        <time>2026-05-14T10:05:00.000Z</time>
      </trkpt>
      <trkpt lat="42.5115" lon="2.93796">
        <ele>289</ele>
        <time>2026-05-14T10:05:01.000Z</time>
      </trkpt>
      <trkpt lat="42.51153" lon="2.93796">
        <ele>290</ele>
        <time>2026-05-14T10:05:02.000Z</time>
      </trkpt>
      <trkpt lat="42.51156" lon="2.93796">
        <ele>290</ele>
        <time>2026-05-14T10:05:03.000Z</time>
      </trkpt>
      <trkpt lat="42.51159" lon="2.93797">
        <ele>290</ele>
        <time>2026-05-14T10:05:04.000Z</time>
      </trkpt>
      <trkpt lat="42.51162" lon="2.93796">
        <ele>290</ele>
        <time>2026-05-14T10:05:05.000Z</time>
      </trkpt>
      <trkpt lat="42.51165" lon="2.93796">
        <ele>290</ele>
        <time>2026-05-14T10:05:06.000Z</time>
      </trkpt>
      <trkpt lat="42.51168" lon="2.93795">
        <ele>289</ele>
        <time>2026-05-14T10:05:07.000Z</time>
      </trkpt>
      <trkpt lat="42.51172" lon="2.93794">
        <ele>288</ele>
        <time>2026-05-14T10:05:08.000Z</time>
      </trkpt>
      <trkpt lat="42.51175" lon="2.93794">
        <ele>288</ele>
        <time>2026-05-14T10:05:09.000Z</time>
      </trkpt>
      <trkpt lat="42.51178" lon="2.93794">
        <ele>287</ele>
        <time>2026-05-14T10:05:10.000Z</time>
      </trkpt>
      <trkpt lat="42.51182" lon="2.93793">
        <ele>286</ele>
        <time>2026-05-14T10:05:11.000Z</time>
      </trkpt>
      <trkpt lat="42.51186" lon="2.93793">
        <ele>286</ele>
        <time>2026-05-14T10:05:12.000Z</time>
      </trkpt>
      <trkpt lat="42.5119" lon="2.93793">
        <ele>286</ele>
        <time>2026-05-14T10:05:13.000Z</time>
      </trkpt>
      <trkpt lat="42.51193" lon="2.93792">
        <ele>286</ele>
        <time>2026-05-14T10:05:14.000Z</time>
      </trkpt>
      <trkpt lat="42.51196" lon="2.93792">
        <ele>285</ele>
        <time>2026-05-14T10:05:15.000Z</time>
      </trkpt>
      <trkpt lat="42.512" lon="2.93791">
        <ele>285</ele>
        <time>2026-05-14T10:05:16.000Z</time>
      </trkpt>
      <trkpt lat="42.51203" lon="2.93791">
        <ele>285</ele>
        <time>2026-05-14T10:05:17.000Z</time>
      </trkpt>
      <trkpt lat="42.51207" lon="2.93792">
        <ele>284</ele>
        <time>2026-05-14T10:05:18.000Z</time>
      </trkpt>
      <trkpt lat="42.5121" lon="2.93792">
        <ele>284</ele>
        <time>2026-05-14T10:05:19.000Z</time>
      </trkpt>
      <trkpt lat="42.51214" lon="2.93792">
        <ele>283</ele>
        <time>2026-05-14T10:05:20.000Z</time>
      </trkpt>
      <trkpt lat="42.51218" lon="2.93792">
        <ele>282</ele>
        <time>2026-05-14T10:05:21.000Z</time>
      </trkpt>
      <trkpt lat="42.51221" lon="2.93792">
        <ele>283</ele>
        <time>2026-05-14T10:05:22.000Z</time>
      </trkpt>
      <trkpt lat="42.51225" lon="2.93791">
        <ele>283</ele>
        <time>2026-05-14T10:05:23.000Z</time>
      </trkpt>
      <trkpt lat="42.51229" lon="2.93791">
        <ele>282</ele>
        <time>2026-05-14T10:05:24.000Z</time>
      </trkpt>
      <trkpt lat="42.51232" lon="2.93791">
        <ele>282</ele>
        <time>2026-05-14T10:05:25.000Z</time>
      </trkpt>
      <trkpt lat="42.51236" lon="2.9379">
        <ele>282</ele>
        <time>2026-05-14T10:05:26.000Z</time>
      </trkpt>
      <trkpt lat="42.51239" lon="2.9379">
        <ele>281</ele>
        <time>2026-05-14T10:05:27.000Z</time>
      </trkpt>
      <trkpt lat="42.51243" lon="2.93789">
        <ele>281</ele>
        <time>2026-05-14T10:05:28.000Z</time>
      </trkpt>
      <trkpt lat="42.51246" lon="2.93789">
        <ele>280</ele>
        <time>2026-05-14T10:05:29.000Z</time>
      </trkpt>
      <trkpt lat="42.5125" lon="2.93789">
        <ele>281</ele>
        <time>2026-05-14T10:05:30.000Z</time>
      </trkpt>
      <trkpt lat="42.51253" lon="2.93788">
        <ele>281</ele>
        <time>2026-05-14T10:05:31.000Z</time>
      </trkpt>
      <trkpt lat="42.51256" lon="2.93788">
        <ele>281</ele>
        <time>2026-05-14T10:05:32.000Z</time>
      </trkpt>
      <trkpt lat="42.5126" lon="2.93789">
        <ele>280</ele>
        <time>2026-05-14T10:05:33.000Z</time>
      </trkpt>
      <trkpt lat="42.51263" lon="2.93789">
        <ele>280</ele>
        <time>2026-05-14T10:05:34.000Z</time>
      </trkpt>
      <trkpt lat="42.51267" lon="2.93789">
        <ele>281</ele>
        <time>2026-05-14T10:05:35.000Z</time>
      </trkpt>
      <trkpt lat="42.51271" lon="2.93789">
        <ele>281</ele>
        <time>2026-05-14T10:05:36.000Z</time>
      </trkpt>
      <trkpt lat="42.51274" lon="2.9379">
        <ele>279</ele>
        <time>2026-05-14T10:05:37.000Z</time>
      </trkpt>
      <trkpt lat="42.51278" lon="2.93792">
        <ele>279</ele>
        <time>2026-05-14T10:05:38.000Z</time>
      </trkpt>
      <trkpt lat="42.51282" lon="2.93793">
        <ele>278</ele>
        <time>2026-05-14T10:05:39.000Z</time>
      </trkpt>
      <trkpt lat="42.51285" lon="2.93795">
        <ele>278</ele>
        <time>2026-05-14T10:05:40.000Z</time>
      </trkpt>
      <trkpt lat="42.51289" lon="2.93796">
        <ele>278</ele>
        <time>2026-05-14T10:05:41.000Z</time>
      </trkpt>
      <trkpt lat="42.51292" lon="2.93798">
        <ele>277</ele>
        <time>2026-05-14T10:05:42.000Z</time>
      </trkpt>
      <trkpt lat="42.51295" lon="2.93799">
        <ele>277</ele>
        <time>2026-05-14T10:05:43.000Z</time>
      </trkpt>
      <trkpt lat="42.51298" lon="2.93801">
        <ele>277</ele>
        <time>2026-05-14T10:05:44.000Z</time>
      </trkpt>
      <trkpt lat="42.51302" lon="2.93803">
        <ele>277</ele>
        <time>2026-05-14T10:05:45.000Z</time>
      </trkpt>
      <trkpt lat="42.51305" lon="2.93805">
        <ele>276</ele>
        <time>2026-05-14T10:05:46.000Z</time>
      </trkpt>
      <trkpt lat="42.51308" lon="2.93806">
        <ele>276</ele>
        <time>2026-05-14T10:05:47.000Z</time>
      </trkpt>
      <trkpt lat="42.51311" lon="2.93808">
        <ele>275</ele>
        <time>2026-05-14T10:05:48.000Z</time>
      </trkpt>
      <trkpt lat="42.51314" lon="2.9381">
        <ele>275</ele>
        <time>2026-05-14T10:05:49.000Z</time>
      </trkpt>
      <trkpt lat="42.51317" lon="2.93811">
        <ele>275</ele>
        <time>2026-05-14T10:05:50.000Z</time>
      </trkpt>
      <trkpt lat="42.5132" lon="2.93813">
        <ele>275</ele>
        <time>2026-05-14T10:05:51.000Z</time>
      </trkpt>
      <trkpt lat="42.51323" lon="2.93815">
        <ele>275</ele>
        <time>2026-05-14T10:05:52.000Z</time>
      </trkpt>
      <trkpt lat="42.51326" lon="2.93816">
        <ele>274</ele>
        <time>2026-05-14T10:05:53.000Z</time>
      </trkpt>
      <trkpt lat="42.51329" lon="2.93817">
        <ele>274</ele>
        <time>2026-05-14T10:05:54.000Z</time>
      </trkpt>
      <trkpt lat="42.51332" lon="2.9382">
        <ele>274</ele>
        <time>2026-05-14T10:05:55.000Z</time>
      </trkpt>
      <trkpt lat="42.51335" lon="2.93821">
        <ele>273</ele>
        <time>2026-05-14T10:05:56.000Z</time>
      </trkpt>
      <trkpt lat="42.51339" lon="2.93821">
        <ele>272</ele>
        <time>2026-05-14T10:05:57.000Z</time>
      </trkpt>
      <trkpt lat="42.51343" lon="2.9382">
        <ele>271</ele>
        <time>2026-05-14T10:05:58.000Z</time>
      </trkpt>
      <trkpt lat="42.51346" lon="2.93819">
        <ele>271</ele>
        <time>2026-05-14T10:05:59.000Z</time>
      </trkpt>
      <trkpt lat="42.5135" lon="2.93818">
        <ele>271</ele>
        <time>2026-05-14T10:06:00.000Z</time>
      </trkpt>
      <trkpt lat="42.51354" lon="2.93817">
        <ele>270</ele>
        <time>2026-05-14T10:06:01.000Z</time>
      </trkpt>
      <trkpt lat="42.51357" lon="2.93816">
        <ele>270</ele>
        <time>2026-05-14T10:06:02.000Z</time>
      </trkpt>
      <trkpt lat="42.51359" lon="2.93815">
        <ele>270</ele>
        <time>2026-05-14T10:06:03.000Z</time>
      </trkpt>
      <trkpt lat="42.51362" lon="2.93815">
        <ele>270</ele>
        <time>2026-05-14T10:06:04.000Z</time>
      </trkpt>
      <trkpt lat="42.51365" lon="2.93815">
        <ele>269</ele>
        <time>2026-05-14T10:06:05.000Z</time>
      </trkpt>
      <trkpt lat="42.51366" lon="2.93818">
        <ele>269</ele>
        <time>2026-05-14T10:06:06.000Z</time>
      </trkpt>
      <trkpt lat="42.51367" lon="2.93821">
        <ele>268</ele>
        <time>2026-05-14T10:06:07.000Z</time>
      </trkpt>
      <trkpt lat="42.51368" lon="2.93825">
        <ele>268</ele>
        <time>2026-05-14T10:06:08.000Z</time>
      </trkpt>
      <trkpt lat="42.51367" lon="2.93829">
        <ele>268</ele>
        <time>2026-05-14T10:06:09.000Z</time>
      </trkpt>
      <trkpt lat="42.51367" lon="2.93833">
        <ele>268</ele>
        <time>2026-05-14T10:06:10.000Z</time>
      </trkpt>
      <trkpt lat="42.51367" lon="2.93837">
        <ele>268</ele>
        <time>2026-05-14T10:06:11.000Z</time>
      </trkpt>
      <trkpt lat="42.51366" lon="2.93842">
        <ele>267</ele>
        <time>2026-05-14T10:06:12.000Z</time>
      </trkpt>
      <trkpt lat="42.51365" lon="2.93846">
        <ele>266</ele>
        <time>2026-05-14T10:06:13.000Z</time>
      </trkpt>
      <trkpt lat="42.51363" lon="2.9385">
        <ele>267</ele>
        <time>2026-05-14T10:06:14.000Z</time>
      </trkpt>
      <trkpt lat="42.51361" lon="2.93855">
        <ele>267</ele>
        <time>2026-05-14T10:06:15.000Z</time>
      </trkpt>
      <trkpt lat="42.5136" lon="2.93859">
        <ele>267</ele>
        <time>2026-05-14T10:06:16.000Z</time>
      </trkpt>
      <trkpt lat="42.51358" lon="2.93862">
        <ele>266</ele>
        <time>2026-05-14T10:06:17.000Z</time>
      </trkpt>
      <trkpt lat="42.51355" lon="2.93865">
        <ele>266</ele>
        <time>2026-05-14T10:06:18.000Z</time>
      </trkpt>
      <trkpt lat="42.51352" lon="2.93868">
        <ele>266</ele>
        <time>2026-05-14T10:06:19.000Z</time>
      </trkpt>
      <trkpt lat="42.51348" lon="2.93871">
        <ele>265</ele>
        <time>2026-05-14T10:06:20.000Z</time>
      </trkpt>
      <trkpt lat="42.51344" lon="2.93871">
        <ele>265</ele>
        <time>2026-05-14T10:06:21.000Z</time>
      </trkpt>
      <trkpt lat="42.5134" lon="2.93872">
        <ele>265</ele>
        <time>2026-05-14T10:06:22.000Z</time>
      </trkpt>
      <trkpt lat="42.51336" lon="2.93871">
        <ele>265</ele>
        <time>2026-05-14T10:06:23.000Z</time>
      </trkpt>
      <trkpt lat="42.51332" lon="2.9387">
        <ele>265</ele>
        <time>2026-05-14T10:06:24.000Z</time>
      </trkpt>
      <trkpt lat="42.51328" lon="2.9387">
        <ele>265</ele>
        <time>2026-05-14T10:06:25.000Z</time>
      </trkpt>
      <trkpt lat="42.51325" lon="2.9387">
        <ele>265</ele>
        <time>2026-05-14T10:06:26.000Z</time>
      </trkpt>
      <trkpt lat="42.51322" lon="2.9387">
        <ele>265</ele>
        <time>2026-05-14T10:06:27.000Z</time>
      </trkpt>
      <trkpt lat="42.5132" lon="2.9387">
        <ele>266</ele>
        <time>2026-05-14T10:06:28.000Z</time>
      </trkpt>
      <trkpt lat="42.51318" lon="2.9387">
        <ele>265</ele>
        <time>2026-05-14T10:06:29.000Z</time>
      </trkpt>
      <trkpt lat="42.51316" lon="2.9387">
        <ele>265</ele>
        <time>2026-05-14T10:06:30.000Z</time>
      </trkpt>
      <trkpt lat="42.51313" lon="2.93871">
        <ele>265</ele>
        <time>2026-05-14T10:06:31.000Z</time>
      </trkpt>
      <trkpt lat="42.5131" lon="2.93873">
        <ele>265</ele>
        <time>2026-05-14T10:06:32.000Z</time>
      </trkpt>
      <trkpt lat="42.51308" lon="2.93873">
        <ele>265</ele>
        <time>2026-05-14T10:06:33.000Z</time>
      </trkpt>
      <trkpt lat="42.51307" lon="2.93875">
        <ele>265</ele>
        <time>2026-05-14T10:06:34.000Z</time>
      </trkpt>
      <trkpt lat="42.51304" lon="2.93877">
        <ele>264</ele>
        <time>2026-05-14T10:06:35.000Z</time>
      </trkpt>
      <trkpt lat="42.51302" lon="2.9388">
        <ele>264</ele>
        <time>2026-05-14T10:06:36.000Z</time>
      </trkpt>
      <trkpt lat="42.51301" lon="2.93884">
        <ele>264</ele>
        <time>2026-05-14T10:06:37.000Z</time>
      </trkpt>
      <trkpt lat="42.51301" lon="2.93888">
        <ele>264</ele>
        <time>2026-05-14T10:06:38.000Z</time>
      </trkpt>
      <trkpt lat="42.51301" lon="2.93891">
        <ele>264</ele>
        <time>2026-05-14T10:06:39.000Z</time>
      </trkpt>
      <trkpt lat="42.51301" lon="2.93894">
        <ele>264</ele>
        <time>2026-05-14T10:06:40.000Z</time>
      </trkpt>
      <trkpt lat="42.51301" lon="2.93899">
        <ele>263</ele>
        <time>2026-05-14T10:06:41.000Z</time>
      </trkpt>
      <trkpt lat="42.51302" lon="2.93903">
        <ele>263</ele>
        <time>2026-05-14T10:06:42.000Z</time>
      </trkpt>
      <trkpt lat="42.51302" lon="2.93907">
        <ele>262</ele>
        <time>2026-05-14T10:06:43.000Z</time>
      </trkpt>
      <trkpt lat="42.51303" lon="2.9391">
        <ele>262</ele>
        <time>2026-05-14T10:06:44.000Z</time>
      </trkpt>
      <trkpt lat="42.51304" lon="2.93915">
        <ele>261</ele>
        <time>2026-05-14T10:06:45.000Z</time>
      </trkpt>
      <trkpt lat="42.51304" lon="2.93918">
        <ele>260</ele>
        <time>2026-05-14T10:06:46.000Z</time>
      </trkpt>
      <trkpt lat="42.51306" lon="2.93922">
        <ele>260</ele>
        <time>2026-05-14T10:06:47.000Z</time>
      </trkpt>
      <trkpt lat="42.51309" lon="2.93926">
        <ele>258</ele>
        <time>2026-05-14T10:06:48.000Z</time>
      </trkpt>
      <trkpt lat="42.51312" lon="2.93927">
        <ele>258</ele>
        <time>2026-05-14T10:06:49.000Z</time>
      </trkpt>
      <trkpt lat="42.51315" lon="2.93928">
        <ele>257</ele>
        <time>2026-05-14T10:06:50.000Z</time>
      </trkpt>
      <trkpt lat="42.51319" lon="2.93929">
        <ele>257</ele>
        <time>2026-05-14T10:06:51.000Z</time>
      </trkpt>
      <trkpt lat="42.51322" lon="2.93931">
        <ele>257</ele>
        <time>2026-05-14T10:06:52.000Z</time>
      </trkpt>
      <trkpt lat="42.51325" lon="2.93933">
        <ele>257</ele>
        <time>2026-05-14T10:06:53.000Z</time>
      </trkpt>
      <trkpt lat="42.51328" lon="2.93934">
        <ele>256</ele>
        <time>2026-05-14T10:06:54.000Z</time>
      </trkpt>
      <trkpt lat="42.51332" lon="2.93935">
        <ele>256</ele>
        <time>2026-05-14T10:06:55.000Z</time>
      </trkpt>
      <trkpt lat="42.51335" lon="2.93936">
        <ele>256</ele>
        <time>2026-05-14T10:06:56.000Z</time>
      </trkpt>
      <trkpt lat="42.51338" lon="2.93936">
        <ele>256</ele>
        <time>2026-05-14T10:06:57.000Z</time>
      </trkpt>
      <trkpt lat="42.51341" lon="2.93936">
        <ele>256</ele>
        <time>2026-05-14T10:06:58.000Z</time>
      </trkpt>
      <trkpt lat="42.51344" lon="2.93935">
        <ele>256</ele>
        <time>2026-05-14T10:06:59.000Z</time>
      </trkpt>
      <trkpt lat="42.51348" lon="2.93934">
        <ele>255</ele>
        <time>2026-05-14T10:07:00.000Z</time>
      </trkpt>
      <trkpt lat="42.51351" lon="2.93934">
        <ele>254</ele>
        <time>2026-05-14T10:07:01.000Z</time>
      </trkpt>
      <trkpt lat="42.51355" lon="2.93934">
        <ele>254</ele>
        <time>2026-05-14T10:07:02.000Z</time>
      </trkpt>
      <trkpt lat="42.51359" lon="2.93936">
        <ele>253</ele>
        <time>2026-05-14T10:07:03.000Z</time>
      </trkpt>
      <trkpt lat="42.51362" lon="2.93938">
        <ele>252</ele>
        <time>2026-05-14T10:07:04.000Z</time>
      </trkpt>
      <trkpt lat="42.51365" lon="2.93939">
        <ele>252</ele>
        <time>2026-05-14T10:07:05.000Z</time>
      </trkpt>
      <trkpt lat="42.51369" lon="2.93941">
        <ele>251</ele>
        <time>2026-05-14T10:07:06.000Z</time>
      </trkpt>
      <trkpt lat="42.51372" lon="2.93942">
        <ele>251</ele>
        <time>2026-05-14T10:07:07.000Z</time>
      </trkpt>
      <trkpt lat="42.51375" lon="2.93944">
        <ele>250</ele>
        <time>2026-05-14T10:07:08.000Z</time>
      </trkpt>
      <trkpt lat="42.51378" lon="2.93945">
        <ele>250</ele>
        <time>2026-05-14T10:07:09.000Z</time>
      </trkpt>
      <trkpt lat="42.51381" lon="2.93947">
        <ele>250</ele>
        <time>2026-05-14T10:07:10.000Z</time>
      </trkpt>
      <trkpt lat="42.51385" lon="2.93949">
        <ele>250</ele>
        <time>2026-05-14T10:07:11.000Z</time>
      </trkpt>
      <trkpt lat="42.51388" lon="2.9395">
        <ele>249</ele>
        <time>2026-05-14T10:07:12.000Z</time>
      </trkpt>
      <trkpt lat="42.51392" lon="2.93952">
        <ele>249</ele>
        <time>2026-05-14T10:07:13.000Z</time>
      </trkpt>
      <trkpt lat="42.51396" lon="2.93954">
        <ele>249</ele>
        <time>2026-05-14T10:07:14.000Z</time>
      </trkpt>
      <trkpt lat="42.51399" lon="2.93955">
        <ele>248</ele>
        <time>2026-05-14T10:07:15.000Z</time>
      </trkpt>
      <trkpt lat="42.51402" lon="2.93957">
        <ele>248</ele>
        <time>2026-05-14T10:07:16.000Z</time>
      </trkpt>
      <trkpt lat="42.51406" lon="2.93957">
        <ele>248</ele>
        <time>2026-05-14T10:07:17.000Z</time>
      </trkpt>
      <trkpt lat="42.5141" lon="2.93957">
        <ele>247</ele>
        <time>2026-05-14T10:07:18.000Z</time>
      </trkpt>
      <trkpt lat="42.51414" lon="2.93957">
        <ele>246</ele>
        <time>2026-05-14T10:07:19.000Z</time>
      </trkpt>
      <trkpt lat="42.51418" lon="2.93956">
        <ele>246</ele>
        <time>2026-05-14T10:07:20.000Z</time>
      </trkpt>
      <trkpt lat="42.51422" lon="2.93955">
        <ele>246</ele>
        <time>2026-05-14T10:07:21.000Z</time>
      </trkpt>
      <trkpt lat="42.51425" lon="2.93954">
        <ele>246</ele>
        <time>2026-05-14T10:07:22.000Z</time>
      </trkpt>
      <trkpt lat="42.51429" lon="2.93953">
        <ele>245</ele>
        <time>2026-05-14T10:07:23.000Z</time>
      </trkpt>
      <trkpt lat="42.51432" lon="2.93952">
        <ele>245</ele>
        <time>2026-05-14T10:07:24.000Z</time>
      </trkpt>
      <trkpt lat="42.51436" lon="2.93951">
        <ele>244</ele>
        <time>2026-05-14T10:07:25.000Z</time>
      </trkpt>
      <trkpt lat="42.51439" lon="2.9395">
        <ele>244</ele>
        <time>2026-05-14T10:07:26.000Z</time>
      </trkpt>
      <trkpt lat="42.51443" lon="2.9395">
        <ele>244</ele>
        <time>2026-05-14T10:07:27.000Z</time>
      </trkpt>
      <trkpt lat="42.51446" lon="2.9395">
        <ele>244</ele>
        <time>2026-05-14T10:07:28.000Z</time>
      </trkpt>
      <trkpt lat="42.5145" lon="2.93951">
        <ele>243</ele>
        <time>2026-05-14T10:07:29.000Z</time>
      </trkpt>
      <trkpt lat="42.51453" lon="2.93952">
        <ele>243</ele>
        <time>2026-05-14T10:07:30.000Z</time>
      </trkpt>
      <trkpt lat="42.51457" lon="2.93956">
        <ele>242</ele>
        <time>2026-05-14T10:07:31.000Z</time>
      </trkpt>
      <trkpt lat="42.5146" lon="2.93959">
        <ele>241</ele>
        <time>2026-05-14T10:07:32.000Z</time>
      </trkpt>
      <trkpt lat="42.51463" lon="2.93963">
        <ele>240</ele>
        <time>2026-05-14T10:07:33.000Z</time>
      </trkpt>
      <trkpt lat="42.51465" lon="2.93967">
        <ele>241</ele>
        <time>2026-05-14T10:07:34.000Z</time>
      </trkpt>
      <trkpt lat="42.51467" lon="2.93971">
        <ele>241</ele>
        <time>2026-05-14T10:07:35.000Z</time>
      </trkpt>
      <trkpt lat="42.51469" lon="2.93973">
        <ele>240</ele>
        <time>2026-05-14T10:07:36.000Z</time>
      </trkpt>
      <trkpt lat="42.51472" lon="2.93974">
        <ele>240</ele>
        <time>2026-05-14T10:07:37.000Z</time>
      </trkpt>
      <trkpt lat="42.51475" lon="2.93974">
        <ele>240</ele>
        <time>2026-05-14T10:07:38.000Z</time>
      </trkpt>
      <trkpt lat="42.51478" lon="2.93972">
        <ele>240</ele>
        <time>2026-05-14T10:07:39.000Z</time>
      </trkpt>
      <trkpt lat="42.5148" lon="2.93969">
        <ele>239</ele>
        <time>2026-05-14T10:07:40.000Z</time>
      </trkpt>
      <trkpt lat="42.51483" lon="2.93965">
        <ele>239</ele>
        <time>2026-05-14T10:07:41.000Z</time>
      </trkpt>
      <trkpt lat="42.51484" lon="2.9396">
        <ele>239</ele>
        <time>2026-05-14T10:07:42.000Z</time>
      </trkpt>
      <trkpt lat="42.51486" lon="2.93955">
        <ele>238</ele>
        <time>2026-05-14T10:07:43.000Z</time>
      </trkpt>
      <trkpt lat="42.51487" lon="2.9395">
        <ele>237</ele>
        <time>2026-05-14T10:07:44.000Z</time>
      </trkpt>
      <trkpt lat="42.51489" lon="2.93946">
        <ele>237</ele>
        <time>2026-05-14T10:07:45.000Z</time>
      </trkpt>
      <trkpt lat="42.51491" lon="2.93941">
        <ele>237</ele>
        <time>2026-05-14T10:07:46.000Z</time>
      </trkpt>
      <trkpt lat="42.51493" lon="2.93937">
        <ele>237</ele>
        <time>2026-05-14T10:07:47.000Z</time>
      </trkpt>
      <trkpt lat="42.51494" lon="2.93933">
        <ele>237</ele>
        <time>2026-05-14T10:07:48.000Z</time>
      </trkpt>
      <trkpt lat="42.51496" lon="2.93929">
        <ele>236</ele>
        <time>2026-05-14T10:07:49.000Z</time>
      </trkpt>
      <trkpt lat="42.51498" lon="2.93924">
        <ele>235</ele>
        <time>2026-05-14T10:07:50.000Z</time>
      </trkpt>
      <trkpt lat="42.515" lon="2.9392">
        <ele>235</ele>
        <time>2026-05-14T10:07:51.000Z</time>
      </trkpt>
      <trkpt lat="42.51501" lon="2.93916">
        <ele>235</ele>
        <time>2026-05-14T10:07:52.000Z</time>
      </trkpt>
      <trkpt lat="42.51503" lon="2.93912">
        <ele>235</ele>
        <time>2026-05-14T10:07:53.000Z</time>
      </trkpt>
      <trkpt lat="42.51505" lon="2.93908">
        <ele>234</ele>
        <time>2026-05-14T10:07:54.000Z</time>
      </trkpt>
      <trkpt lat="42.51506" lon="2.93904">
        <ele>234</ele>
        <time>2026-05-14T10:07:55.000Z</time>
      </trkpt>
      <trkpt lat="42.51507" lon="2.93901">
        <ele>234</ele>
        <time>2026-05-14T10:07:56.000Z</time>
      </trkpt>
      <trkpt lat="42.51508" lon="2.93898">
        <ele>234</ele>
        <time>2026-05-14T10:07:57.000Z</time>
      </trkpt>
      <trkpt lat="42.5151" lon="2.93896">
        <ele>233</ele>
        <time>2026-05-14T10:07:58.000Z</time>
      </trkpt>
      <trkpt lat="42.51511" lon="2.93893">
        <ele>233</ele>
        <time>2026-05-14T10:07:59.000Z</time>
      </trkpt>
      <trkpt lat="42.51511" lon="2.93889">
        <ele>233</ele>
        <time>2026-05-14T10:08:00.000Z</time>
      </trkpt>
      <trkpt lat="42.51512" lon="2.93885">
        <ele>232</ele>
        <time>2026-05-14T10:08:01.000Z</time>
      </trkpt>
      <trkpt lat="42.51512" lon="2.93881">
        <ele>232</ele>
        <time>2026-05-14T10:08:02.000Z</time>
      </trkpt>
      <trkpt lat="42.51513" lon="2.93876">
        <ele>232</ele>
        <time>2026-05-14T10:08:03.000Z</time>
      </trkpt>
      <trkpt lat="42.51513" lon="2.93871">
        <ele>231</ele>
        <time>2026-05-14T10:08:04.000Z</time>
      </trkpt>
      <trkpt lat="42.51513" lon="2.93867">
        <ele>231</ele>
        <time>2026-05-14T10:08:05.000Z</time>
      </trkpt>
      <trkpt lat="42.51513" lon="2.93862">
        <ele>231</ele>
        <time>2026-05-14T10:08:06.000Z</time>
      </trkpt>
      <trkpt lat="42.51513" lon="2.93858">
        <ele>231</ele>
        <time>2026-05-14T10:08:07.000Z</time>
      </trkpt>
      <trkpt lat="42.51513" lon="2.93854">
        <ele>231</ele>
        <time>2026-05-14T10:08:08.000Z</time>
      </trkpt>
      <trkpt lat="42.51512" lon="2.9385">
        <ele>231</ele>
        <time>2026-05-14T10:08:09.000Z</time>
      </trkpt>
      <trkpt lat="42.51512" lon="2.93846">
        <ele>230</ele>
        <time>2026-05-14T10:08:10.000Z</time>
      </trkpt>
      <trkpt lat="42.51512" lon="2.93842">
        <ele>230</ele>
        <time>2026-05-14T10:08:11.000Z</time>
      </trkpt>
      <trkpt lat="42.51511" lon="2.93838">
        <ele>230</ele>
        <time>2026-05-14T10:08:12.000Z</time>
      </trkpt>
      <trkpt lat="42.5151" lon="2.93834">
        <ele>229</ele>
        <time>2026-05-14T10:08:13.000Z</time>
      </trkpt>
      <trkpt lat="42.51509" lon="2.9383">
        <ele>229</ele>
        <time>2026-05-14T10:08:14.000Z</time>
      </trkpt>
      <trkpt lat="42.51508" lon="2.93826">
        <ele>229</ele>
        <time>2026-05-14T10:08:15.000Z</time>
      </trkpt>
      <trkpt lat="42.51506" lon="2.93822">
        <ele>228</ele>
        <time>2026-05-14T10:08:16.000Z</time>
      </trkpt>
      <trkpt lat="42.51506" lon="2.93818">
        <ele>228</ele>
        <time>2026-05-14T10:08:17.000Z</time>
      </trkpt>
      <trkpt lat="42.51507" lon="2.93814">
        <ele>228</ele>
        <time>2026-05-14T10:08:18.000Z</time>
      </trkpt>
      <trkpt lat="42.51508" lon="2.93813">
        <ele>228</ele>
        <time>2026-05-14T10:08:19.000Z</time>
      </trkpt>
      <trkpt lat="42.5151" lon="2.93813">
        <ele>227</ele>
        <time>2026-05-14T10:08:20.000Z</time>
      </trkpt>
      <trkpt lat="42.51512" lon="2.93814">
        <ele>227</ele>
        <time>2026-05-14T10:08:21.000Z</time>
      </trkpt>
      <trkpt lat="42.51515" lon="2.93817">
        <ele>227</ele>
        <time>2026-05-14T10:08:22.000Z</time>
      </trkpt>
      <trkpt lat="42.51517" lon="2.93821">
        <ele>226</ele>
        <time>2026-05-14T10:08:23.000Z</time>
      </trkpt>
      <trkpt lat="42.51518" lon="2.93824">
        <ele>226</ele>
        <time>2026-05-14T10:08:24.000Z</time>
      </trkpt>
      <trkpt lat="42.5152" lon="2.93828">
        <ele>227</ele>
        <time>2026-05-14T10:08:25.000Z</time>
      </trkpt>
      <trkpt lat="42.5152" lon="2.93832">
        <ele>226</ele>
        <time>2026-05-14T10:08:26.000Z</time>
      </trkpt>
      <trkpt lat="42.51521" lon="2.93837">
        <ele>226</ele>
        <time>2026-05-14T10:08:27.000Z</time>
      </trkpt>
      <trkpt lat="42.51523" lon="2.9384">
        <ele>227</ele>
        <time>2026-05-14T10:08:28.000Z</time>
      </trkpt>
      <trkpt lat="42.51523" lon="2.93843">
        <ele>227</ele>
        <time>2026-05-14T10:08:29.000Z</time>
      </trkpt>
      <trkpt lat="42.51524" lon="2.93846">
        <ele>227</ele>
        <time>2026-05-14T10:08:30.000Z</time>
      </trkpt>
      <trkpt lat="42.51525" lon="2.93849">
        <ele>227</ele>
        <time>2026-05-14T10:08:31.000Z</time>
      </trkpt>
      <trkpt lat="42.51526" lon="2.93853">
        <ele>227</ele>
        <time>2026-05-14T10:08:32.000Z</time>
      </trkpt>
      <trkpt lat="42.51526" lon="2.93857">
        <ele>227</ele>
        <time>2026-05-14T10:08:33.000Z</time>
      </trkpt>
      <trkpt lat="42.51526" lon="2.9386">
        <ele>226</ele>
        <time>2026-05-14T10:08:34.000Z</time>
      </trkpt>
      <trkpt lat="42.51527" lon="2.93864">
        <ele>226</ele>
        <time>2026-05-14T10:08:35.000Z</time>
      </trkpt>
      <trkpt lat="42.51528" lon="2.93868">
        <ele>226</ele>
        <time>2026-05-14T10:08:36.000Z</time>
      </trkpt>
      <trkpt lat="42.51529" lon="2.93872">
        <ele>226</ele>
        <time>2026-05-14T10:08:37.000Z</time>
      </trkpt>
      <trkpt lat="42.5153" lon="2.93877">
        <ele>226</ele>
        <time>2026-05-14T10:08:38.000Z</time>
      </trkpt>
      <trkpt lat="42.5153" lon="2.93881">
        <ele>225</ele>
        <time>2026-05-14T10:08:39.000Z</time>
      </trkpt>
      <trkpt lat="42.51531" lon="2.93884">
        <ele>225</ele>
        <time>2026-05-14T10:08:40.000Z</time>
      </trkpt>
      <trkpt lat="42.51531" lon="2.93888">
        <ele>224</ele>
        <time>2026-05-14T10:08:41.000Z</time>
      </trkpt>
      <trkpt lat="42.51532" lon="2.93891">
        <ele>224</ele>
        <time>2026-05-14T10:08:42.000Z</time>
      </trkpt>
      <trkpt lat="42.51533" lon="2.93894">
        <ele>224</ele>
        <time>2026-05-14T10:08:43.000Z</time>
      </trkpt>
      <trkpt lat="42.51533" lon="2.93897">
        <ele>224</ele>
        <time>2026-05-14T10:08:44.000Z</time>
      </trkpt>
      <trkpt lat="42.51534" lon="2.93899">
        <ele>224</ele>
        <time>2026-05-14T10:08:45.000Z</time>
      </trkpt>
      <trkpt lat="42.51535" lon="2.93902">
        <ele>223</ele>
        <time>2026-05-14T10:08:46.000Z</time>
      </trkpt>
      <trkpt lat="42.51536" lon="2.93906">
        <ele>223</ele>
        <time>2026-05-14T10:08:47.000Z</time>
      </trkpt>
      <trkpt lat="42.51537" lon="2.93909">
        <ele>223</ele>
        <time>2026-05-14T10:08:48.000Z</time>
      </trkpt>
      <trkpt lat="42.51539" lon="2.93913">
        <ele>223</ele>
        <time>2026-05-14T10:08:49.000Z</time>
      </trkpt>
      <trkpt lat="42.51542" lon="2.93916">
        <ele>222</ele>
        <time>2026-05-14T10:08:50.000Z</time>
      </trkpt>
      <trkpt lat="42.51545" lon="2.93919">
        <ele>222</ele>
        <time>2026-05-14T10:08:51.000Z</time>
      </trkpt>
      <trkpt lat="42.51549" lon="2.93921">
        <ele>222</ele>
        <time>2026-05-14T10:08:52.000Z</time>
      </trkpt>
      <trkpt lat="42.51552" lon="2.93923">
        <ele>222</ele>
        <time>2026-05-14T10:08:53.000Z</time>
      </trkpt>
      <trkpt lat="42.51555" lon="2.93925">
        <ele>222</ele>
        <time>2026-05-14T10:08:54.000Z</time>
      </trkpt>
      <trkpt lat="42.51559" lon="2.93927">
        <ele>222</ele>
        <time>2026-05-14T10:08:55.000Z</time>
      </trkpt>
      <trkpt lat="42.51563" lon="2.93929">
        <ele>222</ele>
        <time>2026-05-14T10:08:56.000Z</time>
      </trkpt>
      <trkpt lat="42.51566" lon="2.93931">
        <ele>222</ele>
        <time>2026-05-14T10:08:57.000Z</time>
      </trkpt>
      <trkpt lat="42.51569" lon="2.93932">
        <ele>222</ele>
        <time>2026-05-14T10:08:58.000Z</time>
      </trkpt>
      <trkpt lat="42.51572" lon="2.93934">
        <ele>222</ele>
        <time>2026-05-14T10:08:59.000Z</time>
      </trkpt>
      <trkpt lat="42.51575" lon="2.93935">
        <ele>221</ele>
        <time>2026-05-14T10:09:00.000Z</time>
      </trkpt>
      <trkpt lat="42.51578" lon="2.93935">
        <ele>221</ele>
        <time>2026-05-14T10:09:01.000Z</time>
      </trkpt>
      <trkpt lat="42.51581" lon="2.93936">
        <ele>221</ele>
        <time>2026-05-14T10:09:02.000Z</time>
      </trkpt>
      <trkpt lat="42.51584" lon="2.93938">
        <ele>221</ele>
        <time>2026-05-14T10:09:03.000Z</time>
      </trkpt>
      <trkpt lat="42.51587" lon="2.93939">
        <ele>220</ele>
        <time>2026-05-14T10:09:04.000Z</time>
      </trkpt>
      <trkpt lat="42.5159" lon="2.93941">
        <ele>220</ele>
        <time>2026-05-14T10:09:05.000Z</time>
      </trkpt>
      <trkpt lat="42.51594" lon="2.93943">
        <ele>220</ele>
        <time>2026-05-14T10:09:06.000Z</time>
      </trkpt>
      <trkpt lat="42.51597" lon="2.93946">
        <ele>220</ele>
        <time>2026-05-14T10:09:07.000Z</time>
      </trkpt>
      <trkpt lat="42.51601" lon="2.9395">
        <ele>220</ele>
        <time>2026-05-14T10:09:08.000Z</time>
      </trkpt>
      <trkpt lat="42.51604" lon="2.93952">
        <ele>220</ele>
        <time>2026-05-14T10:09:09.000Z</time>
      </trkpt>
      <trkpt lat="42.51607" lon="2.93954">
        <ele>220</ele>
        <time>2026-05-14T10:09:10.000Z</time>
      </trkpt>
      <trkpt lat="42.5161" lon="2.93956">
        <ele>219</ele>
        <time>2026-05-14T10:09:11.000Z</time>
      </trkpt>
      <trkpt lat="42.51614" lon="2.93957">
        <ele>218</ele>
        <time>2026-05-14T10:09:12.000Z</time>
      </trkpt>
      <trkpt lat="42.51617" lon="2.93959">
        <ele>217</ele>
        <time>2026-05-14T10:09:13.000Z</time>
      </trkpt>
      <trkpt lat="42.5162" lon="2.93961">
        <ele>217</ele>
        <time>2026-05-14T10:09:14.000Z</time>
      </trkpt>
      <trkpt lat="42.51623" lon="2.93963">
        <ele>217</ele>
        <time>2026-05-14T10:09:15.000Z</time>
      </trkpt>
      <trkpt lat="42.51625" lon="2.93965">
        <ele>217</ele>
        <time>2026-05-14T10:09:16.000Z</time>
      </trkpt>
      <trkpt lat="42.51628" lon="2.93966">
        <ele>216</ele>
        <time>2026-05-14T10:09:17.000Z</time>
      </trkpt>
      <trkpt lat="42.5163" lon="2.93966">
        <ele>216</ele>
        <time>2026-05-14T10:09:18.000Z</time>
      </trkpt>
      <trkpt lat="42.51632" lon="2.93968">
        <ele>216</ele>
        <time>2026-05-14T10:09:19.000Z</time>
      </trkpt>
      <trkpt lat="42.51634" lon="2.93969">
        <ele>216</ele>
        <time>2026-05-14T10:09:20.000Z</time>
      </trkpt>
      <trkpt lat="42.51637" lon="2.93969">
        <ele>216</ele>
        <time>2026-05-14T10:09:21.000Z</time>
      </trkpt>
      <trkpt lat="42.51639" lon="2.9397">
        <ele>216</ele>
        <time>2026-05-14T10:09:22.000Z</time>
      </trkpt>
      <trkpt lat="42.51642" lon="2.93971">
        <ele>216</ele>
        <time>2026-05-14T10:09:23.000Z</time>
      </trkpt>
      <trkpt lat="42.51644" lon="2.93972">
        <ele>216</ele>
        <time>2026-05-14T10:09:24.000Z</time>
      </trkpt>
      <trkpt lat="42.51646" lon="2.93973">
        <ele>215</ele>
        <time>2026-05-14T10:09:25.000Z</time>
      </trkpt>
      <trkpt lat="42.51649" lon="2.93974">
        <ele>216</ele>
        <time>2026-05-14T10:09:26.000Z</time>
      </trkpt>
      <trkpt lat="42.51651" lon="2.93974">
        <ele>215</ele>
        <time>2026-05-14T10:09:27.000Z</time>
      </trkpt>
      <trkpt lat="42.51654" lon="2.93976">
        <ele>215</ele>
        <time>2026-05-14T10:09:28.000Z</time>
      </trkpt>
      <trkpt lat="42.51657" lon="2.93978">
        <ele>215</ele>
        <time>2026-05-14T10:09:29.000Z</time>
      </trkpt>
      <trkpt lat="42.5166" lon="2.93979">
        <ele>214</ele>
        <time>2026-05-14T10:09:30.000Z</time>
      </trkpt>
      <trkpt lat="42.51662" lon="2.9398">
        <ele>214</ele>
        <time>2026-05-14T10:09:31.000Z</time>
      </trkpt>
      <trkpt lat="42.51664" lon="2.93982">
        <ele>214</ele>
        <time>2026-05-14T10:09:32.000Z</time>
      </trkpt>
      <trkpt lat="42.51666" lon="2.93983">
        <ele>214</ele>
        <time>2026-05-14T10:09:33.000Z</time>
      </trkpt>
      <trkpt lat="42.51669" lon="2.93985">
        <ele>215</ele>
        <time>2026-05-14T10:09:34.000Z</time>
      </trkpt>
      <trkpt lat="42.51672" lon="2.93986">
        <ele>215</ele>
        <time>2026-05-14T10:09:35.000Z</time>
      </trkpt>
      <trkpt lat="42.51675" lon="2.93987">
        <ele>215</ele>
        <time>2026-05-14T10:09:36.000Z</time>
      </trkpt>
      <trkpt lat="42.51677" lon="2.93989">
        <ele>214</ele>
        <time>2026-05-14T10:09:37.000Z</time>
      </trkpt>
      <trkpt lat="42.5168" lon="2.93991">
        <ele>214</ele>
        <time>2026-05-14T10:09:38.000Z</time>
      </trkpt>
      <trkpt lat="42.51682" lon="2.93993">
        <ele>214</ele>
        <time>2026-05-14T10:09:39.000Z</time>
      </trkpt>
      <trkpt lat="42.51684" lon="2.93995">
        <ele>214</ele>
        <time>2026-05-14T10:09:40.000Z</time>
      </trkpt>
      <trkpt lat="42.51687" lon="2.93997">
        <ele>214</ele>
        <time>2026-05-14T10:09:41.000Z</time>
      </trkpt>
      <trkpt lat="42.51689" lon="2.93998">
        <ele>214</ele>
        <time>2026-05-14T10:09:42.000Z</time>
      </trkpt>
      <trkpt lat="42.51692" lon="2.94">
        <ele>214</ele>
        <time>2026-05-14T10:09:43.000Z</time>
      </trkpt>
      <trkpt lat="42.51695" lon="2.94002">
        <ele>213</ele>
        <time>2026-05-14T10:09:44.000Z</time>
      </trkpt>
      <trkpt lat="42.51698" lon="2.94003">
        <ele>213</ele>
        <time>2026-05-14T10:09:45.000Z</time>
      </trkpt>
      <trkpt lat="42.51702" lon="2.94004">
        <ele>213</ele>
        <time>2026-05-14T10:09:46.000Z</time>
      </trkpt>
      <trkpt lat="42.51705" lon="2.94004">
        <ele>212</ele>
        <time>2026-05-14T10:09:47.000Z</time>
      </trkpt>
      <trkpt lat="42.51709" lon="2.94002">
        <ele>212</ele>
        <time>2026-05-14T10:09:48.000Z</time>
      </trkpt>
      <trkpt lat="42.51713" lon="2.94001">
        <ele>213</ele>
        <time>2026-05-14T10:09:49.000Z</time>
      </trkpt>
      <trkpt lat="42.51716" lon="2.93999">
        <ele>212</ele>
        <time>2026-05-14T10:09:50.000Z</time>
      </trkpt>
      <trkpt lat="42.51718" lon="2.93997">
        <ele>211</ele>
        <time>2026-05-14T10:09:51.000Z</time>
      </trkpt>
      <trkpt lat="42.51721" lon="2.93995">
        <ele>211</ele>
        <time>2026-05-14T10:09:52.000Z</time>
      </trkpt>
      <trkpt lat="42.51724" lon="2.93992">
        <ele>210</ele>
        <time>2026-05-14T10:09:53.000Z</time>
      </trkpt>
      <trkpt lat="42.51727" lon="2.9399">
        <ele>209</ele>
        <time>2026-05-14T10:09:54.000Z</time>
      </trkpt>
      <trkpt lat="42.5173" lon="2.93987">
        <ele>209</ele>
        <time>2026-05-14T10:09:55.000Z</time>
      </trkpt>
      <trkpt lat="42.51733" lon="2.93985">
        <ele>208</ele>
        <time>2026-05-14T10:09:56.000Z</time>
      </trkpt>
      <trkpt lat="42.51736" lon="2.93983">
        <ele>208</ele>
        <time>2026-05-14T10:09:57.000Z</time>
      </trkpt>
      <trkpt lat="42.51739" lon="2.93982">
        <ele>208</ele>
        <time>2026-05-14T10:09:58.000Z</time>
      </trkpt>
      <trkpt lat="42.51743" lon="2.93982">
        <ele>207</ele>
        <time>2026-05-14T10:09:59.000Z</time>
      </trkpt>
      <trkpt lat="42.51746" lon="2.93981">
        <ele>206</ele>
        <time>2026-05-14T10:10:00.000Z</time>
      </trkpt>
      <trkpt lat="42.51749" lon="2.93981">
        <ele>206</ele>
        <time>2026-05-14T10:10:01.000Z</time>
      </trkpt>
      <trkpt lat="42.51753" lon="2.93981">
        <ele>207</ele>
        <time>2026-05-14T10:10:02.000Z</time>
      </trkpt>
      <trkpt lat="42.51757" lon="2.93982">
        <ele>207</ele>
        <time>2026-05-14T10:10:03.000Z</time>
      </trkpt>
      <trkpt lat="42.5176" lon="2.93983">
        <ele>207</ele>
        <time>2026-05-14T10:10:04.000Z</time>
      </trkpt>
      <trkpt lat="42.51763" lon="2.93984">
        <ele>207</ele>
        <time>2026-05-14T10:10:05.000Z</time>
      </trkpt>
      <trkpt lat="42.51765" lon="2.93985">
        <ele>206</ele>
        <time>2026-05-14T10:10:06.000Z</time>
      </trkpt>
      <trkpt lat="42.51769" lon="2.93986">
        <ele>206</ele>
        <time>2026-05-14T10:10:07.000Z</time>
      </trkpt>
      <trkpt lat="42.51772" lon="2.93988">
        <ele>206</ele>
        <time>2026-05-14T10:10:08.000Z</time>
      </trkpt>
      <trkpt lat="42.51775" lon="2.93989">
        <ele>205</ele>
        <time>2026-05-14T10:10:09.000Z</time>
      </trkpt>
      <trkpt lat="42.51777" lon="2.9399">
        <ele>204</ele>
        <time>2026-05-14T10:10:10.000Z</time>
      </trkpt>
      <trkpt lat="42.51781" lon="2.93991">
        <ele>203</ele>
        <time>2026-05-14T10:10:11.000Z</time>
      </trkpt>
      <trkpt lat="42.51784" lon="2.93991">
        <ele>202</ele>
        <time>2026-05-14T10:10:12.000Z</time>
      </trkpt>
      <trkpt lat="42.51786" lon="2.93992">
        <ele>201</ele>
        <time>2026-05-14T10:10:13.000Z</time>
      </trkpt>
      <trkpt lat="42.51789" lon="2.93994">
        <ele>201</ele>
        <time>2026-05-14T10:10:14.000Z</time>
      </trkpt>
      <trkpt lat="42.51792" lon="2.93994">
        <ele>201</ele>
        <time>2026-05-14T10:10:15.000Z</time>
      </trkpt>
      <trkpt lat="42.51795" lon="2.93996">
        <ele>200</ele>
        <time>2026-05-14T10:10:16.000Z</time>
      </trkpt>
      <trkpt lat="42.51798" lon="2.93997">
        <ele>200</ele>
        <time>2026-05-14T10:10:17.000Z</time>
      </trkpt>
      <trkpt lat="42.51802" lon="2.93998">
        <ele>200</ele>
        <time>2026-05-14T10:10:18.000Z</time>
      </trkpt>
      <trkpt lat="42.51806" lon="2.94">
        <ele>200</ele>
        <time>2026-05-14T10:10:19.000Z</time>
      </trkpt>
      <trkpt lat="42.51811" lon="2.94001">
        <ele>199</ele>
        <time>2026-05-14T10:10:20.000Z</time>
      </trkpt>
      <trkpt lat="42.51815" lon="2.94002">
        <ele>199</ele>
        <time>2026-05-14T10:10:21.000Z</time>
      </trkpt>
      <trkpt lat="42.51818" lon="2.94003">
        <ele>199</ele>
        <time>2026-05-14T10:10:22.000Z</time>
      </trkpt>
      <trkpt lat="42.51822" lon="2.94003">
        <ele>199</ele>
        <time>2026-05-14T10:10:23.000Z</time>
      </trkpt>
      <trkpt lat="42.51825" lon="2.94003">
        <ele>198</ele>
        <time>2026-05-14T10:10:24.000Z</time>
      </trkpt>
      <trkpt lat="42.51828" lon="2.94004">
        <ele>198</ele>
        <time>2026-05-14T10:10:25.000Z</time>
      </trkpt>
      <trkpt lat="42.51832" lon="2.94005">
        <ele>198</ele>
        <time>2026-05-14T10:10:26.000Z</time>
      </trkpt>
      <trkpt lat="42.51836" lon="2.94006">
        <ele>198</ele>
        <time>2026-05-14T10:10:27.000Z</time>
      </trkpt>
      <trkpt lat="42.51839" lon="2.94006">
        <ele>198</ele>
        <time>2026-05-14T10:10:28.000Z</time>
      </trkpt>
      <trkpt lat="42.51843" lon="2.94008">
        <ele>198</ele>
        <time>2026-05-14T10:10:29.000Z</time>
      </trkpt>
      <trkpt lat="42.51847" lon="2.94008">
        <ele>198</ele>
        <time>2026-05-14T10:10:30.000Z</time>
      </trkpt>
      <trkpt lat="42.51851" lon="2.94009">
        <ele>197</ele>
        <time>2026-05-14T10:10:31.000Z</time>
      </trkpt>
      <trkpt lat="42.51855" lon="2.94011">
        <ele>196</ele>
        <time>2026-05-14T10:10:32.000Z</time>
      </trkpt>
      <trkpt lat="42.51859" lon="2.94011">
        <ele>196</ele>
        <time>2026-05-14T10:10:33.000Z</time>
      </trkpt>
      <trkpt lat="42.51863" lon="2.94012">
        <ele>197</ele>
        <time>2026-05-14T10:10:34.000Z</time>
      </trkpt>
      <trkpt lat="42.51867" lon="2.94012">
        <ele>197</ele>
        <time>2026-05-14T10:10:35.000Z</time>
      </trkpt>
      <trkpt lat="42.51871" lon="2.9401">
        <ele>196</ele>
        <time>2026-05-14T10:10:36.000Z</time>
      </trkpt>
      <trkpt lat="42.51876" lon="2.94009">
        <ele>195</ele>
        <time>2026-05-14T10:10:37.000Z</time>
      </trkpt>
      <trkpt lat="42.51881" lon="2.94009">
        <ele>194</ele>
        <time>2026-05-14T10:10:38.000Z</time>
      </trkpt>
      <trkpt lat="42.51884" lon="2.94009">
        <ele>194</ele>
        <time>2026-05-14T10:10:39.000Z</time>
      </trkpt>
      <trkpt lat="42.51889" lon="2.94009">
        <ele>193</ele>
        <time>2026-05-14T10:10:40.000Z</time>
      </trkpt>
      <trkpt lat="42.51893" lon="2.94009">
        <ele>193</ele>
        <time>2026-05-14T10:10:41.000Z</time>
      </trkpt>
      <trkpt lat="42.51897" lon="2.94009">
        <ele>193</ele>
        <time>2026-05-14T10:10:42.000Z</time>
      </trkpt>
      <trkpt lat="42.51901" lon="2.94009">
        <ele>193</ele>
        <time>2026-05-14T10:10:43.000Z</time>
      </trkpt>
      <trkpt lat="42.51905" lon="2.9401">
        <ele>193</ele>
        <time>2026-05-14T10:10:44.000Z</time>
      </trkpt>
      <trkpt lat="42.51908" lon="2.9401">
        <ele>193</ele>
        <time>2026-05-14T10:10:45.000Z</time>
      </trkpt>
      <trkpt lat="42.51912" lon="2.94011">
        <ele>192</ele>
        <time>2026-05-14T10:10:46.000Z</time>
      </trkpt>
      <trkpt lat="42.51917" lon="2.94013">
        <ele>191</ele>
        <time>2026-05-14T10:10:47.000Z</time>
      </trkpt>
      <trkpt lat="42.5192" lon="2.94014">
        <ele>192</ele>
        <time>2026-05-14T10:10:48.000Z</time>
      </trkpt>
      <trkpt lat="42.51925" lon="2.94016">
        <ele>191</ele>
        <time>2026-05-14T10:10:49.000Z</time>
      </trkpt>
      <trkpt lat="42.51929" lon="2.94018">
        <ele>191</ele>
        <time>2026-05-14T10:10:50.000Z</time>
      </trkpt>
      <trkpt lat="42.51933" lon="2.9402">
        <ele>191</ele>
        <time>2026-05-14T10:10:51.000Z</time>
      </trkpt>
      <trkpt lat="42.51938" lon="2.94021">
        <ele>190</ele>
        <time>2026-05-14T10:10:52.000Z</time>
      </trkpt>
      <trkpt lat="42.51942" lon="2.94022">
        <ele>190</ele>
        <time>2026-05-14T10:10:53.000Z</time>
      </trkpt>
      <trkpt lat="42.51946" lon="2.94023">
        <ele>189</ele>
        <time>2026-05-14T10:10:54.000Z</time>
      </trkpt>
      <trkpt lat="42.51949" lon="2.94024">
        <ele>189</ele>
        <time>2026-05-14T10:10:55.000Z</time>
      </trkpt>
      <trkpt lat="42.51953" lon="2.94025">
        <ele>188</ele>
        <time>2026-05-14T10:10:56.000Z</time>
      </trkpt>
      <trkpt lat="42.51958" lon="2.94027">
        <ele>187</ele>
        <time>2026-05-14T10:10:57.000Z</time>
      </trkpt>
      <trkpt lat="42.51962" lon="2.94027">
        <ele>186</ele>
        <time>2026-05-14T10:10:58.000Z</time>
      </trkpt>
      <trkpt lat="42.51966" lon="2.94028">
        <ele>186</ele>
        <time>2026-05-14T10:10:59.000Z</time>
      </trkpt>
      <trkpt lat="42.5197" lon="2.94028">
        <ele>185</ele>
        <time>2026-05-14T10:11:00.000Z</time>
      </trkpt>
      <trkpt lat="42.51974" lon="2.94029">
        <ele>185</ele>
        <time>2026-05-14T10:11:01.000Z</time>
      </trkpt>
      <trkpt lat="42.51978" lon="2.94029">
        <ele>184</ele>
        <time>2026-05-14T10:11:02.000Z</time>
      </trkpt>
      <trkpt lat="42.51982" lon="2.9403">
        <ele>183</ele>
        <time>2026-05-14T10:11:03.000Z</time>
      </trkpt>
      <trkpt lat="42.51986" lon="2.9403">
        <ele>183</ele>
        <time>2026-05-14T10:11:04.000Z</time>
      </trkpt>
      <trkpt lat="42.5199" lon="2.94031">
        <ele>183</ele>
        <time>2026-05-14T10:11:05.000Z</time>
      </trkpt>
      <trkpt lat="42.51995" lon="2.94031">
        <ele>183</ele>
        <time>2026-05-14T10:11:06.000Z</time>
      </trkpt>
      <trkpt lat="42.51999" lon="2.94031">
        <ele>182</ele>
        <time>2026-05-14T10:11:07.000Z</time>
      </trkpt>
      <trkpt lat="42.52003" lon="2.94032">
        <ele>182</ele>
        <time>2026-05-14T10:11:08.000Z</time>
      </trkpt>
      <trkpt lat="42.52007" lon="2.94032">
        <ele>181</ele>
        <time>2026-05-14T10:11:09.000Z</time>
      </trkpt>
      <trkpt lat="42.5201" lon="2.94032">
        <ele>181</ele>
        <time>2026-05-14T10:11:10.000Z</time>
      </trkpt>
      <trkpt lat="42.52014" lon="2.94034">
        <ele>181</ele>
        <time>2026-05-14T10:11:11.000Z</time>
      </trkpt>
      <trkpt lat="42.52018" lon="2.94034">
        <ele>181</ele>
        <time>2026-05-14T10:11:12.000Z</time>
      </trkpt>
      <trkpt lat="42.52022" lon="2.94034">
        <ele>181</ele>
        <time>2026-05-14T10:11:13.000Z</time>
      </trkpt>
      <trkpt lat="42.52025" lon="2.94035">
        <ele>181</ele>
        <time>2026-05-14T10:11:14.000Z</time>
      </trkpt>
      <trkpt lat="42.52028" lon="2.94035">
        <ele>181</ele>
        <time>2026-05-14T10:11:15.000Z</time>
      </trkpt>
      <trkpt lat="42.52032" lon="2.94035">
        <ele>181</ele>
        <time>2026-05-14T10:11:16.000Z</time>
      </trkpt>
      <trkpt lat="42.52035" lon="2.94035">
        <ele>181</ele>
        <time>2026-05-14T10:11:17.000Z</time>
      </trkpt>
      <trkpt lat="42.52038" lon="2.94036">
        <ele>181</ele>
        <time>2026-05-14T10:11:18.000Z</time>
      </trkpt>
      <trkpt lat="42.52041" lon="2.94037">
        <ele>181</ele>
        <time>2026-05-14T10:11:19.000Z</time>
      </trkpt>
      <trkpt lat="42.52045" lon="2.94037">
        <ele>181</ele>
        <time>2026-05-14T10:11:20.000Z</time>
      </trkpt>
      <trkpt lat="42.52049" lon="2.94037">
        <ele>181</ele>
        <time>2026-05-14T10:11:21.000Z</time>
      </trkpt>
      <trkpt lat="42.52053" lon="2.94039">
        <ele>180</ele>
        <time>2026-05-14T10:11:22.000Z</time>
      </trkpt>
      <trkpt lat="42.52057" lon="2.9404">
        <ele>180</ele>
        <time>2026-05-14T10:11:23.000Z</time>
      </trkpt>
      <trkpt lat="42.52061" lon="2.94041">
        <ele>179</ele>
        <time>2026-05-14T10:11:24.000Z</time>
      </trkpt>
      <trkpt lat="42.52065" lon="2.94041">
        <ele>179</ele>
        <time>2026-05-14T10:11:25.000Z</time>
      </trkpt>
      <trkpt lat="42.52069" lon="2.94043">
        <ele>179</ele>
        <time>2026-05-14T10:11:26.000Z</time>
      </trkpt>
      <trkpt lat="42.52073" lon="2.94043">
        <ele>178</ele>
        <time>2026-05-14T10:11:27.000Z</time>
      </trkpt>
      <trkpt lat="42.52078" lon="2.94044">
        <ele>178</ele>
        <time>2026-05-14T10:11:28.000Z</time>
      </trkpt>
      <trkpt lat="42.52083" lon="2.94045">
        <ele>177</ele>
        <time>2026-05-14T10:11:29.000Z</time>
      </trkpt>
      <trkpt lat="42.52087" lon="2.94045">
        <ele>177</ele>
        <time>2026-05-14T10:11:30.000Z</time>
      </trkpt>
      <trkpt lat="42.52092" lon="2.94047">
        <ele>176</ele>
        <time>2026-05-14T10:11:31.000Z</time>
      </trkpt>
      <trkpt lat="42.52096" lon="2.94048">
        <ele>175</ele>
        <time>2026-05-14T10:11:32.000Z</time>
      </trkpt>
      <trkpt lat="42.521" lon="2.94047">
        <ele>174</ele>
        <time>2026-05-14T10:11:33.000Z</time>
      </trkpt>
      <trkpt lat="42.52103" lon="2.94047">
        <ele>173</ele>
        <time>2026-05-14T10:11:34.000Z</time>
      </trkpt>
      <trkpt lat="42.52107" lon="2.94047">
        <ele>172</ele>
        <time>2026-05-14T10:11:35.000Z</time>
      </trkpt>
      <trkpt lat="42.52111" lon="2.94048">
        <ele>171</ele>
        <time>2026-05-14T10:11:36.000Z</time>
      </trkpt>
      <trkpt lat="42.52115" lon="2.94049">
        <ele>171</ele>
        <time>2026-05-14T10:11:37.000Z</time>
      </trkpt>
      <trkpt lat="42.52118" lon="2.94049">
        <ele>170</ele>
        <time>2026-05-14T10:11:38.000Z</time>
      </trkpt>
      <trkpt lat="42.52122" lon="2.94049">
        <ele>169</ele>
        <time>2026-05-14T10:11:39.000Z</time>
      </trkpt>
      <trkpt lat="42.52126" lon="2.94049">
        <ele>169</ele>
        <time>2026-05-14T10:11:40.000Z</time>
      </trkpt>
      <trkpt lat="42.5213" lon="2.9405">
        <ele>169</ele>
        <time>2026-05-14T10:11:41.000Z</time>
      </trkpt>
      <trkpt lat="42.52133" lon="2.94051">
        <ele>168</ele>
        <time>2026-05-14T10:11:42.000Z</time>
      </trkpt>
      <trkpt lat="42.52136" lon="2.9405">
        <ele>168</ele>
        <time>2026-05-14T10:11:43.000Z</time>
      </trkpt>
      <trkpt lat="42.52139" lon="2.94049">
        <ele>168</ele>
        <time>2026-05-14T10:11:44.000Z</time>
      </trkpt>
      <trkpt lat="42.52143" lon="2.94047">
        <ele>168</ele>
        <time>2026-05-14T10:11:45.000Z</time>
      </trkpt>
      <trkpt lat="42.52146" lon="2.94047">
        <ele>167</ele>
        <time>2026-05-14T10:11:46.000Z</time>
      </trkpt>
      <trkpt lat="42.52149" lon="2.94046">
        <ele>167</ele>
        <time>2026-05-14T10:11:47.000Z</time>
      </trkpt>
      <trkpt lat="42.52153" lon="2.94045">
        <ele>167</ele>
        <time>2026-05-14T10:11:48.000Z</time>
      </trkpt>
      <trkpt lat="42.52157" lon="2.94046">
        <ele>166</ele>
        <time>2026-05-14T10:11:49.000Z</time>
      </trkpt>
      <trkpt lat="42.52161" lon="2.94046">
        <ele>166</ele>
        <time>2026-05-14T10:11:50.000Z</time>
      </trkpt>
      <trkpt lat="42.52164" lon="2.94047">
        <ele>165</ele>
        <time>2026-05-14T10:11:51.000Z</time>
      </trkpt>
      <trkpt lat="42.52168" lon="2.94046">
        <ele>165</ele>
        <time>2026-05-14T10:11:52.000Z</time>
      </trkpt>
      <trkpt lat="42.52172" lon="2.94045">
        <ele>165</ele>
        <time>2026-05-14T10:11:53.000Z</time>
      </trkpt>
      <trkpt lat="42.52176" lon="2.94045">
        <ele>165</ele>
        <time>2026-05-14T10:11:54.000Z</time>
      </trkpt>
      <trkpt lat="42.52179" lon="2.94044">
        <ele>164</ele>
        <time>2026-05-14T10:11:55.000Z</time>
      </trkpt>
      <trkpt lat="42.52183" lon="2.94045">
        <ele>163</ele>
        <time>2026-05-14T10:11:56.000Z</time>
      </trkpt>
      <trkpt lat="42.52186" lon="2.94044">
        <ele>163</ele>
        <time>2026-05-14T10:11:57.000Z</time>
      </trkpt>
      <trkpt lat="42.5219" lon="2.94044">
        <ele>163</ele>
        <time>2026-05-14T10:11:58.000Z</time>
      </trkpt>
      <trkpt lat="42.52193" lon="2.94044">
        <ele>163</ele>
        <time>2026-05-14T10:11:59.000Z</time>
      </trkpt>
      <trkpt lat="42.52197" lon="2.94044">
        <ele>162</ele>
        <time>2026-05-14T10:12:00.000Z</time>
      </trkpt>
      <trkpt lat="42.522" lon="2.94043">
        <ele>161</ele>
        <time>2026-05-14T10:12:01.000Z</time>
      </trkpt>
      <trkpt lat="42.52204" lon="2.94043">
        <ele>161</ele>
        <time>2026-05-14T10:12:02.000Z</time>
      </trkpt>
      <trkpt lat="42.52208" lon="2.94042">
        <ele>161</ele>
        <time>2026-05-14T10:12:03.000Z</time>
      </trkpt>
      <trkpt lat="42.52212" lon="2.94042">
        <ele>161</ele>
        <time>2026-05-14T10:12:04.000Z</time>
      </trkpt>
      <trkpt lat="42.52215" lon="2.94041">
        <ele>160</ele>
        <time>2026-05-14T10:12:05.000Z</time>
      </trkpt>
      <trkpt lat="42.52219" lon="2.9404">
        <ele>160</ele>
        <time>2026-05-14T10:12:06.000Z</time>
      </trkpt>
      <trkpt lat="42.52223" lon="2.94039">
        <ele>160</ele>
        <time>2026-05-14T10:12:07.000Z</time>
      </trkpt>
      <trkpt lat="42.52226" lon="2.94037">
        <ele>160</ele>
        <time>2026-05-14T10:12:08.000Z</time>
      </trkpt>
      <trkpt lat="42.5223" lon="2.94036">
        <ele>160</ele>
        <time>2026-05-14T10:12:09.000Z</time>
      </trkpt>
      <trkpt lat="42.52233" lon="2.94034">
        <ele>160</ele>
        <time>2026-05-14T10:12:10.000Z</time>
      </trkpt>
      <trkpt lat="42.52236" lon="2.94032">
        <ele>160</ele>
        <time>2026-05-14T10:12:11.000Z</time>
      </trkpt>
      <trkpt lat="42.52239" lon="2.94029">
        <ele>160</ele>
        <time>2026-05-14T10:12:12.000Z</time>
      </trkpt>
      <trkpt lat="42.52241" lon="2.94027">
        <ele>160</ele>
        <time>2026-05-14T10:12:13.000Z</time>
      </trkpt>
      <trkpt lat="42.52245" lon="2.94024">
        <ele>160</ele>
        <time>2026-05-14T10:12:14.000Z</time>
      </trkpt>
      <trkpt lat="42.52248" lon="2.94021">
        <ele>160</ele>
        <time>2026-05-14T10:12:15.000Z</time>
      </trkpt>
      <trkpt lat="42.52251" lon="2.94018">
        <ele>160</ele>
        <time>2026-05-14T10:12:16.000Z</time>
      </trkpt>
      <trkpt lat="42.52254" lon="2.94015">
        <ele>160</ele>
        <time>2026-05-14T10:12:17.000Z</time>
      </trkpt>
      <trkpt lat="42.52256" lon="2.94013">
        <ele>160</ele>
        <time>2026-05-14T10:12:18.000Z</time>
      </trkpt>
      <trkpt lat="42.52259" lon="2.94011">
        <ele>160</ele>
        <time>2026-05-14T10:12:19.000Z</time>
      </trkpt>
      <trkpt lat="42.52262" lon="2.9401">
        <ele>159</ele>
        <time>2026-05-14T10:12:20.000Z</time>
      </trkpt>
      <trkpt lat="42.52265" lon="2.94009">
        <ele>159</ele>
        <time>2026-05-14T10:12:21.000Z</time>
      </trkpt>
      <trkpt lat="42.52268" lon="2.94008">
        <ele>159</ele>
        <time>2026-05-14T10:12:22.000Z</time>
      </trkpt>
      <trkpt lat="42.5227" lon="2.94007">
        <ele>160</ele>
        <time>2026-05-14T10:12:23.000Z</time>
      </trkpt>
      <trkpt lat="42.52273" lon="2.94006">
        <ele>159</ele>
        <time>2026-05-14T10:12:24.000Z</time>
      </trkpt>
      <trkpt lat="42.52276" lon="2.94006">
        <ele>159</ele>
        <time>2026-05-14T10:12:25.000Z</time>
      </trkpt>
      <trkpt lat="42.52278" lon="2.94005">
        <ele>159</ele>
        <time>2026-05-14T10:12:26.000Z</time>
      </trkpt>
      <trkpt lat="42.52281" lon="2.94005">
        <ele>159</ele>
        <time>2026-05-14T10:12:27.000Z</time>
      </trkpt>
      <trkpt lat="42.52284" lon="2.94005">
        <ele>158</ele>
        <time>2026-05-14T10:12:28.000Z</time>
      </trkpt>
      <trkpt lat="42.52287" lon="2.94005">
        <ele>158</ele>
        <time>2026-05-14T10:12:29.000Z</time>
      </trkpt>
      <trkpt lat="42.5229" lon="2.94005">
        <ele>158</ele>
        <time>2026-05-14T10:12:30.000Z</time>
      </trkpt>
      <trkpt lat="42.52295" lon="2.94005">
        <ele>158</ele>
        <time>2026-05-14T10:12:31.000Z</time>
      </trkpt>
      <trkpt lat="42.52299" lon="2.94004">
        <ele>158</ele>
        <time>2026-05-14T10:12:32.000Z</time>
      </trkpt>
      <trkpt lat="42.52303" lon="2.94004">
        <ele>158</ele>
        <time>2026-05-14T10:12:33.000Z</time>
      </trkpt>
      <trkpt lat="42.52307" lon="2.94004">
        <ele>158</ele>
        <time>2026-05-14T10:12:34.000Z</time>
      </trkpt>
      <trkpt lat="42.52311" lon="2.94004">
        <ele>157</ele>
        <time>2026-05-14T10:12:35.000Z</time>
      </trkpt>
      <trkpt lat="42.52314" lon="2.94005">
        <ele>157</ele>
        <time>2026-05-14T10:12:36.000Z</time>
      </trkpt>
      <trkpt lat="42.52318" lon="2.94006">
        <ele>157</ele>
        <time>2026-05-14T10:12:37.000Z</time>
      </trkpt>
      <trkpt lat="42.52321" lon="2.94006">
        <ele>157</ele>
        <time>2026-05-14T10:12:38.000Z</time>
      </trkpt>
      <trkpt lat="42.52325" lon="2.94005">
        <ele>157</ele>
        <time>2026-05-14T10:12:39.000Z</time>
      </trkpt>
      <trkpt lat="42.52328" lon="2.94006">
        <ele>156</ele>
        <time>2026-05-14T10:12:40.000Z</time>
      </trkpt>
      <trkpt lat="42.52332" lon="2.94004">
        <ele>156</ele>
        <time>2026-05-14T10:12:41.000Z</time>
      </trkpt>
      <trkpt lat="42.52335" lon="2.94006">
        <ele>157</ele>
        <time>2026-05-14T10:12:42.000Z</time>
      </trkpt>
      <trkpt lat="42.52339" lon="2.94006">
        <ele>156</ele>
        <time>2026-05-14T10:12:43.000Z</time>
      </trkpt>
      <trkpt lat="42.52343" lon="2.94007">
        <ele>155</ele>
        <time>2026-05-14T10:12:44.000Z</time>
      </trkpt>
      <trkpt lat="42.52347" lon="2.94007">
        <ele>154</ele>
        <time>2026-05-14T10:12:45.000Z</time>
      </trkpt>
      <trkpt lat="42.52351" lon="2.94007">
        <ele>154</ele>
        <time>2026-05-14T10:12:46.000Z</time>
      </trkpt>
      <trkpt lat="42.52355" lon="2.94007">
        <ele>154</ele>
        <time>2026-05-14T10:12:47.000Z</time>
      </trkpt>
      <trkpt lat="42.52359" lon="2.94007">
        <ele>154</ele>
        <time>2026-05-14T10:12:48.000Z</time>
      </trkpt>
      <trkpt lat="42.52362" lon="2.94007">
        <ele>154</ele>
        <time>2026-05-14T10:12:49.000Z</time>
      </trkpt>
      <trkpt lat="42.52366" lon="2.94005">
        <ele>154</ele>
        <time>2026-05-14T10:12:50.000Z</time>
      </trkpt>
      <trkpt lat="42.52369" lon="2.94002">
        <ele>153</ele>
        <time>2026-05-14T10:12:51.000Z</time>
      </trkpt>
      <trkpt lat="42.52372" lon="2.94">
        <ele>153</ele>
        <time>2026-05-14T10:12:52.000Z</time>
      </trkpt>
      <trkpt lat="42.52375" lon="2.93998">
        <ele>152</ele>
        <time>2026-05-14T10:12:53.000Z</time>
      </trkpt>
      <trkpt lat="42.52378" lon="2.93995">
        <ele>152</ele>
        <time>2026-05-14T10:12:54.000Z</time>
      </trkpt>
      <trkpt lat="42.52381" lon="2.93993">
        <ele>152</ele>
        <time>2026-05-14T10:12:55.000Z</time>
      </trkpt>
      <trkpt lat="42.52383" lon="2.9399">
        <ele>151</ele>
        <time>2026-05-14T10:12:56.000Z</time>
      </trkpt>
      <trkpt lat="42.52386" lon="2.93988">
        <ele>151</ele>
        <time>2026-05-14T10:12:57.000Z</time>
      </trkpt>
      <trkpt lat="42.52388" lon="2.93985">
        <ele>151</ele>
        <time>2026-05-14T10:12:58.000Z</time>
      </trkpt>
      <trkpt lat="42.52391" lon="2.93983">
        <ele>151</ele>
        <time>2026-05-14T10:12:59.000Z</time>
      </trkpt>
      <trkpt lat="42.52393" lon="2.93982">
        <ele>151</ele>
        <time>2026-05-14T10:13:00.000Z</time>
      </trkpt>
      <trkpt lat="42.52396" lon="2.93981">
        <ele>151</ele>
        <time>2026-05-14T10:13:01.000Z</time>
      </trkpt>
      <trkpt lat="42.52399" lon="2.93979">
        <ele>151</ele>
        <time>2026-05-14T10:13:02.000Z</time>
      </trkpt>
      <trkpt lat="42.52402" lon="2.93978">
        <ele>151</ele>
        <time>2026-05-14T10:13:03.000Z</time>
      </trkpt>
      <trkpt lat="42.52404" lon="2.93976">
        <ele>151</ele>
        <time>2026-05-14T10:13:04.000Z</time>
      </trkpt>
      <trkpt lat="42.52406" lon="2.93975">
        <ele>151</ele>
        <time>2026-05-14T10:13:05.000Z</time>
      </trkpt>
      <trkpt lat="42.52408" lon="2.93975">
        <ele>150</ele>
        <time>2026-05-14T10:13:06.000Z</time>
      </trkpt>
      <trkpt lat="42.5241" lon="2.93974">
        <ele>151</ele>
        <time>2026-05-14T10:13:07.000Z</time>
      </trkpt>
      <trkpt lat="42.52412" lon="2.93973">
        <ele>151</ele>
        <time>2026-05-14T10:13:08.000Z</time>
      </trkpt>
      <trkpt lat="42.52414" lon="2.93973">
        <ele>151</ele>
        <time>2026-05-14T10:13:09.000Z</time>
      </trkpt>
      <trkpt lat="42.52416" lon="2.93972">
        <ele>151</ele>
        <time>2026-05-14T10:13:10.000Z</time>
      </trkpt>
      <trkpt lat="42.52418" lon="2.93971">
        <ele>151</ele>
        <time>2026-05-14T10:13:11.000Z</time>
      </trkpt>
      <trkpt lat="42.5242" lon="2.93969">
        <ele>151</ele>
        <time>2026-05-14T10:13:12.000Z</time>
      </trkpt>
      <trkpt lat="42.52422" lon="2.93967">
        <ele>151</ele>
        <time>2026-05-14T10:13:13.000Z</time>
      </trkpt>
      <trkpt lat="42.52424" lon="2.93966">
        <ele>151</ele>
        <time>2026-05-14T10:13:14.000Z</time>
      </trkpt>
      <trkpt lat="42.52425" lon="2.93966">
        <ele>151</ele>
        <time>2026-05-14T10:13:15.000Z</time>
      </trkpt>
      <trkpt lat="42.52427" lon="2.93965">
        <ele>151</ele>
        <time>2026-05-14T10:13:16.000Z</time>
      </trkpt>
      <trkpt lat="42.52429" lon="2.93965">
        <ele>151</ele>
        <time>2026-05-14T10:13:17.000Z</time>
      </trkpt>
      <trkpt lat="42.52431" lon="2.93965">
        <ele>151</ele>
        <time>2026-05-14T10:13:18.000Z</time>
      </trkpt>
      <trkpt lat="42.52433" lon="2.93966">
        <ele>151</ele>
        <time>2026-05-14T10:13:19.000Z</time>
      </trkpt>
      <trkpt lat="42.52435" lon="2.93969">
        <ele>151</ele>
        <time>2026-05-14T10:13:20.000Z</time>
      </trkpt>
      <trkpt lat="42.52436" lon="2.93971">
        <ele>151</ele>
        <time>2026-05-14T10:13:21.000Z</time>
      </trkpt>
      <trkpt lat="42.52437" lon="2.93975">
        <ele>151</ele>
        <time>2026-05-14T10:13:22.000Z</time>
      </trkpt>
      <trkpt lat="42.52437" lon="2.93978">
        <ele>151</ele>
        <time>2026-05-14T10:13:23.000Z</time>
      </trkpt>
      <trkpt lat="42.52437" lon="2.93983">
        <ele>150</ele>
        <time>2026-05-14T10:13:24.000Z</time>
      </trkpt>
      <trkpt lat="42.52438" lon="2.93987">
        <ele>150</ele>
        <time>2026-05-14T10:13:25.000Z</time>
      </trkpt>
      <trkpt lat="42.52439" lon="2.93991">
        <ele>150</ele>
        <time>2026-05-14T10:13:26.000Z</time>
      </trkpt>
      <trkpt lat="42.5244" lon="2.93995">
        <ele>150</ele>
        <time>2026-05-14T10:13:27.000Z</time>
      </trkpt>
      <trkpt lat="42.52441" lon="2.94">
        <ele>150</ele>
        <time>2026-05-14T10:13:28.000Z</time>
      </trkpt>
      <trkpt lat="42.52441" lon="2.94004">
        <ele>149</ele>
        <time>2026-05-14T10:13:29.000Z</time>
      </trkpt>
      <trkpt lat="42.52442" lon="2.94009">
        <ele>149</ele>
        <time>2026-05-14T10:13:30.000Z</time>
      </trkpt>
      <trkpt lat="42.52443" lon="2.94014">
        <ele>149</ele>
        <time>2026-05-14T10:13:31.000Z</time>
      </trkpt>
      <trkpt lat="42.52443" lon="2.94019">
        <ele>149</ele>
        <time>2026-05-14T10:13:32.000Z</time>
      </trkpt>
      <trkpt lat="42.52444" lon="2.94025">
        <ele>148</ele>
        <time>2026-05-14T10:13:33.000Z</time>
      </trkpt>
      <trkpt lat="42.52444" lon="2.9403">
        <ele>148</ele>
        <time>2026-05-14T10:13:34.000Z</time>
      </trkpt>
      <trkpt lat="42.52444" lon="2.94035">
        <ele>147</ele>
        <time>2026-05-14T10:13:35.000Z</time>
      </trkpt>
      <trkpt lat="42.52444" lon="2.94039">
        <ele>147</ele>
        <time>2026-05-14T10:13:36.000Z</time>
      </trkpt>
      <trkpt lat="42.52444" lon="2.94043">
        <ele>146</ele>
        <time>2026-05-14T10:13:37.000Z</time>
      </trkpt>
      <trkpt lat="42.52444" lon="2.94048">
        <ele>146</ele>
        <time>2026-05-14T10:13:38.000Z</time>
      </trkpt>
      <trkpt lat="42.52444" lon="2.94053">
        <ele>146</ele>
        <time>2026-05-14T10:13:39.000Z</time>
      </trkpt>
      <trkpt lat="42.52442" lon="2.94058">
        <ele>146</ele>
        <time>2026-05-14T10:13:40.000Z</time>
      </trkpt>
      <trkpt lat="42.52442" lon="2.94064">
        <ele>145</ele>
        <time>2026-05-14T10:13:41.000Z</time>
      </trkpt>
      <trkpt lat="42.52441" lon="2.94069">
        <ele>145</ele>
        <time>2026-05-14T10:13:42.000Z</time>
      </trkpt>
      <trkpt lat="42.5244" lon="2.94074">
        <ele>146</ele>
        <time>2026-05-14T10:13:43.000Z</time>
      </trkpt>
      <trkpt lat="42.5244" lon="2.94079">
        <ele>146</ele>
        <time>2026-05-14T10:13:44.000Z</time>
      </trkpt>
      <trkpt lat="42.52439" lon="2.94084">
        <ele>146</ele>
        <time>2026-05-14T10:13:45.000Z</time>
      </trkpt>
      <trkpt lat="42.52439" lon="2.94089">
        <ele>146</ele>
        <time>2026-05-14T10:13:46.000Z</time>
      </trkpt>
      <trkpt lat="42.52439" lon="2.94094">
        <ele>147</ele>
        <time>2026-05-14T10:13:47.000Z</time>
      </trkpt>
      <trkpt lat="42.52438" lon="2.94099">
        <ele>146</ele>
        <time>2026-05-14T10:13:48.000Z</time>
      </trkpt>
      <trkpt lat="42.52437" lon="2.94105">
        <ele>146</ele>
        <time>2026-05-14T10:13:49.000Z</time>
      </trkpt>
      <trkpt lat="42.52437" lon="2.9411">
        <ele>146</ele>
        <time>2026-05-14T10:13:50.000Z</time>
      </trkpt>
      <trkpt lat="42.52437" lon="2.94116">
        <ele>146</ele>
        <time>2026-05-14T10:13:51.000Z</time>
      </trkpt>
      <trkpt lat="42.52437" lon="2.9412">
        <ele>146</ele>
        <time>2026-05-14T10:13:52.000Z</time>
      </trkpt>
      <trkpt lat="42.52437" lon="2.94124">
        <ele>146</ele>
        <time>2026-05-14T10:13:53.000Z</time>
      </trkpt>
      <trkpt lat="42.52436" lon="2.94128">
        <ele>146</ele>
        <time>2026-05-14T10:13:54.000Z</time>
      </trkpt>
      <trkpt lat="42.52436" lon="2.94133">
        <ele>145</ele>
        <time>2026-05-14T10:13:55.000Z</time>
      </trkpt>
      <trkpt lat="42.52436" lon="2.94137">
        <ele>145</ele>
        <time>2026-05-14T10:13:56.000Z</time>
      </trkpt>
      <trkpt lat="42.52435" lon="2.94142">
        <ele>145</ele>
        <time>2026-05-14T10:13:57.000Z</time>
      </trkpt>
      <trkpt lat="42.52435" lon="2.94147">
        <ele>145</ele>
        <time>2026-05-14T10:13:58.000Z</time>
      </trkpt>
      <trkpt lat="42.52435" lon="2.94152">
        <ele>144</ele>
        <time>2026-05-14T10:13:59.000Z</time>
      </trkpt>
      <trkpt lat="42.52435" lon="2.94157">
        <ele>144</ele>
        <time>2026-05-14T10:14:00.000Z</time>
      </trkpt>
      <trkpt lat="42.52435" lon="2.94162">
        <ele>145</ele>
        <time>2026-05-14T10:14:01.000Z</time>
      </trkpt>
      <trkpt lat="42.52435" lon="2.94166">
        <ele>145</ele>
        <time>2026-05-14T10:14:02.000Z</time>
      </trkpt>
      <trkpt lat="42.52435" lon="2.94171">
        <ele>144</ele>
        <time>2026-05-14T10:14:03.000Z</time>
      </trkpt>
      <trkpt lat="42.52435" lon="2.94176">
        <ele>144</ele>
        <time>2026-05-14T10:14:04.000Z</time>
      </trkpt>
      <trkpt lat="42.52435" lon="2.9418">
        <ele>144</ele>
        <time>2026-05-14T10:14:05.000Z</time>
      </trkpt>
      <trkpt lat="42.52435" lon="2.94184">
        <ele>144</ele>
        <time>2026-05-14T10:14:06.000Z</time>
      </trkpt>
      <trkpt lat="42.52435" lon="2.94187">
        <ele>144</ele>
        <time>2026-05-14T10:14:07.000Z</time>
      </trkpt>
      <trkpt lat="42.52435" lon="2.94192">
        <ele>144</ele>
        <time>2026-05-14T10:14:08.000Z</time>
      </trkpt>
      <trkpt lat="42.52435" lon="2.94197">
        <ele>144</ele>
        <time>2026-05-14T10:14:09.000Z</time>
      </trkpt>
      <trkpt lat="42.52434" lon="2.94202">
        <ele>144</ele>
        <time>2026-05-14T10:14:10.000Z</time>
      </trkpt>
      <trkpt lat="42.52434" lon="2.94207">
        <ele>144</ele>
        <time>2026-05-14T10:14:11.000Z</time>
      </trkpt>
      <trkpt lat="42.52434" lon="2.94212">
        <ele>144</ele>
        <time>2026-05-14T10:14:12.000Z</time>
      </trkpt>
      <trkpt lat="42.52434" lon="2.94216">
        <ele>143</ele>
        <time>2026-05-14T10:14:13.000Z</time>
      </trkpt>
      <trkpt lat="42.52434" lon="2.94221">
        <ele>143</ele>
        <time>2026-05-14T10:14:14.000Z</time>
      </trkpt>
      <trkpt lat="42.52432" lon="2.94225">
        <ele>143</ele>
        <time>2026-05-14T10:14:15.000Z</time>
      </trkpt>
      <trkpt lat="42.52431" lon="2.9423">
        <ele>143</ele>
        <time>2026-05-14T10:14:16.000Z</time>
      </trkpt>
      <trkpt lat="42.5243" lon="2.94234">
        <ele>143</ele>
        <time>2026-05-14T10:14:17.000Z</time>
      </trkpt>
      <trkpt lat="42.52429" lon="2.94238">
        <ele>143</ele>
        <time>2026-05-14T10:14:18.000Z</time>
      </trkpt>
      <trkpt lat="42.52428" lon="2.94243">
        <ele>144</ele>
        <time>2026-05-14T10:14:19.000Z</time>
      </trkpt>
      <trkpt lat="42.52427" lon="2.94247">
        <ele>143</ele>
        <time>2026-05-14T10:14:20.000Z</time>
      </trkpt>
      <trkpt lat="42.52426" lon="2.94252">
        <ele>143</ele>
        <time>2026-05-14T10:14:21.000Z</time>
      </trkpt>
      <trkpt lat="42.52426" lon="2.94256">
        <ele>143</ele>
        <time>2026-05-14T10:14:22.000Z</time>
      </trkpt>
      <trkpt lat="42.52425" lon="2.9426">
        <ele>143</ele>
        <time>2026-05-14T10:14:23.000Z</time>
      </trkpt>
      <trkpt lat="42.52424" lon="2.94264">
        <ele>143</ele>
        <time>2026-05-14T10:14:24.000Z</time>
      </trkpt>
      <trkpt lat="42.52423" lon="2.94268">
        <ele>143</ele>
        <time>2026-05-14T10:14:25.000Z</time>
      </trkpt>
      <trkpt lat="42.52422" lon="2.94273">
        <ele>143</ele>
        <time>2026-05-14T10:14:26.000Z</time>
      </trkpt>
      <trkpt lat="42.52421" lon="2.94277">
        <ele>142</ele>
        <time>2026-05-14T10:14:27.000Z</time>
      </trkpt>
      <trkpt lat="42.52421" lon="2.94281">
        <ele>142</ele>
        <time>2026-05-14T10:14:28.000Z</time>
      </trkpt>
      <trkpt lat="42.5242" lon="2.94286">
        <ele>142</ele>
        <time>2026-05-14T10:14:29.000Z</time>
      </trkpt>
      <trkpt lat="42.52419" lon="2.9429">
        <ele>142</ele>
        <time>2026-05-14T10:14:30.000Z</time>
      </trkpt>
      <trkpt lat="42.52419" lon="2.94296">
        <ele>142</ele>
        <time>2026-05-14T10:14:31.000Z</time>
      </trkpt>
      <trkpt lat="42.52417" lon="2.94301">
        <ele>142</ele>
        <time>2026-05-14T10:14:32.000Z</time>
      </trkpt>
      <trkpt lat="42.52416" lon="2.94307">
        <ele>141</ele>
        <time>2026-05-14T10:14:33.000Z</time>
      </trkpt>
      <trkpt lat="42.52415" lon="2.94314">
        <ele>140</ele>
        <time>2026-05-14T10:14:34.000Z</time>
      </trkpt>
      <trkpt lat="42.52415" lon="2.94321">
        <ele>139</ele>
        <time>2026-05-14T10:14:35.000Z</time>
      </trkpt>
      <trkpt lat="42.52414" lon="2.94326">
        <ele>138</ele>
        <time>2026-05-14T10:14:36.000Z</time>
      </trkpt>
      <trkpt lat="42.52413" lon="2.94331">
        <ele>138</ele>
        <time>2026-05-14T10:14:37.000Z</time>
      </trkpt>
      <trkpt lat="42.52412" lon="2.94338">
        <ele>139</ele>
        <time>2026-05-14T10:14:38.000Z</time>
      </trkpt>
      <trkpt lat="42.5241" lon="2.94344">
        <ele>138</ele>
        <time>2026-05-14T10:14:39.000Z</time>
      </trkpt>
      <trkpt lat="42.52409" lon="2.9435">
        <ele>138</ele>
        <time>2026-05-14T10:14:40.000Z</time>
      </trkpt>
      <trkpt lat="42.52407" lon="2.94355">
        <ele>138</ele>
        <time>2026-05-14T10:14:41.000Z</time>
      </trkpt>
      <trkpt lat="42.52405" lon="2.94361">
        <ele>138</ele>
        <time>2026-05-14T10:14:42.000Z</time>
      </trkpt>
      <trkpt lat="42.52404" lon="2.94366">
        <ele>137</ele>
        <time>2026-05-14T10:14:43.000Z</time>
      </trkpt>
      <trkpt lat="42.52402" lon="2.94371">
        <ele>137</ele>
        <time>2026-05-14T10:14:44.000Z</time>
      </trkpt>
      <trkpt lat="42.52401" lon="2.94375">
        <ele>138</ele>
        <time>2026-05-14T10:14:45.000Z</time>
      </trkpt>
      <trkpt lat="42.52401" lon="2.94379">
        <ele>137</ele>
        <time>2026-05-14T10:14:46.000Z</time>
      </trkpt>
      <trkpt lat="42.52399" lon="2.94382">
        <ele>137</ele>
        <time>2026-05-14T10:14:47.000Z</time>
      </trkpt>
      <trkpt lat="42.52398" lon="2.94385">
        <ele>137</ele>
        <time>2026-05-14T10:14:48.000Z</time>
      </trkpt>
      <trkpt lat="42.52397" lon="2.94388">
        <ele>137</ele>
        <time>2026-05-14T10:14:49.000Z</time>
      </trkpt>
      <trkpt lat="42.52396" lon="2.9439">
        <ele>137</ele>
        <time>2026-05-14T10:14:50.000Z</time>
      </trkpt>
      <trkpt lat="42.52396" lon="2.94391">
        <ele>137</ele>
        <time>2026-05-14T10:14:51.000Z</time>
      </trkpt>
      <trkpt lat="42.52395" lon="2.94392">
        <ele>136</ele>
        <time>2026-05-14T10:14:52.000Z</time>
      </trkpt>
      <trkpt lat="42.52395" lon="2.94394">
        <ele>136</ele>
        <time>2026-05-14T10:14:53.000Z</time>
      </trkpt>
      <trkpt lat="42.52395" lon="2.94395">
        <ele>136</ele>
        <time>2026-05-14T10:14:54.000Z</time>
      </trkpt>
      <trkpt lat="42.52395" lon="2.94397">
        <ele>136</ele>
        <time>2026-05-14T10:14:55.000Z</time>
      </trkpt>
      <trkpt lat="42.52395" lon="2.94399">
        <ele>137</ele>
        <time>2026-05-14T10:14:56.000Z</time>
      </trkpt>
      <trkpt lat="42.52394" lon="2.944">
        <ele>137</ele>
        <time>2026-05-14T10:14:57.000Z</time>
      </trkpt>
      <trkpt lat="42.52394" lon="2.94401">
        <ele>138</ele>
        <time>2026-05-14T10:14:58.000Z</time>
      </trkpt>
      <trkpt lat="42.52393" lon="2.94403">
        <ele>138</ele>
        <time>2026-05-14T10:14:59.000Z</time>
      </trkpt>
      <trkpt lat="42.52392" lon="2.94404">
        <ele>139</ele>
        <time>2026-05-14T10:15:00.000Z</time>
      </trkpt>
      <trkpt lat="42.52392" lon="2.94406">
        <ele>139</ele>
        <time>2026-05-14T10:15:01.000Z</time>
      </trkpt>
      <trkpt lat="42.52392" lon="2.94408">
        <ele>139</ele>
        <time>2026-05-14T10:15:02.000Z</time>
      </trkpt>
      <trkpt lat="42.52391" lon="2.9441">
        <ele>139</ele>
        <time>2026-05-14T10:15:03.000Z</time>
      </trkpt>
      <trkpt lat="42.5239" lon="2.94412">
        <ele>139</ele>
        <time>2026-05-14T10:15:04.000Z</time>
      </trkpt>
      <trkpt lat="42.52389" lon="2.94413">
        <ele>139</ele>
        <time>2026-05-14T10:15:05.000Z</time>
      </trkpt>
      <trkpt lat="42.52389" lon="2.94413">
        <ele>139</ele>
        <time>2026-05-14T10:15:06.000Z</time>
      </trkpt>
      <trkpt lat="42.52387" lon="2.94414">
        <ele>139</ele>
        <time>2026-05-14T10:15:07.000Z</time>
      </trkpt>
      <trkpt lat="42.52386" lon="2.94415">
        <ele>139</ele>
        <time>2026-05-14T10:15:08.000Z</time>
      </trkpt>
      <trkpt lat="42.52385" lon="2.94416">
        <ele>139</ele>
        <time>2026-05-14T10:15:09.000Z</time>
      </trkpt>
      <trkpt lat="42.52384" lon="2.94417">
        <ele>139</ele>
        <time>2026-05-14T10:15:10.000Z</time>
      </trkpt>
      <trkpt lat="42.52383" lon="2.94419">
        <ele>139</ele>
        <time>2026-05-14T10:15:11.000Z</time>
      </trkpt>
      <trkpt lat="42.52382" lon="2.9442">
        <ele>139</ele>
        <time>2026-05-14T10:15:12.000Z</time>
      </trkpt>
      <trkpt lat="42.52381" lon="2.94421">
        <ele>139</ele>
        <time>2026-05-14T10:15:13.000Z</time>
      </trkpt>
      <trkpt lat="42.52381" lon="2.94422">
        <ele>139</ele>
        <time>2026-05-14T10:15:14.000Z</time>
      </trkpt>
      <trkpt lat="42.5238" lon="2.94424">
        <ele>139</ele>
        <time>2026-05-14T10:15:15.000Z</time>
      </trkpt>
      <trkpt lat="42.52379" lon="2.94425">
        <ele>139</ele>
        <time>2026-05-14T10:15:16.000Z</time>
      </trkpt>
      <trkpt lat="42.52378" lon="2.94426">
        <ele>139</ele>
        <time>2026-05-14T10:15:17.000Z</time>
      </trkpt>
      <trkpt lat="42.52376" lon="2.94428">
        <ele>139</ele>
        <time>2026-05-14T10:15:18.000Z</time>
      </trkpt>
      <trkpt lat="42.52375" lon="2.94429">
        <ele>138</ele>
        <time>2026-05-14T10:15:19.000Z</time>
      </trkpt>
      <trkpt lat="42.52374" lon="2.9443">
        <ele>139</ele>
        <time>2026-05-14T10:15:20.000Z</time>
      </trkpt>
      <trkpt lat="42.52373" lon="2.94431">
        <ele>138</ele>
        <time>2026-05-14T10:15:21.000Z</time>
      </trkpt>
      <trkpt lat="42.52372" lon="2.94432">
        <ele>139</ele>
        <time>2026-05-14T10:15:22.000Z</time>
      </trkpt>
      <trkpt lat="42.52371" lon="2.94433">
        <ele>139</ele>
        <time>2026-05-14T10:15:23.000Z</time>
      </trkpt>
      <trkpt lat="42.52369" lon="2.94434">
        <ele>139</ele>
        <time>2026-05-14T10:15:24.000Z</time>
      </trkpt>
      <trkpt lat="42.52368" lon="2.94436">
        <ele>140</ele>
        <time>2026-05-14T10:15:25.000Z</time>
      </trkpt>
      <trkpt lat="42.52367" lon="2.94437">
        <ele>140</ele>
        <time>2026-05-14T10:15:26.000Z</time>
      </trkpt>
      <trkpt lat="42.52366" lon="2.94438">
        <ele>140</ele>
        <time>2026-05-14T10:15:27.000Z</time>
      </trkpt>
      <trkpt lat="42.52365" lon="2.94438">
        <ele>139</ele>
        <time>2026-05-14T10:15:28.000Z</time>
      </trkpt>
      <trkpt lat="42.52364" lon="2.94439">
        <ele>139</ele>
        <time>2026-05-14T10:15:29.000Z</time>
      </trkpt>
      <trkpt lat="42.52363" lon="2.9444">
        <ele>139</ele>
        <time>2026-05-14T10:15:30.000Z</time>
      </trkpt>
      <trkpt lat="42.52362" lon="2.94441">
        <ele>139</ele>
        <time>2026-05-14T10:15:31.000Z</time>
      </trkpt>
      <trkpt lat="42.52362" lon="2.94441">
        <ele>140</ele>
        <time>2026-05-14T10:15:32.000Z</time>
      </trkpt>
      <trkpt lat="42.52361" lon="2.94441">
        <ele>139</ele>
        <time>2026-05-14T10:15:33.000Z</time>
      </trkpt>
      <trkpt lat="42.5236" lon="2.94442">
        <ele>139</ele>
        <time>2026-05-14T10:15:34.000Z</time>
      </trkpt>
      <trkpt lat="42.52359" lon="2.94444">
        <ele>139</ele>
        <time>2026-05-14T10:15:35.000Z</time>
      </trkpt>
      <trkpt lat="42.52358" lon="2.94445">
        <ele>139</ele>
        <time>2026-05-14T10:15:36.000Z</time>
      </trkpt>
      <trkpt lat="42.52357" lon="2.94445">
        <ele>139</ele>
        <time>2026-05-14T10:15:37.000Z</time>
      </trkpt>
      <trkpt lat="42.52356" lon="2.94446">
        <ele>139</ele>
        <time>2026-05-14T10:15:38.000Z</time>
      </trkpt>
      <trkpt lat="42.52355" lon="2.94447">
        <ele>139</ele>
        <time>2026-05-14T10:15:39.000Z</time>
      </trkpt>
      <trkpt lat="42.52354" lon="2.94447">
        <ele>139</ele>
        <time>2026-05-14T10:15:40.000Z</time>
      </trkpt>
      <trkpt lat="42.52352" lon="2.94448">
        <ele>139</ele>
        <time>2026-05-14T10:15:41.000Z</time>
      </trkpt>
      <trkpt lat="42.52351" lon="2.94449">
        <ele>139</ele>
        <time>2026-05-14T10:15:42.000Z</time>
      </trkpt>
      <trkpt lat="42.5235" lon="2.94449">
        <ele>139</ele>
        <time>2026-05-14T10:15:43.000Z</time>
      </trkpt>
      <trkpt lat="42.52348" lon="2.9445">
        <ele>139</ele>
        <time>2026-05-14T10:15:44.000Z</time>
      </trkpt>
      <trkpt lat="42.52347" lon="2.9445">
        <ele>139</ele>
        <time>2026-05-14T10:15:45.000Z</time>
      </trkpt>
      <trkpt lat="42.52346" lon="2.94451">
        <ele>139</ele>
        <time>2026-05-14T10:15:46.000Z</time>
      </trkpt>
      <trkpt lat="42.52345" lon="2.94452">
        <ele>140</ele>
        <time>2026-05-14T10:15:47.000Z</time>
      </trkpt>
      <trkpt lat="42.52344" lon="2.94453">
        <ele>141</ele>
        <time>2026-05-14T10:15:48.000Z</time>
      </trkpt>
      <trkpt lat="42.52342" lon="2.94453">
        <ele>141</ele>
        <time>2026-05-14T10:15:49.000Z</time>
      </trkpt>
      <trkpt lat="42.52341" lon="2.94454">
        <ele>141</ele>
        <time>2026-05-14T10:15:50.000Z</time>
      </trkpt>
      <trkpt lat="42.52341" lon="2.94455">
        <ele>141</ele>
        <time>2026-05-14T10:15:51.000Z</time>
      </trkpt>
      <trkpt lat="42.5234" lon="2.94456">
        <ele>142</ele>
        <time>2026-05-14T10:15:52.000Z</time>
      </trkpt>
      <trkpt lat="42.52339" lon="2.94457">
        <ele>141</ele>
        <time>2026-05-14T10:15:53.000Z</time>
      </trkpt>
      <trkpt lat="42.52338" lon="2.94458">
        <ele>142</ele>
        <time>2026-05-14T10:15:54.000Z</time>
      </trkpt>
      <trkpt lat="42.52337" lon="2.94459">
        <ele>142</ele>
        <time>2026-05-14T10:15:55.000Z</time>
      </trkpt>
      <trkpt lat="42.52336" lon="2.9446">
        <ele>142</ele>
        <time>2026-05-14T10:15:56.000Z</time>
      </trkpt>
      <trkpt lat="42.52335" lon="2.94461">
        <ele>142</ele>
        <time>2026-05-14T10:15:57.000Z</time>
      </trkpt>
      <trkpt lat="42.52334" lon="2.94462">
        <ele>142</ele>
        <time>2026-05-14T10:15:58.000Z</time>
      </trkpt>
      <trkpt lat="42.52333" lon="2.94463">
        <ele>142</ele>
        <time>2026-05-14T10:15:59.000Z</time>
      </trkpt>
      <trkpt lat="42.52331" lon="2.94464">
        <ele>142</ele>
        <time>2026-05-14T10:16:00.000Z</time>
      </trkpt>
      <trkpt lat="42.5233" lon="2.94465">
        <ele>142</ele>
        <time>2026-05-14T10:16:01.000Z</time>
      </trkpt>
      <trkpt lat="42.52329" lon="2.94466">
        <ele>141</ele>
        <time>2026-05-14T10:16:02.000Z</time>
      </trkpt>
      <trkpt lat="42.52328" lon="2.94468">
        <ele>141</ele>
        <time>2026-05-14T10:16:03.000Z</time>
      </trkpt>
      <trkpt lat="42.52327" lon="2.9447">
        <ele>142</ele>
        <time>2026-05-14T10:16:04.000Z</time>
      </trkpt>
      <trkpt lat="42.52326" lon="2.94471">
        <ele>142</ele>
        <time>2026-05-14T10:16:05.000Z</time>
      </trkpt>
      <trkpt lat="42.52325" lon="2.94472">
        <ele>142</ele>
        <time>2026-05-14T10:16:06.000Z</time>
      </trkpt>
      <trkpt lat="42.52324" lon="2.94473">
        <ele>143</ele>
        <time>2026-05-14T10:16:07.000Z</time>
      </trkpt>
      <trkpt lat="42.52322" lon="2.94474">
        <ele>143</ele>
        <time>2026-05-14T10:16:08.000Z</time>
      </trkpt>
      <trkpt lat="42.52321" lon="2.94475">
        <ele>143</ele>
        <time>2026-05-14T10:16:09.000Z</time>
      </trkpt>
      <trkpt lat="42.52319" lon="2.94476">
        <ele>143</ele>
        <time>2026-05-14T10:16:10.000Z</time>
      </trkpt>
      <trkpt lat="42.52318" lon="2.94476">
        <ele>144</ele>
        <time>2026-05-14T10:16:11.000Z</time>
      </trkpt>
      <trkpt lat="42.52316" lon="2.94477">
        <ele>143</ele>
        <time>2026-05-14T10:16:12.000Z</time>
      </trkpt>
      <trkpt lat="42.52315" lon="2.94477">
        <ele>143</ele>
        <time>2026-05-14T10:16:13.000Z</time>
      </trkpt>
      <trkpt lat="42.52314" lon="2.94478">
        <ele>144</ele>
        <time>2026-05-14T10:16:14.000Z</time>
      </trkpt>
      <trkpt lat="42.52313" lon="2.94478">
        <ele>144</ele>
        <time>2026-05-14T10:16:15.000Z</time>
      </trkpt>
      <trkpt lat="42.52311" lon="2.94479">
        <ele>144</ele>
        <time>2026-05-14T10:16:16.000Z</time>
      </trkpt>
      <trkpt lat="42.52309" lon="2.94479">
        <ele>144</ele>
        <time>2026-05-14T10:16:17.000Z</time>
      </trkpt>
      <trkpt lat="42.52308" lon="2.9448">
        <ele>144</ele>
        <time>2026-05-14T10:16:18.000Z</time>
      </trkpt>
      <trkpt lat="42.52307" lon="2.9448">
        <ele>143</ele>
        <time>2026-05-14T10:16:19.000Z</time>
      </trkpt>
      <trkpt lat="42.52305" lon="2.9448">
        <ele>143</ele>
        <time>2026-05-14T10:16:20.000Z</time>
      </trkpt>
      <trkpt lat="42.52304" lon="2.94481">
        <ele>142</ele>
        <time>2026-05-14T10:16:21.000Z</time>
      </trkpt>
      <trkpt lat="42.52302" lon="2.94482">
        <ele>142</ele>
        <time>2026-05-14T10:16:22.000Z</time>
      </trkpt>
      <trkpt lat="42.52301" lon="2.94482">
        <ele>142</ele>
        <time>2026-05-14T10:16:23.000Z</time>
      </trkpt>
      <trkpt lat="42.523" lon="2.94482">
        <ele>142</ele>
        <time>2026-05-14T10:16:24.000Z</time>
      </trkpt>
      <trkpt lat="42.52298" lon="2.94482">
        <ele>142</ele>
        <time>2026-05-14T10:16:25.000Z</time>
      </trkpt>
      <trkpt lat="42.52297" lon="2.94483">
        <ele>142</ele>
        <time>2026-05-14T10:16:26.000Z</time>
      </trkpt>
      <trkpt lat="42.52296" lon="2.94483">
        <ele>142</ele>
        <time>2026-05-14T10:16:27.000Z</time>
      </trkpt>
      <trkpt lat="42.52295" lon="2.94483">
        <ele>142</ele>
        <time>2026-05-14T10:16:28.000Z</time>
      </trkpt>
      <trkpt lat="42.52293" lon="2.94483">
        <ele>142</ele>
        <time>2026-05-14T10:16:29.000Z</time>
      </trkpt>
      <trkpt lat="42.52292" lon="2.94483">
        <ele>142</ele>
        <time>2026-05-14T10:16:30.000Z</time>
      </trkpt>
      <trkpt lat="42.5229" lon="2.94483">
        <ele>142</ele>
        <time>2026-05-14T10:16:31.000Z</time>
      </trkpt>
      <trkpt lat="42.52289" lon="2.94483">
        <ele>143</ele>
        <time>2026-05-14T10:16:32.000Z</time>
      </trkpt>
      <trkpt lat="42.52287" lon="2.94482">
        <ele>143</ele>
        <time>2026-05-14T10:16:33.000Z</time>
      </trkpt>
      <trkpt lat="42.52286" lon="2.94481">
        <ele>142</ele>
        <time>2026-05-14T10:16:34.000Z</time>
      </trkpt>
      <trkpt lat="42.52285" lon="2.9448">
        <ele>143</ele>
        <time>2026-05-14T10:16:35.000Z</time>
      </trkpt>
      <trkpt lat="42.52284" lon="2.94479">
        <ele>144</ele>
        <time>2026-05-14T10:16:36.000Z</time>
      </trkpt>
      <trkpt lat="42.52283" lon="2.94478">
        <ele>144</ele>
        <time>2026-05-14T10:16:37.000Z</time>
      </trkpt>
      <trkpt lat="42.52281" lon="2.94477">
        <ele>144</ele>
        <time>2026-05-14T10:16:38.000Z</time>
      </trkpt>
      <trkpt lat="42.5228" lon="2.94477">
        <ele>144</ele>
        <time>2026-05-14T10:16:39.000Z</time>
      </trkpt>
      <trkpt lat="42.52278" lon="2.94476">
        <ele>144</ele>
        <time>2026-05-14T10:16:40.000Z</time>
      </trkpt>
      <trkpt lat="42.52276" lon="2.94475">
        <ele>144</ele>
        <time>2026-05-14T10:16:41.000Z</time>
      </trkpt>
      <trkpt lat="42.52274" lon="2.94475">
        <ele>144</ele>
        <time>2026-05-14T10:16:42.000Z</time>
      </trkpt>
      <trkpt lat="42.52273" lon="2.94474">
        <ele>144</ele>
        <time>2026-05-14T10:16:43.000Z</time>
      </trkpt>
      <trkpt lat="42.52272" lon="2.94473">
        <ele>145</ele>
        <time>2026-05-14T10:16:44.000Z</time>
      </trkpt>
      <trkpt lat="42.52271" lon="2.94473">
        <ele>144</ele>
        <time>2026-05-14T10:16:45.000Z</time>
      </trkpt>
      <trkpt lat="42.52269" lon="2.94472">
        <ele>145</ele>
        <time>2026-05-14T10:16:46.000Z</time>
      </trkpt>
      <trkpt lat="42.52268" lon="2.94472">
        <ele>145</ele>
        <time>2026-05-14T10:16:47.000Z</time>
      </trkpt>
      <trkpt lat="42.52266" lon="2.94471">
        <ele>146</ele>
        <time>2026-05-14T10:16:48.000Z</time>
      </trkpt>
      <trkpt lat="42.52265" lon="2.9447">
        <ele>146</ele>
        <time>2026-05-14T10:16:49.000Z</time>
      </trkpt>
      <trkpt lat="42.52264" lon="2.9447">
        <ele>146</ele>
        <time>2026-05-14T10:16:50.000Z</time>
      </trkpt>
      <trkpt lat="42.52263" lon="2.94469">
        <ele>146</ele>
        <time>2026-05-14T10:16:51.000Z</time>
      </trkpt>
      <trkpt lat="42.52262" lon="2.94468">
        <ele>146</ele>
        <time>2026-05-14T10:16:52.000Z</time>
      </trkpt>
      <trkpt lat="42.52261" lon="2.94467">
        <ele>145</ele>
        <time>2026-05-14T10:16:53.000Z</time>
      </trkpt>
      <trkpt lat="42.5226" lon="2.94466">
        <ele>145</ele>
        <time>2026-05-14T10:16:54.000Z</time>
      </trkpt>
      <trkpt lat="42.52259" lon="2.94465">
        <ele>146</ele>
        <time>2026-05-14T10:16:55.000Z</time>
      </trkpt>
      <trkpt lat="42.52258" lon="2.94464">
        <ele>146</ele>
        <time>2026-05-14T10:16:56.000Z</time>
      </trkpt>
      <trkpt lat="42.52257" lon="2.94462">
        <ele>147</ele>
        <time>2026-05-14T10:16:57.000Z</time>
      </trkpt>
      <trkpt lat="42.52256" lon="2.94461">
        <ele>146</ele>
        <time>2026-05-14T10:16:58.000Z</time>
      </trkpt>
      <trkpt lat="42.52255" lon="2.9446">
        <ele>147</ele>
        <time>2026-05-14T10:16:59.000Z</time>
      </trkpt>
      <trkpt lat="42.52255" lon="2.94458">
        <ele>147</ele>
        <time>2026-05-14T10:17:00.000Z</time>
      </trkpt>
      <trkpt lat="42.52254" lon="2.94457">
        <ele>148</ele>
        <time>2026-05-14T10:17:01.000Z</time>
      </trkpt>
      <trkpt lat="42.52254" lon="2.94455">
        <ele>149</ele>
        <time>2026-05-14T10:17:02.000Z</time>
      </trkpt>
      <trkpt lat="42.52253" lon="2.94454">
        <ele>149</ele>
        <time>2026-05-14T10:17:03.000Z</time>
      </trkpt>
      <trkpt lat="42.52253" lon="2.94451">
        <ele>149</ele>
        <time>2026-05-14T10:17:04.000Z</time>
      </trkpt>
      <trkpt lat="42.52253" lon="2.94449">
        <ele>149</ele>
        <time>2026-05-14T10:17:05.000Z</time>
      </trkpt>
      <trkpt lat="42.52252" lon="2.94447">
        <ele>149</ele>
        <time>2026-05-14T10:17:06.000Z</time>
      </trkpt>
      <trkpt lat="42.52252" lon="2.94445">
        <ele>149</ele>
        <time>2026-05-14T10:17:07.000Z</time>
      </trkpt>
      <trkpt lat="42.52251" lon="2.94443">
        <ele>150</ele>
        <time>2026-05-14T10:17:08.000Z</time>
      </trkpt>
      <trkpt lat="42.52251" lon="2.94442">
        <ele>151</ele>
        <time>2026-05-14T10:17:09.000Z</time>
      </trkpt>
      <trkpt lat="42.5225" lon="2.9444">
        <ele>151</ele>
        <time>2026-05-14T10:17:10.000Z</time>
      </trkpt>
      <trkpt lat="42.52249" lon="2.94438">
        <ele>151</ele>
        <time>2026-05-14T10:17:11.000Z</time>
      </trkpt>
      <trkpt lat="42.52248" lon="2.94437">
        <ele>152</ele>
        <time>2026-05-14T10:17:12.000Z</time>
      </trkpt>
      <trkpt lat="42.52248" lon="2.94435">
        <ele>153</ele>
        <time>2026-05-14T10:17:13.000Z</time>
      </trkpt>
      <trkpt lat="42.52247" lon="2.94434">
        <ele>153</ele>
        <time>2026-05-14T10:17:14.000Z</time>
      </trkpt>
      <trkpt lat="42.52247" lon="2.94433">
        <ele>153</ele>
        <time>2026-05-14T10:17:15.000Z</time>
      </trkpt>
      <trkpt lat="42.52247" lon="2.94432">
        <ele>153</ele>
        <time>2026-05-14T10:17:16.000Z</time>
      </trkpt>
      <trkpt lat="42.52248" lon="2.94431">
        <ele>153</ele>
        <time>2026-05-14T10:17:17.000Z</time>
      </trkpt>
      <trkpt lat="42.52248" lon="2.94431">
        <ele>152</ele>
        <time>2026-05-14T10:17:18.000Z</time>
      </trkpt>
      <trkpt lat="42.52248" lon="2.94431">
        <ele>152</ele>
        <time>2026-05-14T10:17:19.000Z</time>
      </trkpt>
      <trkpt lat="42.52246" lon="2.94432">
        <ele>153</ele>
        <time>2026-05-14T10:17:20.000Z</time>
      </trkpt>
      <trkpt lat="42.52246" lon="2.94432">
        <ele>153</ele>
        <time>2026-05-14T10:17:21.000Z</time>
      </trkpt>
      <trkpt lat="42.52246" lon="2.94432">
        <ele>153</ele>
        <time>2026-05-14T10:17:22.000Z</time>
      </trkpt>
      <trkpt lat="42.52246" lon="2.94431">
        <ele>152</ele>
        <time>2026-05-14T10:17:23.000Z</time>
      </trkpt>
      <trkpt lat="42.52246" lon="2.9443">
        <ele>152</ele>
        <time>2026-05-14T10:17:24.000Z</time>
      </trkpt>
      <trkpt lat="42.52246" lon="2.9443">
        <ele>152</ele>
        <time>2026-05-14T10:17:25.000Z</time>
      </trkpt>
      <trkpt lat="42.52246" lon="2.94429">
        <ele>153</ele>
        <time>2026-05-14T10:17:26.000Z</time>
      </trkpt>
      <trkpt lat="42.52246" lon="2.94429">
        <ele>153</ele>
        <time>2026-05-14T10:17:27.000Z</time>
      </trkpt>
      <trkpt lat="42.52246" lon="2.94428">
        <ele>153</ele>
        <time>2026-05-14T10:17:28.000Z</time>
      </trkpt>
      <trkpt lat="42.52245" lon="2.94427">
        <ele>154</ele>
        <time>2026-05-14T10:17:29.000Z</time>
      </trkpt>
      <trkpt lat="42.52245" lon="2.94426">
        <ele>154</ele>
        <time>2026-05-14T10:17:30.000Z</time>
      </trkpt>
      <trkpt lat="42.52246" lon="2.94427">
        <ele>147</ele>
        <time>2026-05-14T10:17:47.000Z</time>
      </trkpt>
      <trkpt lat="42.52246" lon="2.94428">
        <ele>147</ele>
        <time>2026-05-14T10:17:48.000Z</time>
      </trkpt>
      <trkpt lat="42.52246" lon="2.94428">
        <ele>147</ele>
        <time>2026-05-14T10:17:49.000Z</time>
      </trkpt>
      <trkpt lat="42.52246" lon="2.94428">
        <ele>147</ele>
        <time>2026-05-14T10:17:50.000Z</time>
      </trkpt>
      <trkpt lat="42.52246" lon="2.94428">
        <ele>147</ele>
        <time>2026-05-14T10:17:51.000Z</time>
      </trkpt>
      <trkpt lat="42.52247" lon="2.94428">
        <ele>148</ele>
        <time>2026-05-14T10:17:52.000Z</time>
      </trkpt>
      <trkpt lat="42.52246" lon="2.94428">
        <ele>148</ele>
        <time>2026-05-14T10:17:53.000Z</time>
      </trkpt>
      <trkpt lat="42.52246" lon="2.94428">
        <ele>148</ele>
        <time>2026-05-14T10:17:54.000Z</time>
      </trkpt>
      <trkpt lat="42.52245" lon="2.94429">
        <ele>151</ele>
        <time>2026-05-14T10:18:42.000Z</time>
      </trkpt>
      <trkpt lat="42.52245" lon="2.94428">
        <ele>151</ele>
        <time>2026-05-14T10:18:43.000Z</time>
      </trkpt>
      <trkpt lat="42.52245" lon="2.94428">
        <ele>151</ele>
        <time>2026-05-14T10:18:44.000Z</time>
      </trkpt>
      <trkpt lat="42.52245" lon="2.94427">
        <ele>151</ele>
        <time>2026-05-14T10:18:45.000Z</time>
      </trkpt>
      <trkpt lat="42.52245" lon="2.94427">
        <ele>151</ele>
        <time>2026-05-14T10:18:46.000Z</time>
      </trkpt>
      <trkpt lat="42.52245" lon="2.94428">
        <ele>152</ele>
        <time>2026-05-14T10:18:47.000Z</time>
      </trkpt>
      <trkpt lat="42.52247" lon="2.94427">
        <ele>149</ele>
        <time>2026-05-14T10:19:26.000Z</time>
      </trkpt>
      <trkpt lat="42.52247" lon="2.94428">
        <ele>149</ele>
        <time>2026-05-14T10:19:27.000Z</time>
      </trkpt>
      <trkpt lat="42.52247" lon="2.94428">
        <ele>149</ele>
        <time>2026-05-14T10:19:28.000Z</time>
      </trkpt>
      <trkpt lat="42.52248" lon="2.94429">
        <ele>149</ele>
        <time>2026-05-14T10:19:29.000Z</time>
      </trkpt>
      <trkpt lat="42.52246" lon="2.94427">
        <ele>149</ele>
        <time>2026-05-14T10:20:42.000Z</time>
      </trkpt>
      <trkpt lat="42.52247" lon="2.94426">
        <ele>149</ele>
        <time>2026-05-14T10:20:43.000Z</time>
      </trkpt>
      <trkpt lat="42.52247" lon="2.94426">
        <ele>150</ele>
        <time>2026-05-14T10:20:44.000Z</time>
      </trkpt>
    </trkseg>
  </trk>
</gpx>